<?xml version="1.0" encoding="UTF-8" standalone="no" ?>
<gpx xmlns="http://www.topografix.com/GPX/1/1" xmlns:xsi="http://www.w3.org/2001/XMLSchema-instance" xsi:schemaLocation="http://www.topografix.com/GPX/1/1 http://www.topografix.com/GPX/1/1/gpx.xsd" version="1.1" creator="VisuGPX - https://www.visugpx.com">
  <metadata>
    <name>[12/O3/2016] Tour de la forêt de Pail</name>
    <desc><![CDATA[Parcours avec de nombreux points de vues. MAGNIFIQUE.
Très difficile avec le terrain humique et collant]]></desc>
  </metadata>
  <trk>
    <name><![CDATA[[12/O3/2016] Tour de la forêt de Pail_1]]></name>
    <trkseg>
      <trkpt lat="48.34699" lon="-0.2752">
        <ele>211.823425</ele>
        <time>2016-03-12T12:41:07Z</time>
      </trkpt>
      <trkpt lat="48.34699" lon="-0.2752">
        <ele>211.823425</ele>
        <time>2016-03-12T12:41:08Z</time>
      </trkpt>
      <trkpt lat="48.34695" lon="-0.27533">
        <ele>211.7</ele>
        <time>2016-03-12T12:42:35Z</time>
      </trkpt>
      <trkpt lat="48.34705" lon="-0.27528">
        <ele>211.7</ele>
        <time>2016-03-12T12:42:41Z</time>
      </trkpt>
      <trkpt lat="48.34712" lon="-0.27517">
        <ele>211.9</ele>
        <time>2016-03-12T12:42:45Z</time>
      </trkpt>
      <trkpt lat="48.3472" lon="-0.27508">
        <ele>212.2</ele>
        <time>2016-03-12T12:42:49Z</time>
      </trkpt>
      <trkpt lat="48.3473" lon="-0.27502">
        <ele>212.7</ele>
        <time>2016-03-12T12:42:53Z</time>
      </trkpt>
      <trkpt lat="48.3474" lon="-0.27497">
        <ele>213.3</ele>
        <time>2016-03-12T12:42:57Z</time>
      </trkpt>
      <trkpt lat="48.34751" lon="-0.27494">
        <ele>213.9</ele>
        <time>2016-03-12T12:43:01Z</time>
      </trkpt>
      <trkpt lat="48.34763" lon="-0.27494">
        <ele>214.6</ele>
        <time>2016-03-12T12:43:05Z</time>
      </trkpt>
      <trkpt lat="48.34775" lon="-0.27495">
        <ele>215.4</ele>
        <time>2016-03-12T12:43:09Z</time>
      </trkpt>
      <trkpt lat="48.34784" lon="-0.27499">
        <ele>216</ele>
        <time>2016-03-12T12:43:12Z</time>
      </trkpt>
      <trkpt lat="48.34796" lon="-0.27502">
        <ele>216.9</ele>
        <time>2016-03-12T12:43:16Z</time>
      </trkpt>
      <trkpt lat="48.34805" lon="-0.27505">
        <ele>217.6</ele>
        <time>2016-03-12T12:43:19Z</time>
      </trkpt>
      <trkpt lat="48.34814" lon="-0.27508">
        <ele>218.3</ele>
        <time>2016-03-12T12:43:22Z</time>
      </trkpt>
      <trkpt lat="48.34825" lon="-0.27511">
        <ele>219.4</ele>
        <time>2016-03-12T12:43:26Z</time>
      </trkpt>
      <trkpt lat="48.34835" lon="-0.27504">
        <ele>220.5</ele>
        <time>2016-03-12T12:43:30Z</time>
      </trkpt>
      <trkpt lat="48.34839" lon="-0.27491">
        <ele>221.2</ele>
        <time>2016-03-12T12:43:33Z</time>
      </trkpt>
      <trkpt lat="48.34842" lon="-0.27475">
        <ele>221.9</ele>
        <time>2016-03-12T12:43:36Z</time>
      </trkpt>
      <trkpt lat="48.34845" lon="-0.27459">
        <ele>222.5</ele>
        <time>2016-03-12T12:43:39Z</time>
      </trkpt>
      <trkpt lat="48.34849" lon="-0.27442">
        <ele>223.1</ele>
        <time>2016-03-12T12:43:42Z</time>
      </trkpt>
      <trkpt lat="48.34854" lon="-0.27425">
        <ele>223.6</ele>
        <time>2016-03-12T12:43:45Z</time>
      </trkpt>
      <trkpt lat="48.34857" lon="-0.27408">
        <ele>224.1</ele>
        <time>2016-03-12T12:43:48Z</time>
      </trkpt>
      <trkpt lat="48.34861" lon="-0.27392">
        <ele>224.5</ele>
        <time>2016-03-12T12:43:51Z</time>
      </trkpt>
      <trkpt lat="48.34866" lon="-0.27375">
        <ele>225</ele>
        <time>2016-03-12T12:43:54Z</time>
      </trkpt>
      <trkpt lat="48.3487" lon="-0.27358">
        <ele>225.5</ele>
        <time>2016-03-12T12:43:57Z</time>
      </trkpt>
      <trkpt lat="48.34876" lon="-0.2734">
        <ele>225.9</ele>
        <time>2016-03-12T12:44:00Z</time>
      </trkpt>
      <trkpt lat="48.34881" lon="-0.27322">
        <ele>226.4</ele>
        <time>2016-03-12T12:44:03Z</time>
      </trkpt>
      <trkpt lat="48.34886" lon="-0.27311">
        <ele>226.6</ele>
        <time>2016-03-12T12:44:05Z</time>
      </trkpt>
      <trkpt lat="48.34892" lon="-0.27296">
        <ele>226.9</ele>
        <time>2016-03-12T12:44:08Z</time>
      </trkpt>
      <trkpt lat="48.34891" lon="-0.27281">
        <ele>227.3</ele>
        <time>2016-03-12T12:44:11Z</time>
      </trkpt>
      <trkpt lat="48.34896" lon="-0.27268">
        <ele>227.9</ele>
        <time>2016-03-12T12:44:19Z</time>
      </trkpt>
      <trkpt lat="48.34902" lon="-0.27259">
        <ele>228.1</ele>
        <time>2016-03-12T12:44:23Z</time>
      </trkpt>
      <trkpt lat="48.34902" lon="-0.27274">
        <ele>228.9</ele>
        <time>2016-03-12T12:44:44Z</time>
      </trkpt>
      <trkpt lat="48.34908" lon="-0.27291">
        <ele>228.9</ele>
        <time>2016-03-12T12:44:47Z</time>
      </trkpt>
      <trkpt lat="48.34913" lon="-0.27303">
        <ele>228.9</ele>
        <time>2016-03-12T12:44:49Z</time>
      </trkpt>
      <trkpt lat="48.34919" lon="-0.27315">
        <ele>228.9</ele>
        <time>2016-03-12T12:44:51Z</time>
      </trkpt>
      <trkpt lat="48.34924" lon="-0.27326">
        <ele>229</ele>
        <time>2016-03-12T12:44:53Z</time>
      </trkpt>
      <trkpt lat="48.3493" lon="-0.27337">
        <ele>229</ele>
        <time>2016-03-12T12:44:55Z</time>
      </trkpt>
      <trkpt lat="48.34937" lon="-0.27348">
        <ele>229.1</ele>
        <time>2016-03-12T12:44:57Z</time>
      </trkpt>
      <trkpt lat="48.34944" lon="-0.27359">
        <ele>229.2</ele>
        <time>2016-03-12T12:44:59Z</time>
      </trkpt>
      <trkpt lat="48.34952" lon="-0.2737">
        <ele>229.3</ele>
        <time>2016-03-12T12:45:01Z</time>
      </trkpt>
      <trkpt lat="48.34961" lon="-0.27381">
        <ele>229.3</ele>
        <time>2016-03-12T12:45:03Z</time>
      </trkpt>
      <trkpt lat="48.3497" lon="-0.27391">
        <ele>229.4</ele>
        <time>2016-03-12T12:45:05Z</time>
      </trkpt>
      <trkpt lat="48.3498" lon="-0.27402">
        <ele>229.4</ele>
        <time>2016-03-12T12:45:07Z</time>
      </trkpt>
      <trkpt lat="48.34991" lon="-0.27411">
        <ele>229.4</ele>
        <time>2016-03-12T12:45:09Z</time>
      </trkpt>
      <trkpt lat="48.35002" lon="-0.27421">
        <ele>229.4</ele>
        <time>2016-03-12T12:45:11Z</time>
      </trkpt>
      <trkpt lat="48.35013" lon="-0.27431">
        <ele>229.4</ele>
        <time>2016-03-12T12:45:13Z</time>
      </trkpt>
      <trkpt lat="48.35024" lon="-0.27443">
        <ele>229.2</ele>
        <time>2016-03-12T12:45:15Z</time>
      </trkpt>
      <trkpt lat="48.35036" lon="-0.27456">
        <ele>228.9</ele>
        <time>2016-03-12T12:45:17Z</time>
      </trkpt>
      <trkpt lat="48.35048" lon="-0.27472">
        <ele>228.5</ele>
        <time>2016-03-12T12:45:19Z</time>
      </trkpt>
      <trkpt lat="48.3506" lon="-0.2749">
        <ele>228</ele>
        <time>2016-03-12T12:45:21Z</time>
      </trkpt>
      <trkpt lat="48.35072" lon="-0.2751">
        <ele>227.5</ele>
        <time>2016-03-12T12:45:23Z</time>
      </trkpt>
      <trkpt lat="48.35078" lon="-0.27521">
        <ele>227.2</ele>
        <time>2016-03-12T12:45:24Z</time>
      </trkpt>
      <trkpt lat="48.35083" lon="-0.27533">
        <ele>226.9</ele>
        <time>2016-03-12T12:45:25Z</time>
      </trkpt>
      <trkpt lat="48.35088" lon="-0.27546">
        <ele>226.5</ele>
        <time>2016-03-12T12:45:26Z</time>
      </trkpt>
      <trkpt lat="48.35093" lon="-0.27559">
        <ele>226.2</ele>
        <time>2016-03-12T12:45:27Z</time>
      </trkpt>
      <trkpt lat="48.35097" lon="-0.27572">
        <ele>225.8</ele>
        <time>2016-03-12T12:45:28Z</time>
      </trkpt>
      <trkpt lat="48.35101" lon="-0.27586">
        <ele>225.5</ele>
        <time>2016-03-12T12:45:29Z</time>
      </trkpt>
      <trkpt lat="48.35105" lon="-0.27599">
        <ele>225</ele>
        <time>2016-03-12T12:45:30Z</time>
      </trkpt>
      <trkpt lat="48.35107" lon="-0.27612">
        <ele>224.6</ele>
        <time>2016-03-12T12:45:31Z</time>
      </trkpt>
      <trkpt lat="48.35113" lon="-0.27631">
        <ele>223.5</ele>
        <time>2016-03-12T12:45:33Z</time>
      </trkpt>
      <trkpt lat="48.35122" lon="-0.27633">
        <ele>222.5</ele>
        <time>2016-03-12T12:45:35Z</time>
      </trkpt>
      <trkpt lat="48.35132" lon="-0.27623">
        <ele>221.1</ele>
        <time>2016-03-12T12:45:38Z</time>
      </trkpt>
      <trkpt lat="48.35144" lon="-0.27613">
        <ele>220.2</ele>
        <time>2016-03-12T12:45:41Z</time>
      </trkpt>
      <trkpt lat="48.35155" lon="-0.27604">
        <ele>219.6</ele>
        <time>2016-03-12T12:45:44Z</time>
      </trkpt>
      <trkpt lat="48.35165" lon="-0.27594">
        <ele>219.2</ele>
        <time>2016-03-12T12:45:47Z</time>
      </trkpt>
      <trkpt lat="48.35175" lon="-0.27583">
        <ele>219</ele>
        <time>2016-03-12T12:45:50Z</time>
      </trkpt>
      <trkpt lat="48.35183" lon="-0.2757">
        <ele>219.1</ele>
        <time>2016-03-12T12:45:53Z</time>
      </trkpt>
      <trkpt lat="48.3519" lon="-0.27555">
        <ele>219.2</ele>
        <time>2016-03-12T12:45:56Z</time>
      </trkpt>
      <trkpt lat="48.35197" lon="-0.27542">
        <ele>219.7</ele>
        <time>2016-03-12T12:45:59Z</time>
      </trkpt>
      <trkpt lat="48.35203" lon="-0.27528">
        <ele>220.1</ele>
        <time>2016-03-12T12:46:02Z</time>
      </trkpt>
      <trkpt lat="48.35209" lon="-0.27513">
        <ele>220.6</ele>
        <time>2016-03-12T12:46:05Z</time>
      </trkpt>
      <trkpt lat="48.35215" lon="-0.27499">
        <ele>221.2</ele>
        <time>2016-03-12T12:46:08Z</time>
      </trkpt>
      <trkpt lat="48.35221" lon="-0.27484">
        <ele>221.8</ele>
        <time>2016-03-12T12:46:11Z</time>
      </trkpt>
      <trkpt lat="48.35227" lon="-0.27468">
        <ele>222.5</ele>
        <time>2016-03-12T12:46:14Z</time>
      </trkpt>
      <trkpt lat="48.35233" lon="-0.27452">
        <ele>223.1</ele>
        <time>2016-03-12T12:46:17Z</time>
      </trkpt>
      <trkpt lat="48.35239" lon="-0.27435">
        <ele>223.8</ele>
        <time>2016-03-12T12:46:20Z</time>
      </trkpt>
      <trkpt lat="48.35246" lon="-0.27418">
        <ele>224.4</ele>
        <time>2016-03-12T12:46:23Z</time>
      </trkpt>
      <trkpt lat="48.35251" lon="-0.27406">
        <ele>224.8</ele>
        <time>2016-03-12T12:46:25Z</time>
      </trkpt>
      <trkpt lat="48.35256" lon="-0.27394">
        <ele>225.2</ele>
        <time>2016-03-12T12:46:27Z</time>
      </trkpt>
      <trkpt lat="48.35262" lon="-0.27383">
        <ele>225.6</ele>
        <time>2016-03-12T12:46:29Z</time>
      </trkpt>
      <trkpt lat="48.35268" lon="-0.27371">
        <ele>225.9</ele>
        <time>2016-03-12T12:46:31Z</time>
      </trkpt>
      <trkpt lat="48.35276" lon="-0.27355">
        <ele>226.5</ele>
        <time>2016-03-12T12:46:34Z</time>
      </trkpt>
      <trkpt lat="48.35285" lon="-0.2734">
        <ele>227.1</ele>
        <time>2016-03-12T12:46:37Z</time>
      </trkpt>
      <trkpt lat="48.35293" lon="-0.27325">
        <ele>227.6</ele>
        <time>2016-03-12T12:46:40Z</time>
      </trkpt>
      <trkpt lat="48.35301" lon="-0.27312">
        <ele>228.1</ele>
        <time>2016-03-12T12:46:43Z</time>
      </trkpt>
      <trkpt lat="48.35308" lon="-0.27297">
        <ele>228.6</ele>
        <time>2016-03-12T12:46:46Z</time>
      </trkpt>
      <trkpt lat="48.35312" lon="-0.27284">
        <ele>229</ele>
        <time>2016-03-12T12:46:49Z</time>
      </trkpt>
      <trkpt lat="48.35316" lon="-0.27272">
        <ele>229.4</ele>
        <time>2016-03-12T12:46:52Z</time>
      </trkpt>
      <trkpt lat="48.35323" lon="-0.27258">
        <ele>229.7</ele>
        <time>2016-03-12T12:46:55Z</time>
      </trkpt>
      <trkpt lat="48.3533" lon="-0.27245">
        <ele>229.9</ele>
        <time>2016-03-12T12:46:58Z</time>
      </trkpt>
      <trkpt lat="48.35337" lon="-0.27231">
        <ele>230.1</ele>
        <time>2016-03-12T12:47:01Z</time>
      </trkpt>
      <trkpt lat="48.35344" lon="-0.27217">
        <ele>230.1</ele>
        <time>2016-03-12T12:47:04Z</time>
      </trkpt>
      <trkpt lat="48.35351" lon="-0.27203">
        <ele>230.1</ele>
        <time>2016-03-12T12:47:07Z</time>
      </trkpt>
      <trkpt lat="48.35357" lon="-0.27189">
        <ele>230.1</ele>
        <time>2016-03-12T12:47:10Z</time>
      </trkpt>
      <trkpt lat="48.35364" lon="-0.27175">
        <ele>230.1</ele>
        <time>2016-03-12T12:47:13Z</time>
      </trkpt>
      <trkpt lat="48.35372" lon="-0.27161">
        <ele>230.1</ele>
        <time>2016-03-12T12:47:16Z</time>
      </trkpt>
      <trkpt lat="48.3538" lon="-0.27146">
        <ele>230.1</ele>
        <time>2016-03-12T12:47:19Z</time>
      </trkpt>
      <trkpt lat="48.35387" lon="-0.27132">
        <ele>230.2</ele>
        <time>2016-03-12T12:47:22Z</time>
      </trkpt>
      <trkpt lat="48.35394" lon="-0.27119">
        <ele>230.3</ele>
        <time>2016-03-12T12:47:25Z</time>
      </trkpt>
      <trkpt lat="48.354" lon="-0.27106">
        <ele>230.3</ele>
        <time>2016-03-12T12:47:28Z</time>
      </trkpt>
      <trkpt lat="48.35407" lon="-0.27094">
        <ele>230.4</ele>
        <time>2016-03-12T12:47:31Z</time>
      </trkpt>
      <trkpt lat="48.35414" lon="-0.27083">
        <ele>230.6</ele>
        <time>2016-03-12T12:47:34Z</time>
      </trkpt>
      <trkpt lat="48.3542" lon="-0.27071">
        <ele>230.9</ele>
        <time>2016-03-12T12:47:38Z</time>
      </trkpt>
      <trkpt lat="48.35426" lon="-0.27058">
        <ele>231.2</ele>
        <time>2016-03-12T12:47:42Z</time>
      </trkpt>
      <trkpt lat="48.35433" lon="-0.27046">
        <ele>231.5</ele>
        <time>2016-03-12T12:47:46Z</time>
      </trkpt>
      <trkpt lat="48.35442" lon="-0.27041">
        <ele>231.8</ele>
        <time>2016-03-12T12:47:50Z</time>
      </trkpt>
      <trkpt lat="48.35451" lon="-0.27051">
        <ele>232.1</ele>
        <time>2016-03-12T12:47:54Z</time>
      </trkpt>
      <trkpt lat="48.3546" lon="-0.27064">
        <ele>232.3</ele>
        <time>2016-03-12T12:47:57Z</time>
      </trkpt>
      <trkpt lat="48.35469" lon="-0.27076">
        <ele>232.3</ele>
        <time>2016-03-12T12:48:00Z</time>
      </trkpt>
      <trkpt lat="48.35479" lon="-0.27089">
        <ele>232.1</ele>
        <time>2016-03-12T12:48:03Z</time>
      </trkpt>
      <trkpt lat="48.3549" lon="-0.271">
        <ele>232</ele>
        <time>2016-03-12T12:48:06Z</time>
      </trkpt>
      <trkpt lat="48.35501" lon="-0.27111">
        <ele>231.8</ele>
        <time>2016-03-12T12:48:09Z</time>
      </trkpt>
      <trkpt lat="48.3551" lon="-0.2711">
        <ele>231.5</ele>
        <time>2016-03-12T12:48:13Z</time>
      </trkpt>
      <trkpt lat="48.35516" lon="-0.271">
        <ele>231.1</ele>
        <time>2016-03-12T12:48:18Z</time>
      </trkpt>
      <trkpt lat="48.35523" lon="-0.2709">
        <ele>230.8</ele>
        <time>2016-03-12T12:48:22Z</time>
      </trkpt>
      <trkpt lat="48.35531" lon="-0.27081">
        <ele>230.8</ele>
        <time>2016-03-12T12:48:25Z</time>
      </trkpt>
      <trkpt lat="48.35537" lon="-0.27072">
        <ele>230.7</ele>
        <time>2016-03-12T12:48:28Z</time>
      </trkpt>
      <trkpt lat="48.35547" lon="-0.2706">
        <ele>230.7</ele>
        <time>2016-03-12T12:48:32Z</time>
      </trkpt>
      <trkpt lat="48.35553" lon="-0.27051">
        <ele>230.7</ele>
        <time>2016-03-12T12:48:35Z</time>
      </trkpt>
      <trkpt lat="48.3556" lon="-0.2704">
        <ele>230.9</ele>
        <time>2016-03-12T12:48:38Z</time>
      </trkpt>
      <trkpt lat="48.35568" lon="-0.2703">
        <ele>230.9</ele>
        <time>2016-03-12T12:48:41Z</time>
      </trkpt>
      <trkpt lat="48.35575" lon="-0.27021">
        <ele>231</ele>
        <time>2016-03-12T12:48:44Z</time>
      </trkpt>
      <trkpt lat="48.35582" lon="-0.27012">
        <ele>231.1</ele>
        <time>2016-03-12T12:48:47Z</time>
      </trkpt>
      <trkpt lat="48.35588" lon="-0.27002">
        <ele>231.2</ele>
        <time>2016-03-12T12:48:50Z</time>
      </trkpt>
      <trkpt lat="48.35595" lon="-0.26993">
        <ele>231.4</ele>
        <time>2016-03-12T12:48:53Z</time>
      </trkpt>
      <trkpt lat="48.35602" lon="-0.26984">
        <ele>231.7</ele>
        <time>2016-03-12T12:48:56Z</time>
      </trkpt>
      <trkpt lat="48.35609" lon="-0.26974">
        <ele>232.1</ele>
        <time>2016-03-12T12:48:59Z</time>
      </trkpt>
      <trkpt lat="48.35615" lon="-0.26964">
        <ele>232.4</ele>
        <time>2016-03-12T12:49:02Z</time>
      </trkpt>
      <trkpt lat="48.35622" lon="-0.26954">
        <ele>232.7</ele>
        <time>2016-03-12T12:49:05Z</time>
      </trkpt>
      <trkpt lat="48.3563" lon="-0.26944">
        <ele>233</ele>
        <time>2016-03-12T12:49:09Z</time>
      </trkpt>
      <trkpt lat="48.3564" lon="-0.26944">
        <ele>233.4</ele>
        <time>2016-03-12T12:49:15Z</time>
      </trkpt>
      <trkpt lat="48.3565" lon="-0.26949">
        <ele>233.6</ele>
        <time>2016-03-12T12:49:19Z</time>
      </trkpt>
      <trkpt lat="48.35662" lon="-0.26953">
        <ele>233.8</ele>
        <time>2016-03-12T12:49:22Z</time>
      </trkpt>
      <trkpt lat="48.35675" lon="-0.26955">
        <ele>234</ele>
        <time>2016-03-12T12:49:25Z</time>
      </trkpt>
      <trkpt lat="48.35689" lon="-0.26957">
        <ele>234.2</ele>
        <time>2016-03-12T12:49:28Z</time>
      </trkpt>
      <trkpt lat="48.35698" lon="-0.26957">
        <ele>234.3</ele>
        <time>2016-03-12T12:49:30Z</time>
      </trkpt>
      <trkpt lat="48.35707" lon="-0.26958">
        <ele>234.5</ele>
        <time>2016-03-12T12:49:32Z</time>
      </trkpt>
      <trkpt lat="48.35716" lon="-0.26959">
        <ele>234.6</ele>
        <time>2016-03-12T12:49:34Z</time>
      </trkpt>
      <trkpt lat="48.35725" lon="-0.26961">
        <ele>234.7</ele>
        <time>2016-03-12T12:49:36Z</time>
      </trkpt>
      <trkpt lat="48.35734" lon="-0.26963">
        <ele>234.9</ele>
        <time>2016-03-12T12:49:38Z</time>
      </trkpt>
      <trkpt lat="48.35743" lon="-0.26966">
        <ele>235</ele>
        <time>2016-03-12T12:49:40Z</time>
      </trkpt>
      <trkpt lat="48.35752" lon="-0.2697">
        <ele>235.1</ele>
        <time>2016-03-12T12:49:42Z</time>
      </trkpt>
      <trkpt lat="48.35762" lon="-0.26973">
        <ele>235.1</ele>
        <time>2016-03-12T12:49:44Z</time>
      </trkpt>
      <trkpt lat="48.35771" lon="-0.26976">
        <ele>235.2</ele>
        <time>2016-03-12T12:49:46Z</time>
      </trkpt>
      <trkpt lat="48.3578" lon="-0.26979">
        <ele>235.3</ele>
        <time>2016-03-12T12:49:48Z</time>
      </trkpt>
      <trkpt lat="48.3579" lon="-0.26981">
        <ele>235.4</ele>
        <time>2016-03-12T12:49:50Z</time>
      </trkpt>
      <trkpt lat="48.358" lon="-0.26982">
        <ele>235.6</ele>
        <time>2016-03-12T12:49:52Z</time>
      </trkpt>
      <trkpt lat="48.3581" lon="-0.26982">
        <ele>235.7</ele>
        <time>2016-03-12T12:49:54Z</time>
      </trkpt>
      <trkpt lat="48.35821" lon="-0.26983">
        <ele>235.8</ele>
        <time>2016-03-12T12:49:56Z</time>
      </trkpt>
      <trkpt lat="48.35832" lon="-0.26984">
        <ele>235.8</ele>
        <time>2016-03-12T12:49:58Z</time>
      </trkpt>
      <trkpt lat="48.35843" lon="-0.26985">
        <ele>236</ele>
        <time>2016-03-12T12:50:00Z</time>
      </trkpt>
      <trkpt lat="48.35855" lon="-0.26987">
        <ele>236.1</ele>
        <time>2016-03-12T12:50:02Z</time>
      </trkpt>
      <trkpt lat="48.35867" lon="-0.2699">
        <ele>236.2</ele>
        <time>2016-03-12T12:50:04Z</time>
      </trkpt>
      <trkpt lat="48.3588" lon="-0.26993">
        <ele>236.2</ele>
        <time>2016-03-12T12:50:06Z</time>
      </trkpt>
      <trkpt lat="48.35894" lon="-0.26996">
        <ele>236.1</ele>
        <time>2016-03-12T12:50:08Z</time>
      </trkpt>
      <trkpt lat="48.35909" lon="-0.2699">
        <ele>235.9</ele>
        <time>2016-03-12T12:50:10Z</time>
      </trkpt>
      <trkpt lat="48.35923" lon="-0.26975">
        <ele>235.6</ele>
        <time>2016-03-12T12:50:12Z</time>
      </trkpt>
      <trkpt lat="48.35936" lon="-0.26957">
        <ele>235.3</ele>
        <time>2016-03-12T12:50:14Z</time>
      </trkpt>
      <trkpt lat="48.35952" lon="-0.26945">
        <ele>234.8</ele>
        <time>2016-03-12T12:50:16Z</time>
      </trkpt>
      <trkpt lat="48.35969" lon="-0.2694">
        <ele>234.2</ele>
        <time>2016-03-12T12:50:18Z</time>
      </trkpt>
      <trkpt lat="48.35986" lon="-0.26935">
        <ele>233.6</ele>
        <time>2016-03-12T12:50:20Z</time>
      </trkpt>
      <trkpt lat="48.36003" lon="-0.26931">
        <ele>233</ele>
        <time>2016-03-12T12:50:22Z</time>
      </trkpt>
      <trkpt lat="48.36019" lon="-0.26929">
        <ele>232.4</ele>
        <time>2016-03-12T12:50:24Z</time>
      </trkpt>
      <trkpt lat="48.36037" lon="-0.26928">
        <ele>231.6</ele>
        <time>2016-03-12T12:50:26Z</time>
      </trkpt>
      <trkpt lat="48.36054" lon="-0.2693">
        <ele>230.9</ele>
        <time>2016-03-12T12:50:28Z</time>
      </trkpt>
      <trkpt lat="48.3607" lon="-0.2694">
        <ele>230.1</ele>
        <time>2016-03-12T12:50:30Z</time>
      </trkpt>
      <trkpt lat="48.36082" lon="-0.2696">
        <ele>229.2</ele>
        <time>2016-03-12T12:50:32Z</time>
      </trkpt>
      <trkpt lat="48.36095" lon="-0.26977">
        <ele>228.4</ele>
        <time>2016-03-12T12:50:34Z</time>
      </trkpt>
      <trkpt lat="48.3611" lon="-0.26989">
        <ele>227.6</ele>
        <time>2016-03-12T12:50:36Z</time>
      </trkpt>
      <trkpt lat="48.36125" lon="-0.26998">
        <ele>227</ele>
        <time>2016-03-12T12:50:38Z</time>
      </trkpt>
      <trkpt lat="48.36141" lon="-0.27006">
        <ele>226.4</ele>
        <time>2016-03-12T12:50:40Z</time>
      </trkpt>
      <trkpt lat="48.36156" lon="-0.27012">
        <ele>225.8</ele>
        <time>2016-03-12T12:50:42Z</time>
      </trkpt>
      <trkpt lat="48.3617" lon="-0.27016">
        <ele>225.4</ele>
        <time>2016-03-12T12:50:44Z</time>
      </trkpt>
      <trkpt lat="48.36184" lon="-0.27019">
        <ele>225</ele>
        <time>2016-03-12T12:50:46Z</time>
      </trkpt>
      <trkpt lat="48.36197" lon="-0.27022">
        <ele>224.6</ele>
        <time>2016-03-12T12:50:48Z</time>
      </trkpt>
      <trkpt lat="48.36209" lon="-0.27023">
        <ele>224.3</ele>
        <time>2016-03-12T12:50:50Z</time>
      </trkpt>
      <trkpt lat="48.3622" lon="-0.27024">
        <ele>224.2</ele>
        <time>2016-03-12T12:50:52Z</time>
      </trkpt>
      <trkpt lat="48.3623" lon="-0.27025">
        <ele>224.2</ele>
        <time>2016-03-12T12:50:54Z</time>
      </trkpt>
      <trkpt lat="48.3624" lon="-0.27025">
        <ele>224.2</ele>
        <time>2016-03-12T12:50:56Z</time>
      </trkpt>
      <trkpt lat="48.36249" lon="-0.27025">
        <ele>224.3</ele>
        <time>2016-03-12T12:50:58Z</time>
      </trkpt>
      <trkpt lat="48.36262" lon="-0.27026">
        <ele>224.4</ele>
        <time>2016-03-12T12:51:01Z</time>
      </trkpt>
      <trkpt lat="48.36275" lon="-0.27026">
        <ele>224.5</ele>
        <time>2016-03-12T12:51:04Z</time>
      </trkpt>
      <trkpt lat="48.36287" lon="-0.27026">
        <ele>224.7</ele>
        <time>2016-03-12T12:51:07Z</time>
      </trkpt>
      <trkpt lat="48.36301" lon="-0.27023">
        <ele>225</ele>
        <time>2016-03-12T12:51:10Z</time>
      </trkpt>
      <trkpt lat="48.36309" lon="-0.27018">
        <ele>225.1</ele>
        <time>2016-03-12T12:51:12Z</time>
      </trkpt>
      <trkpt lat="48.36317" lon="-0.2701">
        <ele>225.3</ele>
        <time>2016-03-12T12:51:14Z</time>
      </trkpt>
      <trkpt lat="48.36325" lon="-0.27">
        <ele>225.5</ele>
        <time>2016-03-12T12:51:16Z</time>
      </trkpt>
      <trkpt lat="48.36333" lon="-0.26989">
        <ele>225.6</ele>
        <time>2016-03-12T12:51:18Z</time>
      </trkpt>
      <trkpt lat="48.36341" lon="-0.26979">
        <ele>225.8</ele>
        <time>2016-03-12T12:51:20Z</time>
      </trkpt>
      <trkpt lat="48.3635" lon="-0.2697">
        <ele>225.9</ele>
        <time>2016-03-12T12:51:22Z</time>
      </trkpt>
      <trkpt lat="48.3636" lon="-0.26961">
        <ele>226</ele>
        <time>2016-03-12T12:51:24Z</time>
      </trkpt>
      <trkpt lat="48.3637" lon="-0.26953">
        <ele>226.1</ele>
        <time>2016-03-12T12:51:26Z</time>
      </trkpt>
      <trkpt lat="48.3638" lon="-0.26946">
        <ele>226.1</ele>
        <time>2016-03-12T12:51:28Z</time>
      </trkpt>
      <trkpt lat="48.3639" lon="-0.26938">
        <ele>226.2</ele>
        <time>2016-03-12T12:51:30Z</time>
      </trkpt>
      <trkpt lat="48.36401" lon="-0.2693">
        <ele>226.3</ele>
        <time>2016-03-12T12:51:32Z</time>
      </trkpt>
      <trkpt lat="48.36411" lon="-0.26923">
        <ele>226.3</ele>
        <time>2016-03-12T12:51:34Z</time>
      </trkpt>
      <trkpt lat="48.36421" lon="-0.26917">
        <ele>226.4</ele>
        <time>2016-03-12T12:51:36Z</time>
      </trkpt>
      <trkpt lat="48.3643" lon="-0.26906">
        <ele>226.4</ele>
        <time>2016-03-12T12:51:39Z</time>
      </trkpt>
      <trkpt lat="48.36428" lon="-0.26892">
        <ele>226.3</ele>
        <time>2016-03-12T12:51:42Z</time>
      </trkpt>
      <trkpt lat="48.36423" lon="-0.26878">
        <ele>226.1</ele>
        <time>2016-03-12T12:51:45Z</time>
      </trkpt>
      <trkpt lat="48.36417" lon="-0.26862">
        <ele>225.9</ele>
        <time>2016-03-12T12:51:48Z</time>
      </trkpt>
      <trkpt lat="48.36411" lon="-0.26846">
        <ele>225.8</ele>
        <time>2016-03-12T12:51:51Z</time>
      </trkpt>
      <trkpt lat="48.36406" lon="-0.26831">
        <ele>225.7</ele>
        <time>2016-03-12T12:51:54Z</time>
      </trkpt>
      <trkpt lat="48.36405" lon="-0.26816">
        <ele>225.6</ele>
        <time>2016-03-12T12:51:57Z</time>
      </trkpt>
      <trkpt lat="48.36404" lon="-0.26802">
        <ele>225.3</ele>
        <time>2016-03-12T12:52:00Z</time>
      </trkpt>
      <trkpt lat="48.36404" lon="-0.26788">
        <ele>225.1</ele>
        <time>2016-03-12T12:52:03Z</time>
      </trkpt>
      <trkpt lat="48.36406" lon="-0.26775">
        <ele>224.8</ele>
        <time>2016-03-12T12:52:06Z</time>
      </trkpt>
      <trkpt lat="48.36411" lon="-0.26762">
        <ele>224.6</ele>
        <time>2016-03-12T12:52:10Z</time>
      </trkpt>
      <trkpt lat="48.3642" lon="-0.26755">
        <ele>224.4</ele>
        <time>2016-03-12T12:52:14Z</time>
      </trkpt>
      <trkpt lat="48.36428" lon="-0.26747">
        <ele>224.3</ele>
        <time>2016-03-12T12:52:17Z</time>
      </trkpt>
      <trkpt lat="48.36436" lon="-0.26737">
        <ele>224.2</ele>
        <time>2016-03-12T12:52:20Z</time>
      </trkpt>
      <trkpt lat="48.36443" lon="-0.26727">
        <ele>224.1</ele>
        <time>2016-03-12T12:52:23Z</time>
      </trkpt>
      <trkpt lat="48.36451" lon="-0.26715">
        <ele>224</ele>
        <time>2016-03-12T12:52:26Z</time>
      </trkpt>
      <trkpt lat="48.36462" lon="-0.26704">
        <ele>224</ele>
        <time>2016-03-12T12:52:29Z</time>
      </trkpt>
      <trkpt lat="48.3647" lon="-0.26698">
        <ele>224</ele>
        <time>2016-03-12T12:52:31Z</time>
      </trkpt>
      <trkpt lat="48.36479" lon="-0.26692">
        <ele>223.9</ele>
        <time>2016-03-12T12:52:33Z</time>
      </trkpt>
      <trkpt lat="48.36488" lon="-0.26686">
        <ele>223.9</ele>
        <time>2016-03-12T12:52:35Z</time>
      </trkpt>
      <trkpt lat="48.36498" lon="-0.26677">
        <ele>223.8</ele>
        <time>2016-03-12T12:52:38Z</time>
      </trkpt>
      <trkpt lat="48.36506" lon="-0.26671">
        <ele>223.7</ele>
        <time>2016-03-12T12:52:40Z</time>
      </trkpt>
      <trkpt lat="48.36517" lon="-0.26661">
        <ele>223.8</ele>
        <time>2016-03-12T12:52:43Z</time>
      </trkpt>
      <trkpt lat="48.36523" lon="-0.26649">
        <ele>223.9</ele>
        <time>2016-03-12T12:52:48Z</time>
      </trkpt>
      <trkpt lat="48.36529" lon="-0.26636">
        <ele>223.9</ele>
        <time>2016-03-12T12:52:51Z</time>
      </trkpt>
      <trkpt lat="48.36536" lon="-0.26622">
        <ele>224.1</ele>
        <time>2016-03-12T12:52:54Z</time>
      </trkpt>
      <trkpt lat="48.36542" lon="-0.26608">
        <ele>224.3</ele>
        <time>2016-03-12T12:52:57Z</time>
      </trkpt>
      <trkpt lat="48.36548" lon="-0.26594">
        <ele>224.5</ele>
        <time>2016-03-12T12:53:00Z</time>
      </trkpt>
      <trkpt lat="48.36556" lon="-0.2658">
        <ele>224.7</ele>
        <time>2016-03-12T12:53:03Z</time>
      </trkpt>
      <trkpt lat="48.36563" lon="-0.26566">
        <ele>225</ele>
        <time>2016-03-12T12:53:06Z</time>
      </trkpt>
      <trkpt lat="48.3657" lon="-0.26554">
        <ele>225.2</ele>
        <time>2016-03-12T12:53:09Z</time>
      </trkpt>
      <trkpt lat="48.3658" lon="-0.26543">
        <ele>225.5</ele>
        <time>2016-03-12T12:53:12Z</time>
      </trkpt>
      <trkpt lat="48.36588" lon="-0.26535">
        <ele>225.8</ele>
        <time>2016-03-12T12:53:15Z</time>
      </trkpt>
      <trkpt lat="48.36597" lon="-0.26528">
        <ele>226</ele>
        <time>2016-03-12T12:53:18Z</time>
      </trkpt>
      <trkpt lat="48.36607" lon="-0.26518">
        <ele>226.2</ele>
        <time>2016-03-12T12:53:21Z</time>
      </trkpt>
      <trkpt lat="48.36616" lon="-0.2651">
        <ele>226.6</ele>
        <time>2016-03-12T12:53:24Z</time>
      </trkpt>
      <trkpt lat="48.36628" lon="-0.26501">
        <ele>227</ele>
        <time>2016-03-12T12:53:27Z</time>
      </trkpt>
      <trkpt lat="48.36638" lon="-0.26494">
        <ele>227.3</ele>
        <time>2016-03-12T12:53:30Z</time>
      </trkpt>
      <trkpt lat="48.36648" lon="-0.26486">
        <ele>227.7</ele>
        <time>2016-03-12T12:53:34Z</time>
      </trkpt>
      <trkpt lat="48.36658" lon="-0.2648">
        <ele>228.1</ele>
        <time>2016-03-12T12:53:37Z</time>
      </trkpt>
      <trkpt lat="48.36668" lon="-0.26475">
        <ele>228.4</ele>
        <time>2016-03-12T12:53:40Z</time>
      </trkpt>
      <trkpt lat="48.36679" lon="-0.26469">
        <ele>228.7</ele>
        <time>2016-03-12T12:53:43Z</time>
      </trkpt>
      <trkpt lat="48.36689" lon="-0.2646">
        <ele>229</ele>
        <time>2016-03-12T12:53:46Z</time>
      </trkpt>
      <trkpt lat="48.36698" lon="-0.26451">
        <ele>229.2</ele>
        <time>2016-03-12T12:53:49Z</time>
      </trkpt>
      <trkpt lat="48.36708" lon="-0.26439">
        <ele>229.6</ele>
        <time>2016-03-12T12:53:52Z</time>
      </trkpt>
      <trkpt lat="48.36716" lon="-0.26425">
        <ele>229.9</ele>
        <time>2016-03-12T12:53:55Z</time>
      </trkpt>
      <trkpt lat="48.36725" lon="-0.26411">
        <ele>230.1</ele>
        <time>2016-03-12T12:53:58Z</time>
      </trkpt>
      <trkpt lat="48.36734" lon="-0.26397">
        <ele>230.4</ele>
        <time>2016-03-12T12:54:01Z</time>
      </trkpt>
      <trkpt lat="48.36741" lon="-0.26384">
        <ele>230.6</ele>
        <time>2016-03-12T12:54:04Z</time>
      </trkpt>
      <trkpt lat="48.36748" lon="-0.26368">
        <ele>230.9</ele>
        <time>2016-03-12T12:54:07Z</time>
      </trkpt>
      <trkpt lat="48.36755" lon="-0.26353">
        <ele>231.2</ele>
        <time>2016-03-12T12:54:10Z</time>
      </trkpt>
      <trkpt lat="48.36763" lon="-0.26338">
        <ele>231.4</ele>
        <time>2016-03-12T12:54:13Z</time>
      </trkpt>
      <trkpt lat="48.36772" lon="-0.26323">
        <ele>231.5</ele>
        <time>2016-03-12T12:54:16Z</time>
      </trkpt>
      <trkpt lat="48.36778" lon="-0.26313">
        <ele>231.6</ele>
        <time>2016-03-12T12:54:18Z</time>
      </trkpt>
      <trkpt lat="48.36785" lon="-0.26297">
        <ele>231.6</ele>
        <time>2016-03-12T12:54:21Z</time>
      </trkpt>
      <trkpt lat="48.36791" lon="-0.26286">
        <ele>231.6</ele>
        <time>2016-03-12T12:54:23Z</time>
      </trkpt>
      <trkpt lat="48.36799" lon="-0.26271">
        <ele>231.6</ele>
        <time>2016-03-12T12:54:26Z</time>
      </trkpt>
      <trkpt lat="48.36805" lon="-0.26256">
        <ele>231.6</ele>
        <time>2016-03-12T12:54:29Z</time>
      </trkpt>
      <trkpt lat="48.36811" lon="-0.26243">
        <ele>231.5</ele>
        <time>2016-03-12T12:54:32Z</time>
      </trkpt>
      <trkpt lat="48.36818" lon="-0.26232">
        <ele>231.5</ele>
        <time>2016-03-12T12:54:34Z</time>
      </trkpt>
      <trkpt lat="48.36824" lon="-0.26219">
        <ele>231.5</ele>
        <time>2016-03-12T12:54:36Z</time>
      </trkpt>
      <trkpt lat="48.3683" lon="-0.26205">
        <ele>231.5</ele>
        <time>2016-03-12T12:54:38Z</time>
      </trkpt>
      <trkpt lat="48.36837" lon="-0.26192">
        <ele>231.5</ele>
        <time>2016-03-12T12:54:40Z</time>
      </trkpt>
      <trkpt lat="48.36844" lon="-0.26178">
        <ele>231.5</ele>
        <time>2016-03-12T12:54:42Z</time>
      </trkpt>
      <trkpt lat="48.36853" lon="-0.26166">
        <ele>231.5</ele>
        <time>2016-03-12T12:54:44Z</time>
      </trkpt>
      <trkpt lat="48.36861" lon="-0.26156">
        <ele>231.4</ele>
        <time>2016-03-12T12:54:46Z</time>
      </trkpt>
      <trkpt lat="48.3687" lon="-0.26146">
        <ele>231.4</ele>
        <time>2016-03-12T12:54:48Z</time>
      </trkpt>
      <trkpt lat="48.36878" lon="-0.26136">
        <ele>231.3</ele>
        <time>2016-03-12T12:54:50Z</time>
      </trkpt>
      <trkpt lat="48.36885" lon="-0.26126">
        <ele>231.2</ele>
        <time>2016-03-12T12:54:52Z</time>
      </trkpt>
      <trkpt lat="48.36896" lon="-0.26121">
        <ele>231.1</ele>
        <time>2016-03-12T12:54:55Z</time>
      </trkpt>
      <trkpt lat="48.36904" lon="-0.26132">
        <ele>230.9</ele>
        <time>2016-03-12T12:54:58Z</time>
      </trkpt>
      <trkpt lat="48.36912" lon="-0.26143">
        <ele>230.8</ele>
        <time>2016-03-12T12:55:01Z</time>
      </trkpt>
      <trkpt lat="48.36918" lon="-0.26153">
        <ele>230.3</ele>
        <time>2016-03-12T12:55:04Z</time>
      </trkpt>
      <trkpt lat="48.36926" lon="-0.26165">
        <ele>229.8</ele>
        <time>2016-03-12T12:55:08Z</time>
      </trkpt>
      <trkpt lat="48.36934" lon="-0.26175">
        <ele>229.6</ele>
        <time>2016-03-12T12:55:12Z</time>
      </trkpt>
      <trkpt lat="48.36942" lon="-0.26184">
        <ele>229.7</ele>
        <time>2016-03-12T12:55:15Z</time>
      </trkpt>
      <trkpt lat="48.3695" lon="-0.26189">
        <ele>229.8</ele>
        <time>2016-03-12T12:55:19Z</time>
      </trkpt>
      <trkpt lat="48.36959" lon="-0.26189">
        <ele>229.8</ele>
        <time>2016-03-12T12:55:25Z</time>
      </trkpt>
      <trkpt lat="48.36969" lon="-0.2619">
        <ele>229.9</ele>
        <time>2016-03-12T12:55:30Z</time>
      </trkpt>
      <trkpt lat="48.36979" lon="-0.26191">
        <ele>230</ele>
        <time>2016-03-12T12:55:34Z</time>
      </trkpt>
      <trkpt lat="48.3699" lon="-0.26192">
        <ele>230.4</ele>
        <time>2016-03-12T12:55:40Z</time>
      </trkpt>
      <trkpt lat="48.36999" lon="-0.26193">
        <ele>230.8</ele>
        <time>2016-03-12T12:55:44Z</time>
      </trkpt>
      <trkpt lat="48.37009" lon="-0.26194">
        <ele>231.4</ele>
        <time>2016-03-12T12:55:50Z</time>
      </trkpt>
      <trkpt lat="48.37019" lon="-0.26196">
        <ele>231.7</ele>
        <time>2016-03-12T12:55:54Z</time>
      </trkpt>
      <trkpt lat="48.37028" lon="-0.26197">
        <ele>231.9</ele>
        <time>2016-03-12T12:55:58Z</time>
      </trkpt>
      <trkpt lat="48.37037" lon="-0.26193">
        <ele>232.1</ele>
        <time>2016-03-12T12:56:02Z</time>
      </trkpt>
      <trkpt lat="48.37047" lon="-0.26189">
        <ele>232.3</ele>
        <time>2016-03-12T12:56:06Z</time>
      </trkpt>
      <trkpt lat="48.37057" lon="-0.26184">
        <ele>232.4</ele>
        <time>2016-03-12T12:56:10Z</time>
      </trkpt>
      <trkpt lat="48.37066" lon="-0.26182">
        <ele>232.5</ele>
        <time>2016-03-12T12:56:14Z</time>
      </trkpt>
      <trkpt lat="48.37066" lon="-0.26197">
        <ele>233.2</ele>
        <time>2016-03-12T12:56:27Z</time>
      </trkpt>
      <trkpt lat="48.37058" lon="-0.26203">
        <ele>233.3</ele>
        <time>2016-03-12T12:56:30Z</time>
      </trkpt>
      <trkpt lat="48.37065" lon="-0.26214">
        <ele>233.5</ele>
        <time>2016-03-12T12:56:34Z</time>
      </trkpt>
      <trkpt lat="48.37076" lon="-0.26216">
        <ele>233.6</ele>
        <time>2016-03-12T12:56:37Z</time>
      </trkpt>
      <trkpt lat="48.37088" lon="-0.26218">
        <ele>233.7</ele>
        <time>2016-03-12T12:56:40Z</time>
      </trkpt>
      <trkpt lat="48.371" lon="-0.26219">
        <ele>233.7</ele>
        <time>2016-03-12T12:56:43Z</time>
      </trkpt>
      <trkpt lat="48.37112" lon="-0.2622">
        <ele>233.8</ele>
        <time>2016-03-12T12:56:46Z</time>
      </trkpt>
      <trkpt lat="48.37124" lon="-0.26221">
        <ele>233.8</ele>
        <time>2016-03-12T12:56:49Z</time>
      </trkpt>
      <trkpt lat="48.37135" lon="-0.26221">
        <ele>233.9</ele>
        <time>2016-03-12T12:56:52Z</time>
      </trkpt>
      <trkpt lat="48.37147" lon="-0.26221">
        <ele>233.9</ele>
        <time>2016-03-12T12:56:55Z</time>
      </trkpt>
      <trkpt lat="48.37158" lon="-0.26219">
        <ele>234</ele>
        <time>2016-03-12T12:56:58Z</time>
      </trkpt>
      <trkpt lat="48.3717" lon="-0.26216">
        <ele>234</ele>
        <time>2016-03-12T12:57:01Z</time>
      </trkpt>
      <trkpt lat="48.37181" lon="-0.26213">
        <ele>234.1</ele>
        <time>2016-03-12T12:57:04Z</time>
      </trkpt>
      <trkpt lat="48.37194" lon="-0.26211">
        <ele>234.2</ele>
        <time>2016-03-12T12:57:07Z</time>
      </trkpt>
      <trkpt lat="48.37206" lon="-0.2621">
        <ele>234.3</ele>
        <time>2016-03-12T12:57:10Z</time>
      </trkpt>
      <trkpt lat="48.3722" lon="-0.26211">
        <ele>234.3</ele>
        <time>2016-03-12T12:57:13Z</time>
      </trkpt>
      <trkpt lat="48.37232" lon="-0.26214">
        <ele>234.4</ele>
        <time>2016-03-12T12:57:16Z</time>
      </trkpt>
      <trkpt lat="48.37243" lon="-0.26222">
        <ele>234.5</ele>
        <time>2016-03-12T12:57:19Z</time>
      </trkpt>
      <trkpt lat="48.3725" lon="-0.26235">
        <ele>234.6</ele>
        <time>2016-03-12T12:57:22Z</time>
      </trkpt>
      <trkpt lat="48.37258" lon="-0.26247">
        <ele>234.8</ele>
        <time>2016-03-12T12:57:25Z</time>
      </trkpt>
      <trkpt lat="48.37268" lon="-0.26251">
        <ele>235</ele>
        <time>2016-03-12T12:57:28Z</time>
      </trkpt>
      <trkpt lat="48.37278" lon="-0.26257">
        <ele>235.1</ele>
        <time>2016-03-12T12:57:31Z</time>
      </trkpt>
      <trkpt lat="48.37289" lon="-0.26261">
        <ele>235.2</ele>
        <time>2016-03-12T12:57:34Z</time>
      </trkpt>
      <trkpt lat="48.37299" lon="-0.26266">
        <ele>235.5</ele>
        <time>2016-03-12T12:57:37Z</time>
      </trkpt>
      <trkpt lat="48.3731" lon="-0.26271">
        <ele>235.5</ele>
        <time>2016-03-12T12:57:40Z</time>
      </trkpt>
      <trkpt lat="48.3732" lon="-0.26274">
        <ele>235.8</ele>
        <time>2016-03-12T12:57:43Z</time>
      </trkpt>
      <trkpt lat="48.3733" lon="-0.26278">
        <ele>236.1</ele>
        <time>2016-03-12T12:57:46Z</time>
      </trkpt>
      <trkpt lat="48.37339" lon="-0.26282">
        <ele>236.4</ele>
        <time>2016-03-12T12:57:49Z</time>
      </trkpt>
      <trkpt lat="48.37348" lon="-0.26287">
        <ele>236.7</ele>
        <time>2016-03-12T12:57:52Z</time>
      </trkpt>
      <trkpt lat="48.37357" lon="-0.26292">
        <ele>237.1</ele>
        <time>2016-03-12T12:57:55Z</time>
      </trkpt>
      <trkpt lat="48.37368" lon="-0.26299">
        <ele>237.5</ele>
        <time>2016-03-12T12:57:59Z</time>
      </trkpt>
      <trkpt lat="48.37378" lon="-0.26307">
        <ele>238</ele>
        <time>2016-03-12T12:58:03Z</time>
      </trkpt>
      <trkpt lat="48.37388" lon="-0.26312">
        <ele>238.6</ele>
        <time>2016-03-12T12:58:07Z</time>
      </trkpt>
      <trkpt lat="48.37398" lon="-0.26318">
        <ele>239.5</ele>
        <time>2016-03-12T12:58:12Z</time>
      </trkpt>
      <trkpt lat="48.37406" lon="-0.26324">
        <ele>240.2</ele>
        <time>2016-03-12T12:58:16Z</time>
      </trkpt>
      <trkpt lat="48.37415" lon="-0.2633">
        <ele>240.8</ele>
        <time>2016-03-12T12:58:20Z</time>
      </trkpt>
      <trkpt lat="48.37424" lon="-0.26334">
        <ele>241.6</ele>
        <time>2016-03-12T12:58:24Z</time>
      </trkpt>
      <trkpt lat="48.37435" lon="-0.26337">
        <ele>242.6</ele>
        <time>2016-03-12T12:58:29Z</time>
      </trkpt>
      <trkpt lat="48.37445" lon="-0.26338">
        <ele>243.8</ele>
        <time>2016-03-12T12:58:34Z</time>
      </trkpt>
      <trkpt lat="48.37455" lon="-0.26341">
        <ele>245.1</ele>
        <time>2016-03-12T12:58:39Z</time>
      </trkpt>
      <trkpt lat="48.37466" lon="-0.26343">
        <ele>246</ele>
        <time>2016-03-12T12:58:44Z</time>
      </trkpt>
      <trkpt lat="48.37477" lon="-0.26344">
        <ele>246.8</ele>
        <time>2016-03-12T12:58:49Z</time>
      </trkpt>
      <trkpt lat="48.37486" lon="-0.26346">
        <ele>247.5</ele>
        <time>2016-03-12T12:58:54Z</time>
      </trkpt>
      <trkpt lat="48.37496" lon="-0.26348">
        <ele>248.2</ele>
        <time>2016-03-12T12:58:59Z</time>
      </trkpt>
      <trkpt lat="48.37506" lon="-0.2635">
        <ele>249</ele>
        <time>2016-03-12T12:59:04Z</time>
      </trkpt>
      <trkpt lat="48.37515" lon="-0.2635">
        <ele>249.7</ele>
        <time>2016-03-12T12:59:08Z</time>
      </trkpt>
      <trkpt lat="48.37524" lon="-0.26354">
        <ele>250.6</ele>
        <time>2016-03-12T12:59:13Z</time>
      </trkpt>
      <trkpt lat="48.37533" lon="-0.26357">
        <ele>251.2</ele>
        <time>2016-03-12T12:59:17Z</time>
      </trkpt>
      <trkpt lat="48.37543" lon="-0.26359">
        <ele>252.1</ele>
        <time>2016-03-12T12:59:22Z</time>
      </trkpt>
      <trkpt lat="48.37553" lon="-0.26363">
        <ele>253.4</ele>
        <time>2016-03-12T12:59:29Z</time>
      </trkpt>
      <trkpt lat="48.37562" lon="-0.26367">
        <ele>254.4</ele>
        <time>2016-03-12T12:59:34Z</time>
      </trkpt>
      <trkpt lat="48.37573" lon="-0.26369">
        <ele>255.1</ele>
        <time>2016-03-12T12:59:38Z</time>
      </trkpt>
      <trkpt lat="48.37582" lon="-0.26374">
        <ele>256.2</ele>
        <time>2016-03-12T12:59:43Z</time>
      </trkpt>
      <trkpt lat="48.37591" lon="-0.26377">
        <ele>257.2</ele>
        <time>2016-03-12T12:59:48Z</time>
      </trkpt>
      <trkpt lat="48.376" lon="-0.26382">
        <ele>258.1</ele>
        <time>2016-03-12T12:59:53Z</time>
      </trkpt>
      <trkpt lat="48.37611" lon="-0.26386">
        <ele>259</ele>
        <time>2016-03-12T12:59:58Z</time>
      </trkpt>
      <trkpt lat="48.37621" lon="-0.26387">
        <ele>259.7</ele>
        <time>2016-03-12T13:00:02Z</time>
      </trkpt>
      <trkpt lat="48.37632" lon="-0.26386">
        <ele>260.4</ele>
        <time>2016-03-12T13:00:06Z</time>
      </trkpt>
      <trkpt lat="48.37641" lon="-0.26386">
        <ele>261.1</ele>
        <time>2016-03-12T13:00:10Z</time>
      </trkpt>
      <trkpt lat="48.37651" lon="-0.26386">
        <ele>261.7</ele>
        <time>2016-03-12T13:00:14Z</time>
      </trkpt>
      <trkpt lat="48.37662" lon="-0.26386">
        <ele>262.2</ele>
        <time>2016-03-12T13:00:18Z</time>
      </trkpt>
      <trkpt lat="48.37673" lon="-0.26385">
        <ele>262.7</ele>
        <time>2016-03-12T13:00:22Z</time>
      </trkpt>
      <trkpt lat="48.37683" lon="-0.26384">
        <ele>263.5</ele>
        <time>2016-03-12T13:00:26Z</time>
      </trkpt>
      <trkpt lat="48.37695" lon="-0.26382">
        <ele>264.2</ele>
        <time>2016-03-12T13:00:30Z</time>
      </trkpt>
      <trkpt lat="48.37705" lon="-0.26382">
        <ele>264.6</ele>
        <time>2016-03-12T13:00:33Z</time>
      </trkpt>
      <trkpt lat="48.37716" lon="-0.26377">
        <ele>265.1</ele>
        <time>2016-03-12T13:00:37Z</time>
      </trkpt>
      <trkpt lat="48.37725" lon="-0.26375">
        <ele>265.4</ele>
        <time>2016-03-12T13:00:40Z</time>
      </trkpt>
      <trkpt lat="48.37737" lon="-0.26372">
        <ele>265.7</ele>
        <time>2016-03-12T13:00:44Z</time>
      </trkpt>
      <trkpt lat="48.37747" lon="-0.26371">
        <ele>266.2</ele>
        <time>2016-03-12T13:00:48Z</time>
      </trkpt>
      <trkpt lat="48.37758" lon="-0.26368">
        <ele>266.6</ele>
        <time>2016-03-12T13:00:52Z</time>
      </trkpt>
      <trkpt lat="48.37769" lon="-0.26365">
        <ele>267.1</ele>
        <time>2016-03-12T13:00:56Z</time>
      </trkpt>
      <trkpt lat="48.3778" lon="-0.26363">
        <ele>267.6</ele>
        <time>2016-03-12T13:01:00Z</time>
      </trkpt>
      <trkpt lat="48.37789" lon="-0.26361">
        <ele>268.3</ele>
        <time>2016-03-12T13:01:04Z</time>
      </trkpt>
      <trkpt lat="48.378" lon="-0.26359">
        <ele>268.8</ele>
        <time>2016-03-12T13:01:08Z</time>
      </trkpt>
      <trkpt lat="48.37809" lon="-0.26356">
        <ele>269.4</ele>
        <time>2016-03-12T13:01:12Z</time>
      </trkpt>
      <trkpt lat="48.37818" lon="-0.26352">
        <ele>270</ele>
        <time>2016-03-12T13:01:16Z</time>
      </trkpt>
      <trkpt lat="48.37829" lon="-0.26347">
        <ele>270.6</ele>
        <time>2016-03-12T13:01:20Z</time>
      </trkpt>
      <trkpt lat="48.3784" lon="-0.26344">
        <ele>271.1</ele>
        <time>2016-03-12T13:01:24Z</time>
      </trkpt>
      <trkpt lat="48.37849" lon="-0.26342">
        <ele>271.5</ele>
        <time>2016-03-12T13:01:27Z</time>
      </trkpt>
      <trkpt lat="48.3786" lon="-0.26339">
        <ele>272.1</ele>
        <time>2016-03-12T13:01:31Z</time>
      </trkpt>
      <trkpt lat="48.3787" lon="-0.26337">
        <ele>272.9</ele>
        <time>2016-03-12T13:01:35Z</time>
      </trkpt>
      <trkpt lat="48.37879" lon="-0.26334">
        <ele>273.7</ele>
        <time>2016-03-12T13:01:39Z</time>
      </trkpt>
      <trkpt lat="48.37891" lon="-0.26332">
        <ele>274.6</ele>
        <time>2016-03-12T13:01:44Z</time>
      </trkpt>
      <trkpt lat="48.379" lon="-0.2633">
        <ele>275.4</ele>
        <time>2016-03-12T13:01:48Z</time>
      </trkpt>
      <trkpt lat="48.37908" lon="-0.26327">
        <ele>276.4</ele>
        <time>2016-03-12T13:01:53Z</time>
      </trkpt>
      <trkpt lat="48.37918" lon="-0.26323">
        <ele>277.5</ele>
        <time>2016-03-12T13:01:58Z</time>
      </trkpt>
      <trkpt lat="48.37929" lon="-0.2632">
        <ele>278.6</ele>
        <time>2016-03-12T13:02:03Z</time>
      </trkpt>
      <trkpt lat="48.37939" lon="-0.26318">
        <ele>279.7</ele>
        <time>2016-03-12T13:02:08Z</time>
      </trkpt>
      <trkpt lat="48.37949" lon="-0.26314">
        <ele>280.8</ele>
        <time>2016-03-12T13:02:13Z</time>
      </trkpt>
      <trkpt lat="48.37959" lon="-0.26311">
        <ele>281.9</ele>
        <time>2016-03-12T13:02:18Z</time>
      </trkpt>
      <trkpt lat="48.37968" lon="-0.26308">
        <ele>283.2</ele>
        <time>2016-03-12T13:02:23Z</time>
      </trkpt>
      <trkpt lat="48.37978" lon="-0.26307">
        <ele>284.2</ele>
        <time>2016-03-12T13:02:28Z</time>
      </trkpt>
      <trkpt lat="48.37989" lon="-0.26307">
        <ele>285.2</ele>
        <time>2016-03-12T13:02:33Z</time>
      </trkpt>
      <trkpt lat="48.37998" lon="-0.26308">
        <ele>286.3</ele>
        <time>2016-03-12T13:02:38Z</time>
      </trkpt>
      <trkpt lat="48.38007" lon="-0.26305">
        <ele>287.3</ele>
        <time>2016-03-12T13:02:43Z</time>
      </trkpt>
      <trkpt lat="48.38016" lon="-0.26305">
        <ele>288.3</ele>
        <time>2016-03-12T13:02:48Z</time>
      </trkpt>
      <trkpt lat="48.38026" lon="-0.2631">
        <ele>289.6</ele>
        <time>2016-03-12T13:02:54Z</time>
      </trkpt>
      <trkpt lat="48.38033" lon="-0.26318">
        <ele>290.8</ele>
        <time>2016-03-12T13:02:59Z</time>
      </trkpt>
      <trkpt lat="48.3804" lon="-0.26329">
        <ele>291.9</ele>
        <time>2016-03-12T13:03:04Z</time>
      </trkpt>
      <trkpt lat="48.38048" lon="-0.26338">
        <ele>292.7</ele>
        <time>2016-03-12T13:03:09Z</time>
      </trkpt>
      <trkpt lat="48.38055" lon="-0.26346">
        <ele>293.4</ele>
        <time>2016-03-12T13:03:13Z</time>
      </trkpt>
      <trkpt lat="48.38064" lon="-0.26354">
        <ele>294.2</ele>
        <time>2016-03-12T13:03:18Z</time>
      </trkpt>
      <trkpt lat="48.38072" lon="-0.26362">
        <ele>295</ele>
        <time>2016-03-12T13:03:23Z</time>
      </trkpt>
      <trkpt lat="48.38081" lon="-0.2637">
        <ele>295.9</ele>
        <time>2016-03-12T13:03:28Z</time>
      </trkpt>
      <trkpt lat="48.3809" lon="-0.26378">
        <ele>296.8</ele>
        <time>2016-03-12T13:03:33Z</time>
      </trkpt>
      <trkpt lat="48.38098" lon="-0.26387">
        <ele>297.9</ele>
        <time>2016-03-12T13:03:38Z</time>
      </trkpt>
      <trkpt lat="48.38107" lon="-0.26394">
        <ele>299</ele>
        <time>2016-03-12T13:03:43Z</time>
      </trkpt>
      <trkpt lat="48.38117" lon="-0.264">
        <ele>300.2</ele>
        <time>2016-03-12T13:03:48Z</time>
      </trkpt>
      <trkpt lat="48.38128" lon="-0.26404">
        <ele>301.4</ele>
        <time>2016-03-12T13:03:53Z</time>
      </trkpt>
      <trkpt lat="48.38137" lon="-0.26409">
        <ele>302.1</ele>
        <time>2016-03-12T13:03:57Z</time>
      </trkpt>
      <trkpt lat="48.38144" lon="-0.26418">
        <ele>302.9</ele>
        <time>2016-03-12T13:04:01Z</time>
      </trkpt>
      <trkpt lat="48.38151" lon="-0.2643">
        <ele>304</ele>
        <time>2016-03-12T13:04:06Z</time>
      </trkpt>
      <trkpt lat="48.38158" lon="-0.26442">
        <ele>305.1</ele>
        <time>2016-03-12T13:04:11Z</time>
      </trkpt>
      <trkpt lat="48.38164" lon="-0.26454">
        <ele>306.4</ele>
        <time>2016-03-12T13:04:16Z</time>
      </trkpt>
      <trkpt lat="48.38172" lon="-0.26466">
        <ele>307.6</ele>
        <time>2016-03-12T13:04:21Z</time>
      </trkpt>
      <trkpt lat="48.38179" lon="-0.26478">
        <ele>308.7</ele>
        <time>2016-03-12T13:04:26Z</time>
      </trkpt>
      <trkpt lat="48.38186" lon="-0.26491">
        <ele>309.9</ele>
        <time>2016-03-12T13:04:31Z</time>
      </trkpt>
      <trkpt lat="48.38192" lon="-0.26502">
        <ele>310.7</ele>
        <time>2016-03-12T13:04:35Z</time>
      </trkpt>
      <trkpt lat="48.38197" lon="-0.26512">
        <ele>311.5</ele>
        <time>2016-03-12T13:04:39Z</time>
      </trkpt>
      <trkpt lat="48.38205" lon="-0.26524">
        <ele>312.4</ele>
        <time>2016-03-12T13:04:44Z</time>
      </trkpt>
      <trkpt lat="48.38213" lon="-0.26535">
        <ele>313.2</ele>
        <time>2016-03-12T13:04:49Z</time>
      </trkpt>
      <trkpt lat="48.38219" lon="-0.26545">
        <ele>314.1</ele>
        <time>2016-03-12T13:04:54Z</time>
      </trkpt>
      <trkpt lat="48.38227" lon="-0.26555">
        <ele>314.9</ele>
        <time>2016-03-12T13:04:59Z</time>
      </trkpt>
      <trkpt lat="48.38235" lon="-0.26563">
        <ele>315.5</ele>
        <time>2016-03-12T13:05:03Z</time>
      </trkpt>
      <trkpt lat="48.38242" lon="-0.26572">
        <ele>316.1</ele>
        <time>2016-03-12T13:05:08Z</time>
      </trkpt>
      <trkpt lat="48.38251" lon="-0.26583">
        <ele>316.8</ele>
        <time>2016-03-12T13:05:13Z</time>
      </trkpt>
      <trkpt lat="48.38258" lon="-0.26593">
        <ele>317.6</ele>
        <time>2016-03-12T13:05:18Z</time>
      </trkpt>
      <trkpt lat="48.38267" lon="-0.26605">
        <ele>318.5</ele>
        <time>2016-03-12T13:05:23Z</time>
      </trkpt>
      <trkpt lat="48.38274" lon="-0.26616">
        <ele>319.6</ele>
        <time>2016-03-12T13:05:29Z</time>
      </trkpt>
      <trkpt lat="48.38282" lon="-0.26627">
        <ele>320.6</ele>
        <time>2016-03-12T13:05:35Z</time>
      </trkpt>
      <trkpt lat="48.38291" lon="-0.26639">
        <ele>321.7</ele>
        <time>2016-03-12T13:05:41Z</time>
      </trkpt>
      <trkpt lat="48.38301" lon="-0.26646">
        <ele>322.6</ele>
        <time>2016-03-12T13:05:46Z</time>
      </trkpt>
      <trkpt lat="48.38311" lon="-0.26652">
        <ele>323.4</ele>
        <time>2016-03-12T13:05:51Z</time>
      </trkpt>
      <trkpt lat="48.38321" lon="-0.26657">
        <ele>324.2</ele>
        <time>2016-03-12T13:05:55Z</time>
      </trkpt>
      <trkpt lat="48.3833" lon="-0.26661">
        <ele>325.1</ele>
        <time>2016-03-12T13:06:01Z</time>
      </trkpt>
      <trkpt lat="48.38341" lon="-0.26664">
        <ele>325.7</ele>
        <time>2016-03-12T13:06:06Z</time>
      </trkpt>
      <trkpt lat="48.38352" lon="-0.26664">
        <ele>326.4</ele>
        <time>2016-03-12T13:06:11Z</time>
      </trkpt>
      <trkpt lat="48.38362" lon="-0.26661">
        <ele>327</ele>
        <time>2016-03-12T13:06:16Z</time>
      </trkpt>
      <trkpt lat="48.38373" lon="-0.26656">
        <ele>327.8</ele>
        <time>2016-03-12T13:06:22Z</time>
      </trkpt>
      <trkpt lat="48.38382" lon="-0.26648">
        <ele>328.3</ele>
        <time>2016-03-12T13:06:26Z</time>
      </trkpt>
      <trkpt lat="48.38389" lon="-0.26641">
        <ele>328.7</ele>
        <time>2016-03-12T13:06:30Z</time>
      </trkpt>
      <trkpt lat="48.38399" lon="-0.26635">
        <ele>329.2</ele>
        <time>2016-03-12T13:06:35Z</time>
      </trkpt>
      <trkpt lat="48.38408" lon="-0.26628">
        <ele>329.6</ele>
        <time>2016-03-12T13:06:38Z</time>
      </trkpt>
      <trkpt lat="48.38416" lon="-0.26619">
        <ele>330.1</ele>
        <time>2016-03-12T13:06:42Z</time>
      </trkpt>
      <trkpt lat="48.38423" lon="-0.26609">
        <ele>330.8</ele>
        <time>2016-03-12T13:06:47Z</time>
      </trkpt>
      <trkpt lat="48.38427" lon="-0.26621">
        <ele>332.2</ele>
        <time>2016-03-12T13:06:57Z</time>
      </trkpt>
      <trkpt lat="48.38423" lon="-0.26636">
        <ele>332.9</ele>
        <time>2016-03-12T13:07:02Z</time>
      </trkpt>
      <trkpt lat="48.3842" lon="-0.26649">
        <ele>333.5</ele>
        <time>2016-03-12T13:07:06Z</time>
      </trkpt>
      <trkpt lat="48.38418" lon="-0.26665">
        <ele>334.2</ele>
        <time>2016-03-12T13:07:12Z</time>
      </trkpt>
      <trkpt lat="48.38414" lon="-0.26679">
        <ele>334.8</ele>
        <time>2016-03-12T13:07:16Z</time>
      </trkpt>
      <trkpt lat="48.38409" lon="-0.26692">
        <ele>335.3</ele>
        <time>2016-03-12T13:07:20Z</time>
      </trkpt>
      <trkpt lat="48.38403" lon="-0.26704">
        <ele>335.9</ele>
        <time>2016-03-12T13:07:24Z</time>
      </trkpt>
      <trkpt lat="48.38397" lon="-0.26716">
        <ele>336.4</ele>
        <time>2016-03-12T13:07:28Z</time>
      </trkpt>
      <trkpt lat="48.3839" lon="-0.26729">
        <ele>336.9</ele>
        <time>2016-03-12T13:07:32Z</time>
      </trkpt>
      <trkpt lat="48.38384" lon="-0.2674">
        <ele>337.3</ele>
        <time>2016-03-12T13:07:36Z</time>
      </trkpt>
      <trkpt lat="48.38375" lon="-0.2675">
        <ele>337.6</ele>
        <time>2016-03-12T13:07:40Z</time>
      </trkpt>
      <trkpt lat="48.38365" lon="-0.26758">
        <ele>337.9</ele>
        <time>2016-03-12T13:07:44Z</time>
      </trkpt>
      <trkpt lat="48.38356" lon="-0.26763">
        <ele>338.1</ele>
        <time>2016-03-12T13:07:47Z</time>
      </trkpt>
      <trkpt lat="48.38347" lon="-0.26767">
        <ele>338.5</ele>
        <time>2016-03-12T13:07:50Z</time>
      </trkpt>
      <trkpt lat="48.38337" lon="-0.26769">
        <ele>338.9</ele>
        <time>2016-03-12T13:07:53Z</time>
      </trkpt>
      <trkpt lat="48.38326" lon="-0.26767">
        <ele>339.2</ele>
        <time>2016-03-12T13:07:56Z</time>
      </trkpt>
      <trkpt lat="48.38314" lon="-0.26762">
        <ele>339.5</ele>
        <time>2016-03-12T13:07:59Z</time>
      </trkpt>
      <trkpt lat="48.38305" lon="-0.26757">
        <ele>339.6</ele>
        <time>2016-03-12T13:08:01Z</time>
      </trkpt>
      <trkpt lat="48.38293" lon="-0.26752">
        <ele>339.6</ele>
        <time>2016-03-12T13:08:03Z</time>
      </trkpt>
      <trkpt lat="48.3828" lon="-0.26747">
        <ele>339.5</ele>
        <time>2016-03-12T13:08:05Z</time>
      </trkpt>
      <trkpt lat="48.38265" lon="-0.26744">
        <ele>339.1</ele>
        <time>2016-03-12T13:08:07Z</time>
      </trkpt>
      <trkpt lat="48.38253" lon="-0.26748">
        <ele>338.5</ele>
        <time>2016-03-12T13:08:09Z</time>
      </trkpt>
      <trkpt lat="48.38241" lon="-0.26753">
        <ele>338</ele>
        <time>2016-03-12T13:08:11Z</time>
      </trkpt>
      <trkpt lat="48.38229" lon="-0.26762">
        <ele>337.5</ele>
        <time>2016-03-12T13:08:13Z</time>
      </trkpt>
      <trkpt lat="48.3822" lon="-0.26775">
        <ele>336.8</ele>
        <time>2016-03-12T13:08:15Z</time>
      </trkpt>
      <trkpt lat="48.38214" lon="-0.26792">
        <ele>336.1</ele>
        <time>2016-03-12T13:08:17Z</time>
      </trkpt>
      <trkpt lat="48.38211" lon="-0.26811">
        <ele>335.3</ele>
        <time>2016-03-12T13:08:19Z</time>
      </trkpt>
      <trkpt lat="48.38209" lon="-0.26828">
        <ele>334.6</ele>
        <time>2016-03-12T13:08:21Z</time>
      </trkpt>
      <trkpt lat="48.38208" lon="-0.26845">
        <ele>334</ele>
        <time>2016-03-12T13:08:23Z</time>
      </trkpt>
      <trkpt lat="48.38207" lon="-0.26861">
        <ele>333.4</ele>
        <time>2016-03-12T13:08:25Z</time>
      </trkpt>
      <trkpt lat="48.38205" lon="-0.26877">
        <ele>332.9</ele>
        <time>2016-03-12T13:08:27Z</time>
      </trkpt>
      <trkpt lat="48.38203" lon="-0.26893">
        <ele>332.4</ele>
        <time>2016-03-12T13:08:29Z</time>
      </trkpt>
      <trkpt lat="48.38201" lon="-0.26907">
        <ele>331.9</ele>
        <time>2016-03-12T13:08:31Z</time>
      </trkpt>
      <trkpt lat="48.38198" lon="-0.2692">
        <ele>331.5</ele>
        <time>2016-03-12T13:08:33Z</time>
      </trkpt>
      <trkpt lat="48.38195" lon="-0.2694">
        <ele>330.8</ele>
        <time>2016-03-12T13:08:36Z</time>
      </trkpt>
      <trkpt lat="48.38189" lon="-0.26956">
        <ele>330.3</ele>
        <time>2016-03-12T13:08:38Z</time>
      </trkpt>
      <trkpt lat="48.38182" lon="-0.26972">
        <ele>329.8</ele>
        <time>2016-03-12T13:08:40Z</time>
      </trkpt>
      <trkpt lat="48.38176" lon="-0.26992">
        <ele>329.3</ele>
        <time>2016-03-12T13:08:42Z</time>
      </trkpt>
      <trkpt lat="48.38169" lon="-0.27011">
        <ele>328.7</ele>
        <time>2016-03-12T13:08:44Z</time>
      </trkpt>
      <trkpt lat="48.38163" lon="-0.2703">
        <ele>328.1</ele>
        <time>2016-03-12T13:08:46Z</time>
      </trkpt>
      <trkpt lat="48.38156" lon="-0.27048">
        <ele>327.5</ele>
        <time>2016-03-12T13:08:48Z</time>
      </trkpt>
      <trkpt lat="48.38147" lon="-0.27064">
        <ele>327.1</ele>
        <time>2016-03-12T13:08:50Z</time>
      </trkpt>
      <trkpt lat="48.38144" lon="-0.27081">
        <ele>326.6</ele>
        <time>2016-03-12T13:08:52Z</time>
      </trkpt>
      <trkpt lat="48.38145" lon="-0.27095">
        <ele>326.2</ele>
        <time>2016-03-12T13:08:54Z</time>
      </trkpt>
      <trkpt lat="48.38146" lon="-0.2711">
        <ele>325.7</ele>
        <time>2016-03-12T13:08:57Z</time>
      </trkpt>
      <trkpt lat="48.38148" lon="-0.27123">
        <ele>325.1</ele>
        <time>2016-03-12T13:09:02Z</time>
      </trkpt>
      <trkpt lat="48.38149" lon="-0.27139">
        <ele>324.6</ele>
        <time>2016-03-12T13:09:08Z</time>
      </trkpt>
      <trkpt lat="48.38151" lon="-0.27152">
        <ele>324.4</ele>
        <time>2016-03-12T13:09:12Z</time>
      </trkpt>
      <trkpt lat="48.38151" lon="-0.27168">
        <ele>324.5</ele>
        <time>2016-03-12T13:09:18Z</time>
      </trkpt>
      <trkpt lat="48.38152" lon="-0.27184">
        <ele>324.7</ele>
        <time>2016-03-12T13:09:23Z</time>
      </trkpt>
      <trkpt lat="48.38152" lon="-0.27198">
        <ele>325.1</ele>
        <time>2016-03-12T13:09:27Z</time>
      </trkpt>
      <trkpt lat="48.38154" lon="-0.27213">
        <ele>325.3</ele>
        <time>2016-03-12T13:09:31Z</time>
      </trkpt>
      <trkpt lat="48.38155" lon="-0.27227">
        <ele>325.6</ele>
        <time>2016-03-12T13:09:35Z</time>
      </trkpt>
      <trkpt lat="48.38156" lon="-0.27243">
        <ele>326.2</ele>
        <time>2016-03-12T13:09:40Z</time>
      </trkpt>
      <trkpt lat="48.38158" lon="-0.27257">
        <ele>326.6</ele>
        <time>2016-03-12T13:09:44Z</time>
      </trkpt>
      <trkpt lat="48.3816" lon="-0.27272">
        <ele>327.2</ele>
        <time>2016-03-12T13:09:48Z</time>
      </trkpt>
      <trkpt lat="48.38163" lon="-0.27286">
        <ele>327.8</ele>
        <time>2016-03-12T13:09:52Z</time>
      </trkpt>
      <trkpt lat="48.38167" lon="-0.273">
        <ele>328.4</ele>
        <time>2016-03-12T13:09:56Z</time>
      </trkpt>
      <trkpt lat="48.38172" lon="-0.27312">
        <ele>329.3</ele>
        <time>2016-03-12T13:10:00Z</time>
      </trkpt>
      <trkpt lat="48.3818" lon="-0.27324">
        <ele>330.3</ele>
        <time>2016-03-12T13:10:05Z</time>
      </trkpt>
      <trkpt lat="48.38188" lon="-0.27332">
        <ele>331.3</ele>
        <time>2016-03-12T13:10:10Z</time>
      </trkpt>
      <trkpt lat="48.38197" lon="-0.27338">
        <ele>332.2</ele>
        <time>2016-03-12T13:10:14Z</time>
      </trkpt>
      <trkpt lat="48.38205" lon="-0.27342">
        <ele>333</ele>
        <time>2016-03-12T13:10:19Z</time>
      </trkpt>
      <trkpt lat="48.38215" lon="-0.27346">
        <ele>333.7</ele>
        <time>2016-03-12T13:10:24Z</time>
      </trkpt>
      <trkpt lat="48.38223" lon="-0.27354">
        <ele>334.5</ele>
        <time>2016-03-12T13:10:31Z</time>
      </trkpt>
      <trkpt lat="48.38232" lon="-0.27362">
        <ele>335.1</ele>
        <time>2016-03-12T13:10:38Z</time>
      </trkpt>
      <trkpt lat="48.38239" lon="-0.27374">
        <ele>335.4</ele>
        <time>2016-03-12T13:10:43Z</time>
      </trkpt>
      <trkpt lat="48.38244" lon="-0.27386">
        <ele>335.6</ele>
        <time>2016-03-12T13:10:47Z</time>
      </trkpt>
      <trkpt lat="48.38249" lon="-0.27398">
        <ele>335.6</ele>
        <time>2016-03-12T13:10:51Z</time>
      </trkpt>
      <trkpt lat="48.38251" lon="-0.27411">
        <ele>335.6</ele>
        <time>2016-03-12T13:10:55Z</time>
      </trkpt>
      <trkpt lat="48.38252" lon="-0.27426">
        <ele>335.5</ele>
        <time>2016-03-12T13:10:59Z</time>
      </trkpt>
      <trkpt lat="48.38254" lon="-0.2744">
        <ele>335.3</ele>
        <time>2016-03-12T13:11:03Z</time>
      </trkpt>
      <trkpt lat="48.38257" lon="-0.27456">
        <ele>335.2</ele>
        <time>2016-03-12T13:11:07Z</time>
      </trkpt>
      <trkpt lat="48.38259" lon="-0.27472">
        <ele>335</ele>
        <time>2016-03-12T13:11:11Z</time>
      </trkpt>
      <trkpt lat="48.3826" lon="-0.27489">
        <ele>334.7</ele>
        <time>2016-03-12T13:11:15Z</time>
      </trkpt>
      <trkpt lat="48.3826" lon="-0.27506">
        <ele>334.3</ele>
        <time>2016-03-12T13:11:19Z</time>
      </trkpt>
      <trkpt lat="48.38259" lon="-0.2752">
        <ele>334.1</ele>
        <time>2016-03-12T13:11:22Z</time>
      </trkpt>
      <trkpt lat="48.38258" lon="-0.27538">
        <ele>333.7</ele>
        <time>2016-03-12T13:11:26Z</time>
      </trkpt>
      <trkpt lat="48.38255" lon="-0.27553">
        <ele>333.3</ele>
        <time>2016-03-12T13:11:30Z</time>
      </trkpt>
      <trkpt lat="48.38252" lon="-0.2757">
        <ele>332.9</ele>
        <time>2016-03-12T13:11:34Z</time>
      </trkpt>
      <trkpt lat="48.3825" lon="-0.27584">
        <ele>332.6</ele>
        <time>2016-03-12T13:11:37Z</time>
      </trkpt>
      <trkpt lat="48.38247" lon="-0.27598">
        <ele>332.3</ele>
        <time>2016-03-12T13:11:40Z</time>
      </trkpt>
      <trkpt lat="48.38244" lon="-0.27612">
        <ele>331.9</ele>
        <time>2016-03-12T13:11:44Z</time>
      </trkpt>
      <trkpt lat="48.38241" lon="-0.27625">
        <ele>331.7</ele>
        <time>2016-03-12T13:11:47Z</time>
      </trkpt>
      <trkpt lat="48.38237" lon="-0.27639">
        <ele>331.4</ele>
        <time>2016-03-12T13:11:50Z</time>
      </trkpt>
      <trkpt lat="48.38234" lon="-0.27653">
        <ele>331.2</ele>
        <time>2016-03-12T13:11:53Z</time>
      </trkpt>
      <trkpt lat="48.3823" lon="-0.27667">
        <ele>330.9</ele>
        <time>2016-03-12T13:11:56Z</time>
      </trkpt>
      <trkpt lat="48.38226" lon="-0.2768">
        <ele>330.6</ele>
        <time>2016-03-12T13:11:59Z</time>
      </trkpt>
      <trkpt lat="48.38223" lon="-0.27695">
        <ele>330.3</ele>
        <time>2016-03-12T13:12:03Z</time>
      </trkpt>
      <trkpt lat="48.38219" lon="-0.27709">
        <ele>330</ele>
        <time>2016-03-12T13:12:07Z</time>
      </trkpt>
      <trkpt lat="48.38211" lon="-0.27718">
        <ele>329.8</ele>
        <time>2016-03-12T13:12:11Z</time>
      </trkpt>
      <trkpt lat="48.382" lon="-0.27722">
        <ele>329.7</ele>
        <time>2016-03-12T13:12:14Z</time>
      </trkpt>
      <trkpt lat="48.38187" lon="-0.27724">
        <ele>329.5</ele>
        <time>2016-03-12T13:12:17Z</time>
      </trkpt>
      <trkpt lat="48.38177" lon="-0.27725">
        <ele>329.5</ele>
        <time>2016-03-12T13:12:19Z</time>
      </trkpt>
      <trkpt lat="48.38168" lon="-0.27725">
        <ele>329.4</ele>
        <time>2016-03-12T13:12:21Z</time>
      </trkpt>
      <trkpt lat="48.38159" lon="-0.27725">
        <ele>329.3</ele>
        <time>2016-03-12T13:12:23Z</time>
      </trkpt>
      <trkpt lat="48.38149" lon="-0.27727">
        <ele>329.3</ele>
        <time>2016-03-12T13:12:25Z</time>
      </trkpt>
      <trkpt lat="48.38139" lon="-0.27728">
        <ele>329.2</ele>
        <time>2016-03-12T13:12:27Z</time>
      </trkpt>
      <trkpt lat="48.38128" lon="-0.2773">
        <ele>329</ele>
        <time>2016-03-12T13:12:29Z</time>
      </trkpt>
      <trkpt lat="48.38117" lon="-0.27732">
        <ele>328.9</ele>
        <time>2016-03-12T13:12:31Z</time>
      </trkpt>
      <trkpt lat="48.38103" lon="-0.27736">
        <ele>328.6</ele>
        <time>2016-03-12T13:12:33Z</time>
      </trkpt>
      <trkpt lat="48.38088" lon="-0.27739">
        <ele>328.3</ele>
        <time>2016-03-12T13:12:35Z</time>
      </trkpt>
      <trkpt lat="48.38071" lon="-0.27743">
        <ele>327.8</ele>
        <time>2016-03-12T13:12:37Z</time>
      </trkpt>
      <trkpt lat="48.38061" lon="-0.27745">
        <ele>327.6</ele>
        <time>2016-03-12T13:12:38Z</time>
      </trkpt>
      <trkpt lat="48.38052" lon="-0.27747">
        <ele>327.2</ele>
        <time>2016-03-12T13:12:39Z</time>
      </trkpt>
      <trkpt lat="48.38041" lon="-0.27749">
        <ele>326.8</ele>
        <time>2016-03-12T13:12:40Z</time>
      </trkpt>
      <trkpt lat="48.3803" lon="-0.27752">
        <ele>326.4</ele>
        <time>2016-03-12T13:12:41Z</time>
      </trkpt>
      <trkpt lat="48.38019" lon="-0.27755">
        <ele>325.9</ele>
        <time>2016-03-12T13:12:42Z</time>
      </trkpt>
      <trkpt lat="48.38007" lon="-0.27757">
        <ele>325.4</ele>
        <time>2016-03-12T13:12:43Z</time>
      </trkpt>
      <trkpt lat="48.37995" lon="-0.2776">
        <ele>324.9</ele>
        <time>2016-03-12T13:12:44Z</time>
      </trkpt>
      <trkpt lat="48.37983" lon="-0.27762">
        <ele>324.3</ele>
        <time>2016-03-12T13:12:45Z</time>
      </trkpt>
      <trkpt lat="48.37972" lon="-0.27765">
        <ele>323.7</ele>
        <time>2016-03-12T13:12:46Z</time>
      </trkpt>
      <trkpt lat="48.37962" lon="-0.27768">
        <ele>323</ele>
        <time>2016-03-12T13:12:47Z</time>
      </trkpt>
      <trkpt lat="48.37945" lon="-0.27771">
        <ele>321.6</ele>
        <time>2016-03-12T13:12:49Z</time>
      </trkpt>
      <trkpt lat="48.37931" lon="-0.27772">
        <ele>320.2</ele>
        <time>2016-03-12T13:12:51Z</time>
      </trkpt>
      <trkpt lat="48.37917" lon="-0.27774">
        <ele>318.8</ele>
        <time>2016-03-12T13:12:53Z</time>
      </trkpt>
      <trkpt lat="48.37904" lon="-0.27777">
        <ele>317.2</ele>
        <time>2016-03-12T13:12:55Z</time>
      </trkpt>
      <trkpt lat="48.3789" lon="-0.27778">
        <ele>315.6</ele>
        <time>2016-03-12T13:12:57Z</time>
      </trkpt>
      <trkpt lat="48.37875" lon="-0.27774">
        <ele>313.7</ele>
        <time>2016-03-12T13:12:59Z</time>
      </trkpt>
      <trkpt lat="48.37861" lon="-0.27768">
        <ele>311.7</ele>
        <time>2016-03-12T13:13:01Z</time>
      </trkpt>
      <trkpt lat="48.37851" lon="-0.27763">
        <ele>309.6</ele>
        <time>2016-03-12T13:13:03Z</time>
      </trkpt>
      <trkpt lat="48.3784" lon="-0.27768">
        <ele>306.9</ele>
        <time>2016-03-12T13:13:06Z</time>
      </trkpt>
      <trkpt lat="48.37836" lon="-0.27781">
        <ele>305.4</ele>
        <time>2016-03-12T13:13:08Z</time>
      </trkpt>
      <trkpt lat="48.37834" lon="-0.27797">
        <ele>304</ele>
        <time>2016-03-12T13:13:10Z</time>
      </trkpt>
      <trkpt lat="48.37831" lon="-0.27814">
        <ele>302.7</ele>
        <time>2016-03-12T13:13:12Z</time>
      </trkpt>
      <trkpt lat="48.37826" lon="-0.27832">
        <ele>301.6</ele>
        <time>2016-03-12T13:13:14Z</time>
      </trkpt>
      <trkpt lat="48.37822" lon="-0.2785">
        <ele>300.6</ele>
        <time>2016-03-12T13:13:16Z</time>
      </trkpt>
      <trkpt lat="48.37815" lon="-0.27866">
        <ele>299.7</ele>
        <time>2016-03-12T13:13:18Z</time>
      </trkpt>
      <trkpt lat="48.37808" lon="-0.27882">
        <ele>298.8</ele>
        <time>2016-03-12T13:13:20Z</time>
      </trkpt>
      <trkpt lat="48.37798" lon="-0.27898">
        <ele>298.1</ele>
        <time>2016-03-12T13:13:22Z</time>
      </trkpt>
      <trkpt lat="48.37788" lon="-0.27917">
        <ele>297.3</ele>
        <time>2016-03-12T13:13:24Z</time>
      </trkpt>
      <trkpt lat="48.3778" lon="-0.27937">
        <ele>296.5</ele>
        <time>2016-03-12T13:13:26Z</time>
      </trkpt>
      <trkpt lat="48.37774" lon="-0.27959">
        <ele>295.8</ele>
        <time>2016-03-12T13:13:28Z</time>
      </trkpt>
      <trkpt lat="48.3777" lon="-0.27981">
        <ele>295.2</ele>
        <time>2016-03-12T13:13:30Z</time>
      </trkpt>
      <trkpt lat="48.37767" lon="-0.28002">
        <ele>294.6</ele>
        <time>2016-03-12T13:13:32Z</time>
      </trkpt>
      <trkpt lat="48.37765" lon="-0.28021">
        <ele>294.1</ele>
        <time>2016-03-12T13:13:34Z</time>
      </trkpt>
      <trkpt lat="48.37763" lon="-0.28039">
        <ele>293.6</ele>
        <time>2016-03-12T13:13:36Z</time>
      </trkpt>
      <trkpt lat="48.37765" lon="-0.28054">
        <ele>293.2</ele>
        <time>2016-03-12T13:13:38Z</time>
      </trkpt>
      <trkpt lat="48.37776" lon="-0.28061">
        <ele>292.7</ele>
        <time>2016-03-12T13:13:41Z</time>
      </trkpt>
      <trkpt lat="48.37787" lon="-0.28059">
        <ele>292.4</ele>
        <time>2016-03-12T13:13:44Z</time>
      </trkpt>
      <trkpt lat="48.37796" lon="-0.2806">
        <ele>292.3</ele>
        <time>2016-03-12T13:13:47Z</time>
      </trkpt>
      <trkpt lat="48.37807" lon="-0.28062">
        <ele>292.4</ele>
        <time>2016-03-12T13:13:51Z</time>
      </trkpt>
      <trkpt lat="48.37817" lon="-0.28062">
        <ele>292.9</ele>
        <time>2016-03-12T13:13:55Z</time>
      </trkpt>
      <trkpt lat="48.37828" lon="-0.28062">
        <ele>293.7</ele>
        <time>2016-03-12T13:14:00Z</time>
      </trkpt>
      <trkpt lat="48.37838" lon="-0.28063">
        <ele>294.4</ele>
        <time>2016-03-12T13:14:04Z</time>
      </trkpt>
      <trkpt lat="48.37846" lon="-0.28065">
        <ele>295.2</ele>
        <time>2016-03-12T13:14:08Z</time>
      </trkpt>
      <trkpt lat="48.37856" lon="-0.28066">
        <ele>296.2</ele>
        <time>2016-03-12T13:14:13Z</time>
      </trkpt>
      <trkpt lat="48.37866" lon="-0.28066">
        <ele>297.4</ele>
        <time>2016-03-12T13:14:19Z</time>
      </trkpt>
      <trkpt lat="48.37876" lon="-0.28062">
        <ele>298.4</ele>
        <time>2016-03-12T13:14:25Z</time>
      </trkpt>
      <trkpt lat="48.37884" lon="-0.28055">
        <ele>299.4</ele>
        <time>2016-03-12T13:14:31Z</time>
      </trkpt>
      <trkpt lat="48.37894" lon="-0.28049">
        <ele>300.6</ele>
        <time>2016-03-12T13:14:38Z</time>
      </trkpt>
      <trkpt lat="48.37903" lon="-0.28045">
        <ele>301.7</ele>
        <time>2016-03-12T13:14:46Z</time>
      </trkpt>
      <trkpt lat="48.37914" lon="-0.28042">
        <ele>303.1</ele>
        <time>2016-03-12T13:14:54Z</time>
      </trkpt>
      <trkpt lat="48.37924" lon="-0.28039">
        <ele>304.1</ele>
        <time>2016-03-12T13:15:00Z</time>
      </trkpt>
      <trkpt lat="48.37933" lon="-0.28036">
        <ele>305.3</ele>
        <time>2016-03-12T13:15:07Z</time>
      </trkpt>
      <trkpt lat="48.37942" lon="-0.28034">
        <ele>306.5</ele>
        <time>2016-03-12T13:15:14Z</time>
      </trkpt>
      <trkpt lat="48.37952" lon="-0.2803">
        <ele>308.2</ele>
        <time>2016-03-12T13:15:24Z</time>
      </trkpt>
      <trkpt lat="48.37962" lon="-0.28029">
        <ele>309.2</ele>
        <time>2016-03-12T13:15:29Z</time>
      </trkpt>
      <trkpt lat="48.37972" lon="-0.28028">
        <ele>310.4</ele>
        <time>2016-03-12T13:15:35Z</time>
      </trkpt>
      <trkpt lat="48.37982" lon="-0.28029">
        <ele>311.6</ele>
        <time>2016-03-12T13:15:41Z</time>
      </trkpt>
      <trkpt lat="48.37991" lon="-0.28033">
        <ele>312.7</ele>
        <time>2016-03-12T13:15:47Z</time>
      </trkpt>
      <trkpt lat="48.38001" lon="-0.28037">
        <ele>314.1</ele>
        <time>2016-03-12T13:15:54Z</time>
      </trkpt>
      <trkpt lat="48.3801" lon="-0.28041">
        <ele>315</ele>
        <time>2016-03-12T13:15:59Z</time>
      </trkpt>
      <trkpt lat="48.38019" lon="-0.28044">
        <ele>315.9</ele>
        <time>2016-03-12T13:16:04Z</time>
      </trkpt>
      <trkpt lat="48.38028" lon="-0.28048">
        <ele>316.7</ele>
        <time>2016-03-12T13:16:10Z</time>
      </trkpt>
      <trkpt lat="48.38038" lon="-0.28052">
        <ele>317.4</ele>
        <time>2016-03-12T13:16:15Z</time>
      </trkpt>
      <trkpt lat="48.38049" lon="-0.28057">
        <ele>318.4</ele>
        <time>2016-03-12T13:16:21Z</time>
      </trkpt>
      <trkpt lat="48.38059" lon="-0.28061">
        <ele>319.3</ele>
        <time>2016-03-12T13:16:26Z</time>
      </trkpt>
      <trkpt lat="48.38069" lon="-0.28065">
        <ele>320.3</ele>
        <time>2016-03-12T13:16:31Z</time>
      </trkpt>
      <trkpt lat="48.38079" lon="-0.2807">
        <ele>321.2</ele>
        <time>2016-03-12T13:16:36Z</time>
      </trkpt>
      <trkpt lat="48.38088" lon="-0.28077">
        <ele>321.9</ele>
        <time>2016-03-12T13:16:40Z</time>
      </trkpt>
      <trkpt lat="48.38098" lon="-0.28082">
        <ele>322.6</ele>
        <time>2016-03-12T13:16:44Z</time>
      </trkpt>
      <trkpt lat="48.38107" lon="-0.28086">
        <ele>323.2</ele>
        <time>2016-03-12T13:16:48Z</time>
      </trkpt>
      <trkpt lat="48.38117" lon="-0.28088">
        <ele>323.8</ele>
        <time>2016-03-12T13:16:53Z</time>
      </trkpt>
      <trkpt lat="48.38129" lon="-0.28088">
        <ele>324.1</ele>
        <time>2016-03-12T13:16:57Z</time>
      </trkpt>
      <trkpt lat="48.38137" lon="-0.28083">
        <ele>324.2</ele>
        <time>2016-03-12T13:17:00Z</time>
      </trkpt>
      <trkpt lat="48.38146" lon="-0.28079">
        <ele>324.1</ele>
        <time>2016-03-12T13:17:02Z</time>
      </trkpt>
      <trkpt lat="48.38161" lon="-0.28076">
        <ele>323.8</ele>
        <time>2016-03-12T13:17:04Z</time>
      </trkpt>
      <trkpt lat="48.38177" lon="-0.28074">
        <ele>323.4</ele>
        <time>2016-03-12T13:17:06Z</time>
      </trkpt>
      <trkpt lat="48.38188" lon="-0.28077">
        <ele>322.4</ele>
        <time>2016-03-12T13:17:09Z</time>
      </trkpt>
      <trkpt lat="48.38199" lon="-0.28076">
        <ele>321.2</ele>
        <time>2016-03-12T13:17:14Z</time>
      </trkpt>
      <trkpt lat="48.38209" lon="-0.28074">
        <ele>320.4</ele>
        <time>2016-03-12T13:17:19Z</time>
      </trkpt>
      <trkpt lat="48.3822" lon="-0.28074">
        <ele>320.1</ele>
        <time>2016-03-12T13:17:23Z</time>
      </trkpt>
      <trkpt lat="48.38229" lon="-0.28073">
        <ele>320</ele>
        <time>2016-03-12T13:17:27Z</time>
      </trkpt>
      <trkpt lat="48.38239" lon="-0.28073">
        <ele>320.2</ele>
        <time>2016-03-12T13:17:32Z</time>
      </trkpt>
      <trkpt lat="48.3825" lon="-0.28075">
        <ele>320.6</ele>
        <time>2016-03-12T13:17:38Z</time>
      </trkpt>
      <trkpt lat="48.3826" lon="-0.28076">
        <ele>321.3</ele>
        <time>2016-03-12T13:17:44Z</time>
      </trkpt>
      <trkpt lat="48.38271" lon="-0.28079">
        <ele>322</ele>
        <time>2016-03-12T13:17:49Z</time>
      </trkpt>
      <trkpt lat="48.3828" lon="-0.28084">
        <ele>322.8</ele>
        <time>2016-03-12T13:17:54Z</time>
      </trkpt>
      <trkpt lat="48.38287" lon="-0.28092">
        <ele>323.7</ele>
        <time>2016-03-12T13:17:59Z</time>
      </trkpt>
      <trkpt lat="48.38295" lon="-0.28104">
        <ele>324.8</ele>
        <time>2016-03-12T13:18:05Z</time>
      </trkpt>
      <trkpt lat="48.38302" lon="-0.28111">
        <ele>325.6</ele>
        <time>2016-03-12T13:18:10Z</time>
      </trkpt>
      <trkpt lat="48.3831" lon="-0.28119">
        <ele>326.3</ele>
        <time>2016-03-12T13:18:15Z</time>
      </trkpt>
      <trkpt lat="48.38319" lon="-0.28127">
        <ele>327.1</ele>
        <time>2016-03-12T13:18:20Z</time>
      </trkpt>
      <trkpt lat="48.38327" lon="-0.28136">
        <ele>327.8</ele>
        <time>2016-03-12T13:18:25Z</time>
      </trkpt>
      <trkpt lat="48.38335" lon="-0.28143">
        <ele>328.6</ele>
        <time>2016-03-12T13:18:30Z</time>
      </trkpt>
      <trkpt lat="48.38344" lon="-0.28149">
        <ele>329.4</ele>
        <time>2016-03-12T13:18:35Z</time>
      </trkpt>
      <trkpt lat="48.38353" lon="-0.28155">
        <ele>330.1</ele>
        <time>2016-03-12T13:18:40Z</time>
      </trkpt>
      <trkpt lat="48.38363" lon="-0.2816">
        <ele>330.9</ele>
        <time>2016-03-12T13:18:46Z</time>
      </trkpt>
      <trkpt lat="48.38374" lon="-0.28165">
        <ele>331.8</ele>
        <time>2016-03-12T13:18:52Z</time>
      </trkpt>
      <trkpt lat="48.38385" lon="-0.28167">
        <ele>332.6</ele>
        <time>2016-03-12T13:18:57Z</time>
      </trkpt>
      <trkpt lat="48.38395" lon="-0.2817">
        <ele>333.3</ele>
        <time>2016-03-12T13:19:02Z</time>
      </trkpt>
      <trkpt lat="48.38404" lon="-0.28175">
        <ele>333.7</ele>
        <time>2016-03-12T13:19:06Z</time>
      </trkpt>
      <trkpt lat="48.38413" lon="-0.28179">
        <ele>334.1</ele>
        <time>2016-03-12T13:19:09Z</time>
      </trkpt>
      <trkpt lat="48.38423" lon="-0.28184">
        <ele>334.6</ele>
        <time>2016-03-12T13:19:12Z</time>
      </trkpt>
      <trkpt lat="48.38432" lon="-0.28189">
        <ele>335.3</ele>
        <time>2016-03-12T13:19:16Z</time>
      </trkpt>
      <trkpt lat="48.38441" lon="-0.28193">
        <ele>335.6</ele>
        <time>2016-03-12T13:19:19Z</time>
      </trkpt>
      <trkpt lat="48.38452" lon="-0.28197">
        <ele>336</ele>
        <time>2016-03-12T13:19:22Z</time>
      </trkpt>
      <trkpt lat="48.38463" lon="-0.28202">
        <ele>336.3</ele>
        <time>2016-03-12T13:19:25Z</time>
      </trkpt>
      <trkpt lat="48.38473" lon="-0.28205">
        <ele>336.5</ele>
        <time>2016-03-12T13:19:28Z</time>
      </trkpt>
      <trkpt lat="48.38483" lon="-0.28209">
        <ele>336.7</ele>
        <time>2016-03-12T13:19:31Z</time>
      </trkpt>
      <trkpt lat="48.38494" lon="-0.28214">
        <ele>336.9</ele>
        <time>2016-03-12T13:19:34Z</time>
      </trkpt>
      <trkpt lat="48.38503" lon="-0.28203">
        <ele>337.1</ele>
        <time>2016-03-12T13:19:38Z</time>
      </trkpt>
      <trkpt lat="48.38507" lon="-0.28188">
        <ele>337.3</ele>
        <time>2016-03-12T13:19:42Z</time>
      </trkpt>
      <trkpt lat="48.38512" lon="-0.28175">
        <ele>337.6</ele>
        <time>2016-03-12T13:19:46Z</time>
      </trkpt>
      <trkpt lat="48.38516" lon="-0.28163">
        <ele>337.7</ele>
        <time>2016-03-12T13:19:49Z</time>
      </trkpt>
      <trkpt lat="48.38519" lon="-0.28147">
        <ele>337.9</ele>
        <time>2016-03-12T13:19:53Z</time>
      </trkpt>
      <trkpt lat="48.38523" lon="-0.28133">
        <ele>338.1</ele>
        <time>2016-03-12T13:19:56Z</time>
      </trkpt>
      <trkpt lat="48.38523" lon="-0.28119">
        <ele>338.4</ele>
        <time>2016-03-12T13:19:59Z</time>
      </trkpt>
      <trkpt lat="48.38527" lon="-0.28106">
        <ele>338.7</ele>
        <time>2016-03-12T13:20:02Z</time>
      </trkpt>
      <trkpt lat="48.38529" lon="-0.2809">
        <ele>339.1</ele>
        <time>2016-03-12T13:20:06Z</time>
      </trkpt>
      <trkpt lat="48.3853" lon="-0.28073">
        <ele>339.5</ele>
        <time>2016-03-12T13:20:10Z</time>
      </trkpt>
      <trkpt lat="48.38532" lon="-0.28059">
        <ele>340</ele>
        <time>2016-03-12T13:20:13Z</time>
      </trkpt>
      <trkpt lat="48.38533" lon="-0.28044">
        <ele>340.5</ele>
        <time>2016-03-12T13:20:16Z</time>
      </trkpt>
      <trkpt lat="48.38535" lon="-0.28029">
        <ele>340.8</ele>
        <time>2016-03-12T13:20:19Z</time>
      </trkpt>
      <trkpt lat="48.38537" lon="-0.28014">
        <ele>341.2</ele>
        <time>2016-03-12T13:20:22Z</time>
      </trkpt>
      <trkpt lat="48.38539" lon="-0.27999">
        <ele>341.5</ele>
        <time>2016-03-12T13:20:25Z</time>
      </trkpt>
      <trkpt lat="48.38541" lon="-0.27984">
        <ele>341.8</ele>
        <time>2016-03-12T13:20:28Z</time>
      </trkpt>
      <trkpt lat="48.38542" lon="-0.27967">
        <ele>342.2</ele>
        <time>2016-03-12T13:20:32Z</time>
      </trkpt>
      <trkpt lat="48.38545" lon="-0.27951">
        <ele>342.7</ele>
        <time>2016-03-12T13:20:36Z</time>
      </trkpt>
      <trkpt lat="48.38549" lon="-0.27938">
        <ele>343</ele>
        <time>2016-03-12T13:20:39Z</time>
      </trkpt>
      <trkpt lat="48.38551" lon="-0.27924">
        <ele>343.3</ele>
        <time>2016-03-12T13:20:42Z</time>
      </trkpt>
      <trkpt lat="48.38555" lon="-0.27909">
        <ele>343.6</ele>
        <time>2016-03-12T13:20:45Z</time>
      </trkpt>
      <trkpt lat="48.38559" lon="-0.27896">
        <ele>343.9</ele>
        <time>2016-03-12T13:20:48Z</time>
      </trkpt>
      <trkpt lat="48.38564" lon="-0.27882">
        <ele>344.2</ele>
        <time>2016-03-12T13:20:51Z</time>
      </trkpt>
      <trkpt lat="48.38567" lon="-0.27869">
        <ele>344.4</ele>
        <time>2016-03-12T13:20:54Z</time>
      </trkpt>
      <trkpt lat="48.38569" lon="-0.27855">
        <ele>344.7</ele>
        <time>2016-03-12T13:20:57Z</time>
      </trkpt>
      <trkpt lat="48.38571" lon="-0.27839">
        <ele>344.9</ele>
        <time>2016-03-12T13:21:00Z</time>
      </trkpt>
      <trkpt lat="48.38575" lon="-0.27821">
        <ele>345.2</ele>
        <time>2016-03-12T13:21:03Z</time>
      </trkpt>
      <trkpt lat="48.38579" lon="-0.27808">
        <ele>345.5</ele>
        <time>2016-03-12T13:21:06Z</time>
      </trkpt>
      <trkpt lat="48.38584" lon="-0.27794">
        <ele>345.8</ele>
        <time>2016-03-12T13:21:09Z</time>
      </trkpt>
      <trkpt lat="48.38586" lon="-0.2778">
        <ele>346</ele>
        <time>2016-03-12T13:21:11Z</time>
      </trkpt>
      <trkpt lat="48.38587" lon="-0.27765">
        <ele>346.1</ele>
        <time>2016-03-12T13:21:13Z</time>
      </trkpt>
      <trkpt lat="48.3859" lon="-0.27747">
        <ele>346.4</ele>
        <time>2016-03-12T13:21:16Z</time>
      </trkpt>
      <trkpt lat="48.38593" lon="-0.27733">
        <ele>346.5</ele>
        <time>2016-03-12T13:21:18Z</time>
      </trkpt>
      <trkpt lat="48.38597" lon="-0.27714">
        <ele>346.7</ele>
        <time>2016-03-12T13:21:21Z</time>
      </trkpt>
      <trkpt lat="48.386" lon="-0.27701">
        <ele>346.8</ele>
        <time>2016-03-12T13:21:23Z</time>
      </trkpt>
      <trkpt lat="48.38603" lon="-0.27688">
        <ele>346.9</ele>
        <time>2016-03-12T13:21:25Z</time>
      </trkpt>
      <trkpt lat="48.38608" lon="-0.2767">
        <ele>347.2</ele>
        <time>2016-03-12T13:21:28Z</time>
      </trkpt>
      <trkpt lat="48.38611" lon="-0.27656">
        <ele>347.3</ele>
        <time>2016-03-12T13:21:30Z</time>
      </trkpt>
      <trkpt lat="48.38614" lon="-0.27642">
        <ele>347.4</ele>
        <time>2016-03-12T13:21:32Z</time>
      </trkpt>
      <trkpt lat="48.38617" lon="-0.27628">
        <ele>347.5</ele>
        <time>2016-03-12T13:21:34Z</time>
      </trkpt>
      <trkpt lat="48.38619" lon="-0.27614">
        <ele>347.6</ele>
        <time>2016-03-12T13:21:36Z</time>
      </trkpt>
      <trkpt lat="48.38623" lon="-0.276">
        <ele>347.8</ele>
        <time>2016-03-12T13:21:38Z</time>
      </trkpt>
      <trkpt lat="48.38625" lon="-0.27587">
        <ele>347.9</ele>
        <time>2016-03-12T13:21:40Z</time>
      </trkpt>
      <trkpt lat="48.38628" lon="-0.27574">
        <ele>348</ele>
        <time>2016-03-12T13:21:42Z</time>
      </trkpt>
      <trkpt lat="48.38632" lon="-0.27555">
        <ele>348.3</ele>
        <time>2016-03-12T13:21:45Z</time>
      </trkpt>
      <trkpt lat="48.38634" lon="-0.27541">
        <ele>348.5</ele>
        <time>2016-03-12T13:21:47Z</time>
      </trkpt>
      <trkpt lat="48.38637" lon="-0.27528">
        <ele>348.7</ele>
        <time>2016-03-12T13:21:49Z</time>
      </trkpt>
      <trkpt lat="48.38643" lon="-0.2751">
        <ele>349</ele>
        <time>2016-03-12T13:21:52Z</time>
      </trkpt>
      <trkpt lat="48.38648" lon="-0.27498">
        <ele>349.3</ele>
        <time>2016-03-12T13:21:55Z</time>
      </trkpt>
      <trkpt lat="48.38654" lon="-0.27483">
        <ele>349.9</ele>
        <time>2016-03-12T13:21:59Z</time>
      </trkpt>
      <trkpt lat="48.38659" lon="-0.27469">
        <ele>350.2</ele>
        <time>2016-03-12T13:22:02Z</time>
      </trkpt>
      <trkpt lat="48.38664" lon="-0.27453">
        <ele>350.5</ele>
        <time>2016-03-12T13:22:05Z</time>
      </trkpt>
      <trkpt lat="48.38667" lon="-0.27437">
        <ele>350.8</ele>
        <time>2016-03-12T13:22:08Z</time>
      </trkpt>
      <trkpt lat="48.38671" lon="-0.27418">
        <ele>351.3</ele>
        <time>2016-03-12T13:22:11Z</time>
      </trkpt>
      <trkpt lat="48.38674" lon="-0.274">
        <ele>351.7</ele>
        <time>2016-03-12T13:22:14Z</time>
      </trkpt>
      <trkpt lat="48.38676" lon="-0.27385">
        <ele>352.1</ele>
        <time>2016-03-12T13:22:17Z</time>
      </trkpt>
      <trkpt lat="48.38678" lon="-0.27367">
        <ele>352.7</ele>
        <time>2016-03-12T13:22:21Z</time>
      </trkpt>
      <trkpt lat="48.38683" lon="-0.27354">
        <ele>353.1</ele>
        <time>2016-03-12T13:22:24Z</time>
      </trkpt>
      <trkpt lat="48.38689" lon="-0.27343">
        <ele>353.5</ele>
        <time>2016-03-12T13:22:27Z</time>
      </trkpt>
      <trkpt lat="48.38695" lon="-0.27329">
        <ele>353.8</ele>
        <time>2016-03-12T13:22:30Z</time>
      </trkpt>
      <trkpt lat="48.38701" lon="-0.27314">
        <ele>354.3</ele>
        <time>2016-03-12T13:22:33Z</time>
      </trkpt>
      <trkpt lat="48.38706" lon="-0.273">
        <ele>354.8</ele>
        <time>2016-03-12T13:22:36Z</time>
      </trkpt>
      <trkpt lat="48.38709" lon="-0.27284">
        <ele>355.3</ele>
        <time>2016-03-12T13:22:39Z</time>
      </trkpt>
      <trkpt lat="48.38712" lon="-0.27267">
        <ele>355.8</ele>
        <time>2016-03-12T13:22:42Z</time>
      </trkpt>
      <trkpt lat="48.38715" lon="-0.2725">
        <ele>356.3</ele>
        <time>2016-03-12T13:22:45Z</time>
      </trkpt>
      <trkpt lat="48.38718" lon="-0.27234">
        <ele>356.8</ele>
        <time>2016-03-12T13:22:48Z</time>
      </trkpt>
      <trkpt lat="48.38722" lon="-0.27218">
        <ele>357.4</ele>
        <time>2016-03-12T13:22:51Z</time>
      </trkpt>
      <trkpt lat="48.38727" lon="-0.27203">
        <ele>357.9</ele>
        <time>2016-03-12T13:22:54Z</time>
      </trkpt>
      <trkpt lat="48.38729" lon="-0.27187">
        <ele>358.4</ele>
        <time>2016-03-12T13:22:57Z</time>
      </trkpt>
      <trkpt lat="48.38722" lon="-0.27179">
        <ele>358.8</ele>
        <time>2016-03-12T13:23:00Z</time>
      </trkpt>
      <trkpt lat="48.38711" lon="-0.27172">
        <ele>359.4</ele>
        <time>2016-03-12T13:23:04Z</time>
      </trkpt>
      <trkpt lat="48.38709" lon="-0.27158">
        <ele>359.9</ele>
        <time>2016-03-12T13:23:08Z</time>
      </trkpt>
      <trkpt lat="48.38712" lon="-0.27144">
        <ele>360.2</ele>
        <time>2016-03-12T13:23:12Z</time>
      </trkpt>
      <trkpt lat="48.38716" lon="-0.27129">
        <ele>360.5</ele>
        <time>2016-03-12T13:23:16Z</time>
      </trkpt>
      <trkpt lat="48.3872" lon="-0.27115">
        <ele>360.9</ele>
        <time>2016-03-12T13:23:20Z</time>
      </trkpt>
      <trkpt lat="48.38725" lon="-0.27101">
        <ele>361.3</ele>
        <time>2016-03-12T13:23:24Z</time>
      </trkpt>
      <trkpt lat="48.38728" lon="-0.27086">
        <ele>361.7</ele>
        <time>2016-03-12T13:23:28Z</time>
      </trkpt>
      <trkpt lat="48.38731" lon="-0.2707">
        <ele>362</ele>
        <time>2016-03-12T13:23:32Z</time>
      </trkpt>
      <trkpt lat="48.38734" lon="-0.27056">
        <ele>362.2</ele>
        <time>2016-03-12T13:23:35Z</time>
      </trkpt>
      <trkpt lat="48.38737" lon="-0.27041">
        <ele>362.4</ele>
        <time>2016-03-12T13:23:38Z</time>
      </trkpt>
      <trkpt lat="48.38739" lon="-0.27026">
        <ele>362.7</ele>
        <time>2016-03-12T13:23:41Z</time>
      </trkpt>
      <trkpt lat="48.38742" lon="-0.27012">
        <ele>363</ele>
        <time>2016-03-12T13:23:44Z</time>
      </trkpt>
      <trkpt lat="48.38743" lon="-0.26997">
        <ele>363.2</ele>
        <time>2016-03-12T13:23:47Z</time>
      </trkpt>
      <trkpt lat="48.38746" lon="-0.26981">
        <ele>363.5</ele>
        <time>2016-03-12T13:23:50Z</time>
      </trkpt>
      <trkpt lat="48.38749" lon="-0.26967">
        <ele>363.8</ele>
        <time>2016-03-12T13:23:53Z</time>
      </trkpt>
      <trkpt lat="48.38751" lon="-0.26953">
        <ele>364</ele>
        <time>2016-03-12T13:23:56Z</time>
      </trkpt>
      <trkpt lat="48.38753" lon="-0.26939">
        <ele>364.3</ele>
        <time>2016-03-12T13:23:59Z</time>
      </trkpt>
      <trkpt lat="48.38755" lon="-0.26925">
        <ele>364.7</ele>
        <time>2016-03-12T13:24:02Z</time>
      </trkpt>
      <trkpt lat="48.38758" lon="-0.2691">
        <ele>365</ele>
        <time>2016-03-12T13:24:05Z</time>
      </trkpt>
      <trkpt lat="48.38761" lon="-0.26897">
        <ele>365.3</ele>
        <time>2016-03-12T13:24:08Z</time>
      </trkpt>
      <trkpt lat="48.38763" lon="-0.26883">
        <ele>365.5</ele>
        <time>2016-03-12T13:24:11Z</time>
      </trkpt>
      <trkpt lat="48.38766" lon="-0.26866">
        <ele>365.8</ele>
        <time>2016-03-12T13:24:15Z</time>
      </trkpt>
      <trkpt lat="48.38767" lon="-0.2685">
        <ele>366.2</ele>
        <time>2016-03-12T13:24:20Z</time>
      </trkpt>
      <trkpt lat="48.38769" lon="-0.26836">
        <ele>366.4</ele>
        <time>2016-03-12T13:24:25Z</time>
      </trkpt>
      <trkpt lat="48.38771" lon="-0.26821">
        <ele>366.6</ele>
        <time>2016-03-12T13:24:30Z</time>
      </trkpt>
      <trkpt lat="48.38772" lon="-0.26804">
        <ele>366.8</ele>
        <time>2016-03-12T13:24:34Z</time>
      </trkpt>
      <trkpt lat="48.38774" lon="-0.26787">
        <ele>367</ele>
        <time>2016-03-12T13:24:38Z</time>
      </trkpt>
      <trkpt lat="48.38776" lon="-0.26771">
        <ele>367.1</ele>
        <time>2016-03-12T13:24:42Z</time>
      </trkpt>
      <trkpt lat="48.38777" lon="-0.26756">
        <ele>367.2</ele>
        <time>2016-03-12T13:24:46Z</time>
      </trkpt>
      <trkpt lat="48.38779" lon="-0.2674">
        <ele>367.4</ele>
        <time>2016-03-12T13:24:50Z</time>
      </trkpt>
      <trkpt lat="48.38782" lon="-0.26723">
        <ele>367.6</ele>
        <time>2016-03-12T13:24:54Z</time>
      </trkpt>
      <trkpt lat="48.38785" lon="-0.26708">
        <ele>367.7</ele>
        <time>2016-03-12T13:24:58Z</time>
      </trkpt>
      <trkpt lat="48.38786" lon="-0.26694">
        <ele>368</ele>
        <time>2016-03-12T13:25:02Z</time>
      </trkpt>
      <trkpt lat="48.38787" lon="-0.26678">
        <ele>368.2</ele>
        <time>2016-03-12T13:25:06Z</time>
      </trkpt>
      <trkpt lat="48.38788" lon="-0.26663">
        <ele>368.4</ele>
        <time>2016-03-12T13:25:09Z</time>
      </trkpt>
      <trkpt lat="48.3879" lon="-0.26647">
        <ele>368.5</ele>
        <time>2016-03-12T13:25:12Z</time>
      </trkpt>
      <trkpt lat="48.38793" lon="-0.2663">
        <ele>368.7</ele>
        <time>2016-03-12T13:25:15Z</time>
      </trkpt>
      <trkpt lat="48.38794" lon="-0.26614">
        <ele>368.9</ele>
        <time>2016-03-12T13:25:18Z</time>
      </trkpt>
      <trkpt lat="48.38797" lon="-0.26595">
        <ele>369.1</ele>
        <time>2016-03-12T13:25:22Z</time>
      </trkpt>
      <trkpt lat="48.38799" lon="-0.26578">
        <ele>369.2</ele>
        <time>2016-03-12T13:25:25Z</time>
      </trkpt>
      <trkpt lat="48.38801" lon="-0.26561">
        <ele>369.3</ele>
        <time>2016-03-12T13:25:29Z</time>
      </trkpt>
      <trkpt lat="48.38803" lon="-0.26546">
        <ele>369.3</ele>
        <time>2016-03-12T13:25:32Z</time>
      </trkpt>
      <trkpt lat="48.38806" lon="-0.26529">
        <ele>369.4</ele>
        <time>2016-03-12T13:25:35Z</time>
      </trkpt>
      <trkpt lat="48.38811" lon="-0.26515">
        <ele>369.5</ele>
        <time>2016-03-12T13:25:37Z</time>
      </trkpt>
      <trkpt lat="48.38817" lon="-0.26501">
        <ele>369.6</ele>
        <time>2016-03-12T13:25:39Z</time>
      </trkpt>
      <trkpt lat="48.3882" lon="-0.26486">
        <ele>369.6</ele>
        <time>2016-03-12T13:25:41Z</time>
      </trkpt>
      <trkpt lat="48.38823" lon="-0.26472">
        <ele>369.5</ele>
        <time>2016-03-12T13:25:43Z</time>
      </trkpt>
      <trkpt lat="48.38826" lon="-0.26459">
        <ele>369.4</ele>
        <time>2016-03-12T13:25:45Z</time>
      </trkpt>
      <trkpt lat="48.38834" lon="-0.26446">
        <ele>369.3</ele>
        <time>2016-03-12T13:25:47Z</time>
      </trkpt>
      <trkpt lat="48.38837" lon="-0.26432">
        <ele>369.1</ele>
        <time>2016-03-12T13:25:49Z</time>
      </trkpt>
      <trkpt lat="48.38841" lon="-0.26418">
        <ele>368.9</ele>
        <time>2016-03-12T13:25:51Z</time>
      </trkpt>
      <trkpt lat="48.38844" lon="-0.26403">
        <ele>368.7</ele>
        <time>2016-03-12T13:25:53Z</time>
      </trkpt>
      <trkpt lat="48.38849" lon="-0.26391">
        <ele>368.5</ele>
        <time>2016-03-12T13:25:55Z</time>
      </trkpt>
      <trkpt lat="48.38854" lon="-0.26378">
        <ele>368.4</ele>
        <time>2016-03-12T13:25:57Z</time>
      </trkpt>
      <trkpt lat="48.38855" lon="-0.26364">
        <ele>368.3</ele>
        <time>2016-03-12T13:25:59Z</time>
      </trkpt>
      <trkpt lat="48.38861" lon="-0.26345">
        <ele>368</ele>
        <time>2016-03-12T13:26:02Z</time>
      </trkpt>
      <trkpt lat="48.38865" lon="-0.26326">
        <ele>367.6</ele>
        <time>2016-03-12T13:26:05Z</time>
      </trkpt>
      <trkpt lat="48.3887" lon="-0.26311">
        <ele>367.4</ele>
        <time>2016-03-12T13:26:07Z</time>
      </trkpt>
      <trkpt lat="48.38874" lon="-0.26294">
        <ele>367.2</ele>
        <time>2016-03-12T13:26:09Z</time>
      </trkpt>
      <trkpt lat="48.38881" lon="-0.26274">
        <ele>366.7</ele>
        <time>2016-03-12T13:26:12Z</time>
      </trkpt>
      <trkpt lat="48.38887" lon="-0.26258">
        <ele>366.3</ele>
        <time>2016-03-12T13:26:14Z</time>
      </trkpt>
      <trkpt lat="48.38891" lon="-0.26242">
        <ele>366</ele>
        <time>2016-03-12T13:26:16Z</time>
      </trkpt>
      <trkpt lat="48.38895" lon="-0.26226">
        <ele>365.8</ele>
        <time>2016-03-12T13:26:18Z</time>
      </trkpt>
      <trkpt lat="48.389" lon="-0.26212">
        <ele>365.4</ele>
        <time>2016-03-12T13:26:20Z</time>
      </trkpt>
      <trkpt lat="48.38903" lon="-0.26197">
        <ele>365</ele>
        <time>2016-03-12T13:26:22Z</time>
      </trkpt>
      <trkpt lat="48.38904" lon="-0.2618">
        <ele>364.7</ele>
        <time>2016-03-12T13:26:24Z</time>
      </trkpt>
      <trkpt lat="48.38908" lon="-0.26164">
        <ele>364.5</ele>
        <time>2016-03-12T13:26:26Z</time>
      </trkpt>
      <trkpt lat="48.38911" lon="-0.2615">
        <ele>364.3</ele>
        <time>2016-03-12T13:26:28Z</time>
      </trkpt>
      <trkpt lat="48.38913" lon="-0.26136">
        <ele>364.1</ele>
        <time>2016-03-12T13:26:30Z</time>
      </trkpt>
      <trkpt lat="48.38917" lon="-0.2612">
        <ele>363.9</ele>
        <time>2016-03-12T13:26:32Z</time>
      </trkpt>
      <trkpt lat="48.38923" lon="-0.26103">
        <ele>363.7</ele>
        <time>2016-03-12T13:26:34Z</time>
      </trkpt>
      <trkpt lat="48.38926" lon="-0.26089">
        <ele>363.6</ele>
        <time>2016-03-12T13:26:36Z</time>
      </trkpt>
      <trkpt lat="48.38931" lon="-0.26076">
        <ele>363.3</ele>
        <time>2016-03-12T13:26:38Z</time>
      </trkpt>
      <trkpt lat="48.38937" lon="-0.26057">
        <ele>362.9</ele>
        <time>2016-03-12T13:26:41Z</time>
      </trkpt>
      <trkpt lat="48.38938" lon="-0.26043">
        <ele>362.6</ele>
        <time>2016-03-12T13:26:43Z</time>
      </trkpt>
      <trkpt lat="48.38944" lon="-0.26031">
        <ele>362.4</ele>
        <time>2016-03-12T13:26:45Z</time>
      </trkpt>
      <trkpt lat="48.38947" lon="-0.26014">
        <ele>362.2</ele>
        <time>2016-03-12T13:26:48Z</time>
      </trkpt>
      <trkpt lat="48.38952" lon="-0.26001">
        <ele>361.9</ele>
        <time>2016-03-12T13:26:51Z</time>
      </trkpt>
      <trkpt lat="48.38955" lon="-0.25984">
        <ele>361.5</ele>
        <time>2016-03-12T13:26:55Z</time>
      </trkpt>
      <trkpt lat="48.38962" lon="-0.2597">
        <ele>361.2</ele>
        <time>2016-03-12T13:26:58Z</time>
      </trkpt>
      <trkpt lat="48.38965" lon="-0.25954">
        <ele>360.9</ele>
        <time>2016-03-12T13:27:02Z</time>
      </trkpt>
      <trkpt lat="48.38967" lon="-0.25938">
        <ele>360.5</ele>
        <time>2016-03-12T13:27:06Z</time>
      </trkpt>
      <trkpt lat="48.38968" lon="-0.25924">
        <ele>360.1</ele>
        <time>2016-03-12T13:27:10Z</time>
      </trkpt>
      <trkpt lat="48.38967" lon="-0.25908">
        <ele>359.6</ele>
        <time>2016-03-12T13:27:15Z</time>
      </trkpt>
      <trkpt lat="48.38968" lon="-0.25894">
        <ele>359.2</ele>
        <time>2016-03-12T13:27:21Z</time>
      </trkpt>
      <trkpt lat="48.38969" lon="-0.2588">
        <ele>358.7</ele>
        <time>2016-03-12T13:27:27Z</time>
      </trkpt>
      <trkpt lat="48.3897" lon="-0.25866">
        <ele>358.4</ele>
        <time>2016-03-12T13:27:31Z</time>
      </trkpt>
      <trkpt lat="48.38973" lon="-0.25851">
        <ele>358.1</ele>
        <time>2016-03-12T13:27:35Z</time>
      </trkpt>
      <trkpt lat="48.38971" lon="-0.25836">
        <ele>357.9</ele>
        <time>2016-03-12T13:27:39Z</time>
      </trkpt>
      <trkpt lat="48.38968" lon="-0.25823">
        <ele>357.3</ele>
        <time>2016-03-12T13:28:00Z</time>
      </trkpt>
      <trkpt lat="48.38976" lon="-0.25811">
        <ele>357</ele>
        <time>2016-03-12T13:28:18Z</time>
      </trkpt>
      <trkpt lat="48.38987" lon="-0.25806">
        <ele>356.9</ele>
        <time>2016-03-12T13:28:22Z</time>
      </trkpt>
      <trkpt lat="48.38999" lon="-0.25799">
        <ele>356.8</ele>
        <time>2016-03-12T13:28:27Z</time>
      </trkpt>
      <trkpt lat="48.39009" lon="-0.25793">
        <ele>356.8</ele>
        <time>2016-03-12T13:28:30Z</time>
      </trkpt>
      <trkpt lat="48.3902" lon="-0.25784">
        <ele>356.7</ele>
        <time>2016-03-12T13:28:33Z</time>
      </trkpt>
      <trkpt lat="48.3903" lon="-0.25779">
        <ele>356.7</ele>
        <time>2016-03-12T13:28:36Z</time>
      </trkpt>
      <trkpt lat="48.39039" lon="-0.25773">
        <ele>356.6</ele>
        <time>2016-03-12T13:28:38Z</time>
      </trkpt>
      <trkpt lat="48.3905" lon="-0.25765">
        <ele>356.6</ele>
        <time>2016-03-12T13:28:41Z</time>
      </trkpt>
      <trkpt lat="48.39058" lon="-0.25758">
        <ele>356.6</ele>
        <time>2016-03-12T13:28:43Z</time>
      </trkpt>
      <trkpt lat="48.39066" lon="-0.2575">
        <ele>356.6</ele>
        <time>2016-03-12T13:28:45Z</time>
      </trkpt>
      <trkpt lat="48.39076" lon="-0.25743">
        <ele>356.5</ele>
        <time>2016-03-12T13:28:47Z</time>
      </trkpt>
      <trkpt lat="48.39088" lon="-0.25735">
        <ele>356.5</ele>
        <time>2016-03-12T13:28:50Z</time>
      </trkpt>
      <trkpt lat="48.39097" lon="-0.25725">
        <ele>356.4</ele>
        <time>2016-03-12T13:28:53Z</time>
      </trkpt>
      <trkpt lat="48.39105" lon="-0.25717">
        <ele>356.2</ele>
        <time>2016-03-12T13:28:57Z</time>
      </trkpt>
      <trkpt lat="48.39112" lon="-0.25706">
        <ele>356</ele>
        <time>2016-03-12T13:29:01Z</time>
      </trkpt>
      <trkpt lat="48.39122" lon="-0.25695">
        <ele>355.9</ele>
        <time>2016-03-12T13:29:05Z</time>
      </trkpt>
      <trkpt lat="48.39132" lon="-0.25685">
        <ele>355.8</ele>
        <time>2016-03-12T13:29:08Z</time>
      </trkpt>
      <trkpt lat="48.39141" lon="-0.25676">
        <ele>355.7</ele>
        <time>2016-03-12T13:29:11Z</time>
      </trkpt>
      <trkpt lat="48.39151" lon="-0.25664">
        <ele>355.6</ele>
        <time>2016-03-12T13:29:14Z</time>
      </trkpt>
      <trkpt lat="48.39162" lon="-0.25652">
        <ele>355.3</ele>
        <time>2016-03-12T13:29:18Z</time>
      </trkpt>
      <trkpt lat="48.39172" lon="-0.25645">
        <ele>355.1</ele>
        <time>2016-03-12T13:29:20Z</time>
      </trkpt>
      <trkpt lat="48.3918" lon="-0.25638">
        <ele>355</ele>
        <time>2016-03-12T13:29:22Z</time>
      </trkpt>
      <trkpt lat="48.39188" lon="-0.2563">
        <ele>354.8</ele>
        <time>2016-03-12T13:29:24Z</time>
      </trkpt>
      <trkpt lat="48.39197" lon="-0.25622">
        <ele>354.5</ele>
        <time>2016-03-12T13:29:27Z</time>
      </trkpt>
      <trkpt lat="48.39204" lon="-0.25611">
        <ele>354.3</ele>
        <time>2016-03-12T13:29:30Z</time>
      </trkpt>
      <trkpt lat="48.39214" lon="-0.25599">
        <ele>354.1</ele>
        <time>2016-03-12T13:29:33Z</time>
      </trkpt>
      <trkpt lat="48.39223" lon="-0.2559">
        <ele>353.9</ele>
        <time>2016-03-12T13:29:35Z</time>
      </trkpt>
      <trkpt lat="48.39231" lon="-0.25585">
        <ele>353.8</ele>
        <time>2016-03-12T13:29:37Z</time>
      </trkpt>
      <trkpt lat="48.39241" lon="-0.25574">
        <ele>353.5</ele>
        <time>2016-03-12T13:29:40Z</time>
      </trkpt>
      <trkpt lat="48.3925" lon="-0.25565">
        <ele>353.2</ele>
        <time>2016-03-12T13:29:43Z</time>
      </trkpt>
      <trkpt lat="48.39261" lon="-0.25554">
        <ele>353</ele>
        <time>2016-03-12T13:29:46Z</time>
      </trkpt>
      <trkpt lat="48.39271" lon="-0.25546">
        <ele>352.9</ele>
        <time>2016-03-12T13:29:48Z</time>
      </trkpt>
      <trkpt lat="48.39281" lon="-0.25537">
        <ele>352.6</ele>
        <time>2016-03-12T13:29:51Z</time>
      </trkpt>
      <trkpt lat="48.3929" lon="-0.25529">
        <ele>352.3</ele>
        <time>2016-03-12T13:29:53Z</time>
      </trkpt>
      <trkpt lat="48.39299" lon="-0.2552">
        <ele>352</ele>
        <time>2016-03-12T13:29:55Z</time>
      </trkpt>
      <trkpt lat="48.39307" lon="-0.25511">
        <ele>351.7</ele>
        <time>2016-03-12T13:29:57Z</time>
      </trkpt>
      <trkpt lat="48.39316" lon="-0.25505">
        <ele>351.4</ele>
        <time>2016-03-12T13:29:59Z</time>
      </trkpt>
      <trkpt lat="48.39326" lon="-0.25495">
        <ele>350.8</ele>
        <time>2016-03-12T13:30:03Z</time>
      </trkpt>
      <trkpt lat="48.39335" lon="-0.25488">
        <ele>350.4</ele>
        <time>2016-03-12T13:30:06Z</time>
      </trkpt>
      <trkpt lat="48.39344" lon="-0.25483">
        <ele>350.2</ele>
        <time>2016-03-12T13:30:08Z</time>
      </trkpt>
      <trkpt lat="48.39354" lon="-0.25475">
        <ele>350</ele>
        <time>2016-03-12T13:30:11Z</time>
      </trkpt>
      <trkpt lat="48.39362" lon="-0.25467">
        <ele>349.6</ele>
        <time>2016-03-12T13:30:15Z</time>
      </trkpt>
      <trkpt lat="48.39373" lon="-0.25459">
        <ele>349.1</ele>
        <time>2016-03-12T13:30:20Z</time>
      </trkpt>
      <trkpt lat="48.39381" lon="-0.25453">
        <ele>348.9</ele>
        <time>2016-03-12T13:30:23Z</time>
      </trkpt>
      <trkpt lat="48.39388" lon="-0.25442">
        <ele>348.6</ele>
        <time>2016-03-12T13:30:28Z</time>
      </trkpt>
      <trkpt lat="48.39397" lon="-0.2543">
        <ele>348.3</ele>
        <time>2016-03-12T13:30:32Z</time>
      </trkpt>
      <trkpt lat="48.39404" lon="-0.25422">
        <ele>348.3</ele>
        <time>2016-03-12T13:30:34Z</time>
      </trkpt>
      <trkpt lat="48.39412" lon="-0.25414">
        <ele>348.2</ele>
        <time>2016-03-12T13:30:36Z</time>
      </trkpt>
      <trkpt lat="48.39421" lon="-0.25403">
        <ele>348</ele>
        <time>2016-03-12T13:30:39Z</time>
      </trkpt>
      <trkpt lat="48.39431" lon="-0.2539">
        <ele>347.8</ele>
        <time>2016-03-12T13:30:43Z</time>
      </trkpt>
      <trkpt lat="48.39436" lon="-0.25379">
        <ele>347.6</ele>
        <time>2016-03-12T13:30:45Z</time>
      </trkpt>
      <trkpt lat="48.39446" lon="-0.25367">
        <ele>347.4</ele>
        <time>2016-03-12T13:30:48Z</time>
      </trkpt>
      <trkpt lat="48.39454" lon="-0.25358">
        <ele>347.1</ele>
        <time>2016-03-12T13:30:52Z</time>
      </trkpt>
      <trkpt lat="48.39462" lon="-0.25351">
        <ele>346.5</ele>
        <time>2016-03-12T13:30:59Z</time>
      </trkpt>
      <trkpt lat="48.39468" lon="-0.25336">
        <ele>346.1</ele>
        <time>2016-03-12T13:31:06Z</time>
      </trkpt>
      <trkpt lat="48.39476" lon="-0.25326">
        <ele>345.9</ele>
        <time>2016-03-12T13:31:10Z</time>
      </trkpt>
      <trkpt lat="48.39483" lon="-0.25314">
        <ele>345.8</ele>
        <time>2016-03-12T13:31:13Z</time>
      </trkpt>
      <trkpt lat="48.3949" lon="-0.25301">
        <ele>345.7</ele>
        <time>2016-03-12T13:31:16Z</time>
      </trkpt>
      <trkpt lat="48.39497" lon="-0.25291">
        <ele>345.5</ele>
        <time>2016-03-12T13:31:20Z</time>
      </trkpt>
      <trkpt lat="48.39504" lon="-0.2528">
        <ele>345.4</ele>
        <time>2016-03-12T13:31:24Z</time>
      </trkpt>
      <trkpt lat="48.39509" lon="-0.25267">
        <ele>345.3</ele>
        <time>2016-03-12T13:31:29Z</time>
      </trkpt>
      <trkpt lat="48.39515" lon="-0.25257">
        <ele>345</ele>
        <time>2016-03-12T13:31:34Z</time>
      </trkpt>
      <trkpt lat="48.39524" lon="-0.25248">
        <ele>344.8</ele>
        <time>2016-03-12T13:31:38Z</time>
      </trkpt>
      <trkpt lat="48.39531" lon="-0.25238">
        <ele>344.6</ele>
        <time>2016-03-12T13:31:42Z</time>
      </trkpt>
      <trkpt lat="48.39539" lon="-0.25229">
        <ele>344.5</ele>
        <time>2016-03-12T13:31:46Z</time>
      </trkpt>
      <trkpt lat="48.39547" lon="-0.2522">
        <ele>344.3</ele>
        <time>2016-03-12T13:31:51Z</time>
      </trkpt>
      <trkpt lat="48.39553" lon="-0.25206">
        <ele>344.2</ele>
        <time>2016-03-12T13:31:56Z</time>
      </trkpt>
      <trkpt lat="48.3956" lon="-0.25198">
        <ele>344.1</ele>
        <time>2016-03-12T13:31:59Z</time>
      </trkpt>
      <trkpt lat="48.39566" lon="-0.25186">
        <ele>344</ele>
        <time>2016-03-12T13:32:02Z</time>
      </trkpt>
      <trkpt lat="48.39572" lon="-0.25174">
        <ele>343.8</ele>
        <time>2016-03-12T13:32:07Z</time>
      </trkpt>
      <trkpt lat="48.3958" lon="-0.2516">
        <ele>343.5</ele>
        <time>2016-03-12T13:32:12Z</time>
      </trkpt>
      <trkpt lat="48.39588" lon="-0.25149">
        <ele>343.5</ele>
        <time>2016-03-12T13:32:15Z</time>
      </trkpt>
      <trkpt lat="48.39595" lon="-0.25135">
        <ele>343.4</ele>
        <time>2016-03-12T13:32:19Z</time>
      </trkpt>
      <trkpt lat="48.39604" lon="-0.25125">
        <ele>343.4</ele>
        <time>2016-03-12T13:32:22Z</time>
      </trkpt>
      <trkpt lat="48.3961" lon="-0.25115">
        <ele>343.3</ele>
        <time>2016-03-12T13:32:25Z</time>
      </trkpt>
      <trkpt lat="48.39614" lon="-0.25103">
        <ele>343.3</ele>
        <time>2016-03-12T13:32:28Z</time>
      </trkpt>
      <trkpt lat="48.39621" lon="-0.25088">
        <ele>343.3</ele>
        <time>2016-03-12T13:32:31Z</time>
      </trkpt>
      <trkpt lat="48.39627" lon="-0.25078">
        <ele>343.2</ele>
        <time>2016-03-12T13:32:34Z</time>
      </trkpt>
      <trkpt lat="48.39638" lon="-0.2508">
        <ele>343.2</ele>
        <time>2016-03-12T13:32:38Z</time>
      </trkpt>
      <trkpt lat="48.39645" lon="-0.25088">
        <ele>343.2</ele>
        <time>2016-03-12T13:32:41Z</time>
      </trkpt>
      <trkpt lat="48.39656" lon="-0.25092">
        <ele>343.1</ele>
        <time>2016-03-12T13:32:45Z</time>
      </trkpt>
      <trkpt lat="48.39667" lon="-0.25097">
        <ele>342.7</ele>
        <time>2016-03-12T13:32:49Z</time>
      </trkpt>
      <trkpt lat="48.39678" lon="-0.25099">
        <ele>342.3</ele>
        <time>2016-03-12T13:32:52Z</time>
      </trkpt>
      <trkpt lat="48.39687" lon="-0.25106">
        <ele>342</ele>
        <time>2016-03-12T13:32:55Z</time>
      </trkpt>
      <trkpt lat="48.397" lon="-0.25113">
        <ele>341.4</ele>
        <time>2016-03-12T13:32:58Z</time>
      </trkpt>
      <trkpt lat="48.39709" lon="-0.25117">
        <ele>341.1</ele>
        <time>2016-03-12T13:33:00Z</time>
      </trkpt>
      <trkpt lat="48.39718" lon="-0.25123">
        <ele>340.8</ele>
        <time>2016-03-12T13:33:02Z</time>
      </trkpt>
      <trkpt lat="48.39729" lon="-0.25128">
        <ele>340.3</ele>
        <time>2016-03-12T13:33:05Z</time>
      </trkpt>
      <trkpt lat="48.3974" lon="-0.25132">
        <ele>340</ele>
        <time>2016-03-12T13:33:08Z</time>
      </trkpt>
      <trkpt lat="48.3975" lon="-0.25136">
        <ele>339.6</ele>
        <time>2016-03-12T13:33:11Z</time>
      </trkpt>
      <trkpt lat="48.39761" lon="-0.2514">
        <ele>339</ele>
        <time>2016-03-12T13:33:14Z</time>
      </trkpt>
      <trkpt lat="48.39774" lon="-0.25139">
        <ele>338.3</ele>
        <time>2016-03-12T13:33:18Z</time>
      </trkpt>
      <trkpt lat="48.39783" lon="-0.25132">
        <ele>337.3</ele>
        <time>2016-03-12T13:33:23Z</time>
      </trkpt>
      <trkpt lat="48.39792" lon="-0.25124">
        <ele>336.7</ele>
        <time>2016-03-12T13:33:27Z</time>
      </trkpt>
      <trkpt lat="48.39801" lon="-0.25115">
        <ele>336.2</ele>
        <time>2016-03-12T13:33:31Z</time>
      </trkpt>
      <trkpt lat="48.3981" lon="-0.25105">
        <ele>335.7</ele>
        <time>2016-03-12T13:33:35Z</time>
      </trkpt>
      <trkpt lat="48.39819" lon="-0.25096">
        <ele>335.4</ele>
        <time>2016-03-12T13:33:38Z</time>
      </trkpt>
      <trkpt lat="48.39827" lon="-0.25083">
        <ele>335</ele>
        <time>2016-03-12T13:33:42Z</time>
      </trkpt>
      <trkpt lat="48.39834" lon="-0.25072">
        <ele>334.6</ele>
        <time>2016-03-12T13:33:45Z</time>
      </trkpt>
      <trkpt lat="48.39843" lon="-0.25063">
        <ele>334.3</ele>
        <time>2016-03-12T13:33:48Z</time>
      </trkpt>
      <trkpt lat="48.39851" lon="-0.25054">
        <ele>334</ele>
        <time>2016-03-12T13:33:51Z</time>
      </trkpt>
      <trkpt lat="48.39861" lon="-0.25047">
        <ele>333.4</ele>
        <time>2016-03-12T13:33:54Z</time>
      </trkpt>
      <trkpt lat="48.39872" lon="-0.25037">
        <ele>333</ele>
        <time>2016-03-12T13:33:57Z</time>
      </trkpt>
      <trkpt lat="48.39881" lon="-0.25028">
        <ele>332.2</ele>
        <time>2016-03-12T13:34:00Z</time>
      </trkpt>
      <trkpt lat="48.3989" lon="-0.25016">
        <ele>331.7</ele>
        <time>2016-03-12T13:34:02Z</time>
      </trkpt>
      <trkpt lat="48.39897" lon="-0.25008">
        <ele>331.4</ele>
        <time>2016-03-12T13:34:04Z</time>
      </trkpt>
      <trkpt lat="48.39905" lon="-0.25">
        <ele>331</ele>
        <time>2016-03-12T13:34:06Z</time>
      </trkpt>
      <trkpt lat="48.39915" lon="-0.24993">
        <ele>330.6</ele>
        <time>2016-03-12T13:34:08Z</time>
      </trkpt>
      <trkpt lat="48.39922" lon="-0.24984">
        <ele>330.2</ele>
        <time>2016-03-12T13:34:10Z</time>
      </trkpt>
      <trkpt lat="48.39931" lon="-0.24975">
        <ele>329.6</ele>
        <time>2016-03-12T13:34:12Z</time>
      </trkpt>
      <trkpt lat="48.3994" lon="-0.24963">
        <ele>328.4</ele>
        <time>2016-03-12T13:34:14Z</time>
      </trkpt>
      <trkpt lat="48.39948" lon="-0.24952">
        <ele>327.7</ele>
        <time>2016-03-12T13:34:16Z</time>
      </trkpt>
      <trkpt lat="48.39955" lon="-0.24938">
        <ele>326.7</ele>
        <time>2016-03-12T13:34:19Z</time>
      </trkpt>
      <trkpt lat="48.39961" lon="-0.24926">
        <ele>325.4</ele>
        <time>2016-03-12T13:34:24Z</time>
      </trkpt>
      <trkpt lat="48.39968" lon="-0.24916">
        <ele>324.5</ele>
        <time>2016-03-12T13:34:29Z</time>
      </trkpt>
      <trkpt lat="48.39975" lon="-0.24907">
        <ele>323.7</ele>
        <time>2016-03-12T13:34:35Z</time>
      </trkpt>
      <trkpt lat="48.3998" lon="-0.24895">
        <ele>323.1</ele>
        <time>2016-03-12T13:34:41Z</time>
      </trkpt>
      <trkpt lat="48.39986" lon="-0.24882">
        <ele>322.8</ele>
        <time>2016-03-12T13:34:46Z</time>
      </trkpt>
      <trkpt lat="48.39992" lon="-0.24869">
        <ele>322.6</ele>
        <time>2016-03-12T13:34:49Z</time>
      </trkpt>
      <trkpt lat="48.39997" lon="-0.24856">
        <ele>322.5</ele>
        <time>2016-03-12T13:34:52Z</time>
      </trkpt>
      <trkpt lat="48.40003" lon="-0.24845">
        <ele>322.4</ele>
        <time>2016-03-12T13:34:55Z</time>
      </trkpt>
      <trkpt lat="48.40012" lon="-0.24852">
        <ele>322</ele>
        <time>2016-03-12T13:35:02Z</time>
      </trkpt>
      <trkpt lat="48.40013" lon="-0.24867">
        <ele>321.9</ele>
        <time>2016-03-12T13:35:04Z</time>
      </trkpt>
      <trkpt lat="48.40014" lon="-0.24883">
        <ele>321.8</ele>
        <time>2016-03-12T13:35:06Z</time>
      </trkpt>
      <trkpt lat="48.40014" lon="-0.249">
        <ele>321.5</ele>
        <time>2016-03-12T13:35:08Z</time>
      </trkpt>
      <trkpt lat="48.4002" lon="-0.24911">
        <ele>320.8</ele>
        <time>2016-03-12T13:35:12Z</time>
      </trkpt>
      <trkpt lat="48.40028" lon="-0.24902">
        <ele>319.9</ele>
        <time>2016-03-12T13:35:16Z</time>
      </trkpt>
      <trkpt lat="48.40035" lon="-0.24889">
        <ele>318.9</ele>
        <time>2016-03-12T13:35:19Z</time>
      </trkpt>
      <trkpt lat="48.40043" lon="-0.24873">
        <ele>317.7</ele>
        <time>2016-03-12T13:35:22Z</time>
      </trkpt>
      <trkpt lat="48.40051" lon="-0.24857">
        <ele>316.8</ele>
        <time>2016-03-12T13:35:25Z</time>
      </trkpt>
      <trkpt lat="48.40056" lon="-0.24845">
        <ele>316.3</ele>
        <time>2016-03-12T13:35:27Z</time>
      </trkpt>
      <trkpt lat="48.40062" lon="-0.24832">
        <ele>315.7</ele>
        <time>2016-03-12T13:35:29Z</time>
      </trkpt>
      <trkpt lat="48.4007" lon="-0.24819">
        <ele>315.1</ele>
        <time>2016-03-12T13:35:31Z</time>
      </trkpt>
      <trkpt lat="48.40076" lon="-0.24807">
        <ele>314.4</ele>
        <time>2016-03-12T13:35:33Z</time>
      </trkpt>
      <trkpt lat="48.40083" lon="-0.24794">
        <ele>313.7</ele>
        <time>2016-03-12T13:35:35Z</time>
      </trkpt>
      <trkpt lat="48.4009" lon="-0.2478">
        <ele>313.1</ele>
        <time>2016-03-12T13:35:37Z</time>
      </trkpt>
      <trkpt lat="48.40096" lon="-0.24764">
        <ele>312.4</ele>
        <time>2016-03-12T13:35:39Z</time>
      </trkpt>
      <trkpt lat="48.40104" lon="-0.24754">
        <ele>311.7</ele>
        <time>2016-03-12T13:35:41Z</time>
      </trkpt>
      <trkpt lat="48.40112" lon="-0.24745">
        <ele>311.1</ele>
        <time>2016-03-12T13:35:43Z</time>
      </trkpt>
      <trkpt lat="48.4012" lon="-0.24738">
        <ele>310.5</ele>
        <time>2016-03-12T13:35:45Z</time>
      </trkpt>
      <trkpt lat="48.40128" lon="-0.24729">
        <ele>309.9</ele>
        <time>2016-03-12T13:35:47Z</time>
      </trkpt>
      <trkpt lat="48.40138" lon="-0.24723">
        <ele>309.2</ele>
        <time>2016-03-12T13:35:49Z</time>
      </trkpt>
      <trkpt lat="48.40151" lon="-0.24717">
        <ele>308.6</ele>
        <time>2016-03-12T13:35:51Z</time>
      </trkpt>
      <trkpt lat="48.4016" lon="-0.2471">
        <ele>308</ele>
        <time>2016-03-12T13:35:53Z</time>
      </trkpt>
      <trkpt lat="48.40169" lon="-0.24705">
        <ele>307.3</ele>
        <time>2016-03-12T13:35:55Z</time>
      </trkpt>
      <trkpt lat="48.40178" lon="-0.24699">
        <ele>306.7</ele>
        <time>2016-03-12T13:35:57Z</time>
      </trkpt>
      <trkpt lat="48.40191" lon="-0.24689">
        <ele>306.1</ele>
        <time>2016-03-12T13:35:59Z</time>
      </trkpt>
      <trkpt lat="48.40203" lon="-0.2468">
        <ele>305.4</ele>
        <time>2016-03-12T13:36:01Z</time>
      </trkpt>
      <trkpt lat="48.40214" lon="-0.24671">
        <ele>304.6</ele>
        <time>2016-03-12T13:36:03Z</time>
      </trkpt>
      <trkpt lat="48.40225" lon="-0.24661">
        <ele>304</ele>
        <time>2016-03-12T13:36:05Z</time>
      </trkpt>
      <trkpt lat="48.40234" lon="-0.24651">
        <ele>303.3</ele>
        <time>2016-03-12T13:36:07Z</time>
      </trkpt>
      <trkpt lat="48.40243" lon="-0.24642">
        <ele>302.4</ele>
        <time>2016-03-12T13:36:09Z</time>
      </trkpt>
      <trkpt lat="48.40245" lon="-0.24626">
        <ele>301.1</ele>
        <time>2016-03-12T13:36:12Z</time>
      </trkpt>
      <trkpt lat="48.40251" lon="-0.2461">
        <ele>299.7</ele>
        <time>2016-03-12T13:36:16Z</time>
      </trkpt>
      <trkpt lat="48.40255" lon="-0.24596">
        <ele>298.8</ele>
        <time>2016-03-12T13:36:20Z</time>
      </trkpt>
      <trkpt lat="48.40261" lon="-0.24585">
        <ele>298.1</ele>
        <time>2016-03-12T13:36:24Z</time>
      </trkpt>
      <trkpt lat="48.40264" lon="-0.24571">
        <ele>297.6</ele>
        <time>2016-03-12T13:36:28Z</time>
      </trkpt>
      <trkpt lat="48.40267" lon="-0.24557">
        <ele>297.4</ele>
        <time>2016-03-12T13:36:31Z</time>
      </trkpt>
      <trkpt lat="48.40272" lon="-0.24542">
        <ele>297.2</ele>
        <time>2016-03-12T13:36:34Z</time>
      </trkpt>
      <trkpt lat="48.40276" lon="-0.2453">
        <ele>297.1</ele>
        <time>2016-03-12T13:36:37Z</time>
      </trkpt>
      <trkpt lat="48.4028" lon="-0.24515">
        <ele>297.1</ele>
        <time>2016-03-12T13:36:40Z</time>
      </trkpt>
      <trkpt lat="48.40285" lon="-0.24503">
        <ele>297.1</ele>
        <time>2016-03-12T13:36:43Z</time>
      </trkpt>
      <trkpt lat="48.40291" lon="-0.24491">
        <ele>297.1</ele>
        <time>2016-03-12T13:36:46Z</time>
      </trkpt>
      <trkpt lat="48.40296" lon="-0.24478">
        <ele>297.2</ele>
        <time>2016-03-12T13:36:49Z</time>
      </trkpt>
      <trkpt lat="48.40301" lon="-0.24466">
        <ele>297.4</ele>
        <time>2016-03-12T13:36:52Z</time>
      </trkpt>
      <trkpt lat="48.40304" lon="-0.24451">
        <ele>297.7</ele>
        <time>2016-03-12T13:36:56Z</time>
      </trkpt>
      <trkpt lat="48.40309" lon="-0.24435">
        <ele>297.9</ele>
        <time>2016-03-12T13:37:00Z</time>
      </trkpt>
      <trkpt lat="48.40315" lon="-0.24422">
        <ele>298</ele>
        <time>2016-03-12T13:37:03Z</time>
      </trkpt>
      <trkpt lat="48.40324" lon="-0.24409">
        <ele>298.1</ele>
        <time>2016-03-12T13:37:06Z</time>
      </trkpt>
      <trkpt lat="48.40334" lon="-0.24397">
        <ele>298.2</ele>
        <time>2016-03-12T13:37:09Z</time>
      </trkpt>
      <trkpt lat="48.40342" lon="-0.24386">
        <ele>298.2</ele>
        <time>2016-03-12T13:37:12Z</time>
      </trkpt>
      <trkpt lat="48.40351" lon="-0.24379">
        <ele>298</ele>
        <time>2016-03-12T13:37:16Z</time>
      </trkpt>
      <trkpt lat="48.4036" lon="-0.24368">
        <ele>297.6</ele>
        <time>2016-03-12T13:37:22Z</time>
      </trkpt>
      <trkpt lat="48.40368" lon="-0.24358">
        <ele>297.1</ele>
        <time>2016-03-12T13:37:29Z</time>
      </trkpt>
      <trkpt lat="48.40377" lon="-0.24349">
        <ele>296.8</ele>
        <time>2016-03-12T13:37:33Z</time>
      </trkpt>
      <trkpt lat="48.40383" lon="-0.24338">
        <ele>296.5</ele>
        <time>2016-03-12T13:37:37Z</time>
      </trkpt>
      <trkpt lat="48.40389" lon="-0.24325">
        <ele>296.1</ele>
        <time>2016-03-12T13:37:42Z</time>
      </trkpt>
      <trkpt lat="48.40393" lon="-0.24312">
        <ele>295.8</ele>
        <time>2016-03-12T13:37:46Z</time>
      </trkpt>
      <trkpt lat="48.40397" lon="-0.24297">
        <ele>295.4</ele>
        <time>2016-03-12T13:37:50Z</time>
      </trkpt>
      <trkpt lat="48.40401" lon="-0.24283">
        <ele>295.2</ele>
        <time>2016-03-12T13:37:53Z</time>
      </trkpt>
      <trkpt lat="48.40402" lon="-0.24268">
        <ele>295</ele>
        <time>2016-03-12T13:37:56Z</time>
      </trkpt>
      <trkpt lat="48.40403" lon="-0.24255">
        <ele>294.8</ele>
        <time>2016-03-12T13:38:00Z</time>
      </trkpt>
      <trkpt lat="48.40406" lon="-0.2424">
        <ele>294</ele>
        <time>2016-03-12T13:38:16Z</time>
      </trkpt>
      <trkpt lat="48.40405" lon="-0.24226">
        <ele>294</ele>
        <time>2016-03-12T13:38:22Z</time>
      </trkpt>
      <trkpt lat="48.40406" lon="-0.24211">
        <ele>294.3</ele>
        <time>2016-03-12T13:38:28Z</time>
      </trkpt>
      <trkpt lat="48.40412" lon="-0.242">
        <ele>294.6</ele>
        <time>2016-03-12T13:38:32Z</time>
      </trkpt>
      <trkpt lat="48.40416" lon="-0.24185">
        <ele>294.5</ele>
        <time>2016-03-12T13:38:36Z</time>
      </trkpt>
      <trkpt lat="48.40417" lon="-0.24171">
        <ele>294.5</ele>
        <time>2016-03-12T13:38:39Z</time>
      </trkpt>
      <trkpt lat="48.40418" lon="-0.24157">
        <ele>294.4</ele>
        <time>2016-03-12T13:38:42Z</time>
      </trkpt>
      <trkpt lat="48.40418" lon="-0.24142">
        <ele>294.3</ele>
        <time>2016-03-12T13:38:45Z</time>
      </trkpt>
      <trkpt lat="48.40422" lon="-0.24127">
        <ele>294.3</ele>
        <time>2016-03-12T13:38:48Z</time>
      </trkpt>
      <trkpt lat="48.40428" lon="-0.24111">
        <ele>294.2</ele>
        <time>2016-03-12T13:38:51Z</time>
      </trkpt>
      <trkpt lat="48.40431" lon="-0.24099">
        <ele>293.9</ele>
        <time>2016-03-12T13:38:54Z</time>
      </trkpt>
      <trkpt lat="48.40434" lon="-0.24086">
        <ele>293.5</ele>
        <time>2016-03-12T13:38:58Z</time>
      </trkpt>
      <trkpt lat="48.4044" lon="-0.24073">
        <ele>292.9</ele>
        <time>2016-03-12T13:39:03Z</time>
      </trkpt>
      <trkpt lat="48.40445" lon="-0.24061">
        <ele>292.4</ele>
        <time>2016-03-12T13:39:07Z</time>
      </trkpt>
      <trkpt lat="48.40454" lon="-0.24051">
        <ele>292.1</ele>
        <time>2016-03-12T13:39:11Z</time>
      </trkpt>
      <trkpt lat="48.4046" lon="-0.24039">
        <ele>291.6</ele>
        <time>2016-03-12T13:39:15Z</time>
      </trkpt>
      <trkpt lat="48.40466" lon="-0.24028">
        <ele>291</ele>
        <time>2016-03-12T13:39:19Z</time>
      </trkpt>
      <trkpt lat="48.40469" lon="-0.24011">
        <ele>290.3</ele>
        <time>2016-03-12T13:39:25Z</time>
      </trkpt>
      <trkpt lat="48.40474" lon="-0.23995">
        <ele>289.9</ele>
        <time>2016-03-12T13:39:30Z</time>
      </trkpt>
      <trkpt lat="48.40479" lon="-0.23983">
        <ele>289.7</ele>
        <time>2016-03-12T13:39:34Z</time>
      </trkpt>
      <trkpt lat="48.40484" lon="-0.2397">
        <ele>289.6</ele>
        <time>2016-03-12T13:39:38Z</time>
      </trkpt>
      <trkpt lat="48.40489" lon="-0.23959">
        <ele>289.6</ele>
        <time>2016-03-12T13:39:41Z</time>
      </trkpt>
      <trkpt lat="48.40492" lon="-0.23944">
        <ele>289.5</ele>
        <time>2016-03-12T13:39:45Z</time>
      </trkpt>
      <trkpt lat="48.40494" lon="-0.23927">
        <ele>289.4</ele>
        <time>2016-03-12T13:39:49Z</time>
      </trkpt>
      <trkpt lat="48.40499" lon="-0.23913">
        <ele>289.4</ele>
        <time>2016-03-12T13:39:52Z</time>
      </trkpt>
      <trkpt lat="48.40507" lon="-0.23901">
        <ele>289.5</ele>
        <time>2016-03-12T13:39:55Z</time>
      </trkpt>
      <trkpt lat="48.40511" lon="-0.23886">
        <ele>289.6</ele>
        <time>2016-03-12T13:39:58Z</time>
      </trkpt>
      <trkpt lat="48.40514" lon="-0.2387">
        <ele>289.6</ele>
        <time>2016-03-12T13:40:02Z</time>
      </trkpt>
      <trkpt lat="48.40519" lon="-0.23858">
        <ele>289.5</ele>
        <time>2016-03-12T13:40:05Z</time>
      </trkpt>
      <trkpt lat="48.40524" lon="-0.2384">
        <ele>289.2</ele>
        <time>2016-03-12T13:40:09Z</time>
      </trkpt>
      <trkpt lat="48.4053" lon="-0.23825">
        <ele>289</ele>
        <time>2016-03-12T13:40:13Z</time>
      </trkpt>
      <trkpt lat="48.40533" lon="-0.23809">
        <ele>288.7</ele>
        <time>2016-03-12T13:40:17Z</time>
      </trkpt>
      <trkpt lat="48.40539" lon="-0.23796">
        <ele>288.6</ele>
        <time>2016-03-12T13:40:20Z</time>
      </trkpt>
      <trkpt lat="48.4054" lon="-0.23781">
        <ele>288.4</ele>
        <time>2016-03-12T13:40:25Z</time>
      </trkpt>
      <trkpt lat="48.40544" lon="-0.23769">
        <ele>288.2</ele>
        <time>2016-03-12T13:40:29Z</time>
      </trkpt>
      <trkpt lat="48.40548" lon="-0.23752">
        <ele>288.1</ele>
        <time>2016-03-12T13:40:34Z</time>
      </trkpt>
      <trkpt lat="48.40553" lon="-0.23739">
        <ele>288</ele>
        <time>2016-03-12T13:40:38Z</time>
      </trkpt>
      <trkpt lat="48.40556" lon="-0.23721">
        <ele>287.9</ele>
        <time>2016-03-12T13:40:42Z</time>
      </trkpt>
      <trkpt lat="48.40559" lon="-0.23707">
        <ele>287.9</ele>
        <time>2016-03-12T13:40:45Z</time>
      </trkpt>
      <trkpt lat="48.40561" lon="-0.2369">
        <ele>288</ele>
        <time>2016-03-12T13:40:48Z</time>
      </trkpt>
      <trkpt lat="48.40564" lon="-0.23676">
        <ele>288.1</ele>
        <time>2016-03-12T13:40:51Z</time>
      </trkpt>
      <trkpt lat="48.40571" lon="-0.2366">
        <ele>288.2</ele>
        <time>2016-03-12T13:40:54Z</time>
      </trkpt>
      <trkpt lat="48.40581" lon="-0.23645">
        <ele>288.3</ele>
        <time>2016-03-12T13:40:57Z</time>
      </trkpt>
      <trkpt lat="48.40589" lon="-0.2363">
        <ele>288.4</ele>
        <time>2016-03-12T13:41:00Z</time>
      </trkpt>
      <trkpt lat="48.40594" lon="-0.23618">
        <ele>288.4</ele>
        <time>2016-03-12T13:41:03Z</time>
      </trkpt>
      <trkpt lat="48.406" lon="-0.23608">
        <ele>288.4</ele>
        <time>2016-03-12T13:41:05Z</time>
      </trkpt>
      <trkpt lat="48.40605" lon="-0.23596">
        <ele>288.5</ele>
        <time>2016-03-12T13:41:08Z</time>
      </trkpt>
      <trkpt lat="48.40609" lon="-0.23582">
        <ele>288.5</ele>
        <time>2016-03-12T13:41:12Z</time>
      </trkpt>
      <trkpt lat="48.40613" lon="-0.23569">
        <ele>288.5</ele>
        <time>2016-03-12T13:41:16Z</time>
      </trkpt>
      <trkpt lat="48.40619" lon="-0.23556">
        <ele>288.6</ele>
        <time>2016-03-12T13:41:20Z</time>
      </trkpt>
      <trkpt lat="48.40625" lon="-0.2354">
        <ele>288.8</ele>
        <time>2016-03-12T13:41:24Z</time>
      </trkpt>
      <trkpt lat="48.40633" lon="-0.23525">
        <ele>289</ele>
        <time>2016-03-12T13:41:28Z</time>
      </trkpt>
      <trkpt lat="48.40639" lon="-0.23511">
        <ele>289</ele>
        <time>2016-03-12T13:41:31Z</time>
      </trkpt>
      <trkpt lat="48.40645" lon="-0.23497">
        <ele>289.1</ele>
        <time>2016-03-12T13:41:34Z</time>
      </trkpt>
      <trkpt lat="48.40651" lon="-0.23487">
        <ele>289.1</ele>
        <time>2016-03-12T13:41:36Z</time>
      </trkpt>
      <trkpt lat="48.4066" lon="-0.23472">
        <ele>289.1</ele>
        <time>2016-03-12T13:41:39Z</time>
      </trkpt>
      <trkpt lat="48.40668" lon="-0.23457">
        <ele>289.2</ele>
        <time>2016-03-12T13:41:42Z</time>
      </trkpt>
      <trkpt lat="48.40675" lon="-0.23442">
        <ele>289.2</ele>
        <time>2016-03-12T13:41:45Z</time>
      </trkpt>
      <trkpt lat="48.40683" lon="-0.23427">
        <ele>289.2</ele>
        <time>2016-03-12T13:41:48Z</time>
      </trkpt>
      <trkpt lat="48.40689" lon="-0.23418">
        <ele>289.2</ele>
        <time>2016-03-12T13:41:50Z</time>
      </trkpt>
      <trkpt lat="48.40696" lon="-0.23406">
        <ele>289.2</ele>
        <time>2016-03-12T13:41:53Z</time>
      </trkpt>
      <trkpt lat="48.40703" lon="-0.23394">
        <ele>289.2</ele>
        <time>2016-03-12T13:41:56Z</time>
      </trkpt>
      <trkpt lat="48.40709" lon="-0.23381">
        <ele>289.2</ele>
        <time>2016-03-12T13:41:59Z</time>
      </trkpt>
      <trkpt lat="48.40715" lon="-0.23367">
        <ele>289.3</ele>
        <time>2016-03-12T13:42:02Z</time>
      </trkpt>
      <trkpt lat="48.40719" lon="-0.23354">
        <ele>289.3</ele>
        <time>2016-03-12T13:42:05Z</time>
      </trkpt>
      <trkpt lat="48.40724" lon="-0.23341">
        <ele>289.4</ele>
        <time>2016-03-12T13:42:08Z</time>
      </trkpt>
      <trkpt lat="48.40729" lon="-0.23328">
        <ele>289.5</ele>
        <time>2016-03-12T13:42:11Z</time>
      </trkpt>
      <trkpt lat="48.40733" lon="-0.23315">
        <ele>289.7</ele>
        <time>2016-03-12T13:42:14Z</time>
      </trkpt>
      <trkpt lat="48.40739" lon="-0.23302">
        <ele>289.9</ele>
        <time>2016-03-12T13:42:17Z</time>
      </trkpt>
      <trkpt lat="48.40744" lon="-0.23289">
        <ele>290.1</ele>
        <time>2016-03-12T13:42:20Z</time>
      </trkpt>
      <trkpt lat="48.40751" lon="-0.23275">
        <ele>290.4</ele>
        <time>2016-03-12T13:42:23Z</time>
      </trkpt>
      <trkpt lat="48.40758" lon="-0.23261">
        <ele>290.6</ele>
        <time>2016-03-12T13:42:26Z</time>
      </trkpt>
      <trkpt lat="48.40765" lon="-0.23247">
        <ele>290.9</ele>
        <time>2016-03-12T13:42:29Z</time>
      </trkpt>
      <trkpt lat="48.40774" lon="-0.23233">
        <ele>291.1</ele>
        <time>2016-03-12T13:42:32Z</time>
      </trkpt>
      <trkpt lat="48.40784" lon="-0.23223">
        <ele>291.3</ele>
        <time>2016-03-12T13:42:35Z</time>
      </trkpt>
      <trkpt lat="48.40795" lon="-0.23212">
        <ele>291.5</ele>
        <time>2016-03-12T13:42:38Z</time>
      </trkpt>
      <trkpt lat="48.40804" lon="-0.232">
        <ele>291.5</ele>
        <time>2016-03-12T13:42:41Z</time>
      </trkpt>
      <trkpt lat="48.40813" lon="-0.23188">
        <ele>291.5</ele>
        <time>2016-03-12T13:42:44Z</time>
      </trkpt>
      <trkpt lat="48.40822" lon="-0.23176">
        <ele>291.4</ele>
        <time>2016-03-12T13:42:47Z</time>
      </trkpt>
      <trkpt lat="48.40828" lon="-0.23166">
        <ele>291.2</ele>
        <time>2016-03-12T13:42:50Z</time>
      </trkpt>
      <trkpt lat="48.40836" lon="-0.23153">
        <ele>291</ele>
        <time>2016-03-12T13:42:53Z</time>
      </trkpt>
      <trkpt lat="48.40845" lon="-0.23138">
        <ele>290.7</ele>
        <time>2016-03-12T13:42:56Z</time>
      </trkpt>
      <trkpt lat="48.40855" lon="-0.23125">
        <ele>290.5</ele>
        <time>2016-03-12T13:42:59Z</time>
      </trkpt>
      <trkpt lat="48.40861" lon="-0.23115">
        <ele>290.4</ele>
        <time>2016-03-12T13:43:01Z</time>
      </trkpt>
      <trkpt lat="48.40868" lon="-0.23104">
        <ele>290.2</ele>
        <time>2016-03-12T13:43:03Z</time>
      </trkpt>
      <trkpt lat="48.40875" lon="-0.23094">
        <ele>290.1</ele>
        <time>2016-03-12T13:43:05Z</time>
      </trkpt>
      <trkpt lat="48.40883" lon="-0.23082">
        <ele>289.9</ele>
        <time>2016-03-12T13:43:07Z</time>
      </trkpt>
      <trkpt lat="48.40889" lon="-0.23072">
        <ele>289.7</ele>
        <time>2016-03-12T13:43:09Z</time>
      </trkpt>
      <trkpt lat="48.40895" lon="-0.2306">
        <ele>289.5</ele>
        <time>2016-03-12T13:43:11Z</time>
      </trkpt>
      <trkpt lat="48.40903" lon="-0.23047">
        <ele>289.3</ele>
        <time>2016-03-12T13:43:14Z</time>
      </trkpt>
      <trkpt lat="48.40911" lon="-0.23034">
        <ele>288.9</ele>
        <time>2016-03-12T13:43:17Z</time>
      </trkpt>
      <trkpt lat="48.40918" lon="-0.2302">
        <ele>288.7</ele>
        <time>2016-03-12T13:43:20Z</time>
      </trkpt>
      <trkpt lat="48.40925" lon="-0.23003">
        <ele>288.5</ele>
        <time>2016-03-12T13:43:23Z</time>
      </trkpt>
      <trkpt lat="48.40933" lon="-0.22987">
        <ele>288.3</ele>
        <time>2016-03-12T13:43:26Z</time>
      </trkpt>
      <trkpt lat="48.4094" lon="-0.22972">
        <ele>288.1</ele>
        <time>2016-03-12T13:43:29Z</time>
      </trkpt>
      <trkpt lat="48.40945" lon="-0.2296">
        <ele>288</ele>
        <time>2016-03-12T13:43:32Z</time>
      </trkpt>
      <trkpt lat="48.40951" lon="-0.22947">
        <ele>287.9</ele>
        <time>2016-03-12T13:43:35Z</time>
      </trkpt>
      <trkpt lat="48.40959" lon="-0.22933">
        <ele>288</ele>
        <time>2016-03-12T13:43:38Z</time>
      </trkpt>
      <trkpt lat="48.40965" lon="-0.2292">
        <ele>288.2</ele>
        <time>2016-03-12T13:43:41Z</time>
      </trkpt>
      <trkpt lat="48.40972" lon="-0.22907">
        <ele>288.7</ele>
        <time>2016-03-12T13:43:45Z</time>
      </trkpt>
      <trkpt lat="48.4098" lon="-0.22896">
        <ele>289.1</ele>
        <time>2016-03-12T13:43:48Z</time>
      </trkpt>
      <trkpt lat="48.40988" lon="-0.22887">
        <ele>289.9</ele>
        <time>2016-03-12T13:43:52Z</time>
      </trkpt>
      <trkpt lat="48.40995" lon="-0.22875">
        <ele>290.5</ele>
        <time>2016-03-12T13:43:56Z</time>
      </trkpt>
      <trkpt lat="48.41001" lon="-0.22865">
        <ele>291</ele>
        <time>2016-03-12T13:43:59Z</time>
      </trkpt>
      <trkpt lat="48.41008" lon="-0.22852">
        <ele>291.6</ele>
        <time>2016-03-12T13:44:03Z</time>
      </trkpt>
      <trkpt lat="48.41015" lon="-0.2284">
        <ele>292.2</ele>
        <time>2016-03-12T13:44:07Z</time>
      </trkpt>
      <trkpt lat="48.41021" lon="-0.22826">
        <ele>292.7</ele>
        <time>2016-03-12T13:44:11Z</time>
      </trkpt>
      <trkpt lat="48.41026" lon="-0.22812">
        <ele>293.1</ele>
        <time>2016-03-12T13:44:15Z</time>
      </trkpt>
      <trkpt lat="48.41031" lon="-0.22797">
        <ele>293.4</ele>
        <time>2016-03-12T13:44:19Z</time>
      </trkpt>
      <trkpt lat="48.41038" lon="-0.22783">
        <ele>293.8</ele>
        <time>2016-03-12T13:44:23Z</time>
      </trkpt>
      <trkpt lat="48.41045" lon="-0.22771">
        <ele>294.3</ele>
        <time>2016-03-12T13:44:27Z</time>
      </trkpt>
      <trkpt lat="48.41052" lon="-0.22759">
        <ele>294.7</ele>
        <time>2016-03-12T13:44:31Z</time>
      </trkpt>
      <trkpt lat="48.41058" lon="-0.22746">
        <ele>295.2</ele>
        <time>2016-03-12T13:44:35Z</time>
      </trkpt>
      <trkpt lat="48.41065" lon="-0.22732">
        <ele>295.5</ele>
        <time>2016-03-12T13:44:39Z</time>
      </trkpt>
      <trkpt lat="48.41072" lon="-0.22721">
        <ele>296</ele>
        <time>2016-03-12T13:44:43Z</time>
      </trkpt>
      <trkpt lat="48.41079" lon="-0.22707">
        <ele>296.5</ele>
        <time>2016-03-12T13:44:47Z</time>
      </trkpt>
      <trkpt lat="48.41085" lon="-0.22697">
        <ele>296.8</ele>
        <time>2016-03-12T13:44:50Z</time>
      </trkpt>
      <trkpt lat="48.4109" lon="-0.22683">
        <ele>297.2</ele>
        <time>2016-03-12T13:44:54Z</time>
      </trkpt>
      <trkpt lat="48.41096" lon="-0.22671">
        <ele>297.5</ele>
        <time>2016-03-12T13:44:57Z</time>
      </trkpt>
      <trkpt lat="48.41102" lon="-0.22658">
        <ele>297.8</ele>
        <time>2016-03-12T13:45:00Z</time>
      </trkpt>
      <trkpt lat="48.41106" lon="-0.22644">
        <ele>298.1</ele>
        <time>2016-03-12T13:45:03Z</time>
      </trkpt>
      <trkpt lat="48.41108" lon="-0.2263">
        <ele>298.3</ele>
        <time>2016-03-12T13:45:06Z</time>
      </trkpt>
      <trkpt lat="48.4111" lon="-0.22616">
        <ele>298.6</ele>
        <time>2016-03-12T13:45:09Z</time>
      </trkpt>
      <trkpt lat="48.41113" lon="-0.22601">
        <ele>298.9</ele>
        <time>2016-03-12T13:45:12Z</time>
      </trkpt>
      <trkpt lat="48.41116" lon="-0.22584">
        <ele>299.2</ele>
        <time>2016-03-12T13:45:16Z</time>
      </trkpt>
      <trkpt lat="48.41118" lon="-0.22571">
        <ele>299.4</ele>
        <time>2016-03-12T13:45:19Z</time>
      </trkpt>
      <trkpt lat="48.41123" lon="-0.22557">
        <ele>299.7</ele>
        <time>2016-03-12T13:45:23Z</time>
      </trkpt>
      <trkpt lat="48.41131" lon="-0.22545">
        <ele>300.1</ele>
        <time>2016-03-12T13:45:27Z</time>
      </trkpt>
      <trkpt lat="48.41138" lon="-0.22536">
        <ele>300.5</ele>
        <time>2016-03-12T13:45:30Z</time>
      </trkpt>
      <trkpt lat="48.41143" lon="-0.22523">
        <ele>300.9</ele>
        <time>2016-03-12T13:45:34Z</time>
      </trkpt>
      <trkpt lat="48.4115" lon="-0.22507">
        <ele>301.3</ele>
        <time>2016-03-12T13:45:39Z</time>
      </trkpt>
      <trkpt lat="48.41156" lon="-0.22496">
        <ele>301.5</ele>
        <time>2016-03-12T13:45:42Z</time>
      </trkpt>
      <trkpt lat="48.41161" lon="-0.22484">
        <ele>301.6</ele>
        <time>2016-03-12T13:45:45Z</time>
      </trkpt>
      <trkpt lat="48.41168" lon="-0.22473">
        <ele>301.6</ele>
        <time>2016-03-12T13:45:48Z</time>
      </trkpt>
      <trkpt lat="48.41174" lon="-0.22463">
        <ele>301.7</ele>
        <time>2016-03-12T13:45:51Z</time>
      </trkpt>
      <trkpt lat="48.4118" lon="-0.22452">
        <ele>302</ele>
        <time>2016-03-12T13:45:54Z</time>
      </trkpt>
      <trkpt lat="48.41189" lon="-0.22441">
        <ele>302.2</ele>
        <time>2016-03-12T13:45:57Z</time>
      </trkpt>
      <trkpt lat="48.41196" lon="-0.22428">
        <ele>302.5</ele>
        <time>2016-03-12T13:46:00Z</time>
      </trkpt>
      <trkpt lat="48.41202" lon="-0.22414">
        <ele>302.9</ele>
        <time>2016-03-12T13:46:05Z</time>
      </trkpt>
      <trkpt lat="48.41206" lon="-0.22402">
        <ele>303.4</ele>
        <time>2016-03-12T13:46:09Z</time>
      </trkpt>
      <trkpt lat="48.41211" lon="-0.2239">
        <ele>303.7</ele>
        <time>2016-03-12T13:46:12Z</time>
      </trkpt>
      <trkpt lat="48.41216" lon="-0.22376">
        <ele>304.1</ele>
        <time>2016-03-12T13:46:15Z</time>
      </trkpt>
      <trkpt lat="48.41221" lon="-0.22362">
        <ele>304.5</ele>
        <time>2016-03-12T13:46:19Z</time>
      </trkpt>
      <trkpt lat="48.41227" lon="-0.22348">
        <ele>304.8</ele>
        <time>2016-03-12T13:46:22Z</time>
      </trkpt>
      <trkpt lat="48.41235" lon="-0.22336">
        <ele>305.2</ele>
        <time>2016-03-12T13:46:26Z</time>
      </trkpt>
      <trkpt lat="48.41242" lon="-0.22323">
        <ele>305.5</ele>
        <time>2016-03-12T13:46:29Z</time>
      </trkpt>
      <trkpt lat="48.41249" lon="-0.22311">
        <ele>305.9</ele>
        <time>2016-03-12T13:46:32Z</time>
      </trkpt>
      <trkpt lat="48.41255" lon="-0.22299">
        <ele>306.2</ele>
        <time>2016-03-12T13:46:35Z</time>
      </trkpt>
      <trkpt lat="48.41262" lon="-0.22286">
        <ele>306.5</ele>
        <time>2016-03-12T13:46:38Z</time>
      </trkpt>
      <trkpt lat="48.41269" lon="-0.22271">
        <ele>306.8</ele>
        <time>2016-03-12T13:46:42Z</time>
      </trkpt>
      <trkpt lat="48.41277" lon="-0.2226">
        <ele>307.1</ele>
        <time>2016-03-12T13:46:45Z</time>
      </trkpt>
      <trkpt lat="48.41283" lon="-0.22246">
        <ele>307.4</ele>
        <time>2016-03-12T13:46:49Z</time>
      </trkpt>
      <trkpt lat="48.4129" lon="-0.22233">
        <ele>307.6</ele>
        <time>2016-03-12T13:46:52Z</time>
      </trkpt>
      <trkpt lat="48.41289" lon="-0.22217">
        <ele>308</ele>
        <time>2016-03-12T13:46:56Z</time>
      </trkpt>
      <trkpt lat="48.41294" lon="-0.22202">
        <ele>308.8</ele>
        <time>2016-03-12T13:47:01Z</time>
      </trkpt>
      <trkpt lat="48.41303" lon="-0.22192">
        <ele>309.1</ele>
        <time>2016-03-12T13:47:04Z</time>
      </trkpt>
      <trkpt lat="48.41311" lon="-0.22182">
        <ele>309.4</ele>
        <time>2016-03-12T13:47:07Z</time>
      </trkpt>
      <trkpt lat="48.41317" lon="-0.22169">
        <ele>309.6</ele>
        <time>2016-03-12T13:47:10Z</time>
      </trkpt>
      <trkpt lat="48.41323" lon="-0.22156">
        <ele>309.9</ele>
        <time>2016-03-12T13:47:14Z</time>
      </trkpt>
      <trkpt lat="48.41331" lon="-0.22146">
        <ele>310.1</ele>
        <time>2016-03-12T13:47:17Z</time>
      </trkpt>
      <trkpt lat="48.41339" lon="-0.22133">
        <ele>310.5</ele>
        <time>2016-03-12T13:47:21Z</time>
      </trkpt>
      <trkpt lat="48.41345" lon="-0.22122">
        <ele>310.8</ele>
        <time>2016-03-12T13:47:24Z</time>
      </trkpt>
      <trkpt lat="48.41351" lon="-0.22112">
        <ele>311.2</ele>
        <time>2016-03-12T13:47:27Z</time>
      </trkpt>
      <trkpt lat="48.41357" lon="-0.221">
        <ele>311.8</ele>
        <time>2016-03-12T13:47:31Z</time>
      </trkpt>
      <trkpt lat="48.41365" lon="-0.22088">
        <ele>312.5</ele>
        <time>2016-03-12T13:47:35Z</time>
      </trkpt>
      <trkpt lat="48.41371" lon="-0.22077">
        <ele>313.2</ele>
        <time>2016-03-12T13:47:39Z</time>
      </trkpt>
      <trkpt lat="48.41376" lon="-0.22066">
        <ele>313.8</ele>
        <time>2016-03-12T13:47:43Z</time>
      </trkpt>
      <trkpt lat="48.41383" lon="-0.22057">
        <ele>314.2</ele>
        <time>2016-03-12T13:47:46Z</time>
      </trkpt>
      <trkpt lat="48.4139" lon="-0.22045">
        <ele>314.7</ele>
        <time>2016-03-12T13:47:50Z</time>
      </trkpt>
      <trkpt lat="48.41396" lon="-0.22035">
        <ele>315.2</ele>
        <time>2016-03-12T13:47:54Z</time>
      </trkpt>
      <trkpt lat="48.41404" lon="-0.22025">
        <ele>315.7</ele>
        <time>2016-03-12T13:47:58Z</time>
      </trkpt>
      <trkpt lat="48.41411" lon="-0.22017">
        <ele>316.1</ele>
        <time>2016-03-12T13:48:01Z</time>
      </trkpt>
      <trkpt lat="48.41418" lon="-0.22006">
        <ele>316.6</ele>
        <time>2016-03-12T13:48:05Z</time>
      </trkpt>
      <trkpt lat="48.41426" lon="-0.21996">
        <ele>316.9</ele>
        <time>2016-03-12T13:48:08Z</time>
      </trkpt>
      <trkpt lat="48.41435" lon="-0.21986">
        <ele>317.1</ele>
        <time>2016-03-12T13:48:11Z</time>
      </trkpt>
      <trkpt lat="48.41445" lon="-0.21975">
        <ele>317.4</ele>
        <time>2016-03-12T13:48:15Z</time>
      </trkpt>
      <trkpt lat="48.41454" lon="-0.21964">
        <ele>317.7</ele>
        <time>2016-03-12T13:48:19Z</time>
      </trkpt>
      <trkpt lat="48.41463" lon="-0.21954">
        <ele>317.9</ele>
        <time>2016-03-12T13:48:23Z</time>
      </trkpt>
      <trkpt lat="48.41472" lon="-0.21948">
        <ele>318</ele>
        <time>2016-03-12T13:48:26Z</time>
      </trkpt>
      <trkpt lat="48.41481" lon="-0.21936">
        <ele>318.2</ele>
        <time>2016-03-12T13:48:30Z</time>
      </trkpt>
      <trkpt lat="48.41488" lon="-0.21924">
        <ele>318.3</ele>
        <time>2016-03-12T13:48:34Z</time>
      </trkpt>
      <trkpt lat="48.415" lon="-0.21912">
        <ele>318.3</ele>
        <time>2016-03-12T13:48:37Z</time>
      </trkpt>
      <trkpt lat="48.41507" lon="-0.21904">
        <ele>318.4</ele>
        <time>2016-03-12T13:48:39Z</time>
      </trkpt>
      <trkpt lat="48.4152" lon="-0.21893">
        <ele>318.3</ele>
        <time>2016-03-12T13:48:43Z</time>
      </trkpt>
      <trkpt lat="48.41529" lon="-0.21884">
        <ele>318.2</ele>
        <time>2016-03-12T13:48:46Z</time>
      </trkpt>
      <trkpt lat="48.4154" lon="-0.21879">
        <ele>318.1</ele>
        <time>2016-03-12T13:48:48Z</time>
      </trkpt>
      <trkpt lat="48.41549" lon="-0.21874">
        <ele>318</ele>
        <time>2016-03-12T13:48:50Z</time>
      </trkpt>
      <trkpt lat="48.41559" lon="-0.21867">
        <ele>318</ele>
        <time>2016-03-12T13:48:52Z</time>
      </trkpt>
      <trkpt lat="48.41568" lon="-0.2186">
        <ele>318.1</ele>
        <time>2016-03-12T13:48:55Z</time>
      </trkpt>
      <trkpt lat="48.41577" lon="-0.21853">
        <ele>318.1</ele>
        <time>2016-03-12T13:48:59Z</time>
      </trkpt>
      <trkpt lat="48.41586" lon="-0.21842">
        <ele>318.2</ele>
        <time>2016-03-12T13:49:04Z</time>
      </trkpt>
      <trkpt lat="48.41594" lon="-0.21835">
        <ele>318.2</ele>
        <time>2016-03-12T13:49:07Z</time>
      </trkpt>
      <trkpt lat="48.41603" lon="-0.21829">
        <ele>318.3</ele>
        <time>2016-03-12T13:49:10Z</time>
      </trkpt>
      <trkpt lat="48.41613" lon="-0.21819">
        <ele>318.5</ele>
        <time>2016-03-12T13:49:13Z</time>
      </trkpt>
      <trkpt lat="48.41623" lon="-0.21813">
        <ele>318.6</ele>
        <time>2016-03-12T13:49:16Z</time>
      </trkpt>
      <trkpt lat="48.41633" lon="-0.21804">
        <ele>318.8</ele>
        <time>2016-03-12T13:49:19Z</time>
      </trkpt>
      <trkpt lat="48.41642" lon="-0.21795">
        <ele>319.1</ele>
        <time>2016-03-12T13:49:23Z</time>
      </trkpt>
      <trkpt lat="48.41651" lon="-0.21787">
        <ele>319.4</ele>
        <time>2016-03-12T13:49:27Z</time>
      </trkpt>
      <trkpt lat="48.4166" lon="-0.21777">
        <ele>319.6</ele>
        <time>2016-03-12T13:49:31Z</time>
      </trkpt>
      <trkpt lat="48.41668" lon="-0.21767">
        <ele>319.8</ele>
        <time>2016-03-12T13:49:35Z</time>
      </trkpt>
      <trkpt lat="48.41675" lon="-0.21758">
        <ele>320</ele>
        <time>2016-03-12T13:49:38Z</time>
      </trkpt>
      <trkpt lat="48.41683" lon="-0.21747">
        <ele>320.3</ele>
        <time>2016-03-12T13:49:42Z</time>
      </trkpt>
      <trkpt lat="48.41691" lon="-0.21739">
        <ele>320.5</ele>
        <time>2016-03-12T13:49:45Z</time>
      </trkpt>
      <trkpt lat="48.417" lon="-0.2173">
        <ele>320.8</ele>
        <time>2016-03-12T13:49:48Z</time>
      </trkpt>
      <trkpt lat="48.4171" lon="-0.2172">
        <ele>321.1</ele>
        <time>2016-03-12T13:49:52Z</time>
      </trkpt>
      <trkpt lat="48.41718" lon="-0.21712">
        <ele>321.5</ele>
        <time>2016-03-12T13:49:56Z</time>
      </trkpt>
      <trkpt lat="48.41726" lon="-0.21705">
        <ele>321.8</ele>
        <time>2016-03-12T13:49:59Z</time>
      </trkpt>
      <trkpt lat="48.41735" lon="-0.21697">
        <ele>322.2</ele>
        <time>2016-03-12T13:50:03Z</time>
      </trkpt>
      <trkpt lat="48.41745" lon="-0.21688">
        <ele>322.6</ele>
        <time>2016-03-12T13:50:07Z</time>
      </trkpt>
      <trkpt lat="48.41755" lon="-0.21678">
        <ele>323.1</ele>
        <time>2016-03-12T13:50:11Z</time>
      </trkpt>
      <trkpt lat="48.41763" lon="-0.2167">
        <ele>323.4</ele>
        <time>2016-03-12T13:50:14Z</time>
      </trkpt>
      <trkpt lat="48.41772" lon="-0.2166">
        <ele>323.8</ele>
        <time>2016-03-12T13:50:18Z</time>
      </trkpt>
      <trkpt lat="48.4178" lon="-0.2165">
        <ele>324.2</ele>
        <time>2016-03-12T13:50:22Z</time>
      </trkpt>
      <trkpt lat="48.41789" lon="-0.21643">
        <ele>324.5</ele>
        <time>2016-03-12T13:50:25Z</time>
      </trkpt>
      <trkpt lat="48.41798" lon="-0.21636">
        <ele>324.8</ele>
        <time>2016-03-12T13:50:28Z</time>
      </trkpt>
      <trkpt lat="48.41807" lon="-0.21626">
        <ele>325.3</ele>
        <time>2016-03-12T13:50:32Z</time>
      </trkpt>
      <trkpt lat="48.41816" lon="-0.21619">
        <ele>325.7</ele>
        <time>2016-03-12T13:50:35Z</time>
      </trkpt>
      <trkpt lat="48.41825" lon="-0.21613">
        <ele>326.1</ele>
        <time>2016-03-12T13:50:39Z</time>
      </trkpt>
      <trkpt lat="48.41834" lon="-0.21611">
        <ele>326.5</ele>
        <time>2016-03-12T13:50:43Z</time>
      </trkpt>
      <trkpt lat="48.41843" lon="-0.21609">
        <ele>327.8</ele>
        <time>2016-03-12T13:51:09Z</time>
      </trkpt>
      <trkpt lat="48.41852" lon="-0.21609">
        <ele>328</ele>
        <time>2016-03-12T13:52:18Z</time>
      </trkpt>
      <trkpt lat="48.41853" lon="-0.21594">
        <ele>327.7</ele>
        <time>2016-03-12T13:52:59Z</time>
      </trkpt>
      <trkpt lat="48.41859" lon="-0.21582">
        <ele>327.9</ele>
        <time>2016-03-12T13:53:04Z</time>
      </trkpt>
      <trkpt lat="48.41865" lon="-0.21572">
        <ele>328.2</ele>
        <time>2016-03-12T13:53:08Z</time>
      </trkpt>
      <trkpt lat="48.41871" lon="-0.21561">
        <ele>328.7</ele>
        <time>2016-03-12T13:53:12Z</time>
      </trkpt>
      <trkpt lat="48.41879" lon="-0.21551">
        <ele>329.2</ele>
        <time>2016-03-12T13:53:16Z</time>
      </trkpt>
      <trkpt lat="48.41886" lon="-0.2154">
        <ele>329.7</ele>
        <time>2016-03-12T13:53:20Z</time>
      </trkpt>
      <trkpt lat="48.41895" lon="-0.21529">
        <ele>330.5</ele>
        <time>2016-03-12T13:53:25Z</time>
      </trkpt>
      <trkpt lat="48.41901" lon="-0.21518">
        <ele>331.3</ele>
        <time>2016-03-12T13:53:30Z</time>
      </trkpt>
      <trkpt lat="48.41907" lon="-0.21505">
        <ele>332.2</ele>
        <time>2016-03-12T13:53:35Z</time>
      </trkpt>
      <trkpt lat="48.41912" lon="-0.21492">
        <ele>333.3</ele>
        <time>2016-03-12T13:53:41Z</time>
      </trkpt>
      <trkpt lat="48.41918" lon="-0.21482">
        <ele>334.2</ele>
        <time>2016-03-12T13:53:45Z</time>
      </trkpt>
      <trkpt lat="48.41926" lon="-0.2147">
        <ele>335.1</ele>
        <time>2016-03-12T13:53:50Z</time>
      </trkpt>
      <trkpt lat="48.41934" lon="-0.2146">
        <ele>336</ele>
        <time>2016-03-12T13:53:55Z</time>
      </trkpt>
      <trkpt lat="48.41942" lon="-0.21449">
        <ele>336.9</ele>
        <time>2016-03-12T13:54:00Z</time>
      </trkpt>
      <trkpt lat="48.41947" lon="-0.21437">
        <ele>337.8</ele>
        <time>2016-03-12T13:54:05Z</time>
      </trkpt>
      <trkpt lat="48.41957" lon="-0.21431">
        <ele>338.8</ele>
        <time>2016-03-12T13:54:10Z</time>
      </trkpt>
      <trkpt lat="48.41965" lon="-0.21424">
        <ele>339.3</ele>
        <time>2016-03-12T13:54:14Z</time>
      </trkpt>
      <trkpt lat="48.41971" lon="-0.21413">
        <ele>339.9</ele>
        <time>2016-03-12T13:54:19Z</time>
      </trkpt>
      <trkpt lat="48.41979" lon="-0.21404">
        <ele>340.4</ele>
        <time>2016-03-12T13:54:25Z</time>
      </trkpt>
      <trkpt lat="48.41987" lon="-0.21397">
        <ele>341.6</ele>
        <time>2016-03-12T13:54:37Z</time>
      </trkpt>
      <trkpt lat="48.41995" lon="-0.21387">
        <ele>342.5</ele>
        <time>2016-03-12T13:54:45Z</time>
      </trkpt>
      <trkpt lat="48.42" lon="-0.21375">
        <ele>343.8</ele>
        <time>2016-03-12T13:54:59Z</time>
      </trkpt>
      <trkpt lat="48.42005" lon="-0.21364">
        <ele>344.6</ele>
        <time>2016-03-12T13:55:10Z</time>
      </trkpt>
      <trkpt lat="48.42008" lon="-0.21351">
        <ele>345</ele>
        <time>2016-03-12T13:55:16Z</time>
      </trkpt>
      <trkpt lat="48.42014" lon="-0.21338">
        <ele>345.6</ele>
        <time>2016-03-12T13:55:22Z</time>
      </trkpt>
      <trkpt lat="48.42021" lon="-0.21328">
        <ele>346</ele>
        <time>2016-03-12T13:55:26Z</time>
      </trkpt>
      <trkpt lat="48.42027" lon="-0.21316">
        <ele>346.6</ele>
        <time>2016-03-12T13:55:31Z</time>
      </trkpt>
      <trkpt lat="48.42032" lon="-0.21303">
        <ele>347.5</ele>
        <time>2016-03-12T13:55:36Z</time>
      </trkpt>
      <trkpt lat="48.42037" lon="-0.21292">
        <ele>348.4</ele>
        <time>2016-03-12T13:55:42Z</time>
      </trkpt>
      <trkpt lat="48.42037" lon="-0.21278">
        <ele>349.6</ele>
        <time>2016-03-12T13:55:49Z</time>
      </trkpt>
      <trkpt lat="48.42037" lon="-0.21263">
        <ele>351</ele>
        <time>2016-03-12T13:55:57Z</time>
      </trkpt>
      <trkpt lat="48.4204" lon="-0.21249">
        <ele>352.1</ele>
        <time>2016-03-12T13:56:03Z</time>
      </trkpt>
      <trkpt lat="48.42043" lon="-0.21234">
        <ele>353.6</ele>
        <time>2016-03-12T13:56:10Z</time>
      </trkpt>
      <trkpt lat="48.42047" lon="-0.21221">
        <ele>354.8</ele>
        <time>2016-03-12T13:56:16Z</time>
      </trkpt>
      <trkpt lat="48.42052" lon="-0.21209">
        <ele>356.1</ele>
        <time>2016-03-12T13:56:23Z</time>
      </trkpt>
      <trkpt lat="48.42048" lon="-0.21197">
        <ele>357.8</ele>
        <time>2016-03-12T13:56:32Z</time>
      </trkpt>
      <trkpt lat="48.42043" lon="-0.21185">
        <ele>358.9</ele>
        <time>2016-03-12T13:56:38Z</time>
      </trkpt>
      <trkpt lat="48.42038" lon="-0.21173">
        <ele>360.1</ele>
        <time>2016-03-12T13:56:44Z</time>
      </trkpt>
      <trkpt lat="48.42029" lon="-0.2117">
        <ele>361.5</ele>
        <time>2016-03-12T13:56:50Z</time>
      </trkpt>
      <trkpt lat="48.4202" lon="-0.21176">
        <ele>362.5</ele>
        <time>2016-03-12T13:56:55Z</time>
      </trkpt>
      <trkpt lat="48.4201" lon="-0.21183">
        <ele>363.4</ele>
        <time>2016-03-12T13:57:00Z</time>
      </trkpt>
      <trkpt lat="48.42001" lon="-0.21192">
        <ele>364.3</ele>
        <time>2016-03-12T13:57:05Z</time>
      </trkpt>
      <trkpt lat="48.41992" lon="-0.21198">
        <ele>365</ele>
        <time>2016-03-12T13:57:09Z</time>
      </trkpt>
      <trkpt lat="48.41982" lon="-0.21204">
        <ele>366</ele>
        <time>2016-03-12T13:57:14Z</time>
      </trkpt>
      <trkpt lat="48.41971" lon="-0.21206">
        <ele>367.1</ele>
        <time>2016-03-12T13:57:19Z</time>
      </trkpt>
      <trkpt lat="48.41962" lon="-0.21208">
        <ele>367.9</ele>
        <time>2016-03-12T13:57:23Z</time>
      </trkpt>
      <trkpt lat="48.41951" lon="-0.21209">
        <ele>368.8</ele>
        <time>2016-03-12T13:57:28Z</time>
      </trkpt>
      <trkpt lat="48.41941" lon="-0.21212">
        <ele>369.6</ele>
        <time>2016-03-12T13:57:32Z</time>
      </trkpt>
      <trkpt lat="48.41931" lon="-0.21216">
        <ele>370.4</ele>
        <time>2016-03-12T13:57:36Z</time>
      </trkpt>
      <trkpt lat="48.41921" lon="-0.21221">
        <ele>371.2</ele>
        <time>2016-03-12T13:57:40Z</time>
      </trkpt>
      <trkpt lat="48.41912" lon="-0.21224">
        <ele>372</ele>
        <time>2016-03-12T13:57:44Z</time>
      </trkpt>
      <trkpt lat="48.41903" lon="-0.21227">
        <ele>372.8</ele>
        <time>2016-03-12T13:57:48Z</time>
      </trkpt>
      <trkpt lat="48.41893" lon="-0.21233">
        <ele>373.4</ele>
        <time>2016-03-12T13:57:52Z</time>
      </trkpt>
      <trkpt lat="48.41882" lon="-0.21238">
        <ele>374</ele>
        <time>2016-03-12T13:57:56Z</time>
      </trkpt>
      <trkpt lat="48.4187" lon="-0.21242">
        <ele>374.5</ele>
        <time>2016-03-12T13:58:00Z</time>
      </trkpt>
      <trkpt lat="48.41859" lon="-0.21247">
        <ele>375</ele>
        <time>2016-03-12T13:58:04Z</time>
      </trkpt>
      <trkpt lat="48.41848" lon="-0.21251">
        <ele>375.6</ele>
        <time>2016-03-12T13:58:08Z</time>
      </trkpt>
      <trkpt lat="48.41838" lon="-0.21257">
        <ele>376.1</ele>
        <time>2016-03-12T13:58:12Z</time>
      </trkpt>
      <trkpt lat="48.41829" lon="-0.2126">
        <ele>376.5</ele>
        <time>2016-03-12T13:58:15Z</time>
      </trkpt>
      <trkpt lat="48.4182" lon="-0.21265">
        <ele>376.8</ele>
        <time>2016-03-12T13:58:18Z</time>
      </trkpt>
      <trkpt lat="48.41811" lon="-0.21268">
        <ele>377.1</ele>
        <time>2016-03-12T13:58:21Z</time>
      </trkpt>
      <trkpt lat="48.41802" lon="-0.21271">
        <ele>377.5</ele>
        <time>2016-03-12T13:58:24Z</time>
      </trkpt>
      <trkpt lat="48.41793" lon="-0.21276">
        <ele>377.9</ele>
        <time>2016-03-12T13:58:27Z</time>
      </trkpt>
      <trkpt lat="48.41783" lon="-0.21278">
        <ele>378.2</ele>
        <time>2016-03-12T13:58:30Z</time>
      </trkpt>
      <trkpt lat="48.41772" lon="-0.21283">
        <ele>378.5</ele>
        <time>2016-03-12T13:58:33Z</time>
      </trkpt>
      <trkpt lat="48.4176" lon="-0.21288">
        <ele>378.7</ele>
        <time>2016-03-12T13:58:36Z</time>
      </trkpt>
      <trkpt lat="48.41749" lon="-0.21294">
        <ele>378.9</ele>
        <time>2016-03-12T13:58:39Z</time>
      </trkpt>
      <trkpt lat="48.41737" lon="-0.21298">
        <ele>379</ele>
        <time>2016-03-12T13:58:42Z</time>
      </trkpt>
      <trkpt lat="48.41724" lon="-0.21301">
        <ele>379</ele>
        <time>2016-03-12T13:58:45Z</time>
      </trkpt>
      <trkpt lat="48.41715" lon="-0.21304">
        <ele>378.9</ele>
        <time>2016-03-12T13:58:47Z</time>
      </trkpt>
      <trkpt lat="48.41705" lon="-0.21306">
        <ele>378.8</ele>
        <time>2016-03-12T13:58:49Z</time>
      </trkpt>
      <trkpt lat="48.41694" lon="-0.21308">
        <ele>378.7</ele>
        <time>2016-03-12T13:58:51Z</time>
      </trkpt>
      <trkpt lat="48.41684" lon="-0.2131">
        <ele>378.6</ele>
        <time>2016-03-12T13:58:53Z</time>
      </trkpt>
      <trkpt lat="48.41675" lon="-0.21311">
        <ele>378.4</ele>
        <time>2016-03-12T13:58:55Z</time>
      </trkpt>
      <trkpt lat="48.41663" lon="-0.21315">
        <ele>378</ele>
        <time>2016-03-12T13:58:58Z</time>
      </trkpt>
      <trkpt lat="48.41651" lon="-0.21316">
        <ele>377.7</ele>
        <time>2016-03-12T13:59:01Z</time>
      </trkpt>
      <trkpt lat="48.41639" lon="-0.21317">
        <ele>377.5</ele>
        <time>2016-03-12T13:59:04Z</time>
      </trkpt>
      <trkpt lat="48.41629" lon="-0.2132">
        <ele>377.3</ele>
        <time>2016-03-12T13:59:07Z</time>
      </trkpt>
      <trkpt lat="48.41617" lon="-0.21324">
        <ele>377.2</ele>
        <time>2016-03-12T13:59:10Z</time>
      </trkpt>
      <trkpt lat="48.41607" lon="-0.21326">
        <ele>377.1</ele>
        <time>2016-03-12T13:59:12Z</time>
      </trkpt>
      <trkpt lat="48.41595" lon="-0.21331">
        <ele>377.1</ele>
        <time>2016-03-12T13:59:15Z</time>
      </trkpt>
      <trkpt lat="48.41584" lon="-0.21335">
        <ele>377.1</ele>
        <time>2016-03-12T13:59:18Z</time>
      </trkpt>
      <trkpt lat="48.41574" lon="-0.21342">
        <ele>377.1</ele>
        <time>2016-03-12T13:59:21Z</time>
      </trkpt>
      <trkpt lat="48.41564" lon="-0.21348">
        <ele>377</ele>
        <time>2016-03-12T13:59:24Z</time>
      </trkpt>
      <trkpt lat="48.41553" lon="-0.21354">
        <ele>377</ele>
        <time>2016-03-12T13:59:27Z</time>
      </trkpt>
      <trkpt lat="48.41543" lon="-0.21359">
        <ele>377</ele>
        <time>2016-03-12T13:59:30Z</time>
      </trkpt>
      <trkpt lat="48.41532" lon="-0.21366">
        <ele>377.1</ele>
        <time>2016-03-12T13:59:33Z</time>
      </trkpt>
      <trkpt lat="48.41519" lon="-0.21366">
        <ele>377.2</ele>
        <time>2016-03-12T13:59:36Z</time>
      </trkpt>
      <trkpt lat="48.41507" lon="-0.21364">
        <ele>377.3</ele>
        <time>2016-03-12T13:59:39Z</time>
      </trkpt>
      <trkpt lat="48.41498" lon="-0.21365">
        <ele>377.5</ele>
        <time>2016-03-12T13:59:42Z</time>
      </trkpt>
      <trkpt lat="48.41486" lon="-0.21367">
        <ele>377.7</ele>
        <time>2016-03-12T13:59:46Z</time>
      </trkpt>
      <trkpt lat="48.41474" lon="-0.21369">
        <ele>377.8</ele>
        <time>2016-03-12T13:59:49Z</time>
      </trkpt>
      <trkpt lat="48.41463" lon="-0.21375">
        <ele>377.9</ele>
        <time>2016-03-12T13:59:52Z</time>
      </trkpt>
      <trkpt lat="48.41453" lon="-0.21385">
        <ele>378</ele>
        <time>2016-03-12T13:59:55Z</time>
      </trkpt>
      <trkpt lat="48.41445" lon="-0.21392">
        <ele>378</ele>
        <time>2016-03-12T13:59:58Z</time>
      </trkpt>
      <trkpt lat="48.41436" lon="-0.21395">
        <ele>378.2</ele>
        <time>2016-03-12T14:00:01Z</time>
      </trkpt>
      <trkpt lat="48.41427" lon="-0.21399">
        <ele>378.5</ele>
        <time>2016-03-12T14:00:04Z</time>
      </trkpt>
      <trkpt lat="48.41419" lon="-0.21407">
        <ele>378.9</ele>
        <time>2016-03-12T14:00:08Z</time>
      </trkpt>
      <trkpt lat="48.4141" lon="-0.21414">
        <ele>379.4</ele>
        <time>2016-03-12T14:00:12Z</time>
      </trkpt>
      <trkpt lat="48.41401" lon="-0.21422">
        <ele>379.7</ele>
        <time>2016-03-12T14:00:15Z</time>
      </trkpt>
      <trkpt lat="48.41392" lon="-0.2143">
        <ele>380</ele>
        <time>2016-03-12T14:00:18Z</time>
      </trkpt>
      <trkpt lat="48.41385" lon="-0.2144">
        <ele>380.3</ele>
        <time>2016-03-12T14:00:22Z</time>
      </trkpt>
      <trkpt lat="48.41375" lon="-0.2145">
        <ele>380.6</ele>
        <time>2016-03-12T14:00:25Z</time>
      </trkpt>
      <trkpt lat="48.41367" lon="-0.2146">
        <ele>380.9</ele>
        <time>2016-03-12T14:00:28Z</time>
      </trkpt>
      <trkpt lat="48.4136" lon="-0.21473">
        <ele>381.2</ele>
        <time>2016-03-12T14:00:31Z</time>
      </trkpt>
      <trkpt lat="48.41351" lon="-0.21488">
        <ele>381.5</ele>
        <time>2016-03-12T14:00:35Z</time>
      </trkpt>
      <trkpt lat="48.41345" lon="-0.21499">
        <ele>381.6</ele>
        <time>2016-03-12T14:00:38Z</time>
      </trkpt>
      <trkpt lat="48.41335" lon="-0.21508">
        <ele>381.7</ele>
        <time>2016-03-12T14:00:41Z</time>
      </trkpt>
      <trkpt lat="48.41324" lon="-0.21518">
        <ele>381.6</ele>
        <time>2016-03-12T14:00:44Z</time>
      </trkpt>
      <trkpt lat="48.41314" lon="-0.21527">
        <ele>381.5</ele>
        <time>2016-03-12T14:00:47Z</time>
      </trkpt>
      <trkpt lat="48.41304" lon="-0.21535">
        <ele>381.5</ele>
        <time>2016-03-12T14:00:50Z</time>
      </trkpt>
      <trkpt lat="48.41292" lon="-0.21543">
        <ele>381.5</ele>
        <time>2016-03-12T14:00:53Z</time>
      </trkpt>
      <trkpt lat="48.41283" lon="-0.21549">
        <ele>381.5</ele>
        <time>2016-03-12T14:00:56Z</time>
      </trkpt>
      <trkpt lat="48.41276" lon="-0.2156">
        <ele>381.4</ele>
        <time>2016-03-12T14:00:59Z</time>
      </trkpt>
      <trkpt lat="48.41265" lon="-0.21566">
        <ele>381.1</ele>
        <time>2016-03-12T14:01:02Z</time>
      </trkpt>
      <trkpt lat="48.41254" lon="-0.21575">
        <ele>380.6</ele>
        <time>2016-03-12T14:01:05Z</time>
      </trkpt>
      <trkpt lat="48.41245" lon="-0.21579">
        <ele>380.4</ele>
        <time>2016-03-12T14:01:07Z</time>
      </trkpt>
      <trkpt lat="48.41237" lon="-0.21585">
        <ele>380</ele>
        <time>2016-03-12T14:01:09Z</time>
      </trkpt>
      <trkpt lat="48.41228" lon="-0.21591">
        <ele>379.6</ele>
        <time>2016-03-12T14:01:11Z</time>
      </trkpt>
      <trkpt lat="48.41219" lon="-0.21595">
        <ele>379.3</ele>
        <time>2016-03-12T14:01:13Z</time>
      </trkpt>
      <trkpt lat="48.4121" lon="-0.216">
        <ele>378.9</ele>
        <time>2016-03-12T14:01:15Z</time>
      </trkpt>
      <trkpt lat="48.412" lon="-0.21605">
        <ele>378.6</ele>
        <time>2016-03-12T14:01:17Z</time>
      </trkpt>
      <trkpt lat="48.41191" lon="-0.21609">
        <ele>378.3</ele>
        <time>2016-03-12T14:01:19Z</time>
      </trkpt>
      <trkpt lat="48.41182" lon="-0.21612">
        <ele>378.1</ele>
        <time>2016-03-12T14:01:21Z</time>
      </trkpt>
      <trkpt lat="48.41173" lon="-0.21617">
        <ele>377.9</ele>
        <time>2016-03-12T14:01:23Z</time>
      </trkpt>
      <trkpt lat="48.41164" lon="-0.21623">
        <ele>377.7</ele>
        <time>2016-03-12T14:01:25Z</time>
      </trkpt>
      <trkpt lat="48.41154" lon="-0.21629">
        <ele>377</ele>
        <time>2016-03-12T14:01:29Z</time>
      </trkpt>
      <trkpt lat="48.41145" lon="-0.21633">
        <ele>376.6</ele>
        <time>2016-03-12T14:01:32Z</time>
      </trkpt>
      <trkpt lat="48.41135" lon="-0.21639">
        <ele>376.3</ele>
        <time>2016-03-12T14:01:35Z</time>
      </trkpt>
      <trkpt lat="48.41127" lon="-0.21647">
        <ele>376.2</ele>
        <time>2016-03-12T14:01:37Z</time>
      </trkpt>
      <trkpt lat="48.41119" lon="-0.21656">
        <ele>376</ele>
        <time>2016-03-12T14:01:39Z</time>
      </trkpt>
      <trkpt lat="48.4111" lon="-0.21663">
        <ele>375.9</ele>
        <time>2016-03-12T14:01:41Z</time>
      </trkpt>
      <trkpt lat="48.41102" lon="-0.21669">
        <ele>375.8</ele>
        <time>2016-03-12T14:01:43Z</time>
      </trkpt>
      <trkpt lat="48.41092" lon="-0.21675">
        <ele>375.6</ele>
        <time>2016-03-12T14:01:46Z</time>
      </trkpt>
      <trkpt lat="48.41082" lon="-0.21683">
        <ele>375.4</ele>
        <time>2016-03-12T14:01:49Z</time>
      </trkpt>
      <trkpt lat="48.41072" lon="-0.21692">
        <ele>375.3</ele>
        <time>2016-03-12T14:01:52Z</time>
      </trkpt>
      <trkpt lat="48.41062" lon="-0.21698">
        <ele>375.5</ele>
        <time>2016-03-12T14:01:55Z</time>
      </trkpt>
      <trkpt lat="48.41051" lon="-0.21706">
        <ele>375.6</ele>
        <time>2016-03-12T14:01:58Z</time>
      </trkpt>
      <trkpt lat="48.41042" lon="-0.21715">
        <ele>375.7</ele>
        <time>2016-03-12T14:02:01Z</time>
      </trkpt>
      <trkpt lat="48.41031" lon="-0.21721">
        <ele>375.8</ele>
        <time>2016-03-12T14:02:04Z</time>
      </trkpt>
      <trkpt lat="48.41021" lon="-0.21728">
        <ele>376</ele>
        <time>2016-03-12T14:02:07Z</time>
      </trkpt>
      <trkpt lat="48.41012" lon="-0.21732">
        <ele>376.1</ele>
        <time>2016-03-12T14:02:09Z</time>
      </trkpt>
      <trkpt lat="48.41002" lon="-0.21737">
        <ele>376.3</ele>
        <time>2016-03-12T14:02:11Z</time>
      </trkpt>
      <trkpt lat="48.4099" lon="-0.21742">
        <ele>376.5</ele>
        <time>2016-03-12T14:02:14Z</time>
      </trkpt>
      <trkpt lat="48.40979" lon="-0.21749">
        <ele>376.7</ele>
        <time>2016-03-12T14:02:17Z</time>
      </trkpt>
      <trkpt lat="48.40968" lon="-0.21759">
        <ele>376.9</ele>
        <time>2016-03-12T14:02:20Z</time>
      </trkpt>
      <trkpt lat="48.4096" lon="-0.21769">
        <ele>376.9</ele>
        <time>2016-03-12T14:02:23Z</time>
      </trkpt>
      <trkpt lat="48.40953" lon="-0.21782">
        <ele>376.9</ele>
        <time>2016-03-12T14:02:27Z</time>
      </trkpt>
      <trkpt lat="48.40948" lon="-0.21795">
        <ele>376.8</ele>
        <time>2016-03-12T14:02:30Z</time>
      </trkpt>
      <trkpt lat="48.40943" lon="-0.21809">
        <ele>376.7</ele>
        <time>2016-03-12T14:02:33Z</time>
      </trkpt>
      <trkpt lat="48.40939" lon="-0.21825">
        <ele>376.4</ele>
        <time>2016-03-12T14:02:36Z</time>
      </trkpt>
      <trkpt lat="48.40932" lon="-0.21835">
        <ele>376.2</ele>
        <time>2016-03-12T14:02:39Z</time>
      </trkpt>
      <trkpt lat="48.40923" lon="-0.2185">
        <ele>375.9</ele>
        <time>2016-03-12T14:02:43Z</time>
      </trkpt>
      <trkpt lat="48.40917" lon="-0.21864">
        <ele>375.6</ele>
        <time>2016-03-12T14:02:46Z</time>
      </trkpt>
      <trkpt lat="48.40912" lon="-0.21877">
        <ele>375.5</ele>
        <time>2016-03-12T14:02:48Z</time>
      </trkpt>
      <trkpt lat="48.40908" lon="-0.21892">
        <ele>375.4</ele>
        <time>2016-03-12T14:02:51Z</time>
      </trkpt>
      <trkpt lat="48.40901" lon="-0.21908">
        <ele>375.3</ele>
        <time>2016-03-12T14:02:54Z</time>
      </trkpt>
      <trkpt lat="48.40891" lon="-0.21922">
        <ele>375.2</ele>
        <time>2016-03-12T14:02:57Z</time>
      </trkpt>
      <trkpt lat="48.40882" lon="-0.21933">
        <ele>375.1</ele>
        <time>2016-03-12T14:02:59Z</time>
      </trkpt>
      <trkpt lat="48.40875" lon="-0.21942">
        <ele>375</ele>
        <time>2016-03-12T14:03:01Z</time>
      </trkpt>
      <trkpt lat="48.40864" lon="-0.21953">
        <ele>374.6</ele>
        <time>2016-03-12T14:03:04Z</time>
      </trkpt>
      <trkpt lat="48.40852" lon="-0.21955">
        <ele>374.3</ele>
        <time>2016-03-12T14:03:07Z</time>
      </trkpt>
      <trkpt lat="48.40841" lon="-0.21959">
        <ele>374.1</ele>
        <time>2016-03-12T14:03:09Z</time>
      </trkpt>
      <trkpt lat="48.40832" lon="-0.21962">
        <ele>373.9</ele>
        <time>2016-03-12T14:03:11Z</time>
      </trkpt>
      <trkpt lat="48.40821" lon="-0.21964">
        <ele>373.7</ele>
        <time>2016-03-12T14:03:13Z</time>
      </trkpt>
      <trkpt lat="48.40812" lon="-0.21967">
        <ele>373.5</ele>
        <time>2016-03-12T14:03:15Z</time>
      </trkpt>
      <trkpt lat="48.408" lon="-0.21969">
        <ele>373.1</ele>
        <time>2016-03-12T14:03:17Z</time>
      </trkpt>
      <trkpt lat="48.40788" lon="-0.21973">
        <ele>372.3</ele>
        <time>2016-03-12T14:03:19Z</time>
      </trkpt>
      <trkpt lat="48.40776" lon="-0.21977">
        <ele>371.7</ele>
        <time>2016-03-12T14:03:21Z</time>
      </trkpt>
      <trkpt lat="48.40762" lon="-0.21987">
        <ele>371</ele>
        <time>2016-03-12T14:03:23Z</time>
      </trkpt>
      <trkpt lat="48.40748" lon="-0.21998">
        <ele>370.3</ele>
        <time>2016-03-12T14:03:25Z</time>
      </trkpt>
      <trkpt lat="48.40734" lon="-0.22008">
        <ele>369.5</ele>
        <time>2016-03-12T14:03:27Z</time>
      </trkpt>
      <trkpt lat="48.40722" lon="-0.22017">
        <ele>368.7</ele>
        <time>2016-03-12T14:03:29Z</time>
      </trkpt>
      <trkpt lat="48.40712" lon="-0.22026">
        <ele>367.8</ele>
        <time>2016-03-12T14:03:31Z</time>
      </trkpt>
      <trkpt lat="48.40706" lon="-0.22035">
        <ele>366.8</ele>
        <time>2016-03-12T14:03:33Z</time>
      </trkpt>
      <trkpt lat="48.40698" lon="-0.22043">
        <ele>366</ele>
        <time>2016-03-12T14:03:35Z</time>
      </trkpt>
      <trkpt lat="48.40684" lon="-0.22048">
        <ele>365</ele>
        <time>2016-03-12T14:03:37Z</time>
      </trkpt>
      <trkpt lat="48.40669" lon="-0.22052">
        <ele>364.1</ele>
        <time>2016-03-12T14:03:39Z</time>
      </trkpt>
      <trkpt lat="48.40656" lon="-0.22051">
        <ele>362.9</ele>
        <time>2016-03-12T14:03:41Z</time>
      </trkpt>
      <trkpt lat="48.40645" lon="-0.22048">
        <ele>361.6</ele>
        <time>2016-03-12T14:03:43Z</time>
      </trkpt>
      <trkpt lat="48.40635" lon="-0.22047">
        <ele>359.6</ele>
        <time>2016-03-12T14:03:46Z</time>
      </trkpt>
      <trkpt lat="48.40626" lon="-0.22047">
        <ele>357.2</ele>
        <time>2016-03-12T14:03:50Z</time>
      </trkpt>
      <trkpt lat="48.40614" lon="-0.22046">
        <ele>355.8</ele>
        <time>2016-03-12T14:03:53Z</time>
      </trkpt>
      <trkpt lat="48.40602" lon="-0.22036">
        <ele>354.4</ele>
        <time>2016-03-12T14:03:56Z</time>
      </trkpt>
      <trkpt lat="48.40592" lon="-0.22028">
        <ele>353.5</ele>
        <time>2016-03-12T14:03:58Z</time>
      </trkpt>
      <trkpt lat="48.40581" lon="-0.22024">
        <ele>352.5</ele>
        <time>2016-03-12T14:04:00Z</time>
      </trkpt>
      <trkpt lat="48.40571" lon="-0.22022">
        <ele>351.5</ele>
        <time>2016-03-12T14:04:02Z</time>
      </trkpt>
      <trkpt lat="48.4056" lon="-0.22019">
        <ele>350</ele>
        <time>2016-03-12T14:04:05Z</time>
      </trkpt>
      <trkpt lat="48.40548" lon="-0.22018">
        <ele>348.7</ele>
        <time>2016-03-12T14:04:08Z</time>
      </trkpt>
      <trkpt lat="48.40539" lon="-0.2202">
        <ele>347.9</ele>
        <time>2016-03-12T14:04:10Z</time>
      </trkpt>
      <trkpt lat="48.40526" lon="-0.2202">
        <ele>346.7</ele>
        <time>2016-03-12T14:04:13Z</time>
      </trkpt>
      <trkpt lat="48.40516" lon="-0.22017">
        <ele>345.6</ele>
        <time>2016-03-12T14:04:16Z</time>
      </trkpt>
      <trkpt lat="48.40507" lon="-0.22013">
        <ele>344.9</ele>
        <time>2016-03-12T14:04:18Z</time>
      </trkpt>
      <trkpt lat="48.40498" lon="-0.2201">
        <ele>344.1</ele>
        <time>2016-03-12T14:04:20Z</time>
      </trkpt>
      <trkpt lat="48.40486" lon="-0.22009">
        <ele>343.2</ele>
        <time>2016-03-12T14:04:22Z</time>
      </trkpt>
      <trkpt lat="48.40474" lon="-0.22004">
        <ele>342.4</ele>
        <time>2016-03-12T14:04:24Z</time>
      </trkpt>
      <trkpt lat="48.40462" lon="-0.22002">
        <ele>341.5</ele>
        <time>2016-03-12T14:04:26Z</time>
      </trkpt>
      <trkpt lat="48.4045" lon="-0.21998">
        <ele>340.7</ele>
        <time>2016-03-12T14:04:28Z</time>
      </trkpt>
      <trkpt lat="48.40436" lon="-0.21992">
        <ele>339.8</ele>
        <time>2016-03-12T14:04:30Z</time>
      </trkpt>
      <trkpt lat="48.40427" lon="-0.21989">
        <ele>338.9</ele>
        <time>2016-03-12T14:04:32Z</time>
      </trkpt>
      <trkpt lat="48.40418" lon="-0.21983">
        <ele>337.4</ele>
        <time>2016-03-12T14:04:35Z</time>
      </trkpt>
      <trkpt lat="48.40411" lon="-0.2197">
        <ele>336</ele>
        <time>2016-03-12T14:04:38Z</time>
      </trkpt>
      <trkpt lat="48.40404" lon="-0.21958">
        <ele>334.8</ele>
        <time>2016-03-12T14:04:41Z</time>
      </trkpt>
      <trkpt lat="48.40395" lon="-0.21953">
        <ele>334.1</ele>
        <time>2016-03-12T14:04:43Z</time>
      </trkpt>
      <trkpt lat="48.40384" lon="-0.21948">
        <ele>332.9</ele>
        <time>2016-03-12T14:04:46Z</time>
      </trkpt>
      <trkpt lat="48.40374" lon="-0.21945">
        <ele>332</ele>
        <time>2016-03-12T14:04:48Z</time>
      </trkpt>
      <trkpt lat="48.40363" lon="-0.2194">
        <ele>331.3</ele>
        <time>2016-03-12T14:04:50Z</time>
      </trkpt>
      <trkpt lat="48.40352" lon="-0.21933">
        <ele>330.2</ele>
        <time>2016-03-12T14:04:53Z</time>
      </trkpt>
      <trkpt lat="48.40343" lon="-0.21929">
        <ele>329.4</ele>
        <time>2016-03-12T14:04:55Z</time>
      </trkpt>
      <trkpt lat="48.40329" lon="-0.21926">
        <ele>328.4</ele>
        <time>2016-03-12T14:04:57Z</time>
      </trkpt>
      <trkpt lat="48.4032" lon="-0.21916">
        <ele>326.3</ele>
        <time>2016-03-12T14:05:01Z</time>
      </trkpt>
      <trkpt lat="48.40312" lon="-0.21905">
        <ele>324.6</ele>
        <time>2016-03-12T14:05:05Z</time>
      </trkpt>
      <trkpt lat="48.40303" lon="-0.21899">
        <ele>323.1</ele>
        <time>2016-03-12T14:05:09Z</time>
      </trkpt>
      <trkpt lat="48.40293" lon="-0.21903">
        <ele>321.5</ele>
        <time>2016-03-12T14:05:13Z</time>
      </trkpt>
      <trkpt lat="48.40284" lon="-0.21909">
        <ele>320.2</ele>
        <time>2016-03-12T14:05:16Z</time>
      </trkpt>
      <trkpt lat="48.40274" lon="-0.21913">
        <ele>319.2</ele>
        <time>2016-03-12T14:05:19Z</time>
      </trkpt>
      <trkpt lat="48.40261" lon="-0.21913">
        <ele>318.2</ele>
        <time>2016-03-12T14:05:22Z</time>
      </trkpt>
      <trkpt lat="48.40252" lon="-0.21914">
        <ele>317.5</ele>
        <time>2016-03-12T14:05:24Z</time>
      </trkpt>
      <trkpt lat="48.40243" lon="-0.21918">
        <ele>317</ele>
        <time>2016-03-12T14:05:26Z</time>
      </trkpt>
      <trkpt lat="48.40233" lon="-0.21927">
        <ele>316.4</ele>
        <time>2016-03-12T14:05:28Z</time>
      </trkpt>
      <trkpt lat="48.40225" lon="-0.21936">
        <ele>315.9</ele>
        <time>2016-03-12T14:05:30Z</time>
      </trkpt>
      <trkpt lat="48.40216" lon="-0.21943">
        <ele>315.3</ele>
        <time>2016-03-12T14:05:32Z</time>
      </trkpt>
      <trkpt lat="48.40206" lon="-0.21946">
        <ele>314.4</ele>
        <time>2016-03-12T14:05:35Z</time>
      </trkpt>
      <trkpt lat="48.40195" lon="-0.21942">
        <ele>313.7</ele>
        <time>2016-03-12T14:05:38Z</time>
      </trkpt>
      <trkpt lat="48.40188" lon="-0.21932">
        <ele>313.3</ele>
        <time>2016-03-12T14:05:40Z</time>
      </trkpt>
      <trkpt lat="48.40182" lon="-0.21918">
        <ele>312.9</ele>
        <time>2016-03-12T14:05:42Z</time>
      </trkpt>
      <trkpt lat="48.40175" lon="-0.21903">
        <ele>312.6</ele>
        <time>2016-03-12T14:05:44Z</time>
      </trkpt>
      <trkpt lat="48.40167" lon="-0.21888">
        <ele>312.2</ele>
        <time>2016-03-12T14:05:46Z</time>
      </trkpt>
      <trkpt lat="48.40159" lon="-0.21873">
        <ele>311.8</ele>
        <time>2016-03-12T14:05:48Z</time>
      </trkpt>
      <trkpt lat="48.4015" lon="-0.21857">
        <ele>311.4</ele>
        <time>2016-03-12T14:05:50Z</time>
      </trkpt>
      <trkpt lat="48.40139" lon="-0.2184">
        <ele>311</ele>
        <time>2016-03-12T14:05:52Z</time>
      </trkpt>
      <trkpt lat="48.40129" lon="-0.21823">
        <ele>310.5</ele>
        <time>2016-03-12T14:05:54Z</time>
      </trkpt>
      <trkpt lat="48.40119" lon="-0.21805">
        <ele>310.1</ele>
        <time>2016-03-12T14:05:56Z</time>
      </trkpt>
      <trkpt lat="48.40109" lon="-0.21789">
        <ele>309.7</ele>
        <time>2016-03-12T14:05:58Z</time>
      </trkpt>
      <trkpt lat="48.40098" lon="-0.21772">
        <ele>309.2</ele>
        <time>2016-03-12T14:06:00Z</time>
      </trkpt>
      <trkpt lat="48.40086" lon="-0.21756">
        <ele>308.6</ele>
        <time>2016-03-12T14:06:02Z</time>
      </trkpt>
      <trkpt lat="48.40073" lon="-0.21741">
        <ele>308</ele>
        <time>2016-03-12T14:06:04Z</time>
      </trkpt>
      <trkpt lat="48.40062" lon="-0.21725">
        <ele>307.5</ele>
        <time>2016-03-12T14:06:06Z</time>
      </trkpt>
      <trkpt lat="48.40052" lon="-0.21708">
        <ele>307</ele>
        <time>2016-03-12T14:06:08Z</time>
      </trkpt>
      <trkpt lat="48.40043" lon="-0.2169">
        <ele>306.5</ele>
        <time>2016-03-12T14:06:10Z</time>
      </trkpt>
      <trkpt lat="48.40034" lon="-0.21672">
        <ele>306</ele>
        <time>2016-03-12T14:06:12Z</time>
      </trkpt>
      <trkpt lat="48.40028" lon="-0.21652">
        <ele>305.7</ele>
        <time>2016-03-12T14:06:14Z</time>
      </trkpt>
      <trkpt lat="48.40022" lon="-0.21632">
        <ele>305.3</ele>
        <time>2016-03-12T14:06:16Z</time>
      </trkpt>
      <trkpt lat="48.40017" lon="-0.21613">
        <ele>305</ele>
        <time>2016-03-12T14:06:18Z</time>
      </trkpt>
      <trkpt lat="48.40013" lon="-0.21593">
        <ele>304.8</ele>
        <time>2016-03-12T14:06:20Z</time>
      </trkpt>
      <trkpt lat="48.4001" lon="-0.21573">
        <ele>304.5</ele>
        <time>2016-03-12T14:06:22Z</time>
      </trkpt>
      <trkpt lat="48.40007" lon="-0.21553">
        <ele>304.3</ele>
        <time>2016-03-12T14:06:24Z</time>
      </trkpt>
      <trkpt lat="48.40004" lon="-0.21533">
        <ele>304</ele>
        <time>2016-03-12T14:06:26Z</time>
      </trkpt>
      <trkpt lat="48.40001" lon="-0.21513">
        <ele>303.8</ele>
        <time>2016-03-12T14:06:28Z</time>
      </trkpt>
      <trkpt lat="48.39997" lon="-0.21493">
        <ele>303.6</ele>
        <time>2016-03-12T14:06:30Z</time>
      </trkpt>
      <trkpt lat="48.39991" lon="-0.21475">
        <ele>303.3</ele>
        <time>2016-03-12T14:06:32Z</time>
      </trkpt>
      <trkpt lat="48.39982" lon="-0.21459">
        <ele>303.1</ele>
        <time>2016-03-12T14:06:34Z</time>
      </trkpt>
      <trkpt lat="48.39971" lon="-0.21446">
        <ele>302.9</ele>
        <time>2016-03-12T14:06:36Z</time>
      </trkpt>
      <trkpt lat="48.3996" lon="-0.21434">
        <ele>302.7</ele>
        <time>2016-03-12T14:06:38Z</time>
      </trkpt>
      <trkpt lat="48.39948" lon="-0.21422">
        <ele>302.4</ele>
        <time>2016-03-12T14:06:40Z</time>
      </trkpt>
      <trkpt lat="48.39935" lon="-0.21412">
        <ele>302.3</ele>
        <time>2016-03-12T14:06:42Z</time>
      </trkpt>
      <trkpt lat="48.39923" lon="-0.21402">
        <ele>302.1</ele>
        <time>2016-03-12T14:06:44Z</time>
      </trkpt>
      <trkpt lat="48.39909" lon="-0.21394">
        <ele>301.9</ele>
        <time>2016-03-12T14:06:46Z</time>
      </trkpt>
      <trkpt lat="48.39895" lon="-0.21386">
        <ele>301.6</ele>
        <time>2016-03-12T14:06:48Z</time>
      </trkpt>
      <trkpt lat="48.39881" lon="-0.21378">
        <ele>301.4</ele>
        <time>2016-03-12T14:06:50Z</time>
      </trkpt>
      <trkpt lat="48.39867" lon="-0.2137">
        <ele>301.2</ele>
        <time>2016-03-12T14:06:52Z</time>
      </trkpt>
      <trkpt lat="48.39853" lon="-0.21362">
        <ele>300.9</ele>
        <time>2016-03-12T14:06:54Z</time>
      </trkpt>
      <trkpt lat="48.39838" lon="-0.21354">
        <ele>300.7</ele>
        <time>2016-03-12T14:06:56Z</time>
      </trkpt>
      <trkpt lat="48.39823" lon="-0.21346">
        <ele>300.5</ele>
        <time>2016-03-12T14:06:58Z</time>
      </trkpt>
      <trkpt lat="48.39808" lon="-0.21337">
        <ele>300.3</ele>
        <time>2016-03-12T14:07:00Z</time>
      </trkpt>
      <trkpt lat="48.39793" lon="-0.21329">
        <ele>300</ele>
        <time>2016-03-12T14:07:02Z</time>
      </trkpt>
      <trkpt lat="48.39778" lon="-0.21321">
        <ele>299.7</ele>
        <time>2016-03-12T14:07:04Z</time>
      </trkpt>
      <trkpt lat="48.39763" lon="-0.21313">
        <ele>299.4</ele>
        <time>2016-03-12T14:07:06Z</time>
      </trkpt>
      <trkpt lat="48.39748" lon="-0.21306">
        <ele>299</ele>
        <time>2016-03-12T14:07:08Z</time>
      </trkpt>
      <trkpt lat="48.39733" lon="-0.21299">
        <ele>298.7</ele>
        <time>2016-03-12T14:07:10Z</time>
      </trkpt>
      <trkpt lat="48.39718" lon="-0.21294">
        <ele>298.3</ele>
        <time>2016-03-12T14:07:12Z</time>
      </trkpt>
      <trkpt lat="48.39704" lon="-0.2129">
        <ele>297.8</ele>
        <time>2016-03-12T14:07:14Z</time>
      </trkpt>
      <trkpt lat="48.39691" lon="-0.21286">
        <ele>297.3</ele>
        <time>2016-03-12T14:07:16Z</time>
      </trkpt>
      <trkpt lat="48.39678" lon="-0.21293">
        <ele>296.8</ele>
        <time>2016-03-12T14:07:18Z</time>
      </trkpt>
      <trkpt lat="48.39668" lon="-0.21304">
        <ele>296.4</ele>
        <time>2016-03-12T14:07:20Z</time>
      </trkpt>
      <trkpt lat="48.39662" lon="-0.21317">
        <ele>295.9</ele>
        <time>2016-03-12T14:07:22Z</time>
      </trkpt>
      <trkpt lat="48.39658" lon="-0.21331">
        <ele>295.5</ele>
        <time>2016-03-12T14:07:24Z</time>
      </trkpt>
      <trkpt lat="48.39654" lon="-0.21343">
        <ele>295</ele>
        <time>2016-03-12T14:07:26Z</time>
      </trkpt>
      <trkpt lat="48.39648" lon="-0.2136">
        <ele>294.6</ele>
        <time>2016-03-12T14:07:29Z</time>
      </trkpt>
      <trkpt lat="48.39642" lon="-0.21375">
        <ele>294.2</ele>
        <time>2016-03-12T14:07:32Z</time>
      </trkpt>
      <trkpt lat="48.39635" lon="-0.2139">
        <ele>294</ele>
        <time>2016-03-12T14:07:35Z</time>
      </trkpt>
      <trkpt lat="48.39627" lon="-0.21406">
        <ele>293.8</ele>
        <time>2016-03-12T14:07:38Z</time>
      </trkpt>
      <trkpt lat="48.39621" lon="-0.21417">
        <ele>293.5</ele>
        <time>2016-03-12T14:07:40Z</time>
      </trkpt>
      <trkpt lat="48.39616" lon="-0.21429">
        <ele>293.3</ele>
        <time>2016-03-12T14:07:42Z</time>
      </trkpt>
      <trkpt lat="48.3961" lon="-0.21441">
        <ele>293.1</ele>
        <time>2016-03-12T14:07:44Z</time>
      </trkpt>
      <trkpt lat="48.39603" lon="-0.21457">
        <ele>292.9</ele>
        <time>2016-03-12T14:07:47Z</time>
      </trkpt>
      <trkpt lat="48.39596" lon="-0.21472">
        <ele>292.6</ele>
        <time>2016-03-12T14:07:50Z</time>
      </trkpt>
      <trkpt lat="48.39586" lon="-0.21475">
        <ele>292.5</ele>
        <time>2016-03-12T14:07:53Z</time>
      </trkpt>
      <trkpt lat="48.39575" lon="-0.21478">
        <ele>292.3</ele>
        <time>2016-03-12T14:07:56Z</time>
      </trkpt>
      <trkpt lat="48.39564" lon="-0.21485">
        <ele>292.2</ele>
        <time>2016-03-12T14:07:59Z</time>
      </trkpt>
      <trkpt lat="48.39553" lon="-0.21486">
        <ele>292</ele>
        <time>2016-03-12T14:08:02Z</time>
      </trkpt>
      <trkpt lat="48.39539" lon="-0.2148">
        <ele>291.8</ele>
        <time>2016-03-12T14:08:05Z</time>
      </trkpt>
      <trkpt lat="48.3953" lon="-0.21475">
        <ele>291.6</ele>
        <time>2016-03-12T14:08:07Z</time>
      </trkpt>
      <trkpt lat="48.39521" lon="-0.21471">
        <ele>291.4</ele>
        <time>2016-03-12T14:08:09Z</time>
      </trkpt>
      <trkpt lat="48.39511" lon="-0.21466">
        <ele>291.1</ele>
        <time>2016-03-12T14:08:11Z</time>
      </trkpt>
      <trkpt lat="48.39501" lon="-0.2146">
        <ele>290.6</ele>
        <time>2016-03-12T14:08:13Z</time>
      </trkpt>
      <trkpt lat="48.39491" lon="-0.21455">
        <ele>290.3</ele>
        <time>2016-03-12T14:08:15Z</time>
      </trkpt>
      <trkpt lat="48.39482" lon="-0.21449">
        <ele>289.9</ele>
        <time>2016-03-12T14:08:17Z</time>
      </trkpt>
      <trkpt lat="48.3947" lon="-0.21442">
        <ele>289.5</ele>
        <time>2016-03-12T14:08:19Z</time>
      </trkpt>
      <trkpt lat="48.39459" lon="-0.21436">
        <ele>289</ele>
        <time>2016-03-12T14:08:21Z</time>
      </trkpt>
      <trkpt lat="48.39448" lon="-0.21426">
        <ele>288.2</ele>
        <time>2016-03-12T14:08:23Z</time>
      </trkpt>
      <trkpt lat="48.39439" lon="-0.21415">
        <ele>287.5</ele>
        <time>2016-03-12T14:08:25Z</time>
      </trkpt>
      <trkpt lat="48.39428" lon="-0.21406">
        <ele>286.9</ele>
        <time>2016-03-12T14:08:27Z</time>
      </trkpt>
      <trkpt lat="48.39416" lon="-0.214">
        <ele>286.3</ele>
        <time>2016-03-12T14:08:29Z</time>
      </trkpt>
      <trkpt lat="48.39405" lon="-0.21394">
        <ele>285.7</ele>
        <time>2016-03-12T14:08:31Z</time>
      </trkpt>
      <trkpt lat="48.39394" lon="-0.21389">
        <ele>285.1</ele>
        <time>2016-03-12T14:08:33Z</time>
      </trkpt>
      <trkpt lat="48.39382" lon="-0.21383">
        <ele>284.5</ele>
        <time>2016-03-12T14:08:35Z</time>
      </trkpt>
      <trkpt lat="48.39368" lon="-0.21377">
        <ele>284</ele>
        <time>2016-03-12T14:08:37Z</time>
      </trkpt>
      <trkpt lat="48.39355" lon="-0.2137">
        <ele>283.3</ele>
        <time>2016-03-12T14:08:39Z</time>
      </trkpt>
      <trkpt lat="48.39343" lon="-0.21363">
        <ele>282.6</ele>
        <time>2016-03-12T14:08:41Z</time>
      </trkpt>
      <trkpt lat="48.39332" lon="-0.21359">
        <ele>282</ele>
        <time>2016-03-12T14:08:43Z</time>
      </trkpt>
      <trkpt lat="48.39323" lon="-0.21355">
        <ele>281.4</ele>
        <time>2016-03-12T14:08:45Z</time>
      </trkpt>
      <trkpt lat="48.39314" lon="-0.21349">
        <ele>280.8</ele>
        <time>2016-03-12T14:08:47Z</time>
      </trkpt>
      <trkpt lat="48.39305" lon="-0.21343">
        <ele>280.3</ele>
        <time>2016-03-12T14:08:49Z</time>
      </trkpt>
      <trkpt lat="48.39293" lon="-0.21337">
        <ele>279.8</ele>
        <time>2016-03-12T14:08:51Z</time>
      </trkpt>
      <trkpt lat="48.39282" lon="-0.21332">
        <ele>279.3</ele>
        <time>2016-03-12T14:08:53Z</time>
      </trkpt>
      <trkpt lat="48.39272" lon="-0.21325">
        <ele>278.8</ele>
        <time>2016-03-12T14:08:55Z</time>
      </trkpt>
      <trkpt lat="48.39259" lon="-0.21318">
        <ele>278.1</ele>
        <time>2016-03-12T14:08:57Z</time>
      </trkpt>
      <trkpt lat="48.39248" lon="-0.21312">
        <ele>277.6</ele>
        <time>2016-03-12T14:08:59Z</time>
      </trkpt>
      <trkpt lat="48.39236" lon="-0.21307">
        <ele>277.2</ele>
        <time>2016-03-12T14:09:01Z</time>
      </trkpt>
      <trkpt lat="48.39221" lon="-0.21301">
        <ele>276.7</ele>
        <time>2016-03-12T14:09:03Z</time>
      </trkpt>
      <trkpt lat="48.39207" lon="-0.21293">
        <ele>276.4</ele>
        <time>2016-03-12T14:09:05Z</time>
      </trkpt>
      <trkpt lat="48.39191" lon="-0.21286">
        <ele>275.9</ele>
        <time>2016-03-12T14:09:07Z</time>
      </trkpt>
      <trkpt lat="48.39176" lon="-0.21278">
        <ele>275.4</ele>
        <time>2016-03-12T14:09:09Z</time>
      </trkpt>
      <trkpt lat="48.39161" lon="-0.21269">
        <ele>274.9</ele>
        <time>2016-03-12T14:09:11Z</time>
      </trkpt>
      <trkpt lat="48.39145" lon="-0.21259">
        <ele>274.3</ele>
        <time>2016-03-12T14:09:13Z</time>
      </trkpt>
      <trkpt lat="48.39131" lon="-0.21247">
        <ele>273.8</ele>
        <time>2016-03-12T14:09:15Z</time>
      </trkpt>
      <trkpt lat="48.39116" lon="-0.21232">
        <ele>273.1</ele>
        <time>2016-03-12T14:09:17Z</time>
      </trkpt>
      <trkpt lat="48.39109" lon="-0.21224">
        <ele>272.8</ele>
        <time>2016-03-12T14:09:18Z</time>
      </trkpt>
      <trkpt lat="48.39102" lon="-0.21214">
        <ele>272.4</ele>
        <time>2016-03-12T14:09:19Z</time>
      </trkpt>
      <trkpt lat="48.39096" lon="-0.21203">
        <ele>272</ele>
        <time>2016-03-12T14:09:20Z</time>
      </trkpt>
      <trkpt lat="48.39091" lon="-0.21192">
        <ele>271.7</ele>
        <time>2016-03-12T14:09:21Z</time>
      </trkpt>
      <trkpt lat="48.39086" lon="-0.21181">
        <ele>271.3</ele>
        <time>2016-03-12T14:09:22Z</time>
      </trkpt>
      <trkpt lat="48.39081" lon="-0.2117">
        <ele>271</ele>
        <time>2016-03-12T14:09:23Z</time>
      </trkpt>
      <trkpt lat="48.39075" lon="-0.21159">
        <ele>270.7</ele>
        <time>2016-03-12T14:09:24Z</time>
      </trkpt>
      <trkpt lat="48.39068" lon="-0.21149">
        <ele>270.3</ele>
        <time>2016-03-12T14:09:25Z</time>
      </trkpt>
      <trkpt lat="48.39061" lon="-0.2114">
        <ele>270</ele>
        <time>2016-03-12T14:09:26Z</time>
      </trkpt>
      <trkpt lat="48.39054" lon="-0.21132">
        <ele>269.7</ele>
        <time>2016-03-12T14:09:27Z</time>
      </trkpt>
      <trkpt lat="48.39039" lon="-0.21119">
        <ele>268.9</ele>
        <time>2016-03-12T14:09:29Z</time>
      </trkpt>
      <trkpt lat="48.39023" lon="-0.21107">
        <ele>268.3</ele>
        <time>2016-03-12T14:09:31Z</time>
      </trkpt>
      <trkpt lat="48.39008" lon="-0.21096">
        <ele>267.5</ele>
        <time>2016-03-12T14:09:33Z</time>
      </trkpt>
      <trkpt lat="48.38993" lon="-0.21084">
        <ele>266.9</ele>
        <time>2016-03-12T14:09:35Z</time>
      </trkpt>
      <trkpt lat="48.38978" lon="-0.21072">
        <ele>266.3</ele>
        <time>2016-03-12T14:09:37Z</time>
      </trkpt>
      <trkpt lat="48.38964" lon="-0.21059">
        <ele>265.7</ele>
        <time>2016-03-12T14:09:39Z</time>
      </trkpt>
      <trkpt lat="48.3895" lon="-0.21046">
        <ele>265.1</ele>
        <time>2016-03-12T14:09:41Z</time>
      </trkpt>
      <trkpt lat="48.38936" lon="-0.21033">
        <ele>264.4</ele>
        <time>2016-03-12T14:09:43Z</time>
      </trkpt>
      <trkpt lat="48.38923" lon="-0.21019">
        <ele>263.8</ele>
        <time>2016-03-12T14:09:45Z</time>
      </trkpt>
      <trkpt lat="48.3891" lon="-0.21006">
        <ele>263.2</ele>
        <time>2016-03-12T14:09:47Z</time>
      </trkpt>
      <trkpt lat="48.38898" lon="-0.20994">
        <ele>262.5</ele>
        <time>2016-03-12T14:09:49Z</time>
      </trkpt>
      <trkpt lat="48.38886" lon="-0.20983">
        <ele>262</ele>
        <time>2016-03-12T14:09:51Z</time>
      </trkpt>
      <trkpt lat="48.38875" lon="-0.20972">
        <ele>261.5</ele>
        <time>2016-03-12T14:09:53Z</time>
      </trkpt>
      <trkpt lat="48.38866" lon="-0.20963">
        <ele>261.1</ele>
        <time>2016-03-12T14:09:55Z</time>
      </trkpt>
      <trkpt lat="48.38856" lon="-0.20953">
        <ele>260.8</ele>
        <time>2016-03-12T14:09:57Z</time>
      </trkpt>
      <trkpt lat="48.38846" lon="-0.20942">
        <ele>260.4</ele>
        <time>2016-03-12T14:09:59Z</time>
      </trkpt>
      <trkpt lat="48.38837" lon="-0.20932">
        <ele>260.1</ele>
        <time>2016-03-12T14:10:01Z</time>
      </trkpt>
      <trkpt lat="48.38827" lon="-0.20922">
        <ele>259.8</ele>
        <time>2016-03-12T14:10:03Z</time>
      </trkpt>
      <trkpt lat="48.38818" lon="-0.20912">
        <ele>259.6</ele>
        <time>2016-03-12T14:10:05Z</time>
      </trkpt>
      <trkpt lat="48.38809" lon="-0.20901">
        <ele>259.3</ele>
        <time>2016-03-12T14:10:07Z</time>
      </trkpt>
      <trkpt lat="48.388" lon="-0.20891">
        <ele>259.1</ele>
        <time>2016-03-12T14:10:09Z</time>
      </trkpt>
      <trkpt lat="48.3879" lon="-0.20882">
        <ele>259</ele>
        <time>2016-03-12T14:10:11Z</time>
      </trkpt>
      <trkpt lat="48.38781" lon="-0.20871">
        <ele>258.8</ele>
        <time>2016-03-12T14:10:13Z</time>
      </trkpt>
      <trkpt lat="48.38773" lon="-0.2086">
        <ele>258.7</ele>
        <time>2016-03-12T14:10:15Z</time>
      </trkpt>
      <trkpt lat="48.38764" lon="-0.20849">
        <ele>258.6</ele>
        <time>2016-03-12T14:10:17Z</time>
      </trkpt>
      <trkpt lat="48.38756" lon="-0.20838">
        <ele>258.5</ele>
        <time>2016-03-12T14:10:19Z</time>
      </trkpt>
      <trkpt lat="48.38747" lon="-0.20826">
        <ele>258.5</ele>
        <time>2016-03-12T14:10:21Z</time>
      </trkpt>
      <trkpt lat="48.3874" lon="-0.20814">
        <ele>258.5</ele>
        <time>2016-03-12T14:10:23Z</time>
      </trkpt>
      <trkpt lat="48.38732" lon="-0.20802">
        <ele>258.4</ele>
        <time>2016-03-12T14:10:25Z</time>
      </trkpt>
      <trkpt lat="48.38724" lon="-0.20791">
        <ele>258.4</ele>
        <time>2016-03-12T14:10:27Z</time>
      </trkpt>
      <trkpt lat="48.38717" lon="-0.20778">
        <ele>258.4</ele>
        <time>2016-03-12T14:10:29Z</time>
      </trkpt>
      <trkpt lat="48.38709" lon="-0.20765">
        <ele>258.4</ele>
        <time>2016-03-12T14:10:31Z</time>
      </trkpt>
      <trkpt lat="48.38702" lon="-0.20752">
        <ele>258.5</ele>
        <time>2016-03-12T14:10:33Z</time>
      </trkpt>
      <trkpt lat="48.38695" lon="-0.20738">
        <ele>258.5</ele>
        <time>2016-03-12T14:10:35Z</time>
      </trkpt>
      <trkpt lat="48.38688" lon="-0.20724">
        <ele>258.5</ele>
        <time>2016-03-12T14:10:37Z</time>
      </trkpt>
      <trkpt lat="48.38681" lon="-0.2071">
        <ele>258.6</ele>
        <time>2016-03-12T14:10:39Z</time>
      </trkpt>
      <trkpt lat="48.38674" lon="-0.20695">
        <ele>258.6</ele>
        <time>2016-03-12T14:10:41Z</time>
      </trkpt>
      <trkpt lat="48.38667" lon="-0.20681">
        <ele>258.6</ele>
        <time>2016-03-12T14:10:43Z</time>
      </trkpt>
      <trkpt lat="48.3866" lon="-0.20667">
        <ele>258.7</ele>
        <time>2016-03-12T14:10:45Z</time>
      </trkpt>
      <trkpt lat="48.38652" lon="-0.20654">
        <ele>258.7</ele>
        <time>2016-03-12T14:10:47Z</time>
      </trkpt>
      <trkpt lat="48.38645" lon="-0.2064">
        <ele>258.7</ele>
        <time>2016-03-12T14:10:49Z</time>
      </trkpt>
      <trkpt lat="48.38637" lon="-0.20628">
        <ele>258.8</ele>
        <time>2016-03-12T14:10:51Z</time>
      </trkpt>
      <trkpt lat="48.38629" lon="-0.20617">
        <ele>258.8</ele>
        <time>2016-03-12T14:10:53Z</time>
      </trkpt>
      <trkpt lat="48.38622" lon="-0.20607">
        <ele>258.8</ele>
        <time>2016-03-12T14:10:55Z</time>
      </trkpt>
      <trkpt lat="48.38614" lon="-0.20596">
        <ele>258.8</ele>
        <time>2016-03-12T14:10:57Z</time>
      </trkpt>
      <trkpt lat="48.38605" lon="-0.20585">
        <ele>258.8</ele>
        <time>2016-03-12T14:10:59Z</time>
      </trkpt>
      <trkpt lat="48.38597" lon="-0.20575">
        <ele>258.9</ele>
        <time>2016-03-12T14:11:01Z</time>
      </trkpt>
      <trkpt lat="48.3859" lon="-0.20564">
        <ele>259</ele>
        <time>2016-03-12T14:11:03Z</time>
      </trkpt>
      <trkpt lat="48.38584" lon="-0.20553">
        <ele>259.1</ele>
        <time>2016-03-12T14:11:05Z</time>
      </trkpt>
      <trkpt lat="48.38578" lon="-0.20541">
        <ele>259.3</ele>
        <time>2016-03-12T14:11:07Z</time>
      </trkpt>
      <trkpt lat="48.38572" lon="-0.2053">
        <ele>259.4</ele>
        <time>2016-03-12T14:11:09Z</time>
      </trkpt>
      <trkpt lat="48.38568" lon="-0.20518">
        <ele>259.6</ele>
        <time>2016-03-12T14:11:11Z</time>
      </trkpt>
      <trkpt lat="48.38563" lon="-0.20506">
        <ele>259.7</ele>
        <time>2016-03-12T14:11:13Z</time>
      </trkpt>
      <trkpt lat="48.38559" lon="-0.20494">
        <ele>259.9</ele>
        <time>2016-03-12T14:11:15Z</time>
      </trkpt>
      <trkpt lat="48.38554" lon="-0.20482">
        <ele>260.2</ele>
        <time>2016-03-12T14:11:17Z</time>
      </trkpt>
      <trkpt lat="48.38548" lon="-0.20465">
        <ele>260.6</ele>
        <time>2016-03-12T14:11:20Z</time>
      </trkpt>
      <trkpt lat="48.38542" lon="-0.20448">
        <ele>261</ele>
        <time>2016-03-12T14:11:23Z</time>
      </trkpt>
      <trkpt lat="48.38535" lon="-0.20433">
        <ele>261.4</ele>
        <time>2016-03-12T14:11:26Z</time>
      </trkpt>
      <trkpt lat="48.38531" lon="-0.20418">
        <ele>261.9</ele>
        <time>2016-03-12T14:11:29Z</time>
      </trkpt>
      <trkpt lat="48.38525" lon="-0.20402">
        <ele>262.3</ele>
        <time>2016-03-12T14:11:32Z</time>
      </trkpt>
      <trkpt lat="48.3852" lon="-0.20388">
        <ele>262.8</ele>
        <time>2016-03-12T14:11:35Z</time>
      </trkpt>
      <trkpt lat="48.38517" lon="-0.20372">
        <ele>263.4</ele>
        <time>2016-03-12T14:11:38Z</time>
      </trkpt>
      <trkpt lat="48.38511" lon="-0.20359">
        <ele>264</ele>
        <time>2016-03-12T14:11:41Z</time>
      </trkpt>
      <trkpt lat="48.38503" lon="-0.20352">
        <ele>264.6</ele>
        <time>2016-03-12T14:11:44Z</time>
      </trkpt>
      <trkpt lat="48.38493" lon="-0.20343">
        <ele>265.3</ele>
        <time>2016-03-12T14:11:48Z</time>
      </trkpt>
      <trkpt lat="48.38485" lon="-0.20332">
        <ele>265.8</ele>
        <time>2016-03-12T14:11:52Z</time>
      </trkpt>
      <trkpt lat="48.38479" lon="-0.20321">
        <ele>266.2</ele>
        <time>2016-03-12T14:11:55Z</time>
      </trkpt>
      <trkpt lat="48.38472" lon="-0.20311">
        <ele>266.6</ele>
        <time>2016-03-12T14:11:58Z</time>
      </trkpt>
      <trkpt lat="48.38464" lon="-0.20303">
        <ele>267.1</ele>
        <time>2016-03-12T14:12:01Z</time>
      </trkpt>
      <trkpt lat="48.38456" lon="-0.20293">
        <ele>267.6</ele>
        <time>2016-03-12T14:12:05Z</time>
      </trkpt>
      <trkpt lat="48.38447" lon="-0.20284">
        <ele>268.2</ele>
        <time>2016-03-12T14:12:09Z</time>
      </trkpt>
      <trkpt lat="48.3844" lon="-0.2027">
        <ele>268.8</ele>
        <time>2016-03-12T14:12:13Z</time>
      </trkpt>
      <trkpt lat="48.38436" lon="-0.20256">
        <ele>269.4</ele>
        <time>2016-03-12T14:12:16Z</time>
      </trkpt>
      <trkpt lat="48.38432" lon="-0.20244">
        <ele>269.9</ele>
        <time>2016-03-12T14:12:19Z</time>
      </trkpt>
      <trkpt lat="48.38428" lon="-0.20231">
        <ele>270.4</ele>
        <time>2016-03-12T14:12:22Z</time>
      </trkpt>
      <trkpt lat="48.38423" lon="-0.20219">
        <ele>270.9</ele>
        <time>2016-03-12T14:12:25Z</time>
      </trkpt>
      <trkpt lat="48.38418" lon="-0.20203">
        <ele>271.6</ele>
        <time>2016-03-12T14:12:29Z</time>
      </trkpt>
      <trkpt lat="48.38412" lon="-0.20189">
        <ele>272.2</ele>
        <time>2016-03-12T14:12:33Z</time>
      </trkpt>
      <trkpt lat="48.38404" lon="-0.20175">
        <ele>272.8</ele>
        <time>2016-03-12T14:12:37Z</time>
      </trkpt>
      <trkpt lat="48.38398" lon="-0.20161">
        <ele>273.4</ele>
        <time>2016-03-12T14:12:41Z</time>
      </trkpt>
      <trkpt lat="48.38394" lon="-0.20149">
        <ele>274.2</ele>
        <time>2016-03-12T14:12:45Z</time>
      </trkpt>
      <trkpt lat="48.38386" lon="-0.20135">
        <ele>275.1</ele>
        <time>2016-03-12T14:12:50Z</time>
      </trkpt>
      <trkpt lat="48.38381" lon="-0.20124">
        <ele>275.6</ele>
        <time>2016-03-12T14:12:53Z</time>
      </trkpt>
      <trkpt lat="48.38374" lon="-0.20111">
        <ele>276.1</ele>
        <time>2016-03-12T14:12:56Z</time>
      </trkpt>
      <trkpt lat="48.38369" lon="-0.20098">
        <ele>276.8</ele>
        <time>2016-03-12T14:12:59Z</time>
      </trkpt>
      <trkpt lat="48.38367" lon="-0.20085">
        <ele>277.2</ele>
        <time>2016-03-12T14:13:01Z</time>
      </trkpt>
      <trkpt lat="48.38363" lon="-0.20071">
        <ele>277.7</ele>
        <time>2016-03-12T14:13:04Z</time>
      </trkpt>
      <trkpt lat="48.3836" lon="-0.20055">
        <ele>278.2</ele>
        <time>2016-03-12T14:13:07Z</time>
      </trkpt>
      <trkpt lat="48.38357" lon="-0.20039">
        <ele>278.5</ele>
        <time>2016-03-12T14:13:10Z</time>
      </trkpt>
      <trkpt lat="48.38355" lon="-0.20023">
        <ele>278.8</ele>
        <time>2016-03-12T14:13:13Z</time>
      </trkpt>
      <trkpt lat="48.38353" lon="-0.20008">
        <ele>279.2</ele>
        <time>2016-03-12T14:13:16Z</time>
      </trkpt>
      <trkpt lat="48.38351" lon="-0.19992">
        <ele>279.5</ele>
        <time>2016-03-12T14:13:19Z</time>
      </trkpt>
      <trkpt lat="48.38348" lon="-0.19976">
        <ele>279.8</ele>
        <time>2016-03-12T14:13:22Z</time>
      </trkpt>
      <trkpt lat="48.38345" lon="-0.19959">
        <ele>280</ele>
        <time>2016-03-12T14:13:25Z</time>
      </trkpt>
      <trkpt lat="48.38341" lon="-0.19942">
        <ele>280.3</ele>
        <time>2016-03-12T14:13:28Z</time>
      </trkpt>
      <trkpt lat="48.38336" lon="-0.19923">
        <ele>280.6</ele>
        <time>2016-03-12T14:13:31Z</time>
      </trkpt>
      <trkpt lat="48.38329" lon="-0.19907">
        <ele>280.7</ele>
        <time>2016-03-12T14:13:34Z</time>
      </trkpt>
      <trkpt lat="48.38322" lon="-0.19891">
        <ele>280.7</ele>
        <time>2016-03-12T14:13:37Z</time>
      </trkpt>
      <trkpt lat="48.38315" lon="-0.19878">
        <ele>280.6</ele>
        <time>2016-03-12T14:13:40Z</time>
      </trkpt>
      <trkpt lat="48.38311" lon="-0.19866">
        <ele>280.4</ele>
        <time>2016-03-12T14:13:46Z</time>
      </trkpt>
      <trkpt lat="48.38306" lon="-0.19854">
        <ele>280.3</ele>
        <time>2016-03-12T14:14:04Z</time>
      </trkpt>
      <trkpt lat="48.383" lon="-0.19842">
        <ele>280.2</ele>
        <time>2016-03-12T14:14:13Z</time>
      </trkpt>
      <trkpt lat="48.38293" lon="-0.19827">
        <ele>280.1</ele>
        <time>2016-03-12T14:14:17Z</time>
      </trkpt>
      <trkpt lat="48.38286" lon="-0.19811">
        <ele>280</ele>
        <time>2016-03-12T14:14:20Z</time>
      </trkpt>
      <trkpt lat="48.38278" lon="-0.19795">
        <ele>280</ele>
        <time>2016-03-12T14:14:23Z</time>
      </trkpt>
      <trkpt lat="48.3827" lon="-0.19781">
        <ele>280</ele>
        <time>2016-03-12T14:14:26Z</time>
      </trkpt>
      <trkpt lat="48.38262" lon="-0.19768">
        <ele>279.9</ele>
        <time>2016-03-12T14:14:29Z</time>
      </trkpt>
      <trkpt lat="48.38253" lon="-0.19751">
        <ele>279.7</ele>
        <time>2016-03-12T14:14:32Z</time>
      </trkpt>
      <trkpt lat="48.38245" lon="-0.19738">
        <ele>279.6</ele>
        <time>2016-03-12T14:14:35Z</time>
      </trkpt>
      <trkpt lat="48.38234" lon="-0.19728">
        <ele>279.4</ele>
        <time>2016-03-12T14:14:38Z</time>
      </trkpt>
      <trkpt lat="48.38224" lon="-0.19718">
        <ele>279.2</ele>
        <time>2016-03-12T14:14:41Z</time>
      </trkpt>
      <trkpt lat="48.38213" lon="-0.19708">
        <ele>279</ele>
        <time>2016-03-12T14:14:44Z</time>
      </trkpt>
      <trkpt lat="48.38204" lon="-0.19699">
        <ele>278.6</ele>
        <time>2016-03-12T14:14:47Z</time>
      </trkpt>
      <trkpt lat="48.38194" lon="-0.19691">
        <ele>278.2</ele>
        <time>2016-03-12T14:14:50Z</time>
      </trkpt>
      <trkpt lat="48.38184" lon="-0.19682">
        <ele>277.9</ele>
        <time>2016-03-12T14:14:53Z</time>
      </trkpt>
      <trkpt lat="48.38172" lon="-0.19672">
        <ele>277.5</ele>
        <time>2016-03-12T14:14:56Z</time>
      </trkpt>
      <trkpt lat="48.38164" lon="-0.19666">
        <ele>277.1</ele>
        <time>2016-03-12T14:14:58Z</time>
      </trkpt>
      <trkpt lat="48.38152" lon="-0.19657">
        <ele>276.5</ele>
        <time>2016-03-12T14:15:01Z</time>
      </trkpt>
      <trkpt lat="48.38139" lon="-0.19649">
        <ele>276</ele>
        <time>2016-03-12T14:15:04Z</time>
      </trkpt>
      <trkpt lat="48.3813" lon="-0.19644">
        <ele>275.6</ele>
        <time>2016-03-12T14:15:06Z</time>
      </trkpt>
      <trkpt lat="48.38121" lon="-0.19638">
        <ele>275.3</ele>
        <time>2016-03-12T14:15:08Z</time>
      </trkpt>
      <trkpt lat="48.38112" lon="-0.19633">
        <ele>274.9</ele>
        <time>2016-03-12T14:15:10Z</time>
      </trkpt>
      <trkpt lat="48.38103" lon="-0.19627">
        <ele>274.7</ele>
        <time>2016-03-12T14:15:12Z</time>
      </trkpt>
      <trkpt lat="48.38093" lon="-0.19624">
        <ele>274.3</ele>
        <time>2016-03-12T14:15:14Z</time>
      </trkpt>
      <trkpt lat="48.38084" lon="-0.19622">
        <ele>273.9</ele>
        <time>2016-03-12T14:15:16Z</time>
      </trkpt>
      <trkpt lat="48.38073" lon="-0.19618">
        <ele>273.5</ele>
        <time>2016-03-12T14:15:19Z</time>
      </trkpt>
      <trkpt lat="48.38061" lon="-0.19612">
        <ele>273.1</ele>
        <time>2016-03-12T14:15:22Z</time>
      </trkpt>
      <trkpt lat="48.38052" lon="-0.19606">
        <ele>272.8</ele>
        <time>2016-03-12T14:15:24Z</time>
      </trkpt>
      <trkpt lat="48.38044" lon="-0.19597">
        <ele>272.5</ele>
        <time>2016-03-12T14:15:26Z</time>
      </trkpt>
      <trkpt lat="48.38035" lon="-0.19588">
        <ele>272.2</ele>
        <time>2016-03-12T14:15:28Z</time>
      </trkpt>
      <trkpt lat="48.38026" lon="-0.19575">
        <ele>271.8</ele>
        <time>2016-03-12T14:15:31Z</time>
      </trkpt>
      <trkpt lat="48.38014" lon="-0.19564">
        <ele>271.5</ele>
        <time>2016-03-12T14:15:33Z</time>
      </trkpt>
      <trkpt lat="48.38005" lon="-0.19554">
        <ele>271.2</ele>
        <time>2016-03-12T14:15:35Z</time>
      </trkpt>
      <trkpt lat="48.37995" lon="-0.19547">
        <ele>271</ele>
        <time>2016-03-12T14:15:37Z</time>
      </trkpt>
      <trkpt lat="48.37985" lon="-0.19542">
        <ele>270.7</ele>
        <time>2016-03-12T14:15:39Z</time>
      </trkpt>
      <trkpt lat="48.37975" lon="-0.19532">
        <ele>270.4</ele>
        <time>2016-03-12T14:15:41Z</time>
      </trkpt>
      <trkpt lat="48.37965" lon="-0.19527">
        <ele>270</ele>
        <time>2016-03-12T14:15:43Z</time>
      </trkpt>
      <trkpt lat="48.37956" lon="-0.19525">
        <ele>269.6</ele>
        <time>2016-03-12T14:15:45Z</time>
      </trkpt>
      <trkpt lat="48.37944" lon="-0.19523">
        <ele>269.2</ele>
        <time>2016-03-12T14:15:47Z</time>
      </trkpt>
      <trkpt lat="48.37933" lon="-0.19518">
        <ele>268.7</ele>
        <time>2016-03-12T14:15:49Z</time>
      </trkpt>
      <trkpt lat="48.37923" lon="-0.19516">
        <ele>268.3</ele>
        <time>2016-03-12T14:15:51Z</time>
      </trkpt>
      <trkpt lat="48.3791" lon="-0.19511">
        <ele>267.6</ele>
        <time>2016-03-12T14:15:54Z</time>
      </trkpt>
      <trkpt lat="48.37901" lon="-0.19509">
        <ele>267.1</ele>
        <time>2016-03-12T14:15:57Z</time>
      </trkpt>
      <trkpt lat="48.37892" lon="-0.19502">
        <ele>266.5</ele>
        <time>2016-03-12T14:16:01Z</time>
      </trkpt>
      <trkpt lat="48.37881" lon="-0.19496">
        <ele>266.1</ele>
        <time>2016-03-12T14:16:05Z</time>
      </trkpt>
      <trkpt lat="48.3787" lon="-0.19491">
        <ele>265.7</ele>
        <time>2016-03-12T14:16:09Z</time>
      </trkpt>
      <trkpt lat="48.37862" lon="-0.19484">
        <ele>265.4</ele>
        <time>2016-03-12T14:16:12Z</time>
      </trkpt>
      <trkpt lat="48.37855" lon="-0.19476">
        <ele>265.2</ele>
        <time>2016-03-12T14:16:15Z</time>
      </trkpt>
      <trkpt lat="48.37847" lon="-0.19467">
        <ele>264.9</ele>
        <time>2016-03-12T14:16:18Z</time>
      </trkpt>
      <trkpt lat="48.37837" lon="-0.19456">
        <ele>264.7</ele>
        <time>2016-03-12T14:16:22Z</time>
      </trkpt>
      <trkpt lat="48.37829" lon="-0.19442">
        <ele>264.5</ele>
        <time>2016-03-12T14:16:25Z</time>
      </trkpt>
      <trkpt lat="48.3782" lon="-0.19429">
        <ele>264.4</ele>
        <time>2016-03-12T14:16:28Z</time>
      </trkpt>
      <trkpt lat="48.37812" lon="-0.19417">
        <ele>264.3</ele>
        <time>2016-03-12T14:16:31Z</time>
      </trkpt>
      <trkpt lat="48.37802" lon="-0.19408">
        <ele>264.2</ele>
        <time>2016-03-12T14:16:33Z</time>
      </trkpt>
      <trkpt lat="48.37793" lon="-0.19401">
        <ele>264.2</ele>
        <time>2016-03-12T14:16:35Z</time>
      </trkpt>
      <trkpt lat="48.37785" lon="-0.19394">
        <ele>264.2</ele>
        <time>2016-03-12T14:16:37Z</time>
      </trkpt>
      <trkpt lat="48.37777" lon="-0.19387">
        <ele>264.3</ele>
        <time>2016-03-12T14:16:39Z</time>
      </trkpt>
      <trkpt lat="48.37769" lon="-0.1938">
        <ele>264.4</ele>
        <time>2016-03-12T14:16:41Z</time>
      </trkpt>
      <trkpt lat="48.37761" lon="-0.19372">
        <ele>264.5</ele>
        <time>2016-03-12T14:16:43Z</time>
      </trkpt>
      <trkpt lat="48.37752" lon="-0.19358">
        <ele>264.6</ele>
        <time>2016-03-12T14:16:46Z</time>
      </trkpt>
      <trkpt lat="48.37742" lon="-0.19344">
        <ele>264.8</ele>
        <time>2016-03-12T14:16:49Z</time>
      </trkpt>
      <trkpt lat="48.37733" lon="-0.19332">
        <ele>265.1</ele>
        <time>2016-03-12T14:16:52Z</time>
      </trkpt>
      <trkpt lat="48.37724" lon="-0.19322">
        <ele>265.4</ele>
        <time>2016-03-12T14:16:55Z</time>
      </trkpt>
      <trkpt lat="48.37715" lon="-0.19313">
        <ele>265.7</ele>
        <time>2016-03-12T14:16:58Z</time>
      </trkpt>
      <trkpt lat="48.37705" lon="-0.19303">
        <ele>266</ele>
        <time>2016-03-12T14:17:01Z</time>
      </trkpt>
      <trkpt lat="48.37695" lon="-0.19294">
        <ele>266.3</ele>
        <time>2016-03-12T14:17:04Z</time>
      </trkpt>
      <trkpt lat="48.37685" lon="-0.19285">
        <ele>266.5</ele>
        <time>2016-03-12T14:17:07Z</time>
      </trkpt>
      <trkpt lat="48.37673" lon="-0.19278">
        <ele>266.8</ele>
        <time>2016-03-12T14:17:10Z</time>
      </trkpt>
      <trkpt lat="48.37664" lon="-0.19266">
        <ele>267.1</ele>
        <time>2016-03-12T14:17:13Z</time>
      </trkpt>
      <trkpt lat="48.37657" lon="-0.19257">
        <ele>267.3</ele>
        <time>2016-03-12T14:17:15Z</time>
      </trkpt>
      <trkpt lat="48.3765" lon="-0.19246">
        <ele>267.4</ele>
        <time>2016-03-12T14:17:17Z</time>
      </trkpt>
      <trkpt lat="48.37642" lon="-0.19237">
        <ele>267.6</ele>
        <time>2016-03-12T14:17:19Z</time>
      </trkpt>
      <trkpt lat="48.37635" lon="-0.19227">
        <ele>267.7</ele>
        <time>2016-03-12T14:17:21Z</time>
      </trkpt>
      <trkpt lat="48.37628" lon="-0.19218">
        <ele>267.8</ele>
        <time>2016-03-12T14:17:23Z</time>
      </trkpt>
      <trkpt lat="48.37621" lon="-0.19208">
        <ele>267.9</ele>
        <time>2016-03-12T14:17:25Z</time>
      </trkpt>
      <trkpt lat="48.37614" lon="-0.192">
        <ele>268</ele>
        <time>2016-03-12T14:17:27Z</time>
      </trkpt>
      <trkpt lat="48.37605" lon="-0.19187">
        <ele>268.1</ele>
        <time>2016-03-12T14:17:30Z</time>
      </trkpt>
      <trkpt lat="48.37594" lon="-0.19175">
        <ele>268.3</ele>
        <time>2016-03-12T14:17:33Z</time>
      </trkpt>
      <trkpt lat="48.37584" lon="-0.19163">
        <ele>268.4</ele>
        <time>2016-03-12T14:17:36Z</time>
      </trkpt>
      <trkpt lat="48.37577" lon="-0.19151">
        <ele>268.5</ele>
        <time>2016-03-12T14:17:39Z</time>
      </trkpt>
      <trkpt lat="48.37566" lon="-0.19139">
        <ele>268.5</ele>
        <time>2016-03-12T14:17:42Z</time>
      </trkpt>
      <trkpt lat="48.37557" lon="-0.1913">
        <ele>268.6</ele>
        <time>2016-03-12T14:17:44Z</time>
      </trkpt>
      <trkpt lat="48.37546" lon="-0.1912">
        <ele>268.7</ele>
        <time>2016-03-12T14:17:47Z</time>
      </trkpt>
      <trkpt lat="48.37538" lon="-0.19113">
        <ele>268.7</ele>
        <time>2016-03-12T14:17:49Z</time>
      </trkpt>
      <trkpt lat="48.3753" lon="-0.19102">
        <ele>268.8</ele>
        <time>2016-03-12T14:17:51Z</time>
      </trkpt>
      <trkpt lat="48.37522" lon="-0.19091">
        <ele>268.8</ele>
        <time>2016-03-12T14:17:53Z</time>
      </trkpt>
      <trkpt lat="48.37514" lon="-0.19081">
        <ele>268.9</ele>
        <time>2016-03-12T14:17:55Z</time>
      </trkpt>
      <trkpt lat="48.37507" lon="-0.19072">
        <ele>268.9</ele>
        <time>2016-03-12T14:17:57Z</time>
      </trkpt>
      <trkpt lat="48.37499" lon="-0.19064">
        <ele>268.9</ele>
        <time>2016-03-12T14:17:59Z</time>
      </trkpt>
      <trkpt lat="48.37488" lon="-0.19054">
        <ele>269</ele>
        <time>2016-03-12T14:18:01Z</time>
      </trkpt>
      <trkpt lat="48.3748" lon="-0.19045">
        <ele>269</ele>
        <time>2016-03-12T14:18:03Z</time>
      </trkpt>
      <trkpt lat="48.3747" lon="-0.19036">
        <ele>268.8</ele>
        <time>2016-03-12T14:18:05Z</time>
      </trkpt>
      <trkpt lat="48.37461" lon="-0.19022">
        <ele>268.6</ele>
        <time>2016-03-12T14:18:07Z</time>
      </trkpt>
      <trkpt lat="48.37452" lon="-0.19007">
        <ele>268.1</ele>
        <time>2016-03-12T14:18:10Z</time>
      </trkpt>
      <trkpt lat="48.37444" lon="-0.18992">
        <ele>267.7</ele>
        <time>2016-03-12T14:18:13Z</time>
      </trkpt>
      <trkpt lat="48.37436" lon="-0.18977">
        <ele>267</ele>
        <time>2016-03-12T14:18:16Z</time>
      </trkpt>
      <trkpt lat="48.37429" lon="-0.18966">
        <ele>266.3</ele>
        <time>2016-03-12T14:18:19Z</time>
      </trkpt>
      <trkpt lat="48.37422" lon="-0.18952">
        <ele>265.5</ele>
        <time>2016-03-12T14:18:23Z</time>
      </trkpt>
      <trkpt lat="48.37414" lon="-0.18939">
        <ele>264.7</ele>
        <time>2016-03-12T14:18:27Z</time>
      </trkpt>
      <trkpt lat="48.37407" lon="-0.1893">
        <ele>264.3</ele>
        <time>2016-03-12T14:18:30Z</time>
      </trkpt>
      <trkpt lat="48.37396" lon="-0.18918">
        <ele>263.9</ele>
        <time>2016-03-12T14:18:33Z</time>
      </trkpt>
      <trkpt lat="48.37389" lon="-0.18909">
        <ele>263.5</ele>
        <time>2016-03-12T14:18:35Z</time>
      </trkpt>
      <trkpt lat="48.37381" lon="-0.189">
        <ele>263.1</ele>
        <time>2016-03-12T14:18:37Z</time>
      </trkpt>
      <trkpt lat="48.37373" lon="-0.18889">
        <ele>262.8</ele>
        <time>2016-03-12T14:18:39Z</time>
      </trkpt>
      <trkpt lat="48.37366" lon="-0.1888">
        <ele>262.7</ele>
        <time>2016-03-12T14:18:41Z</time>
      </trkpt>
      <trkpt lat="48.37358" lon="-0.18872">
        <ele>262.6</ele>
        <time>2016-03-12T14:18:43Z</time>
      </trkpt>
      <trkpt lat="48.37348" lon="-0.1886">
        <ele>262.4</ele>
        <time>2016-03-12T14:18:46Z</time>
      </trkpt>
      <trkpt lat="48.37338" lon="-0.18848">
        <ele>262.3</ele>
        <time>2016-03-12T14:18:49Z</time>
      </trkpt>
      <trkpt lat="48.37331" lon="-0.1884">
        <ele>262.2</ele>
        <time>2016-03-12T14:18:51Z</time>
      </trkpt>
      <trkpt lat="48.37321" lon="-0.18828">
        <ele>262.4</ele>
        <time>2016-03-12T14:18:54Z</time>
      </trkpt>
      <trkpt lat="48.37311" lon="-0.18813">
        <ele>262.6</ele>
        <time>2016-03-12T14:18:57Z</time>
      </trkpt>
      <trkpt lat="48.37304" lon="-0.188">
        <ele>262.8</ele>
        <time>2016-03-12T14:19:00Z</time>
      </trkpt>
      <trkpt lat="48.37297" lon="-0.18787">
        <ele>263.1</ele>
        <time>2016-03-12T14:19:03Z</time>
      </trkpt>
      <trkpt lat="48.3729" lon="-0.18774">
        <ele>263.6</ele>
        <time>2016-03-12T14:19:06Z</time>
      </trkpt>
      <trkpt lat="48.37282" lon="-0.1876">
        <ele>264</ele>
        <time>2016-03-12T14:19:09Z</time>
      </trkpt>
      <trkpt lat="48.37275" lon="-0.18746">
        <ele>264.5</ele>
        <time>2016-03-12T14:19:12Z</time>
      </trkpt>
      <trkpt lat="48.37268" lon="-0.18736">
        <ele>264.8</ele>
        <time>2016-03-12T14:19:14Z</time>
      </trkpt>
      <trkpt lat="48.37262" lon="-0.18725">
        <ele>265.2</ele>
        <time>2016-03-12T14:19:16Z</time>
      </trkpt>
      <trkpt lat="48.37255" lon="-0.18713">
        <ele>265.5</ele>
        <time>2016-03-12T14:19:18Z</time>
      </trkpt>
      <trkpt lat="48.37246" lon="-0.18701">
        <ele>265.9</ele>
        <time>2016-03-12T14:19:20Z</time>
      </trkpt>
      <trkpt lat="48.37239" lon="-0.18689">
        <ele>266.1</ele>
        <time>2016-03-12T14:19:22Z</time>
      </trkpt>
      <trkpt lat="48.37231" lon="-0.18676">
        <ele>266.2</ele>
        <time>2016-03-12T14:19:24Z</time>
      </trkpt>
      <trkpt lat="48.37223" lon="-0.18662">
        <ele>266.2</ele>
        <time>2016-03-12T14:19:26Z</time>
      </trkpt>
      <trkpt lat="48.37216" lon="-0.18649">
        <ele>266.2</ele>
        <time>2016-03-12T14:19:28Z</time>
      </trkpt>
      <trkpt lat="48.3721" lon="-0.18637">
        <ele>266.3</ele>
        <time>2016-03-12T14:19:30Z</time>
      </trkpt>
      <trkpt lat="48.37204" lon="-0.18626">
        <ele>266.3</ele>
        <time>2016-03-12T14:19:32Z</time>
      </trkpt>
      <trkpt lat="48.37198" lon="-0.18611">
        <ele>266.3</ele>
        <time>2016-03-12T14:19:35Z</time>
      </trkpt>
      <trkpt lat="48.37188" lon="-0.18601">
        <ele>266.4</ele>
        <time>2016-03-12T14:19:39Z</time>
      </trkpt>
      <trkpt lat="48.37183" lon="-0.18587">
        <ele>266.4</ele>
        <time>2016-03-12T14:19:42Z</time>
      </trkpt>
      <trkpt lat="48.3718" lon="-0.18569">
        <ele>266.4</ele>
        <time>2016-03-12T14:19:45Z</time>
      </trkpt>
      <trkpt lat="48.37177" lon="-0.18552">
        <ele>266.4</ele>
        <time>2016-03-12T14:19:48Z</time>
      </trkpt>
      <trkpt lat="48.37169" lon="-0.1854">
        <ele>266.5</ele>
        <time>2016-03-12T14:19:51Z</time>
      </trkpt>
      <trkpt lat="48.3716" lon="-0.18528">
        <ele>266.7</ele>
        <time>2016-03-12T14:19:54Z</time>
      </trkpt>
      <trkpt lat="48.3715" lon="-0.18517">
        <ele>266.9</ele>
        <time>2016-03-12T14:19:57Z</time>
      </trkpt>
      <trkpt lat="48.37138" lon="-0.18507">
        <ele>267.1</ele>
        <time>2016-03-12T14:20:00Z</time>
      </trkpt>
      <trkpt lat="48.37129" lon="-0.18501">
        <ele>267.2</ele>
        <time>2016-03-12T14:20:02Z</time>
      </trkpt>
      <trkpt lat="48.3712" lon="-0.18495">
        <ele>267.3</ele>
        <time>2016-03-12T14:20:04Z</time>
      </trkpt>
      <trkpt lat="48.37111" lon="-0.18489">
        <ele>267.4</ele>
        <time>2016-03-12T14:20:06Z</time>
      </trkpt>
      <trkpt lat="48.371" lon="-0.1848">
        <ele>267.7</ele>
        <time>2016-03-12T14:20:09Z</time>
      </trkpt>
      <trkpt lat="48.37089" lon="-0.18469">
        <ele>267.9</ele>
        <time>2016-03-12T14:20:12Z</time>
      </trkpt>
      <trkpt lat="48.37078" lon="-0.18457">
        <ele>268.2</ele>
        <time>2016-03-12T14:20:15Z</time>
      </trkpt>
      <trkpt lat="48.37068" lon="-0.18444">
        <ele>268.5</ele>
        <time>2016-03-12T14:20:18Z</time>
      </trkpt>
      <trkpt lat="48.37061" lon="-0.18434">
        <ele>268.7</ele>
        <time>2016-03-12T14:20:20Z</time>
      </trkpt>
      <trkpt lat="48.37055" lon="-0.18422">
        <ele>268.8</ele>
        <time>2016-03-12T14:20:22Z</time>
      </trkpt>
      <trkpt lat="48.37049" lon="-0.1841">
        <ele>269</ele>
        <time>2016-03-12T14:20:24Z</time>
      </trkpt>
      <trkpt lat="48.37044" lon="-0.18397">
        <ele>269.1</ele>
        <time>2016-03-12T14:20:26Z</time>
      </trkpt>
      <trkpt lat="48.37038" lon="-0.18385">
        <ele>269.2</ele>
        <time>2016-03-12T14:20:28Z</time>
      </trkpt>
      <trkpt lat="48.37034" lon="-0.18372">
        <ele>269.3</ele>
        <time>2016-03-12T14:20:30Z</time>
      </trkpt>
      <trkpt lat="48.37028" lon="-0.18361">
        <ele>269.4</ele>
        <time>2016-03-12T14:20:32Z</time>
      </trkpt>
      <trkpt lat="48.37021" lon="-0.1835">
        <ele>269.5</ele>
        <time>2016-03-12T14:20:34Z</time>
      </trkpt>
      <trkpt lat="48.37014" lon="-0.1834">
        <ele>269.5</ele>
        <time>2016-03-12T14:20:36Z</time>
      </trkpt>
      <trkpt lat="48.37006" lon="-0.18332">
        <ele>269.6</ele>
        <time>2016-03-12T14:20:38Z</time>
      </trkpt>
      <trkpt lat="48.37" lon="-0.1832">
        <ele>269.6</ele>
        <time>2016-03-12T14:20:40Z</time>
      </trkpt>
      <trkpt lat="48.37004" lon="-0.18303">
        <ele>269.6</ele>
        <time>2016-03-12T14:20:43Z</time>
      </trkpt>
      <trkpt lat="48.36998" lon="-0.18286">
        <ele>269.6</ele>
        <time>2016-03-12T14:20:46Z</time>
      </trkpt>
      <trkpt lat="48.36989" lon="-0.18272">
        <ele>269.7</ele>
        <time>2016-03-12T14:20:49Z</time>
      </trkpt>
      <trkpt lat="48.36983" lon="-0.18262">
        <ele>269.7</ele>
        <time>2016-03-12T14:20:51Z</time>
      </trkpt>
      <trkpt lat="48.36976" lon="-0.18251">
        <ele>269.9</ele>
        <time>2016-03-12T14:20:53Z</time>
      </trkpt>
      <trkpt lat="48.36968" lon="-0.18237">
        <ele>270.1</ele>
        <time>2016-03-12T14:20:56Z</time>
      </trkpt>
      <trkpt lat="48.36959" lon="-0.18223">
        <ele>270.3</ele>
        <time>2016-03-12T14:20:59Z</time>
      </trkpt>
      <trkpt lat="48.36952" lon="-0.18208">
        <ele>270.5</ele>
        <time>2016-03-12T14:21:02Z</time>
      </trkpt>
      <trkpt lat="48.36946" lon="-0.18197">
        <ele>270.7</ele>
        <time>2016-03-12T14:21:04Z</time>
      </trkpt>
      <trkpt lat="48.36941" lon="-0.18186">
        <ele>270.9</ele>
        <time>2016-03-12T14:21:06Z</time>
      </trkpt>
      <trkpt lat="48.36933" lon="-0.18171">
        <ele>271.1</ele>
        <time>2016-03-12T14:21:09Z</time>
      </trkpt>
      <trkpt lat="48.36925" lon="-0.18155">
        <ele>271.3</ele>
        <time>2016-03-12T14:21:12Z</time>
      </trkpt>
      <trkpt lat="48.36919" lon="-0.18144">
        <ele>271.4</ele>
        <time>2016-03-12T14:21:14Z</time>
      </trkpt>
      <trkpt lat="48.36913" lon="-0.18133">
        <ele>271.4</ele>
        <time>2016-03-12T14:21:16Z</time>
      </trkpt>
      <trkpt lat="48.36908" lon="-0.18123">
        <ele>271.5</ele>
        <time>2016-03-12T14:21:18Z</time>
      </trkpt>
      <trkpt lat="48.36902" lon="-0.18112">
        <ele>271.6</ele>
        <time>2016-03-12T14:21:20Z</time>
      </trkpt>
      <trkpt lat="48.36896" lon="-0.18101">
        <ele>271.7</ele>
        <time>2016-03-12T14:21:22Z</time>
      </trkpt>
      <trkpt lat="48.36889" lon="-0.1809">
        <ele>271.7</ele>
        <time>2016-03-12T14:21:24Z</time>
      </trkpt>
      <trkpt lat="48.36883" lon="-0.1808">
        <ele>271.8</ele>
        <time>2016-03-12T14:21:26Z</time>
      </trkpt>
      <trkpt lat="48.3688" lon="-0.18063">
        <ele>272</ele>
        <time>2016-03-12T14:21:29Z</time>
      </trkpt>
      <trkpt lat="48.36885" lon="-0.18052">
        <ele>272.1</ele>
        <time>2016-03-12T14:21:31Z</time>
      </trkpt>
      <trkpt lat="48.36891" lon="-0.1804">
        <ele>272.2</ele>
        <time>2016-03-12T14:21:33Z</time>
      </trkpt>
      <trkpt lat="48.36896" lon="-0.18026">
        <ele>272.3</ele>
        <time>2016-03-12T14:21:35Z</time>
      </trkpt>
      <trkpt lat="48.36901" lon="-0.18013">
        <ele>272.4</ele>
        <time>2016-03-12T14:21:37Z</time>
      </trkpt>
      <trkpt lat="48.36906" lon="-0.18">
        <ele>272.5</ele>
        <time>2016-03-12T14:21:39Z</time>
      </trkpt>
      <trkpt lat="48.36912" lon="-0.17986">
        <ele>272.6</ele>
        <time>2016-03-12T14:21:41Z</time>
      </trkpt>
      <trkpt lat="48.36917" lon="-0.17973">
        <ele>272.7</ele>
        <time>2016-03-12T14:21:43Z</time>
      </trkpt>
      <trkpt lat="48.36922" lon="-0.17959">
        <ele>272.7</ele>
        <time>2016-03-12T14:21:45Z</time>
      </trkpt>
      <trkpt lat="48.36928" lon="-0.17945">
        <ele>272.7</ele>
        <time>2016-03-12T14:21:47Z</time>
      </trkpt>
      <trkpt lat="48.36933" lon="-0.17932">
        <ele>272.6</ele>
        <time>2016-03-12T14:21:49Z</time>
      </trkpt>
      <trkpt lat="48.36937" lon="-0.17914">
        <ele>272.3</ele>
        <time>2016-03-12T14:21:52Z</time>
      </trkpt>
      <trkpt lat="48.36928" lon="-0.179">
        <ele>271.9</ele>
        <time>2016-03-12T14:21:55Z</time>
      </trkpt>
      <trkpt lat="48.36917" lon="-0.1789">
        <ele>271.6</ele>
        <time>2016-03-12T14:21:58Z</time>
      </trkpt>
      <trkpt lat="48.36907" lon="-0.17878">
        <ele>271.4</ele>
        <time>2016-03-12T14:22:01Z</time>
      </trkpt>
      <trkpt lat="48.369" lon="-0.1787">
        <ele>271.3</ele>
        <time>2016-03-12T14:22:03Z</time>
      </trkpt>
      <trkpt lat="48.36892" lon="-0.17861">
        <ele>271.4</ele>
        <time>2016-03-12T14:22:05Z</time>
      </trkpt>
      <trkpt lat="48.36885" lon="-0.17852">
        <ele>271.5</ele>
        <time>2016-03-12T14:22:07Z</time>
      </trkpt>
      <trkpt lat="48.36878" lon="-0.17842">
        <ele>271.6</ele>
        <time>2016-03-12T14:22:09Z</time>
      </trkpt>
      <trkpt lat="48.36869" lon="-0.17828">
        <ele>271.6</ele>
        <time>2016-03-12T14:22:12Z</time>
      </trkpt>
      <trkpt lat="48.3686" lon="-0.17813">
        <ele>271.7</ele>
        <time>2016-03-12T14:22:15Z</time>
      </trkpt>
      <trkpt lat="48.36852" lon="-0.17799">
        <ele>272.7</ele>
        <time>2016-03-12T14:22:18Z</time>
      </trkpt>
      <trkpt lat="48.36844" lon="-0.17784">
        <ele>272.9</ele>
        <time>2016-03-12T14:22:21Z</time>
      </trkpt>
      <trkpt lat="48.36836" lon="-0.17767">
        <ele>273.1</ele>
        <time>2016-03-12T14:22:24Z</time>
      </trkpt>
      <trkpt lat="48.36831" lon="-0.17755">
        <ele>273.2</ele>
        <time>2016-03-12T14:22:26Z</time>
      </trkpt>
      <trkpt lat="48.36825" lon="-0.17743">
        <ele>273.3</ele>
        <time>2016-03-12T14:22:28Z</time>
      </trkpt>
      <trkpt lat="48.36819" lon="-0.17731">
        <ele>273.4</ele>
        <time>2016-03-12T14:22:30Z</time>
      </trkpt>
      <trkpt lat="48.36813" lon="-0.17719">
        <ele>273.6</ele>
        <time>2016-03-12T14:22:32Z</time>
      </trkpt>
      <trkpt lat="48.36807" lon="-0.17706">
        <ele>273.7</ele>
        <time>2016-03-12T14:22:34Z</time>
      </trkpt>
      <trkpt lat="48.36801" lon="-0.17693">
        <ele>273.8</ele>
        <time>2016-03-12T14:22:36Z</time>
      </trkpt>
      <trkpt lat="48.36795" lon="-0.17679">
        <ele>273.9</ele>
        <time>2016-03-12T14:22:38Z</time>
      </trkpt>
      <trkpt lat="48.36789" lon="-0.17666">
        <ele>274</ele>
        <time>2016-03-12T14:22:40Z</time>
      </trkpt>
      <trkpt lat="48.36782" lon="-0.17653">
        <ele>274.2</ele>
        <time>2016-03-12T14:22:42Z</time>
      </trkpt>
      <trkpt lat="48.36776" lon="-0.17639">
        <ele>274.4</ele>
        <time>2016-03-12T14:22:44Z</time>
      </trkpt>
      <trkpt lat="48.36769" lon="-0.17627">
        <ele>274.5</ele>
        <time>2016-03-12T14:22:46Z</time>
      </trkpt>
      <trkpt lat="48.36762" lon="-0.17614">
        <ele>274.6</ele>
        <time>2016-03-12T14:22:48Z</time>
      </trkpt>
      <trkpt lat="48.36754" lon="-0.17601">
        <ele>274.7</ele>
        <time>2016-03-12T14:22:50Z</time>
      </trkpt>
      <trkpt lat="48.36747" lon="-0.17589">
        <ele>274.8</ele>
        <time>2016-03-12T14:22:52Z</time>
      </trkpt>
      <trkpt lat="48.36739" lon="-0.17576">
        <ele>274.9</ele>
        <time>2016-03-12T14:22:54Z</time>
      </trkpt>
      <trkpt lat="48.36731" lon="-0.17563">
        <ele>275</ele>
        <time>2016-03-12T14:22:56Z</time>
      </trkpt>
      <trkpt lat="48.36723" lon="-0.1755">
        <ele>275</ele>
        <time>2016-03-12T14:22:58Z</time>
      </trkpt>
      <trkpt lat="48.36716" lon="-0.17538">
        <ele>275.1</ele>
        <time>2016-03-12T14:23:00Z</time>
      </trkpt>
      <trkpt lat="48.36708" lon="-0.17525">
        <ele>275.1</ele>
        <time>2016-03-12T14:23:02Z</time>
      </trkpt>
      <trkpt lat="48.367" lon="-0.17512">
        <ele>275.2</ele>
        <time>2016-03-12T14:23:04Z</time>
      </trkpt>
      <trkpt lat="48.36692" lon="-0.17499">
        <ele>275.3</ele>
        <time>2016-03-12T14:23:06Z</time>
      </trkpt>
      <trkpt lat="48.36683" lon="-0.17486">
        <ele>275.4</ele>
        <time>2016-03-12T14:23:08Z</time>
      </trkpt>
      <trkpt lat="48.36675" lon="-0.17472">
        <ele>275.6</ele>
        <time>2016-03-12T14:23:10Z</time>
      </trkpt>
      <trkpt lat="48.36667" lon="-0.17458">
        <ele>275.7</ele>
        <time>2016-03-12T14:23:12Z</time>
      </trkpt>
      <trkpt lat="48.36659" lon="-0.17444">
        <ele>275.8</ele>
        <time>2016-03-12T14:23:14Z</time>
      </trkpt>
      <trkpt lat="48.36652" lon="-0.1743">
        <ele>275.9</ele>
        <time>2016-03-12T14:23:16Z</time>
      </trkpt>
      <trkpt lat="48.36644" lon="-0.17417">
        <ele>276</ele>
        <time>2016-03-12T14:23:18Z</time>
      </trkpt>
      <trkpt lat="48.36637" lon="-0.17405">
        <ele>276</ele>
        <time>2016-03-12T14:23:20Z</time>
      </trkpt>
      <trkpt lat="48.3663" lon="-0.17393">
        <ele>276.1</ele>
        <time>2016-03-12T14:23:22Z</time>
      </trkpt>
      <trkpt lat="48.36622" lon="-0.17381">
        <ele>276.2</ele>
        <time>2016-03-12T14:23:24Z</time>
      </trkpt>
      <trkpt lat="48.36615" lon="-0.17368">
        <ele>276.2</ele>
        <time>2016-03-12T14:23:26Z</time>
      </trkpt>
      <trkpt lat="48.36607" lon="-0.17356">
        <ele>276.3</ele>
        <time>2016-03-12T14:23:28Z</time>
      </trkpt>
      <trkpt lat="48.36599" lon="-0.17344">
        <ele>276.3</ele>
        <time>2016-03-12T14:23:30Z</time>
      </trkpt>
      <trkpt lat="48.3659" lon="-0.1733">
        <ele>276.3</ele>
        <time>2016-03-12T14:23:32Z</time>
      </trkpt>
      <trkpt lat="48.36582" lon="-0.17317">
        <ele>276.4</ele>
        <time>2016-03-12T14:23:34Z</time>
      </trkpt>
      <trkpt lat="48.36574" lon="-0.17303">
        <ele>276.4</ele>
        <time>2016-03-12T14:23:36Z</time>
      </trkpt>
      <trkpt lat="48.36565" lon="-0.17289">
        <ele>276.4</ele>
        <time>2016-03-12T14:23:38Z</time>
      </trkpt>
      <trkpt lat="48.36556" lon="-0.17276">
        <ele>276.4</ele>
        <time>2016-03-12T14:23:40Z</time>
      </trkpt>
      <trkpt lat="48.36548" lon="-0.17262">
        <ele>276.4</ele>
        <time>2016-03-12T14:23:42Z</time>
      </trkpt>
      <trkpt lat="48.3654" lon="-0.17248">
        <ele>276.5</ele>
        <time>2016-03-12T14:23:44Z</time>
      </trkpt>
      <trkpt lat="48.36531" lon="-0.17234">
        <ele>276.5</ele>
        <time>2016-03-12T14:23:46Z</time>
      </trkpt>
      <trkpt lat="48.36523" lon="-0.17219">
        <ele>276.5</ele>
        <time>2016-03-12T14:23:48Z</time>
      </trkpt>
      <trkpt lat="48.36514" lon="-0.17204">
        <ele>276.5</ele>
        <time>2016-03-12T14:23:50Z</time>
      </trkpt>
      <trkpt lat="48.36505" lon="-0.17189">
        <ele>276.5</ele>
        <time>2016-03-12T14:23:52Z</time>
      </trkpt>
      <trkpt lat="48.36497" lon="-0.17174">
        <ele>276.5</ele>
        <time>2016-03-12T14:23:54Z</time>
      </trkpt>
      <trkpt lat="48.36488" lon="-0.17159">
        <ele>276.4</ele>
        <time>2016-03-12T14:23:56Z</time>
      </trkpt>
      <trkpt lat="48.36479" lon="-0.17143">
        <ele>276.4</ele>
        <time>2016-03-12T14:23:58Z</time>
      </trkpt>
      <trkpt lat="48.3647" lon="-0.17128">
        <ele>276.4</ele>
        <time>2016-03-12T14:24:00Z</time>
      </trkpt>
      <trkpt lat="48.36461" lon="-0.17113">
        <ele>276.4</ele>
        <time>2016-03-12T14:24:02Z</time>
      </trkpt>
      <trkpt lat="48.36453" lon="-0.17099">
        <ele>276.4</ele>
        <time>2016-03-12T14:24:04Z</time>
      </trkpt>
      <trkpt lat="48.36444" lon="-0.17084">
        <ele>276.4</ele>
        <time>2016-03-12T14:24:06Z</time>
      </trkpt>
      <trkpt lat="48.36436" lon="-0.17069">
        <ele>276.4</ele>
        <time>2016-03-12T14:24:08Z</time>
      </trkpt>
      <trkpt lat="48.36427" lon="-0.17054">
        <ele>276.4</ele>
        <time>2016-03-12T14:24:10Z</time>
      </trkpt>
      <trkpt lat="48.36418" lon="-0.1704">
        <ele>276.4</ele>
        <time>2016-03-12T14:24:12Z</time>
      </trkpt>
      <trkpt lat="48.36409" lon="-0.17026">
        <ele>276.4</ele>
        <time>2016-03-12T14:24:14Z</time>
      </trkpt>
      <trkpt lat="48.364" lon="-0.17012">
        <ele>276.3</ele>
        <time>2016-03-12T14:24:16Z</time>
      </trkpt>
      <trkpt lat="48.3639" lon="-0.16998">
        <ele>276.2</ele>
        <time>2016-03-12T14:24:18Z</time>
      </trkpt>
      <trkpt lat="48.3638" lon="-0.16985">
        <ele>276.2</ele>
        <time>2016-03-12T14:24:20Z</time>
      </trkpt>
      <trkpt lat="48.3637" lon="-0.16972">
        <ele>276.1</ele>
        <time>2016-03-12T14:24:22Z</time>
      </trkpt>
      <trkpt lat="48.3636" lon="-0.16959">
        <ele>276.1</ele>
        <time>2016-03-12T14:24:24Z</time>
      </trkpt>
      <trkpt lat="48.36349" lon="-0.16946">
        <ele>276.1</ele>
        <time>2016-03-12T14:24:26Z</time>
      </trkpt>
      <trkpt lat="48.36339" lon="-0.16933">
        <ele>276</ele>
        <time>2016-03-12T14:24:28Z</time>
      </trkpt>
      <trkpt lat="48.36328" lon="-0.16921">
        <ele>276</ele>
        <time>2016-03-12T14:24:30Z</time>
      </trkpt>
      <trkpt lat="48.36317" lon="-0.16909">
        <ele>276</ele>
        <time>2016-03-12T14:24:32Z</time>
      </trkpt>
      <trkpt lat="48.36306" lon="-0.16898">
        <ele>276</ele>
        <time>2016-03-12T14:24:34Z</time>
      </trkpt>
      <trkpt lat="48.36296" lon="-0.16888">
        <ele>275.9</ele>
        <time>2016-03-12T14:24:36Z</time>
      </trkpt>
      <trkpt lat="48.36288" lon="-0.1688">
        <ele>275.9</ele>
        <time>2016-03-12T14:24:38Z</time>
      </trkpt>
      <trkpt lat="48.36279" lon="-0.16878">
        <ele>275.2</ele>
        <time>2016-03-12T14:24:52Z</time>
      </trkpt>
      <trkpt lat="48.36271" lon="-0.16889">
        <ele>273.9</ele>
        <time>2016-03-12T14:30:05Z</time>
      </trkpt>
      <trkpt lat="48.36264" lon="-0.16899">
        <ele>273.9</ele>
        <time>2016-03-12T14:30:08Z</time>
      </trkpt>
      <trkpt lat="48.36256" lon="-0.1691">
        <ele>273.9</ele>
        <time>2016-03-12T14:30:11Z</time>
      </trkpt>
      <trkpt lat="48.36245" lon="-0.16923">
        <ele>273.7</ele>
        <time>2016-03-12T14:30:14Z</time>
      </trkpt>
      <trkpt lat="48.36238" lon="-0.16931">
        <ele>273.5</ele>
        <time>2016-03-12T14:30:16Z</time>
      </trkpt>
      <trkpt lat="48.36228" lon="-0.16945">
        <ele>273.1</ele>
        <time>2016-03-12T14:30:19Z</time>
      </trkpt>
      <trkpt lat="48.36221" lon="-0.16956">
        <ele>272.7</ele>
        <time>2016-03-12T14:30:21Z</time>
      </trkpt>
      <trkpt lat="48.36215" lon="-0.16967">
        <ele>272.2</ele>
        <time>2016-03-12T14:30:23Z</time>
      </trkpt>
      <trkpt lat="48.3621" lon="-0.16979">
        <ele>271.6</ele>
        <time>2016-03-12T14:30:25Z</time>
      </trkpt>
      <trkpt lat="48.36202" lon="-0.16995">
        <ele>270.6</ele>
        <time>2016-03-12T14:30:28Z</time>
      </trkpt>
      <trkpt lat="48.36198" lon="-0.17008">
        <ele>270</ele>
        <time>2016-03-12T14:30:30Z</time>
      </trkpt>
      <trkpt lat="48.36194" lon="-0.17022">
        <ele>269.3</ele>
        <time>2016-03-12T14:30:32Z</time>
      </trkpt>
      <trkpt lat="48.36188" lon="-0.17034">
        <ele>268.3</ele>
        <time>2016-03-12T14:30:34Z</time>
      </trkpt>
      <trkpt lat="48.36182" lon="-0.17049">
        <ele>267.4</ele>
        <time>2016-03-12T14:30:36Z</time>
      </trkpt>
      <trkpt lat="48.36175" lon="-0.17063">
        <ele>266.6</ele>
        <time>2016-03-12T14:30:38Z</time>
      </trkpt>
      <trkpt lat="48.36167" lon="-0.17073">
        <ele>265.8</ele>
        <time>2016-03-12T14:30:40Z</time>
      </trkpt>
      <trkpt lat="48.36159" lon="-0.17082">
        <ele>265</ele>
        <time>2016-03-12T14:30:42Z</time>
      </trkpt>
      <trkpt lat="48.36152" lon="-0.17093">
        <ele>263.7</ele>
        <time>2016-03-12T14:30:44Z</time>
      </trkpt>
      <trkpt lat="48.36146" lon="-0.17105">
        <ele>262.8</ele>
        <time>2016-03-12T14:30:46Z</time>
      </trkpt>
      <trkpt lat="48.36139" lon="-0.17117">
        <ele>261.5</ele>
        <time>2016-03-12T14:30:49Z</time>
      </trkpt>
      <trkpt lat="48.36133" lon="-0.17132">
        <ele>260</ele>
        <time>2016-03-12T14:30:52Z</time>
      </trkpt>
      <trkpt lat="48.36126" lon="-0.17143">
        <ele>258.5</ele>
        <time>2016-03-12T14:30:55Z</time>
      </trkpt>
      <trkpt lat="48.36118" lon="-0.17159">
        <ele>257.3</ele>
        <time>2016-03-12T14:30:58Z</time>
      </trkpt>
      <trkpt lat="48.36109" lon="-0.17173">
        <ele>255.8</ele>
        <time>2016-03-12T14:31:01Z</time>
      </trkpt>
      <trkpt lat="48.36101" lon="-0.17184">
        <ele>254.6</ele>
        <time>2016-03-12T14:31:04Z</time>
      </trkpt>
      <trkpt lat="48.36093" lon="-0.17198">
        <ele>253.2</ele>
        <time>2016-03-12T14:31:07Z</time>
      </trkpt>
      <trkpt lat="48.36084" lon="-0.17214">
        <ele>252.1</ele>
        <time>2016-03-12T14:31:10Z</time>
      </trkpt>
      <trkpt lat="48.36077" lon="-0.17223">
        <ele>251.4</ele>
        <time>2016-03-12T14:31:12Z</time>
      </trkpt>
      <trkpt lat="48.36064" lon="-0.17234">
        <ele>250.1</ele>
        <time>2016-03-12T14:31:15Z</time>
      </trkpt>
      <trkpt lat="48.36055" lon="-0.17241">
        <ele>249.2</ele>
        <time>2016-03-12T14:31:17Z</time>
      </trkpt>
      <trkpt lat="48.36047" lon="-0.17248">
        <ele>248.3</ele>
        <time>2016-03-12T14:31:19Z</time>
      </trkpt>
      <trkpt lat="48.36036" lon="-0.17253">
        <ele>247</ele>
        <time>2016-03-12T14:31:22Z</time>
      </trkpt>
      <trkpt lat="48.36023" lon="-0.17254">
        <ele>245.6</ele>
        <time>2016-03-12T14:31:25Z</time>
      </trkpt>
      <trkpt lat="48.3601" lon="-0.17256">
        <ele>244.7</ele>
        <time>2016-03-12T14:31:27Z</time>
      </trkpt>
      <trkpt lat="48.36" lon="-0.17255">
        <ele>243.8</ele>
        <time>2016-03-12T14:31:29Z</time>
      </trkpt>
      <trkpt lat="48.35991" lon="-0.17255">
        <ele>242.8</ele>
        <time>2016-03-12T14:31:31Z</time>
      </trkpt>
      <trkpt lat="48.35982" lon="-0.17254">
        <ele>241.9</ele>
        <time>2016-03-12T14:31:33Z</time>
      </trkpt>
      <trkpt lat="48.3597" lon="-0.17258">
        <ele>241</ele>
        <time>2016-03-12T14:31:35Z</time>
      </trkpt>
      <trkpt lat="48.3596" lon="-0.17267">
        <ele>240</ele>
        <time>2016-03-12T14:31:37Z</time>
      </trkpt>
      <trkpt lat="48.35951" lon="-0.17277">
        <ele>238.5</ele>
        <time>2016-03-12T14:31:40Z</time>
      </trkpt>
      <trkpt lat="48.3594" lon="-0.17287">
        <ele>236.7</ele>
        <time>2016-03-12T14:31:43Z</time>
      </trkpt>
      <trkpt lat="48.35929" lon="-0.17297">
        <ele>235.4</ele>
        <time>2016-03-12T14:31:46Z</time>
      </trkpt>
      <trkpt lat="48.3592" lon="-0.17305">
        <ele>234.1</ele>
        <time>2016-03-12T14:31:49Z</time>
      </trkpt>
      <trkpt lat="48.35912" lon="-0.17314">
        <ele>233.3</ele>
        <time>2016-03-12T14:31:51Z</time>
      </trkpt>
      <trkpt lat="48.35905" lon="-0.17324">
        <ele>232.4</ele>
        <time>2016-03-12T14:31:53Z</time>
      </trkpt>
      <trkpt lat="48.35896" lon="-0.17333">
        <ele>231.7</ele>
        <time>2016-03-12T14:31:55Z</time>
      </trkpt>
      <trkpt lat="48.35888" lon="-0.17341">
        <ele>230.5</ele>
        <time>2016-03-12T14:31:58Z</time>
      </trkpt>
      <trkpt lat="48.3588" lon="-0.1735">
        <ele>227.9</ele>
        <time>2016-03-12T14:32:04Z</time>
      </trkpt>
      <trkpt lat="48.35869" lon="-0.17356">
        <ele>226.6</ele>
        <time>2016-03-12T14:32:08Z</time>
      </trkpt>
      <trkpt lat="48.35859" lon="-0.17363">
        <ele>225.9</ele>
        <time>2016-03-12T14:32:11Z</time>
      </trkpt>
      <trkpt lat="48.35851" lon="-0.1737">
        <ele>224.8</ele>
        <time>2016-03-12T14:32:16Z</time>
      </trkpt>
      <trkpt lat="48.35853" lon="-0.17385">
        <ele>222.3</ele>
        <time>2016-03-12T14:32:39Z</time>
      </trkpt>
      <trkpt lat="48.35858" lon="-0.174">
        <ele>222.1</ele>
        <time>2016-03-12T14:32:43Z</time>
      </trkpt>
      <trkpt lat="48.35863" lon="-0.17413">
        <ele>221.9</ele>
        <time>2016-03-12T14:32:47Z</time>
      </trkpt>
      <trkpt lat="48.35857" lon="-0.174">
        <ele>220.9</ele>
        <time>2016-03-12T14:33:46Z</time>
      </trkpt>
      <trkpt lat="48.35852" lon="-0.17385">
        <ele>220.9</ele>
        <time>2016-03-12T14:33:50Z</time>
      </trkpt>
      <trkpt lat="48.35848" lon="-0.1737">
        <ele>220.9</ele>
        <time>2016-03-12T14:33:56Z</time>
      </trkpt>
      <trkpt lat="48.35843" lon="-0.17356">
        <ele>220.9</ele>
        <time>2016-03-12T14:34:00Z</time>
      </trkpt>
      <trkpt lat="48.35849" lon="-0.17343">
        <ele>220.9</ele>
        <time>2016-03-12T14:34:05Z</time>
      </trkpt>
      <trkpt lat="48.35858" lon="-0.17339">
        <ele>220.9</ele>
        <time>2016-03-12T14:34:09Z</time>
      </trkpt>
      <trkpt lat="48.35868" lon="-0.17331">
        <ele>221.1</ele>
        <time>2016-03-12T14:34:14Z</time>
      </trkpt>
      <trkpt lat="48.35876" lon="-0.17321">
        <ele>221.5</ele>
        <time>2016-03-12T14:34:18Z</time>
      </trkpt>
      <trkpt lat="48.35882" lon="-0.17311">
        <ele>222.1</ele>
        <time>2016-03-12T14:34:22Z</time>
      </trkpt>
      <trkpt lat="48.3589" lon="-0.17302">
        <ele>221.7</ele>
        <time>2016-03-12T14:34:26Z</time>
      </trkpt>
      <trkpt lat="48.35897" lon="-0.17292">
        <ele>222.7</ele>
        <time>2016-03-12T14:34:30Z</time>
      </trkpt>
      <trkpt lat="48.35904" lon="-0.17278">
        <ele>223.6</ele>
        <time>2016-03-12T14:34:34Z</time>
      </trkpt>
      <trkpt lat="48.3591" lon="-0.17267">
        <ele>224.5</ele>
        <time>2016-03-12T14:34:38Z</time>
      </trkpt>
      <trkpt lat="48.35917" lon="-0.17255">
        <ele>225.4</ele>
        <time>2016-03-12T14:34:42Z</time>
      </trkpt>
      <trkpt lat="48.35924" lon="-0.17246">
        <ele>226.3</ele>
        <time>2016-03-12T14:34:46Z</time>
      </trkpt>
      <trkpt lat="48.35932" lon="-0.17231">
        <ele>227.2</ele>
        <time>2016-03-12T14:34:50Z</time>
      </trkpt>
      <trkpt lat="48.3594" lon="-0.17218">
        <ele>228</ele>
        <time>2016-03-12T14:34:54Z</time>
      </trkpt>
      <trkpt lat="48.35945" lon="-0.17204">
        <ele>228.6</ele>
        <time>2016-03-12T14:34:57Z</time>
      </trkpt>
      <trkpt lat="48.3595" lon="-0.17192">
        <ele>229.1</ele>
        <time>2016-03-12T14:35:00Z</time>
      </trkpt>
      <trkpt lat="48.35953" lon="-0.17176">
        <ele>230</ele>
        <time>2016-03-12T14:35:04Z</time>
      </trkpt>
      <trkpt lat="48.3596" lon="-0.17161">
        <ele>230.5</ele>
        <time>2016-03-12T14:35:07Z</time>
      </trkpt>
      <trkpt lat="48.35964" lon="-0.17148">
        <ele>230.8</ele>
        <time>2016-03-12T14:35:09Z</time>
      </trkpt>
      <trkpt lat="48.35971" lon="-0.17133">
        <ele>231.4</ele>
        <time>2016-03-12T14:35:12Z</time>
      </trkpt>
      <trkpt lat="48.35977" lon="-0.17119">
        <ele>232</ele>
        <time>2016-03-12T14:35:15Z</time>
      </trkpt>
      <trkpt lat="48.35986" lon="-0.17107">
        <ele>232.8</ele>
        <time>2016-03-12T14:35:20Z</time>
      </trkpt>
      <trkpt lat="48.35992" lon="-0.17091">
        <ele>233.6</ele>
        <time>2016-03-12T14:35:24Z</time>
      </trkpt>
      <trkpt lat="48.35995" lon="-0.17075">
        <ele>234.2</ele>
        <time>2016-03-12T14:35:27Z</time>
      </trkpt>
      <trkpt lat="48.35997" lon="-0.17056">
        <ele>234.8</ele>
        <time>2016-03-12T14:35:30Z</time>
      </trkpt>
      <trkpt lat="48.35997" lon="-0.17037">
        <ele>235.3</ele>
        <time>2016-03-12T14:35:33Z</time>
      </trkpt>
      <trkpt lat="48.35997" lon="-0.17018">
        <ele>235.8</ele>
        <time>2016-03-12T14:35:36Z</time>
      </trkpt>
      <trkpt lat="48.35997" lon="-0.16998">
        <ele>236.3</ele>
        <time>2016-03-12T14:35:39Z</time>
      </trkpt>
      <trkpt lat="48.35995" lon="-0.16979">
        <ele>236.7</ele>
        <time>2016-03-12T14:35:42Z</time>
      </trkpt>
      <trkpt lat="48.35994" lon="-0.16965">
        <ele>237</ele>
        <time>2016-03-12T14:35:44Z</time>
      </trkpt>
      <trkpt lat="48.35992" lon="-0.16952">
        <ele>237.2</ele>
        <time>2016-03-12T14:35:46Z</time>
      </trkpt>
      <trkpt lat="48.3599" lon="-0.16932">
        <ele>237.5</ele>
        <time>2016-03-12T14:35:49Z</time>
      </trkpt>
      <trkpt lat="48.35988" lon="-0.16916">
        <ele>237.7</ele>
        <time>2016-03-12T14:35:52Z</time>
      </trkpt>
      <trkpt lat="48.35987" lon="-0.16901">
        <ele>237.9</ele>
        <time>2016-03-12T14:35:55Z</time>
      </trkpt>
      <trkpt lat="48.35989" lon="-0.16887">
        <ele>238</ele>
        <time>2016-03-12T14:35:58Z</time>
      </trkpt>
      <trkpt lat="48.35992" lon="-0.16873">
        <ele>238.1</ele>
        <time>2016-03-12T14:36:01Z</time>
      </trkpt>
      <trkpt lat="48.35992" lon="-0.16858">
        <ele>238.3</ele>
        <time>2016-03-12T14:36:04Z</time>
      </trkpt>
      <trkpt lat="48.35992" lon="-0.16842">
        <ele>238.6</ele>
        <time>2016-03-12T14:36:07Z</time>
      </trkpt>
      <trkpt lat="48.35991" lon="-0.16827">
        <ele>238.8</ele>
        <time>2016-03-12T14:36:10Z</time>
      </trkpt>
      <trkpt lat="48.3599" lon="-0.16813">
        <ele>239.1</ele>
        <time>2016-03-12T14:36:13Z</time>
      </trkpt>
      <trkpt lat="48.3599" lon="-0.16799">
        <ele>239.4</ele>
        <time>2016-03-12T14:36:16Z</time>
      </trkpt>
      <trkpt lat="48.35989" lon="-0.16786">
        <ele>239.7</ele>
        <time>2016-03-12T14:36:19Z</time>
      </trkpt>
      <trkpt lat="48.35987" lon="-0.16771">
        <ele>240</ele>
        <time>2016-03-12T14:36:22Z</time>
      </trkpt>
      <trkpt lat="48.35984" lon="-0.16758">
        <ele>240.5</ele>
        <time>2016-03-12T14:36:25Z</time>
      </trkpt>
      <trkpt lat="48.35981" lon="-0.16744">
        <ele>240.9</ele>
        <time>2016-03-12T14:36:28Z</time>
      </trkpt>
      <trkpt lat="48.35978" lon="-0.16731">
        <ele>241.3</ele>
        <time>2016-03-12T14:36:31Z</time>
      </trkpt>
      <trkpt lat="48.35974" lon="-0.16716">
        <ele>242</ele>
        <time>2016-03-12T14:36:35Z</time>
      </trkpt>
      <trkpt lat="48.35972" lon="-0.16702">
        <ele>242.4</ele>
        <time>2016-03-12T14:36:38Z</time>
      </trkpt>
      <trkpt lat="48.35969" lon="-0.16686">
        <ele>243</ele>
        <time>2016-03-12T14:36:42Z</time>
      </trkpt>
      <trkpt lat="48.35966" lon="-0.16671">
        <ele>243.6</ele>
        <time>2016-03-12T14:36:46Z</time>
      </trkpt>
      <trkpt lat="48.35963" lon="-0.16659">
        <ele>244.1</ele>
        <time>2016-03-12T14:36:49Z</time>
      </trkpt>
      <trkpt lat="48.35959" lon="-0.16646">
        <ele>244.7</ele>
        <time>2016-03-12T14:36:53Z</time>
      </trkpt>
      <trkpt lat="48.35955" lon="-0.1663">
        <ele>245.2</ele>
        <time>2016-03-12T14:36:57Z</time>
      </trkpt>
      <trkpt lat="48.35951" lon="-0.16617">
        <ele>245.7</ele>
        <time>2016-03-12T14:37:01Z</time>
      </trkpt>
      <trkpt lat="48.35947" lon="-0.16602">
        <ele>246.4</ele>
        <time>2016-03-12T14:37:05Z</time>
      </trkpt>
      <trkpt lat="48.35943" lon="-0.16587">
        <ele>247.1</ele>
        <time>2016-03-12T14:37:09Z</time>
      </trkpt>
      <trkpt lat="48.35939" lon="-0.16571">
        <ele>248</ele>
        <time>2016-03-12T14:37:13Z</time>
      </trkpt>
      <trkpt lat="48.35934" lon="-0.16559">
        <ele>248.6</ele>
        <time>2016-03-12T14:37:16Z</time>
      </trkpt>
      <trkpt lat="48.35929" lon="-0.16546">
        <ele>249.2</ele>
        <time>2016-03-12T14:37:19Z</time>
      </trkpt>
      <trkpt lat="48.35923" lon="-0.16533">
        <ele>249.7</ele>
        <time>2016-03-12T14:37:22Z</time>
      </trkpt>
      <trkpt lat="48.35917" lon="-0.16521">
        <ele>250.1</ele>
        <time>2016-03-12T14:37:25Z</time>
      </trkpt>
      <trkpt lat="48.35913" lon="-0.16506">
        <ele>250.5</ele>
        <time>2016-03-12T14:37:28Z</time>
      </trkpt>
      <trkpt lat="48.35908" lon="-0.16491">
        <ele>250.8</ele>
        <time>2016-03-12T14:37:31Z</time>
      </trkpt>
      <trkpt lat="48.35904" lon="-0.16478">
        <ele>251</ele>
        <time>2016-03-12T14:37:34Z</time>
      </trkpt>
      <trkpt lat="48.359" lon="-0.16465">
        <ele>251.4</ele>
        <time>2016-03-12T14:37:37Z</time>
      </trkpt>
      <trkpt lat="48.35895" lon="-0.16451">
        <ele>251.9</ele>
        <time>2016-03-12T14:37:40Z</time>
      </trkpt>
      <trkpt lat="48.35889" lon="-0.16439">
        <ele>252.3</ele>
        <time>2016-03-12T14:37:43Z</time>
      </trkpt>
      <trkpt lat="48.35882" lon="-0.16423">
        <ele>252.9</ele>
        <time>2016-03-12T14:37:47Z</time>
      </trkpt>
      <trkpt lat="48.35875" lon="-0.16413">
        <ele>253.1</ele>
        <time>2016-03-12T14:37:49Z</time>
      </trkpt>
      <trkpt lat="48.35868" lon="-0.16401">
        <ele>253.4</ele>
        <time>2016-03-12T14:37:52Z</time>
      </trkpt>
      <trkpt lat="48.35862" lon="-0.16387">
        <ele>253.6</ele>
        <time>2016-03-12T14:37:55Z</time>
      </trkpt>
      <trkpt lat="48.35856" lon="-0.16372">
        <ele>253.7</ele>
        <time>2016-03-12T14:37:58Z</time>
      </trkpt>
      <trkpt lat="48.3585" lon="-0.16361">
        <ele>253.7</ele>
        <time>2016-03-12T14:38:00Z</time>
      </trkpt>
      <trkpt lat="48.35843" lon="-0.16347">
        <ele>253.7</ele>
        <time>2016-03-12T14:38:02Z</time>
      </trkpt>
      <trkpt lat="48.35836" lon="-0.1633">
        <ele>253.6</ele>
        <time>2016-03-12T14:38:04Z</time>
      </trkpt>
      <trkpt lat="48.35825" lon="-0.16315">
        <ele>253.3</ele>
        <time>2016-03-12T14:38:06Z</time>
      </trkpt>
      <trkpt lat="48.35811" lon="-0.16302">
        <ele>252.9</ele>
        <time>2016-03-12T14:38:08Z</time>
      </trkpt>
      <trkpt lat="48.35796" lon="-0.16294">
        <ele>252.4</ele>
        <time>2016-03-12T14:38:10Z</time>
      </trkpt>
      <trkpt lat="48.35781" lon="-0.16289">
        <ele>251.8</ele>
        <time>2016-03-12T14:38:12Z</time>
      </trkpt>
      <trkpt lat="48.3577" lon="-0.16286">
        <ele>251.2</ele>
        <time>2016-03-12T14:38:14Z</time>
      </trkpt>
      <trkpt lat="48.35759" lon="-0.16283">
        <ele>250.4</ele>
        <time>2016-03-12T14:38:17Z</time>
      </trkpt>
      <trkpt lat="48.35748" lon="-0.16276">
        <ele>246.5</ele>
        <time>2016-03-12T14:38:47Z</time>
      </trkpt>
      <trkpt lat="48.35736" lon="-0.16272">
        <ele>246.4</ele>
        <time>2016-03-12T14:38:50Z</time>
      </trkpt>
      <trkpt lat="48.35726" lon="-0.16273">
        <ele>246.3</ele>
        <time>2016-03-12T14:38:52Z</time>
      </trkpt>
      <trkpt lat="48.35717" lon="-0.16274">
        <ele>246.2</ele>
        <time>2016-03-12T14:38:54Z</time>
      </trkpt>
      <trkpt lat="48.35708" lon="-0.16277">
        <ele>246.2</ele>
        <time>2016-03-12T14:38:56Z</time>
      </trkpt>
      <trkpt lat="48.35699" lon="-0.16279">
        <ele>246.1</ele>
        <time>2016-03-12T14:38:58Z</time>
      </trkpt>
      <trkpt lat="48.3569" lon="-0.16282">
        <ele>246.2</ele>
        <time>2016-03-12T14:39:00Z</time>
      </trkpt>
      <trkpt lat="48.35678" lon="-0.16286">
        <ele>246.4</ele>
        <time>2016-03-12T14:39:03Z</time>
      </trkpt>
      <trkpt lat="48.35667" lon="-0.16285">
        <ele>246.7</ele>
        <time>2016-03-12T14:39:06Z</time>
      </trkpt>
      <trkpt lat="48.35658" lon="-0.16279">
        <ele>247</ele>
        <time>2016-03-12T14:39:09Z</time>
      </trkpt>
      <trkpt lat="48.35649" lon="-0.16274">
        <ele>247.2</ele>
        <time>2016-03-12T14:39:12Z</time>
      </trkpt>
      <trkpt lat="48.3564" lon="-0.16267">
        <ele>247.4</ele>
        <time>2016-03-12T14:39:15Z</time>
      </trkpt>
      <trkpt lat="48.35631" lon="-0.16258">
        <ele>247.6</ele>
        <time>2016-03-12T14:39:19Z</time>
      </trkpt>
      <trkpt lat="48.35621" lon="-0.16248">
        <ele>247.8</ele>
        <time>2016-03-12T14:39:23Z</time>
      </trkpt>
      <trkpt lat="48.35613" lon="-0.1624">
        <ele>248</ele>
        <time>2016-03-12T14:39:27Z</time>
      </trkpt>
      <trkpt lat="48.35607" lon="-0.16231">
        <ele>248.3</ele>
        <time>2016-03-12T14:39:30Z</time>
      </trkpt>
      <trkpt lat="48.35598" lon="-0.1622">
        <ele>248.6</ele>
        <time>2016-03-12T14:39:34Z</time>
      </trkpt>
      <trkpt lat="48.3559" lon="-0.16212">
        <ele>249</ele>
        <time>2016-03-12T14:39:37Z</time>
      </trkpt>
      <trkpt lat="48.35581" lon="-0.16204">
        <ele>249.4</ele>
        <time>2016-03-12T14:39:40Z</time>
      </trkpt>
      <trkpt lat="48.35573" lon="-0.16196">
        <ele>249.7</ele>
        <time>2016-03-12T14:39:43Z</time>
      </trkpt>
      <trkpt lat="48.35564" lon="-0.16188">
        <ele>250.3</ele>
        <time>2016-03-12T14:39:47Z</time>
      </trkpt>
      <trkpt lat="48.35556" lon="-0.1618">
        <ele>251</ele>
        <time>2016-03-12T14:39:51Z</time>
      </trkpt>
      <trkpt lat="48.35548" lon="-0.16172">
        <ele>251.6</ele>
        <time>2016-03-12T14:39:55Z</time>
      </trkpt>
      <trkpt lat="48.3554" lon="-0.16163">
        <ele>252.5</ele>
        <time>2016-03-12T14:40:00Z</time>
      </trkpt>
      <trkpt lat="48.35532" lon="-0.16155">
        <ele>253.4</ele>
        <time>2016-03-12T14:40:05Z</time>
      </trkpt>
      <trkpt lat="48.35524" lon="-0.16147">
        <ele>254</ele>
        <time>2016-03-12T14:40:08Z</time>
      </trkpt>
      <trkpt lat="48.35516" lon="-0.1614">
        <ele>254.4</ele>
        <time>2016-03-12T14:40:11Z</time>
      </trkpt>
      <trkpt lat="48.35505" lon="-0.16132">
        <ele>255.1</ele>
        <time>2016-03-12T14:40:15Z</time>
      </trkpt>
      <trkpt lat="48.35496" lon="-0.16128">
        <ele>255.5</ele>
        <time>2016-03-12T14:40:18Z</time>
      </trkpt>
      <trkpt lat="48.35487" lon="-0.16124">
        <ele>255.9</ele>
        <time>2016-03-12T14:40:21Z</time>
      </trkpt>
      <trkpt lat="48.35478" lon="-0.1612">
        <ele>256.5</ele>
        <time>2016-03-12T14:40:25Z</time>
      </trkpt>
      <trkpt lat="48.35469" lon="-0.16115">
        <ele>257</ele>
        <time>2016-03-12T14:40:29Z</time>
      </trkpt>
      <trkpt lat="48.35459" lon="-0.16107">
        <ele>257.5</ele>
        <time>2016-03-12T14:40:33Z</time>
      </trkpt>
      <trkpt lat="48.35451" lon="-0.161">
        <ele>257.8</ele>
        <time>2016-03-12T14:40:35Z</time>
      </trkpt>
      <trkpt lat="48.35442" lon="-0.16089">
        <ele>258.2</ele>
        <time>2016-03-12T14:40:38Z</time>
      </trkpt>
      <trkpt lat="48.35432" lon="-0.16079">
        <ele>258.6</ele>
        <time>2016-03-12T14:40:41Z</time>
      </trkpt>
      <trkpt lat="48.3542" lon="-0.1607">
        <ele>259</ele>
        <time>2016-03-12T14:40:44Z</time>
      </trkpt>
      <trkpt lat="48.35409" lon="-0.16063">
        <ele>259.3</ele>
        <time>2016-03-12T14:40:47Z</time>
      </trkpt>
      <trkpt lat="48.35397" lon="-0.16056">
        <ele>259.6</ele>
        <time>2016-03-12T14:40:50Z</time>
      </trkpt>
      <trkpt lat="48.35387" lon="-0.16052">
        <ele>259.8</ele>
        <time>2016-03-12T14:40:53Z</time>
      </trkpt>
      <trkpt lat="48.35376" lon="-0.16048">
        <ele>260</ele>
        <time>2016-03-12T14:40:56Z</time>
      </trkpt>
      <trkpt lat="48.35364" lon="-0.16044">
        <ele>260.2</ele>
        <time>2016-03-12T14:40:59Z</time>
      </trkpt>
      <trkpt lat="48.35352" lon="-0.1604">
        <ele>260.5</ele>
        <time>2016-03-12T14:41:02Z</time>
      </trkpt>
      <trkpt lat="48.35341" lon="-0.16033">
        <ele>260.9</ele>
        <time>2016-03-12T14:41:05Z</time>
      </trkpt>
      <trkpt lat="48.3533" lon="-0.16026">
        <ele>261.2</ele>
        <time>2016-03-12T14:41:08Z</time>
      </trkpt>
      <trkpt lat="48.3532" lon="-0.1602">
        <ele>261.3</ele>
        <time>2016-03-12T14:41:10Z</time>
      </trkpt>
      <trkpt lat="48.3531" lon="-0.16014">
        <ele>261.5</ele>
        <time>2016-03-12T14:41:12Z</time>
      </trkpt>
      <trkpt lat="48.35301" lon="-0.1601">
        <ele>261.6</ele>
        <time>2016-03-12T14:41:14Z</time>
      </trkpt>
      <trkpt lat="48.35293" lon="-0.16004">
        <ele>261.6</ele>
        <time>2016-03-12T14:41:17Z</time>
      </trkpt>
      <trkpt lat="48.35283" lon="-0.15996">
        <ele>261.6</ele>
        <time>2016-03-12T14:41:20Z</time>
      </trkpt>
      <trkpt lat="48.35271" lon="-0.15987">
        <ele>261.6</ele>
        <time>2016-03-12T14:41:23Z</time>
      </trkpt>
      <trkpt lat="48.3526" lon="-0.15974">
        <ele>261.8</ele>
        <time>2016-03-12T14:41:26Z</time>
      </trkpt>
      <trkpt lat="48.35251" lon="-0.15964">
        <ele>262</ele>
        <time>2016-03-12T14:41:29Z</time>
      </trkpt>
      <trkpt lat="48.35242" lon="-0.15953">
        <ele>262.2</ele>
        <time>2016-03-12T14:41:32Z</time>
      </trkpt>
      <trkpt lat="48.35234" lon="-0.15944">
        <ele>262.6</ele>
        <time>2016-03-12T14:41:35Z</time>
      </trkpt>
      <trkpt lat="48.35224" lon="-0.15934">
        <ele>263.2</ele>
        <time>2016-03-12T14:41:38Z</time>
      </trkpt>
      <trkpt lat="48.35215" lon="-0.15927">
        <ele>263.7</ele>
        <time>2016-03-12T14:41:41Z</time>
      </trkpt>
      <trkpt lat="48.35206" lon="-0.15919">
        <ele>264.1</ele>
        <time>2016-03-12T14:41:44Z</time>
      </trkpt>
      <trkpt lat="48.35196" lon="-0.15906">
        <ele>264.5</ele>
        <time>2016-03-12T14:41:47Z</time>
      </trkpt>
      <trkpt lat="48.35189" lon="-0.15894">
        <ele>264.9</ele>
        <time>2016-03-12T14:41:50Z</time>
      </trkpt>
      <trkpt lat="48.35178" lon="-0.15882">
        <ele>265.1</ele>
        <time>2016-03-12T14:41:53Z</time>
      </trkpt>
      <trkpt lat="48.3517" lon="-0.15871">
        <ele>265.2</ele>
        <time>2016-03-12T14:41:55Z</time>
      </trkpt>
      <trkpt lat="48.35163" lon="-0.15863">
        <ele>265</ele>
        <time>2016-03-12T14:41:57Z</time>
      </trkpt>
      <trkpt lat="48.35155" lon="-0.15852">
        <ele>264.6</ele>
        <time>2016-03-12T14:41:59Z</time>
      </trkpt>
      <trkpt lat="48.35144" lon="-0.1584">
        <ele>264.1</ele>
        <time>2016-03-12T14:42:02Z</time>
      </trkpt>
      <trkpt lat="48.35133" lon="-0.15826">
        <ele>263.6</ele>
        <time>2016-03-12T14:42:05Z</time>
      </trkpt>
      <trkpt lat="48.35124" lon="-0.15817">
        <ele>263.2</ele>
        <time>2016-03-12T14:42:07Z</time>
      </trkpt>
      <trkpt lat="48.35115" lon="-0.15804">
        <ele>262.8</ele>
        <time>2016-03-12T14:42:09Z</time>
      </trkpt>
      <trkpt lat="48.35105" lon="-0.15791">
        <ele>262.2</ele>
        <time>2016-03-12T14:42:12Z</time>
      </trkpt>
      <trkpt lat="48.35098" lon="-0.15779">
        <ele>261.7</ele>
        <time>2016-03-12T14:42:14Z</time>
      </trkpt>
      <trkpt lat="48.35088" lon="-0.15763">
        <ele>261.2</ele>
        <time>2016-03-12T14:42:16Z</time>
      </trkpt>
      <trkpt lat="48.35078" lon="-0.15749">
        <ele>260.4</ele>
        <time>2016-03-12T14:42:18Z</time>
      </trkpt>
      <trkpt lat="48.35068" lon="-0.15737">
        <ele>259.7</ele>
        <time>2016-03-12T14:42:20Z</time>
      </trkpt>
      <trkpt lat="48.35061" lon="-0.15728">
        <ele>258.8</ele>
        <time>2016-03-12T14:42:23Z</time>
      </trkpt>
      <trkpt lat="48.35054" lon="-0.15717">
        <ele>257.4</ele>
        <time>2016-03-12T14:42:29Z</time>
      </trkpt>
      <trkpt lat="48.35048" lon="-0.15703">
        <ele>256.6</ele>
        <time>2016-03-12T14:42:34Z</time>
      </trkpt>
      <trkpt lat="48.35042" lon="-0.15692">
        <ele>256.1</ele>
        <time>2016-03-12T14:42:37Z</time>
      </trkpt>
      <trkpt lat="48.35036" lon="-0.15676">
        <ele>255.6</ele>
        <time>2016-03-12T14:42:40Z</time>
      </trkpt>
      <trkpt lat="48.35029" lon="-0.15658">
        <ele>255.2</ele>
        <time>2016-03-12T14:42:43Z</time>
      </trkpt>
      <trkpt lat="48.3502" lon="-0.15645">
        <ele>254.6</ele>
        <time>2016-03-12T14:42:46Z</time>
      </trkpt>
      <trkpt lat="48.35012" lon="-0.15631">
        <ele>253.9</ele>
        <time>2016-03-12T14:42:49Z</time>
      </trkpt>
      <trkpt lat="48.35003" lon="-0.15615">
        <ele>253.1</ele>
        <time>2016-03-12T14:42:52Z</time>
      </trkpt>
      <trkpt lat="48.34999" lon="-0.15603">
        <ele>252.7</ele>
        <time>2016-03-12T14:42:54Z</time>
      </trkpt>
      <trkpt lat="48.34993" lon="-0.15589">
        <ele>252</ele>
        <time>2016-03-12T14:42:58Z</time>
      </trkpt>
      <trkpt lat="48.34987" lon="-0.15577">
        <ele>251.2</ele>
        <time>2016-03-12T14:43:03Z</time>
      </trkpt>
      <trkpt lat="48.34983" lon="-0.15565">
        <ele>250.7</ele>
        <time>2016-03-12T14:43:06Z</time>
      </trkpt>
      <trkpt lat="48.34977" lon="-0.15549">
        <ele>250.3</ele>
        <time>2016-03-12T14:43:09Z</time>
      </trkpt>
      <trkpt lat="48.34972" lon="-0.15533">
        <ele>249.9</ele>
        <time>2016-03-12T14:43:12Z</time>
      </trkpt>
      <trkpt lat="48.34967" lon="-0.15515">
        <ele>249.5</ele>
        <time>2016-03-12T14:43:15Z</time>
      </trkpt>
      <trkpt lat="48.34961" lon="-0.155">
        <ele>249.1</ele>
        <time>2016-03-12T14:43:18Z</time>
      </trkpt>
      <trkpt lat="48.34955" lon="-0.15488">
        <ele>248.5</ele>
        <time>2016-03-12T14:43:21Z</time>
      </trkpt>
      <trkpt lat="48.3495" lon="-0.15474">
        <ele>247.8</ele>
        <time>2016-03-12T14:43:25Z</time>
      </trkpt>
      <trkpt lat="48.34944" lon="-0.15459">
        <ele>247</ele>
        <time>2016-03-12T14:43:29Z</time>
      </trkpt>
      <trkpt lat="48.34938" lon="-0.15449">
        <ele>246.4</ele>
        <time>2016-03-12T14:43:32Z</time>
      </trkpt>
      <trkpt lat="48.34931" lon="-0.15441">
        <ele>245.3</ele>
        <time>2016-03-12T14:43:36Z</time>
      </trkpt>
      <trkpt lat="48.34923" lon="-0.15432">
        <ele>244</ele>
        <time>2016-03-12T14:43:41Z</time>
      </trkpt>
      <trkpt lat="48.34914" lon="-0.15427">
        <ele>242.9</ele>
        <time>2016-03-12T14:43:45Z</time>
      </trkpt>
      <trkpt lat="48.34905" lon="-0.15423">
        <ele>241.9</ele>
        <time>2016-03-12T14:43:49Z</time>
      </trkpt>
      <trkpt lat="48.34895" lon="-0.15419">
        <ele>240.7</ele>
        <time>2016-03-12T14:43:54Z</time>
      </trkpt>
      <trkpt lat="48.34885" lon="-0.15418">
        <ele>239.7</ele>
        <time>2016-03-12T14:43:59Z</time>
      </trkpt>
      <trkpt lat="48.34877" lon="-0.1541">
        <ele>239.1</ele>
        <time>2016-03-12T14:44:03Z</time>
      </trkpt>
      <trkpt lat="48.34868" lon="-0.15399">
        <ele>238.7</ele>
        <time>2016-03-12T14:44:06Z</time>
      </trkpt>
      <trkpt lat="48.34858" lon="-0.15392">
        <ele>238.4</ele>
        <time>2016-03-12T14:44:08Z</time>
      </trkpt>
      <trkpt lat="48.34848" lon="-0.15386">
        <ele>238.1</ele>
        <time>2016-03-12T14:44:10Z</time>
      </trkpt>
      <trkpt lat="48.34839" lon="-0.15379">
        <ele>237.9</ele>
        <time>2016-03-12T14:44:12Z</time>
      </trkpt>
      <trkpt lat="48.34828" lon="-0.1537">
        <ele>237.5</ele>
        <time>2016-03-12T14:44:15Z</time>
      </trkpt>
      <trkpt lat="48.34817" lon="-0.15364">
        <ele>237.2</ele>
        <time>2016-03-12T14:44:18Z</time>
      </trkpt>
      <trkpt lat="48.34806" lon="-0.15358">
        <ele>236.9</ele>
        <time>2016-03-12T14:44:21Z</time>
      </trkpt>
      <trkpt lat="48.34795" lon="-0.15351">
        <ele>236.7</ele>
        <time>2016-03-12T14:44:24Z</time>
      </trkpt>
      <trkpt lat="48.34785" lon="-0.15346">
        <ele>236.6</ele>
        <time>2016-03-12T14:44:27Z</time>
      </trkpt>
      <trkpt lat="48.34777" lon="-0.1534">
        <ele>236.5</ele>
        <time>2016-03-12T14:44:30Z</time>
      </trkpt>
      <trkpt lat="48.34767" lon="-0.15333">
        <ele>236.5</ele>
        <time>2016-03-12T14:44:34Z</time>
      </trkpt>
      <trkpt lat="48.34757" lon="-0.15327">
        <ele>236.7</ele>
        <time>2016-03-12T14:44:37Z</time>
      </trkpt>
      <trkpt lat="48.34749" lon="-0.1532">
        <ele>237</ele>
        <time>2016-03-12T14:44:40Z</time>
      </trkpt>
      <trkpt lat="48.34741" lon="-0.15311">
        <ele>237.5</ele>
        <time>2016-03-12T14:44:43Z</time>
      </trkpt>
      <trkpt lat="48.34732" lon="-0.153">
        <ele>238.1</ele>
        <time>2016-03-12T14:44:47Z</time>
      </trkpt>
      <trkpt lat="48.34725" lon="-0.1529">
        <ele>238.8</ele>
        <time>2016-03-12T14:44:51Z</time>
      </trkpt>
      <trkpt lat="48.34717" lon="-0.15278">
        <ele>239.4</ele>
        <time>2016-03-12T14:44:55Z</time>
      </trkpt>
      <trkpt lat="48.3471" lon="-0.15268">
        <ele>239.9</ele>
        <time>2016-03-12T14:44:58Z</time>
      </trkpt>
      <trkpt lat="48.34702" lon="-0.15258">
        <ele>240.4</ele>
        <time>2016-03-12T14:45:01Z</time>
      </trkpt>
      <trkpt lat="48.34693" lon="-0.15245">
        <ele>240.8</ele>
        <time>2016-03-12T14:45:04Z</time>
      </trkpt>
      <trkpt lat="48.34683" lon="-0.15233">
        <ele>241.1</ele>
        <time>2016-03-12T14:45:07Z</time>
      </trkpt>
      <trkpt lat="48.34676" lon="-0.15224">
        <ele>241.3</ele>
        <time>2016-03-12T14:45:09Z</time>
      </trkpt>
      <trkpt lat="48.34669" lon="-0.15215">
        <ele>241.4</ele>
        <time>2016-03-12T14:45:11Z</time>
      </trkpt>
      <trkpt lat="48.34658" lon="-0.15203">
        <ele>241.6</ele>
        <time>2016-03-12T14:45:14Z</time>
      </trkpt>
      <trkpt lat="48.34652" lon="-0.15193">
        <ele>241.7</ele>
        <time>2016-03-12T14:45:16Z</time>
      </trkpt>
      <trkpt lat="48.34645" lon="-0.15183">
        <ele>241.8</ele>
        <time>2016-03-12T14:45:18Z</time>
      </trkpt>
      <trkpt lat="48.34635" lon="-0.1517">
        <ele>241.9</ele>
        <time>2016-03-12T14:45:21Z</time>
      </trkpt>
      <trkpt lat="48.34626" lon="-0.15158">
        <ele>242</ele>
        <time>2016-03-12T14:45:24Z</time>
      </trkpt>
      <trkpt lat="48.34619" lon="-0.15145">
        <ele>242.1</ele>
        <time>2016-03-12T14:45:27Z</time>
      </trkpt>
      <trkpt lat="48.34612" lon="-0.15133">
        <ele>242.1</ele>
        <time>2016-03-12T14:45:29Z</time>
      </trkpt>
      <trkpt lat="48.34605" lon="-0.15121">
        <ele>242.1</ele>
        <time>2016-03-12T14:45:31Z</time>
      </trkpt>
      <trkpt lat="48.34598" lon="-0.1511">
        <ele>242</ele>
        <time>2016-03-12T14:45:33Z</time>
      </trkpt>
      <trkpt lat="48.34589" lon="-0.15095">
        <ele>242</ele>
        <time>2016-03-12T14:45:36Z</time>
      </trkpt>
      <trkpt lat="48.34581" lon="-0.15084">
        <ele>241.9</ele>
        <time>2016-03-12T14:45:39Z</time>
      </trkpt>
      <trkpt lat="48.34574" lon="-0.15071">
        <ele>241.9</ele>
        <time>2016-03-12T14:45:42Z</time>
      </trkpt>
      <trkpt lat="48.34567" lon="-0.15055">
        <ele>241.9</ele>
        <time>2016-03-12T14:45:45Z</time>
      </trkpt>
      <trkpt lat="48.34561" lon="-0.15044">
        <ele>241.8</ele>
        <time>2016-03-12T14:45:48Z</time>
      </trkpt>
      <trkpt lat="48.34555" lon="-0.15034">
        <ele>241.8</ele>
        <time>2016-03-12T14:45:51Z</time>
      </trkpt>
      <trkpt lat="48.34547" lon="-0.15023">
        <ele>241.7</ele>
        <time>2016-03-12T14:45:54Z</time>
      </trkpt>
      <trkpt lat="48.34539" lon="-0.1501">
        <ele>241.6</ele>
        <time>2016-03-12T14:45:57Z</time>
      </trkpt>
      <trkpt lat="48.34533" lon="-0.14998">
        <ele>241.6</ele>
        <time>2016-03-12T14:46:00Z</time>
      </trkpt>
      <trkpt lat="48.34525" lon="-0.14986">
        <ele>241.4</ele>
        <time>2016-03-12T14:46:03Z</time>
      </trkpt>
      <trkpt lat="48.34518" lon="-0.14975">
        <ele>241.2</ele>
        <time>2016-03-12T14:46:06Z</time>
      </trkpt>
      <trkpt lat="48.34511" lon="-0.14962">
        <ele>241.1</ele>
        <time>2016-03-12T14:46:09Z</time>
      </trkpt>
      <trkpt lat="48.34503" lon="-0.14949">
        <ele>240.9</ele>
        <time>2016-03-12T14:46:12Z</time>
      </trkpt>
      <trkpt lat="48.34494" lon="-0.14936">
        <ele>240.7</ele>
        <time>2016-03-12T14:46:15Z</time>
      </trkpt>
      <trkpt lat="48.34486" lon="-0.14921">
        <ele>240.6</ele>
        <time>2016-03-12T14:46:18Z</time>
      </trkpt>
      <trkpt lat="48.34477" lon="-0.14906">
        <ele>240.5</ele>
        <time>2016-03-12T14:46:21Z</time>
      </trkpt>
      <trkpt lat="48.34468" lon="-0.1489">
        <ele>240.4</ele>
        <time>2016-03-12T14:46:24Z</time>
      </trkpt>
      <trkpt lat="48.3446" lon="-0.1488">
        <ele>240.3</ele>
        <time>2016-03-12T14:46:26Z</time>
      </trkpt>
      <trkpt lat="48.34454" lon="-0.14869">
        <ele>240.3</ele>
        <time>2016-03-12T14:46:28Z</time>
      </trkpt>
      <trkpt lat="48.34448" lon="-0.14858">
        <ele>240.2</ele>
        <time>2016-03-12T14:46:30Z</time>
      </trkpt>
      <trkpt lat="48.34442" lon="-0.14846">
        <ele>240.2</ele>
        <time>2016-03-12T14:46:32Z</time>
      </trkpt>
      <trkpt lat="48.34435" lon="-0.14832">
        <ele>240.2</ele>
        <time>2016-03-12T14:46:35Z</time>
      </trkpt>
      <trkpt lat="48.34434" lon="-0.14818">
        <ele>240.1</ele>
        <time>2016-03-12T14:46:40Z</time>
      </trkpt>
      <trkpt lat="48.34427" lon="-0.14812">
        <ele>240</ele>
        <time>2016-03-12T14:46:47Z</time>
      </trkpt>
      <trkpt lat="48.34421" lon="-0.14793">
        <ele>240</ele>
        <time>2016-03-12T14:46:50Z</time>
      </trkpt>
      <trkpt lat="48.34417" lon="-0.14779">
        <ele>239.9</ele>
        <time>2016-03-12T14:46:52Z</time>
      </trkpt>
      <trkpt lat="48.34411" lon="-0.14765">
        <ele>239.9</ele>
        <time>2016-03-12T14:46:54Z</time>
      </trkpt>
      <trkpt lat="48.34405" lon="-0.14751">
        <ele>239.9</ele>
        <time>2016-03-12T14:46:56Z</time>
      </trkpt>
      <trkpt lat="48.34399" lon="-0.14737">
        <ele>239.9</ele>
        <time>2016-03-12T14:46:58Z</time>
      </trkpt>
      <trkpt lat="48.34393" lon="-0.14723">
        <ele>239.8</ele>
        <time>2016-03-12T14:47:00Z</time>
      </trkpt>
      <trkpt lat="48.34387" lon="-0.14708">
        <ele>239.8</ele>
        <time>2016-03-12T14:47:02Z</time>
      </trkpt>
      <trkpt lat="48.34381" lon="-0.14693">
        <ele>239.8</ele>
        <time>2016-03-12T14:47:04Z</time>
      </trkpt>
      <trkpt lat="48.34376" lon="-0.14677">
        <ele>239.8</ele>
        <time>2016-03-12T14:47:06Z</time>
      </trkpt>
      <trkpt lat="48.34371" lon="-0.1466">
        <ele>239.8</ele>
        <time>2016-03-12T14:47:08Z</time>
      </trkpt>
      <trkpt lat="48.34366" lon="-0.14644">
        <ele>239.8</ele>
        <time>2016-03-12T14:47:10Z</time>
      </trkpt>
      <trkpt lat="48.34361" lon="-0.14627">
        <ele>239.8</ele>
        <time>2016-03-12T14:47:12Z</time>
      </trkpt>
      <trkpt lat="48.34355" lon="-0.1461">
        <ele>239.8</ele>
        <time>2016-03-12T14:47:14Z</time>
      </trkpt>
      <trkpt lat="48.3435" lon="-0.14594">
        <ele>239.8</ele>
        <time>2016-03-12T14:47:16Z</time>
      </trkpt>
      <trkpt lat="48.34345" lon="-0.14577">
        <ele>239.8</ele>
        <time>2016-03-12T14:47:18Z</time>
      </trkpt>
      <trkpt lat="48.3434" lon="-0.1456">
        <ele>239.8</ele>
        <time>2016-03-12T14:47:20Z</time>
      </trkpt>
      <trkpt lat="48.34335" lon="-0.14543">
        <ele>239.8</ele>
        <time>2016-03-12T14:47:22Z</time>
      </trkpt>
      <trkpt lat="48.3433" lon="-0.14527">
        <ele>239.8</ele>
        <time>2016-03-12T14:47:24Z</time>
      </trkpt>
      <trkpt lat="48.34325" lon="-0.14509">
        <ele>239.7</ele>
        <time>2016-03-12T14:47:26Z</time>
      </trkpt>
      <trkpt lat="48.34319" lon="-0.14492">
        <ele>239.7</ele>
        <time>2016-03-12T14:47:28Z</time>
      </trkpt>
      <trkpt lat="48.34313" lon="-0.14476">
        <ele>239.7</ele>
        <time>2016-03-12T14:47:30Z</time>
      </trkpt>
      <trkpt lat="48.34307" lon="-0.14459">
        <ele>239.7</ele>
        <time>2016-03-12T14:47:32Z</time>
      </trkpt>
      <trkpt lat="48.343" lon="-0.14443">
        <ele>239.7</ele>
        <time>2016-03-12T14:47:34Z</time>
      </trkpt>
      <trkpt lat="48.34295" lon="-0.14425">
        <ele>239.7</ele>
        <time>2016-03-12T14:47:36Z</time>
      </trkpt>
      <trkpt lat="48.3429" lon="-0.14407">
        <ele>239.7</ele>
        <time>2016-03-12T14:47:38Z</time>
      </trkpt>
      <trkpt lat="48.34286" lon="-0.14388">
        <ele>239.7</ele>
        <time>2016-03-12T14:47:40Z</time>
      </trkpt>
      <trkpt lat="48.34281" lon="-0.14369">
        <ele>239.7</ele>
        <time>2016-03-12T14:47:42Z</time>
      </trkpt>
      <trkpt lat="48.34277" lon="-0.14349">
        <ele>239.7</ele>
        <time>2016-03-12T14:47:44Z</time>
      </trkpt>
      <trkpt lat="48.34272" lon="-0.1433">
        <ele>239.7</ele>
        <time>2016-03-12T14:47:46Z</time>
      </trkpt>
      <trkpt lat="48.34268" lon="-0.1431">
        <ele>239.7</ele>
        <time>2016-03-12T14:47:48Z</time>
      </trkpt>
      <trkpt lat="48.34263" lon="-0.14291">
        <ele>239.6</ele>
        <time>2016-03-12T14:47:50Z</time>
      </trkpt>
      <trkpt lat="48.34259" lon="-0.14271">
        <ele>239.5</ele>
        <time>2016-03-12T14:47:52Z</time>
      </trkpt>
      <trkpt lat="48.34255" lon="-0.14251">
        <ele>239.3</ele>
        <time>2016-03-12T14:47:54Z</time>
      </trkpt>
      <trkpt lat="48.3425" lon="-0.14232">
        <ele>239.1</ele>
        <time>2016-03-12T14:47:56Z</time>
      </trkpt>
      <trkpt lat="48.34245" lon="-0.14212">
        <ele>239</ele>
        <time>2016-03-12T14:47:58Z</time>
      </trkpt>
      <trkpt lat="48.34241" lon="-0.14193">
        <ele>238.9</ele>
        <time>2016-03-12T14:48:00Z</time>
      </trkpt>
      <trkpt lat="48.34237" lon="-0.14174">
        <ele>238.7</ele>
        <time>2016-03-12T14:48:02Z</time>
      </trkpt>
      <trkpt lat="48.34233" lon="-0.14155">
        <ele>238.4</ele>
        <time>2016-03-12T14:48:04Z</time>
      </trkpt>
      <trkpt lat="48.3423" lon="-0.14136">
        <ele>238.3</ele>
        <time>2016-03-12T14:48:06Z</time>
      </trkpt>
      <trkpt lat="48.34226" lon="-0.14117">
        <ele>238.1</ele>
        <time>2016-03-12T14:48:08Z</time>
      </trkpt>
      <trkpt lat="48.34222" lon="-0.14097">
        <ele>238</ele>
        <time>2016-03-12T14:48:10Z</time>
      </trkpt>
      <trkpt lat="48.34217" lon="-0.14078">
        <ele>237.5</ele>
        <time>2016-03-12T14:48:12Z</time>
      </trkpt>
      <trkpt lat="48.34213" lon="-0.14058">
        <ele>237.3</ele>
        <time>2016-03-12T14:48:14Z</time>
      </trkpt>
      <trkpt lat="48.34209" lon="-0.14038">
        <ele>237</ele>
        <time>2016-03-12T14:48:16Z</time>
      </trkpt>
      <trkpt lat="48.34204" lon="-0.14019">
        <ele>236.8</ele>
        <time>2016-03-12T14:48:18Z</time>
      </trkpt>
      <trkpt lat="48.342" lon="-0.14">
        <ele>236.7</ele>
        <time>2016-03-12T14:48:20Z</time>
      </trkpt>
      <trkpt lat="48.34195" lon="-0.13981">
        <ele>236.5</ele>
        <time>2016-03-12T14:48:22Z</time>
      </trkpt>
      <trkpt lat="48.34191" lon="-0.13962">
        <ele>236.4</ele>
        <time>2016-03-12T14:48:24Z</time>
      </trkpt>
      <trkpt lat="48.34187" lon="-0.13943">
        <ele>236.3</ele>
        <time>2016-03-12T14:48:26Z</time>
      </trkpt>
      <trkpt lat="48.34182" lon="-0.13924">
        <ele>236.1</ele>
        <time>2016-03-12T14:48:28Z</time>
      </trkpt>
      <trkpt lat="48.34178" lon="-0.13906">
        <ele>236</ele>
        <time>2016-03-12T14:48:30Z</time>
      </trkpt>
      <trkpt lat="48.34173" lon="-0.13887">
        <ele>235.9</ele>
        <time>2016-03-12T14:48:32Z</time>
      </trkpt>
      <trkpt lat="48.34169" lon="-0.13867">
        <ele>235.7</ele>
        <time>2016-03-12T14:48:34Z</time>
      </trkpt>
      <trkpt lat="48.34165" lon="-0.13848">
        <ele>235.6</ele>
        <time>2016-03-12T14:48:36Z</time>
      </trkpt>
      <trkpt lat="48.3416" lon="-0.13829">
        <ele>235.5</ele>
        <time>2016-03-12T14:48:38Z</time>
      </trkpt>
      <trkpt lat="48.34156" lon="-0.1381">
        <ele>235.4</ele>
        <time>2016-03-12T14:48:40Z</time>
      </trkpt>
      <trkpt lat="48.34151" lon="-0.13791">
        <ele>235.2</ele>
        <time>2016-03-12T14:48:42Z</time>
      </trkpt>
      <trkpt lat="48.34148" lon="-0.13772">
        <ele>235.1</ele>
        <time>2016-03-12T14:48:44Z</time>
      </trkpt>
      <trkpt lat="48.34147" lon="-0.13752">
        <ele>234.9</ele>
        <time>2016-03-12T14:48:46Z</time>
      </trkpt>
      <trkpt lat="48.34145" lon="-0.13733">
        <ele>234.8</ele>
        <time>2016-03-12T14:48:48Z</time>
      </trkpt>
      <trkpt lat="48.34144" lon="-0.13715">
        <ele>234.7</ele>
        <time>2016-03-12T14:48:50Z</time>
      </trkpt>
      <trkpt lat="48.34144" lon="-0.13698">
        <ele>234.6</ele>
        <time>2016-03-12T14:48:52Z</time>
      </trkpt>
      <trkpt lat="48.34144" lon="-0.13682">
        <ele>234.6</ele>
        <time>2016-03-12T14:48:54Z</time>
      </trkpt>
      <trkpt lat="48.34145" lon="-0.13664">
        <ele>234.5</ele>
        <time>2016-03-12T14:48:57Z</time>
      </trkpt>
      <trkpt lat="48.34144" lon="-0.13648">
        <ele>234.4</ele>
        <time>2016-03-12T14:49:00Z</time>
      </trkpt>
      <trkpt lat="48.34135" lon="-0.13637">
        <ele>234.3</ele>
        <time>2016-03-12T14:49:04Z</time>
      </trkpt>
      <trkpt lat="48.34125" lon="-0.13637">
        <ele>234.3</ele>
        <time>2016-03-12T14:49:07Z</time>
      </trkpt>
      <trkpt lat="48.34115" lon="-0.13637">
        <ele>234.4</ele>
        <time>2016-03-12T14:49:10Z</time>
      </trkpt>
      <trkpt lat="48.34105" lon="-0.13636">
        <ele>234.6</ele>
        <time>2016-03-12T14:49:14Z</time>
      </trkpt>
      <trkpt lat="48.34096" lon="-0.13634">
        <ele>234.5</ele>
        <time>2016-03-12T14:49:17Z</time>
      </trkpt>
      <trkpt lat="48.34084" lon="-0.13633">
        <ele>234.3</ele>
        <time>2016-03-12T14:49:20Z</time>
      </trkpt>
      <trkpt lat="48.34072" lon="-0.13633">
        <ele>234.2</ele>
        <time>2016-03-12T14:49:23Z</time>
      </trkpt>
      <trkpt lat="48.34063" lon="-0.13634">
        <ele>234.1</ele>
        <time>2016-03-12T14:49:25Z</time>
      </trkpt>
      <trkpt lat="48.34054" lon="-0.13636">
        <ele>234.1</ele>
        <time>2016-03-12T14:49:27Z</time>
      </trkpt>
      <trkpt lat="48.3404" lon="-0.13639">
        <ele>234.2</ele>
        <time>2016-03-12T14:49:30Z</time>
      </trkpt>
      <trkpt lat="48.3403" lon="-0.13642">
        <ele>234.2</ele>
        <time>2016-03-12T14:49:32Z</time>
      </trkpt>
      <trkpt lat="48.3402" lon="-0.13645">
        <ele>234.2</ele>
        <time>2016-03-12T14:49:34Z</time>
      </trkpt>
      <trkpt lat="48.3401" lon="-0.13647">
        <ele>234.2</ele>
        <time>2016-03-12T14:49:36Z</time>
      </trkpt>
      <trkpt lat="48.34" lon="-0.13649">
        <ele>234.4</ele>
        <time>2016-03-12T14:49:38Z</time>
      </trkpt>
      <trkpt lat="48.3399" lon="-0.13651">
        <ele>234.5</ele>
        <time>2016-03-12T14:49:40Z</time>
      </trkpt>
      <trkpt lat="48.3398" lon="-0.13653">
        <ele>234.7</ele>
        <time>2016-03-12T14:49:42Z</time>
      </trkpt>
      <trkpt lat="48.33971" lon="-0.13654">
        <ele>234.9</ele>
        <time>2016-03-12T14:49:44Z</time>
      </trkpt>
      <trkpt lat="48.33961" lon="-0.13656">
        <ele>235</ele>
        <time>2016-03-12T14:49:46Z</time>
      </trkpt>
      <trkpt lat="48.33951" lon="-0.13658">
        <ele>235.2</ele>
        <time>2016-03-12T14:49:48Z</time>
      </trkpt>
      <trkpt lat="48.33941" lon="-0.13661">
        <ele>235.4</ele>
        <time>2016-03-12T14:49:50Z</time>
      </trkpt>
      <trkpt lat="48.33931" lon="-0.13663">
        <ele>235.6</ele>
        <time>2016-03-12T14:49:52Z</time>
      </trkpt>
      <trkpt lat="48.33921" lon="-0.13666">
        <ele>235.8</ele>
        <time>2016-03-12T14:49:54Z</time>
      </trkpt>
      <trkpt lat="48.3391" lon="-0.13669">
        <ele>236</ele>
        <time>2016-03-12T14:49:56Z</time>
      </trkpt>
      <trkpt lat="48.33899" lon="-0.13672">
        <ele>236.1</ele>
        <time>2016-03-12T14:49:58Z</time>
      </trkpt>
      <trkpt lat="48.33888" lon="-0.13675">
        <ele>236.2</ele>
        <time>2016-03-12T14:50:00Z</time>
      </trkpt>
      <trkpt lat="48.33877" lon="-0.13678">
        <ele>236.3</ele>
        <time>2016-03-12T14:50:02Z</time>
      </trkpt>
      <trkpt lat="48.33867" lon="-0.13681">
        <ele>236.1</ele>
        <time>2016-03-12T14:50:04Z</time>
      </trkpt>
      <trkpt lat="48.33856" lon="-0.13682">
        <ele>235.9</ele>
        <time>2016-03-12T14:50:06Z</time>
      </trkpt>
      <trkpt lat="48.33845" lon="-0.13683">
        <ele>235.9</ele>
        <time>2016-03-12T14:50:08Z</time>
      </trkpt>
      <trkpt lat="48.33834" lon="-0.13684">
        <ele>237.2</ele>
        <time>2016-03-12T14:50:10Z</time>
      </trkpt>
      <trkpt lat="48.33824" lon="-0.13685">
        <ele>237.1</ele>
        <time>2016-03-12T14:50:12Z</time>
      </trkpt>
      <trkpt lat="48.33814" lon="-0.13686">
        <ele>235.7</ele>
        <time>2016-03-12T14:50:26Z</time>
      </trkpt>
      <trkpt lat="48.33803" lon="-0.13687">
        <ele>235.4</ele>
        <time>2016-03-12T14:50:29Z</time>
      </trkpt>
      <trkpt lat="48.33793" lon="-0.13689">
        <ele>235.2</ele>
        <time>2016-03-12T14:50:31Z</time>
      </trkpt>
      <trkpt lat="48.3378" lon="-0.1369">
        <ele>234.9</ele>
        <time>2016-03-12T14:50:33Z</time>
      </trkpt>
      <trkpt lat="48.33767" lon="-0.13692">
        <ele>234.6</ele>
        <time>2016-03-12T14:50:35Z</time>
      </trkpt>
      <trkpt lat="48.33753" lon="-0.13692">
        <ele>234.3</ele>
        <time>2016-03-12T14:50:37Z</time>
      </trkpt>
      <trkpt lat="48.3374" lon="-0.1369">
        <ele>233.7</ele>
        <time>2016-03-12T14:50:39Z</time>
      </trkpt>
      <trkpt lat="48.33727" lon="-0.13689">
        <ele>233.1</ele>
        <time>2016-03-12T14:50:41Z</time>
      </trkpt>
      <trkpt lat="48.33716" lon="-0.13685">
        <ele>232.6</ele>
        <time>2016-03-12T14:50:43Z</time>
      </trkpt>
      <trkpt lat="48.33705" lon="-0.13678">
        <ele>231.9</ele>
        <time>2016-03-12T14:50:45Z</time>
      </trkpt>
      <trkpt lat="48.33695" lon="-0.13668">
        <ele>230.9</ele>
        <time>2016-03-12T14:50:47Z</time>
      </trkpt>
      <trkpt lat="48.33687" lon="-0.13656">
        <ele>229.9</ele>
        <time>2016-03-12T14:50:49Z</time>
      </trkpt>
      <trkpt lat="48.33678" lon="-0.1364">
        <ele>228.5</ele>
        <time>2016-03-12T14:50:51Z</time>
      </trkpt>
      <trkpt lat="48.33667" lon="-0.13622">
        <ele>227.1</ele>
        <time>2016-03-12T14:50:53Z</time>
      </trkpt>
      <trkpt lat="48.33655" lon="-0.13603">
        <ele>225.8</ele>
        <time>2016-03-12T14:50:55Z</time>
      </trkpt>
      <trkpt lat="48.33643" lon="-0.13589">
        <ele>224.2</ele>
        <time>2016-03-12T14:50:57Z</time>
      </trkpt>
      <trkpt lat="48.33631" lon="-0.13584">
        <ele>222.4</ele>
        <time>2016-03-12T14:50:59Z</time>
      </trkpt>
      <trkpt lat="48.33616" lon="-0.13589">
        <ele>220.4</ele>
        <time>2016-03-12T14:51:01Z</time>
      </trkpt>
      <trkpt lat="48.33599" lon="-0.13598">
        <ele>218.6</ele>
        <time>2016-03-12T14:51:03Z</time>
      </trkpt>
      <trkpt lat="48.3359" lon="-0.13601">
        <ele>217.7</ele>
        <time>2016-03-12T14:51:04Z</time>
      </trkpt>
      <trkpt lat="48.33581" lon="-0.13605">
        <ele>216.6</ele>
        <time>2016-03-12T14:51:05Z</time>
      </trkpt>
      <trkpt lat="48.33572" lon="-0.13608">
        <ele>215.6</ele>
        <time>2016-03-12T14:51:06Z</time>
      </trkpt>
      <trkpt lat="48.33563" lon="-0.13611">
        <ele>214.7</ele>
        <time>2016-03-12T14:51:07Z</time>
      </trkpt>
      <trkpt lat="48.33546" lon="-0.13613">
        <ele>212.8</ele>
        <time>2016-03-12T14:51:09Z</time>
      </trkpt>
      <trkpt lat="48.33528" lon="-0.13607">
        <ele>210.8</ele>
        <time>2016-03-12T14:51:11Z</time>
      </trkpt>
      <trkpt lat="48.33519" lon="-0.13604">
        <ele>209.7</ele>
        <time>2016-03-12T14:51:12Z</time>
      </trkpt>
      <trkpt lat="48.3351" lon="-0.13601">
        <ele>208.6</ele>
        <time>2016-03-12T14:51:13Z</time>
      </trkpt>
      <trkpt lat="48.33493" lon="-0.13597">
        <ele>206.6</ele>
        <time>2016-03-12T14:51:15Z</time>
      </trkpt>
      <trkpt lat="48.33476" lon="-0.13599">
        <ele>204.5</ele>
        <time>2016-03-12T14:51:17Z</time>
      </trkpt>
      <trkpt lat="48.33459" lon="-0.13606">
        <ele>202.3</ele>
        <time>2016-03-12T14:51:19Z</time>
      </trkpt>
      <trkpt lat="48.33444" lon="-0.13612">
        <ele>199.7</ele>
        <time>2016-03-12T14:51:21Z</time>
      </trkpt>
      <trkpt lat="48.33434" lon="-0.13615">
        <ele>197.4</ele>
        <time>2016-03-12T14:51:23Z</time>
      </trkpt>
      <trkpt lat="48.33425" lon="-0.13619">
        <ele>193.6</ele>
        <time>2016-03-12T14:51:27Z</time>
      </trkpt>
      <trkpt lat="48.33419" lon="-0.13607">
        <ele>189</ele>
        <time>2016-03-12T14:51:33Z</time>
      </trkpt>
      <trkpt lat="48.33407" lon="-0.1361">
        <ele>184.1</ele>
        <time>2016-03-12T14:51:43Z</time>
      </trkpt>
      <trkpt lat="48.33397" lon="-0.13617">
        <ele>183.4</ele>
        <time>2016-03-12T14:51:45Z</time>
      </trkpt>
      <trkpt lat="48.33387" lon="-0.13625">
        <ele>182.7</ele>
        <time>2016-03-12T14:51:47Z</time>
      </trkpt>
      <trkpt lat="48.33377" lon="-0.13631">
        <ele>182</ele>
        <time>2016-03-12T14:51:49Z</time>
      </trkpt>
      <trkpt lat="48.33371" lon="-0.13642">
        <ele>181.4</ele>
        <time>2016-03-12T14:51:51Z</time>
      </trkpt>
      <trkpt lat="48.33372" lon="-0.13662">
        <ele>180.5</ele>
        <time>2016-03-12T14:51:54Z</time>
      </trkpt>
      <trkpt lat="48.33373" lon="-0.13678">
        <ele>179.8</ele>
        <time>2016-03-12T14:51:57Z</time>
      </trkpt>
      <trkpt lat="48.33373" lon="-0.13695">
        <ele>179.5</ele>
        <time>2016-03-12T14:52:00Z</time>
      </trkpt>
      <trkpt lat="48.33373" lon="-0.13713">
        <ele>179.3</ele>
        <time>2016-03-12T14:52:03Z</time>
      </trkpt>
      <trkpt lat="48.33376" lon="-0.13731">
        <ele>179.2</ele>
        <time>2016-03-12T14:52:06Z</time>
      </trkpt>
      <trkpt lat="48.33379" lon="-0.13749">
        <ele>179.4</ele>
        <time>2016-03-12T14:52:09Z</time>
      </trkpt>
      <trkpt lat="48.33383" lon="-0.13768">
        <ele>179.6</ele>
        <time>2016-03-12T14:52:12Z</time>
      </trkpt>
      <trkpt lat="48.33386" lon="-0.13786">
        <ele>179.9</ele>
        <time>2016-03-12T14:52:15Z</time>
      </trkpt>
      <trkpt lat="48.33388" lon="-0.138">
        <ele>180</ele>
        <time>2016-03-12T14:52:17Z</time>
      </trkpt>
      <trkpt lat="48.33388" lon="-0.13816">
        <ele>179.7</ele>
        <time>2016-03-12T14:52:19Z</time>
      </trkpt>
      <trkpt lat="48.33387" lon="-0.13832">
        <ele>179.5</ele>
        <time>2016-03-12T14:52:21Z</time>
      </trkpt>
      <trkpt lat="48.33386" lon="-0.13846">
        <ele>179</ele>
        <time>2016-03-12T14:52:23Z</time>
      </trkpt>
      <trkpt lat="48.33383" lon="-0.13866">
        <ele>178.1</ele>
        <time>2016-03-12T14:52:26Z</time>
      </trkpt>
      <trkpt lat="48.33379" lon="-0.13878">
        <ele>177.5</ele>
        <time>2016-03-12T14:52:28Z</time>
      </trkpt>
      <trkpt lat="48.33374" lon="-0.13892">
        <ele>176.7</ele>
        <time>2016-03-12T14:52:30Z</time>
      </trkpt>
      <trkpt lat="48.33368" lon="-0.13906">
        <ele>175.8</ele>
        <time>2016-03-12T14:52:32Z</time>
      </trkpt>
      <trkpt lat="48.33362" lon="-0.1392">
        <ele>174.5</ele>
        <time>2016-03-12T14:52:34Z</time>
      </trkpt>
      <trkpt lat="48.33354" lon="-0.13933">
        <ele>173.3</ele>
        <time>2016-03-12T14:52:36Z</time>
      </trkpt>
      <trkpt lat="48.33345" lon="-0.13947">
        <ele>172</ele>
        <time>2016-03-12T14:52:38Z</time>
      </trkpt>
      <trkpt lat="48.33335" lon="-0.1396">
        <ele>170.8</ele>
        <time>2016-03-12T14:52:40Z</time>
      </trkpt>
      <trkpt lat="48.33322" lon="-0.13971">
        <ele>169.5</ele>
        <time>2016-03-12T14:52:42Z</time>
      </trkpt>
      <trkpt lat="48.3331" lon="-0.13982">
        <ele>168.3</ele>
        <time>2016-03-12T14:52:44Z</time>
      </trkpt>
      <trkpt lat="48.33298" lon="-0.13995">
        <ele>167</ele>
        <time>2016-03-12T14:52:46Z</time>
      </trkpt>
      <trkpt lat="48.33288" lon="-0.14008">
        <ele>165.5</ele>
        <time>2016-03-12T14:52:48Z</time>
      </trkpt>
      <trkpt lat="48.33279" lon="-0.14022">
        <ele>163.9</ele>
        <time>2016-03-12T14:52:50Z</time>
      </trkpt>
      <trkpt lat="48.3327" lon="-0.14035">
        <ele>162.6</ele>
        <time>2016-03-12T14:52:52Z</time>
      </trkpt>
      <trkpt lat="48.33261" lon="-0.14046">
        <ele>161.3</ele>
        <time>2016-03-12T14:52:54Z</time>
      </trkpt>
      <trkpt lat="48.33253" lon="-0.14055">
        <ele>160.4</ele>
        <time>2016-03-12T14:52:56Z</time>
      </trkpt>
      <trkpt lat="48.33245" lon="-0.14069">
        <ele>159.4</ele>
        <time>2016-03-12T14:52:59Z</time>
      </trkpt>
      <trkpt lat="48.3324" lon="-0.14085">
        <ele>158.7</ele>
        <time>2016-03-12T14:53:02Z</time>
      </trkpt>
      <trkpt lat="48.33238" lon="-0.14102">
        <ele>158.2</ele>
        <time>2016-03-12T14:53:05Z</time>
      </trkpt>
      <trkpt lat="48.33236" lon="-0.14118">
        <ele>157.8</ele>
        <time>2016-03-12T14:53:08Z</time>
      </trkpt>
      <trkpt lat="48.33235" lon="-0.14137">
        <ele>157.5</ele>
        <time>2016-03-12T14:53:11Z</time>
      </trkpt>
      <trkpt lat="48.33233" lon="-0.14155">
        <ele>157.3</ele>
        <time>2016-03-12T14:53:14Z</time>
      </trkpt>
      <trkpt lat="48.33232" lon="-0.14174">
        <ele>157.1</ele>
        <time>2016-03-12T14:53:17Z</time>
      </trkpt>
      <trkpt lat="48.33231" lon="-0.14191">
        <ele>157</ele>
        <time>2016-03-12T14:53:20Z</time>
      </trkpt>
      <trkpt lat="48.3323" lon="-0.14206">
        <ele>156.9</ele>
        <time>2016-03-12T14:53:23Z</time>
      </trkpt>
      <trkpt lat="48.33229" lon="-0.14221">
        <ele>156.8</ele>
        <time>2016-03-12T14:53:27Z</time>
      </trkpt>
      <trkpt lat="48.33229" lon="-0.14237">
        <ele>156.4</ele>
        <time>2016-03-12T14:54:51Z</time>
      </trkpt>
      <trkpt lat="48.33236" lon="-0.14249">
        <ele>156.7</ele>
        <time>2016-03-12T14:54:56Z</time>
      </trkpt>
      <trkpt lat="48.33241" lon="-0.14263">
        <ele>157.4</ele>
        <time>2016-03-12T14:55:01Z</time>
      </trkpt>
      <trkpt lat="48.33242" lon="-0.14281">
        <ele>158</ele>
        <time>2016-03-12T14:55:05Z</time>
      </trkpt>
      <trkpt lat="48.33243" lon="-0.14296">
        <ele>158.5</ele>
        <time>2016-03-12T14:55:08Z</time>
      </trkpt>
      <trkpt lat="48.33244" lon="-0.14311">
        <ele>159</ele>
        <time>2016-03-12T14:55:11Z</time>
      </trkpt>
      <trkpt lat="48.33246" lon="-0.14326">
        <ele>159.4</ele>
        <time>2016-03-12T14:55:14Z</time>
      </trkpt>
      <trkpt lat="48.33247" lon="-0.14339">
        <ele>159.8</ele>
        <time>2016-03-12T14:55:17Z</time>
      </trkpt>
      <trkpt lat="48.33249" lon="-0.14353">
        <ele>160.2</ele>
        <time>2016-03-12T14:55:20Z</time>
      </trkpt>
      <trkpt lat="48.3325" lon="-0.14368">
        <ele>160.6</ele>
        <time>2016-03-12T14:55:23Z</time>
      </trkpt>
      <trkpt lat="48.33253" lon="-0.14382">
        <ele>160.9</ele>
        <time>2016-03-12T14:55:26Z</time>
      </trkpt>
      <trkpt lat="48.33255" lon="-0.14399">
        <ele>161.2</ele>
        <time>2016-03-12T14:55:29Z</time>
      </trkpt>
      <trkpt lat="48.33257" lon="-0.14418">
        <ele>161.4</ele>
        <time>2016-03-12T14:55:32Z</time>
      </trkpt>
      <trkpt lat="48.3326" lon="-0.14434">
        <ele>161.7</ele>
        <time>2016-03-12T14:55:35Z</time>
      </trkpt>
      <trkpt lat="48.33263" lon="-0.14451">
        <ele>161.9</ele>
        <time>2016-03-12T14:55:38Z</time>
      </trkpt>
      <trkpt lat="48.33264" lon="-0.1447">
        <ele>162</ele>
        <time>2016-03-12T14:55:41Z</time>
      </trkpt>
      <trkpt lat="48.33264" lon="-0.14486">
        <ele>162.1</ele>
        <time>2016-03-12T14:55:43Z</time>
      </trkpt>
      <trkpt lat="48.33263" lon="-0.14502">
        <ele>162.1</ele>
        <time>2016-03-12T14:55:45Z</time>
      </trkpt>
      <trkpt lat="48.33263" lon="-0.14516">
        <ele>161.9</ele>
        <time>2016-03-12T14:55:47Z</time>
      </trkpt>
      <trkpt lat="48.33262" lon="-0.1453">
        <ele>161.8</ele>
        <time>2016-03-12T14:55:49Z</time>
      </trkpt>
      <trkpt lat="48.33262" lon="-0.14544">
        <ele>161.7</ele>
        <time>2016-03-12T14:55:51Z</time>
      </trkpt>
      <trkpt lat="48.33261" lon="-0.14558">
        <ele>161.6</ele>
        <time>2016-03-12T14:55:53Z</time>
      </trkpt>
      <trkpt lat="48.33267" lon="-0.1457">
        <ele>161.4</ele>
        <time>2016-03-12T14:55:57Z</time>
      </trkpt>
      <trkpt lat="48.33272" lon="-0.14586">
        <ele>161.1</ele>
        <time>2016-03-12T14:56:01Z</time>
      </trkpt>
      <trkpt lat="48.33282" lon="-0.14597">
        <ele>160.6</ele>
        <time>2016-03-12T14:56:04Z</time>
      </trkpt>
      <trkpt lat="48.33287" lon="-0.14609">
        <ele>159.5</ele>
        <time>2016-03-12T14:56:09Z</time>
      </trkpt>
      <trkpt lat="48.33282" lon="-0.14622">
        <ele>158.2</ele>
        <time>2016-03-12T14:56:14Z</time>
      </trkpt>
      <trkpt lat="48.33276" lon="-0.14637">
        <ele>157.1</ele>
        <time>2016-03-12T14:56:18Z</time>
      </trkpt>
      <trkpt lat="48.33269" lon="-0.14651">
        <ele>155.5</ele>
        <time>2016-03-12T14:56:23Z</time>
      </trkpt>
      <trkpt lat="48.33262" lon="-0.14664">
        <ele>154.4</ele>
        <time>2016-03-12T14:56:27Z</time>
      </trkpt>
      <trkpt lat="48.33257" lon="-0.14675">
        <ele>153.4</ele>
        <time>2016-03-12T14:56:31Z</time>
      </trkpt>
      <trkpt lat="48.3325" lon="-0.14686">
        <ele>152.2</ele>
        <time>2016-03-12T14:56:35Z</time>
      </trkpt>
      <trkpt lat="48.33238" lon="-0.14694">
        <ele>151.2</ele>
        <time>2016-03-12T14:56:39Z</time>
      </trkpt>
      <trkpt lat="48.33227" lon="-0.14692">
        <ele>150.2</ele>
        <time>2016-03-12T14:56:42Z</time>
      </trkpt>
      <trkpt lat="48.33217" lon="-0.14687">
        <ele>149.4</ele>
        <time>2016-03-12T14:56:45Z</time>
      </trkpt>
      <trkpt lat="48.33209" lon="-0.1468">
        <ele>148.6</ele>
        <time>2016-03-12T14:56:48Z</time>
      </trkpt>
      <trkpt lat="48.33201" lon="-0.14672">
        <ele>148.1</ele>
        <time>2016-03-12T14:56:50Z</time>
      </trkpt>
      <trkpt lat="48.33195" lon="-0.14658">
        <ele>147.7</ele>
        <time>2016-03-12T14:56:52Z</time>
      </trkpt>
      <trkpt lat="48.33188" lon="-0.14641">
        <ele>147.1</ele>
        <time>2016-03-12T14:56:54Z</time>
      </trkpt>
      <trkpt lat="48.33181" lon="-0.14623">
        <ele>146.4</ele>
        <time>2016-03-12T14:56:56Z</time>
      </trkpt>
      <trkpt lat="48.33175" lon="-0.14609">
        <ele>145.7</ele>
        <time>2016-03-12T14:56:58Z</time>
      </trkpt>
      <trkpt lat="48.33171" lon="-0.14622">
        <ele>143</ele>
        <time>2016-03-12T14:57:05Z</time>
      </trkpt>
      <trkpt lat="48.33173" lon="-0.1464">
        <ele>141.9</ele>
        <time>2016-03-12T14:57:07Z</time>
      </trkpt>
      <trkpt lat="48.33175" lon="-0.14658">
        <ele>141</ele>
        <time>2016-03-12T14:57:09Z</time>
      </trkpt>
      <trkpt lat="48.33177" lon="-0.14676">
        <ele>139.8</ele>
        <time>2016-03-12T14:57:11Z</time>
      </trkpt>
      <trkpt lat="48.33177" lon="-0.14694">
        <ele>138.7</ele>
        <time>2016-03-12T14:57:13Z</time>
      </trkpt>
      <trkpt lat="48.3318" lon="-0.14711">
        <ele>137.6</ele>
        <time>2016-03-12T14:57:15Z</time>
      </trkpt>
      <trkpt lat="48.33182" lon="-0.14724">
        <ele>136.4</ele>
        <time>2016-03-12T14:57:17Z</time>
      </trkpt>
      <trkpt lat="48.33187" lon="-0.14736">
        <ele>135.1</ele>
        <time>2016-03-12T14:57:19Z</time>
      </trkpt>
      <trkpt lat="48.33195" lon="-0.1475">
        <ele>133.4</ele>
        <time>2016-03-12T14:57:22Z</time>
      </trkpt>
      <trkpt lat="48.33204" lon="-0.14759">
        <ele>132</ele>
        <time>2016-03-12T14:57:25Z</time>
      </trkpt>
      <trkpt lat="48.33212" lon="-0.14769">
        <ele>130.8</ele>
        <time>2016-03-12T14:57:28Z</time>
      </trkpt>
      <trkpt lat="48.33217" lon="-0.14784">
        <ele>129.2</ele>
        <time>2016-03-12T14:57:33Z</time>
      </trkpt>
      <trkpt lat="48.33219" lon="-0.14798">
        <ele>127.7</ele>
        <time>2016-03-12T14:57:37Z</time>
      </trkpt>
      <trkpt lat="48.33223" lon="-0.14812">
        <ele>126.1</ele>
        <time>2016-03-12T14:57:41Z</time>
      </trkpt>
      <trkpt lat="48.33212" lon="-0.1481">
        <ele>119.2</ele>
        <time>2016-03-12T14:58:29Z</time>
      </trkpt>
      <trkpt lat="48.332" lon="-0.14812">
        <ele>119.1</ele>
        <time>2016-03-12T14:58:32Z</time>
      </trkpt>
      <trkpt lat="48.33191" lon="-0.14814">
        <ele>119.1</ele>
        <time>2016-03-12T14:58:34Z</time>
      </trkpt>
      <trkpt lat="48.3318" lon="-0.14814">
        <ele>119</ele>
        <time>2016-03-12T14:58:36Z</time>
      </trkpt>
      <trkpt lat="48.33168" lon="-0.14815">
        <ele>118.9</ele>
        <time>2016-03-12T14:58:38Z</time>
      </trkpt>
      <trkpt lat="48.33155" lon="-0.14817">
        <ele>118.7</ele>
        <time>2016-03-12T14:58:40Z</time>
      </trkpt>
      <trkpt lat="48.33143" lon="-0.14821">
        <ele>118.5</ele>
        <time>2016-03-12T14:58:42Z</time>
      </trkpt>
      <trkpt lat="48.3313" lon="-0.14827">
        <ele>118.3</ele>
        <time>2016-03-12T14:58:44Z</time>
      </trkpt>
      <trkpt lat="48.33117" lon="-0.14833">
        <ele>118.2</ele>
        <time>2016-03-12T14:58:46Z</time>
      </trkpt>
      <trkpt lat="48.33104" lon="-0.14839">
        <ele>118</ele>
        <time>2016-03-12T14:58:48Z</time>
      </trkpt>
      <trkpt lat="48.33092" lon="-0.14849">
        <ele>117.9</ele>
        <time>2016-03-12T14:58:50Z</time>
      </trkpt>
      <trkpt lat="48.33082" lon="-0.14862">
        <ele>117.8</ele>
        <time>2016-03-12T14:58:52Z</time>
      </trkpt>
      <trkpt lat="48.33075" lon="-0.14876">
        <ele>117.7</ele>
        <time>2016-03-12T14:58:54Z</time>
      </trkpt>
      <trkpt lat="48.3307" lon="-0.1489">
        <ele>117.5</ele>
        <time>2016-03-12T14:58:56Z</time>
      </trkpt>
      <trkpt lat="48.33066" lon="-0.14903">
        <ele>117.4</ele>
        <time>2016-03-12T14:58:58Z</time>
      </trkpt>
      <trkpt lat="48.33068" lon="-0.14917">
        <ele>117.3</ele>
        <time>2016-03-12T14:59:00Z</time>
      </trkpt>
      <trkpt lat="48.33073" lon="-0.14932">
        <ele>117.3</ele>
        <time>2016-03-12T14:59:02Z</time>
      </trkpt>
      <trkpt lat="48.33077" lon="-0.14953">
        <ele>117.2</ele>
        <time>2016-03-12T14:59:04Z</time>
      </trkpt>
      <trkpt lat="48.33078" lon="-0.14973">
        <ele>117</ele>
        <time>2016-03-12T14:59:06Z</time>
      </trkpt>
      <trkpt lat="48.3308" lon="-0.14993">
        <ele>116.8</ele>
        <time>2016-03-12T14:59:08Z</time>
      </trkpt>
      <trkpt lat="48.33082" lon="-0.15009">
        <ele>116.6</ele>
        <time>2016-03-12T14:59:10Z</time>
      </trkpt>
      <trkpt lat="48.33088" lon="-0.15025">
        <ele>116.4</ele>
        <time>2016-03-12T14:59:13Z</time>
      </trkpt>
      <trkpt lat="48.33093" lon="-0.15038">
        <ele>116.4</ele>
        <time>2016-03-12T14:59:16Z</time>
      </trkpt>
      <trkpt lat="48.331" lon="-0.15051">
        <ele>116.8</ele>
        <time>2016-03-12T14:59:20Z</time>
      </trkpt>
      <trkpt lat="48.33106" lon="-0.15063">
        <ele>117.6</ele>
        <time>2016-03-12T14:59:24Z</time>
      </trkpt>
      <trkpt lat="48.3311" lon="-0.15077">
        <ele>118.6</ele>
        <time>2016-03-12T14:59:28Z</time>
      </trkpt>
      <trkpt lat="48.33114" lon="-0.15091">
        <ele>119.6</ele>
        <time>2016-03-12T14:59:32Z</time>
      </trkpt>
      <trkpt lat="48.33119" lon="-0.15103">
        <ele>120.5</ele>
        <time>2016-03-12T14:59:36Z</time>
      </trkpt>
      <trkpt lat="48.33122" lon="-0.15118">
        <ele>121.4</ele>
        <time>2016-03-12T14:59:40Z</time>
      </trkpt>
      <trkpt lat="48.33129" lon="-0.1513">
        <ele>122.4</ele>
        <time>2016-03-12T14:59:44Z</time>
      </trkpt>
      <trkpt lat="48.33136" lon="-0.15138">
        <ele>123</ele>
        <time>2016-03-12T14:59:47Z</time>
      </trkpt>
      <trkpt lat="48.33146" lon="-0.15147">
        <ele>123.5</ele>
        <time>2016-03-12T14:59:50Z</time>
      </trkpt>
      <trkpt lat="48.33158" lon="-0.15159">
        <ele>123.7</ele>
        <time>2016-03-12T14:59:53Z</time>
      </trkpt>
      <trkpt lat="48.33166" lon="-0.15168">
        <ele>123.6</ele>
        <time>2016-03-12T14:59:55Z</time>
      </trkpt>
      <trkpt lat="48.33178" lon="-0.15179">
        <ele>123.4</ele>
        <time>2016-03-12T14:59:57Z</time>
      </trkpt>
      <trkpt lat="48.33189" lon="-0.15191">
        <ele>123.3</ele>
        <time>2016-03-12T14:59:59Z</time>
      </trkpt>
      <trkpt lat="48.33197" lon="-0.15205">
        <ele>123.2</ele>
        <time>2016-03-12T15:00:01Z</time>
      </trkpt>
      <trkpt lat="48.33204" lon="-0.15217">
        <ele>123.1</ele>
        <time>2016-03-12T15:00:03Z</time>
      </trkpt>
      <trkpt lat="48.33213" lon="-0.15231">
        <ele>122.8</ele>
        <time>2016-03-12T15:00:06Z</time>
      </trkpt>
      <trkpt lat="48.33219" lon="-0.15241">
        <ele>122.5</ele>
        <time>2016-03-12T15:00:08Z</time>
      </trkpt>
      <trkpt lat="48.33226" lon="-0.15251">
        <ele>122.3</ele>
        <time>2016-03-12T15:00:10Z</time>
      </trkpt>
      <trkpt lat="48.33232" lon="-0.15267">
        <ele>122.2</ele>
        <time>2016-03-12T15:00:12Z</time>
      </trkpt>
      <trkpt lat="48.33238" lon="-0.15281">
        <ele>122</ele>
        <time>2016-03-12T15:00:14Z</time>
      </trkpt>
      <trkpt lat="48.33244" lon="-0.15295">
        <ele>121.9</ele>
        <time>2016-03-12T15:00:16Z</time>
      </trkpt>
      <trkpt lat="48.33249" lon="-0.15309">
        <ele>121.6</ele>
        <time>2016-03-12T15:00:18Z</time>
      </trkpt>
      <trkpt lat="48.33254" lon="-0.15322">
        <ele>121.5</ele>
        <time>2016-03-12T15:00:20Z</time>
      </trkpt>
      <trkpt lat="48.33257" lon="-0.15337">
        <ele>121.4</ele>
        <time>2016-03-12T15:00:22Z</time>
      </trkpt>
      <trkpt lat="48.33259" lon="-0.15352">
        <ele>121.4</ele>
        <time>2016-03-12T15:00:24Z</time>
      </trkpt>
      <trkpt lat="48.33263" lon="-0.15371">
        <ele>121.5</ele>
        <time>2016-03-12T15:00:27Z</time>
      </trkpt>
      <trkpt lat="48.33265" lon="-0.15385">
        <ele>121.6</ele>
        <time>2016-03-12T15:00:29Z</time>
      </trkpt>
      <trkpt lat="48.33267" lon="-0.15405">
        <ele>122</ele>
        <time>2016-03-12T15:00:32Z</time>
      </trkpt>
      <trkpt lat="48.33268" lon="-0.15424">
        <ele>122.2</ele>
        <time>2016-03-12T15:00:35Z</time>
      </trkpt>
      <trkpt lat="48.33269" lon="-0.15437">
        <ele>122.4</ele>
        <time>2016-03-12T15:00:37Z</time>
      </trkpt>
      <trkpt lat="48.33271" lon="-0.15452">
        <ele>122.5</ele>
        <time>2016-03-12T15:00:39Z</time>
      </trkpt>
      <trkpt lat="48.33273" lon="-0.15467">
        <ele>122.7</ele>
        <time>2016-03-12T15:00:41Z</time>
      </trkpt>
      <trkpt lat="48.33275" lon="-0.15481">
        <ele>122.8</ele>
        <time>2016-03-12T15:00:43Z</time>
      </trkpt>
      <trkpt lat="48.33276" lon="-0.15498">
        <ele>123</ele>
        <time>2016-03-12T15:00:45Z</time>
      </trkpt>
      <trkpt lat="48.33275" lon="-0.15517">
        <ele>123.1</ele>
        <time>2016-03-12T15:00:47Z</time>
      </trkpt>
      <trkpt lat="48.33276" lon="-0.15536">
        <ele>123.2</ele>
        <time>2016-03-12T15:00:49Z</time>
      </trkpt>
      <trkpt lat="48.33276" lon="-0.15553">
        <ele>123.2</ele>
        <time>2016-03-12T15:00:51Z</time>
      </trkpt>
      <trkpt lat="48.33276" lon="-0.15569">
        <ele>123.3</ele>
        <time>2016-03-12T15:00:53Z</time>
      </trkpt>
      <trkpt lat="48.33276" lon="-0.15585">
        <ele>123.3</ele>
        <time>2016-03-12T15:00:55Z</time>
      </trkpt>
      <trkpt lat="48.33277" lon="-0.156">
        <ele>123.4</ele>
        <time>2016-03-12T15:00:57Z</time>
      </trkpt>
      <trkpt lat="48.33278" lon="-0.15615">
        <ele>123.3</ele>
        <time>2016-03-12T15:00:59Z</time>
      </trkpt>
      <trkpt lat="48.3328" lon="-0.15629">
        <ele>123.2</ele>
        <time>2016-03-12T15:01:01Z</time>
      </trkpt>
      <trkpt lat="48.33279" lon="-0.15643">
        <ele>123.2</ele>
        <time>2016-03-12T15:01:03Z</time>
      </trkpt>
      <trkpt lat="48.33278" lon="-0.15658">
        <ele>123.2</ele>
        <time>2016-03-12T15:01:05Z</time>
      </trkpt>
      <trkpt lat="48.33276" lon="-0.15672">
        <ele>123.2</ele>
        <time>2016-03-12T15:01:07Z</time>
      </trkpt>
      <trkpt lat="48.33273" lon="-0.15686">
        <ele>123.2</ele>
        <time>2016-03-12T15:01:09Z</time>
      </trkpt>
      <trkpt lat="48.33269" lon="-0.157">
        <ele>123.3</ele>
        <time>2016-03-12T15:01:11Z</time>
      </trkpt>
      <trkpt lat="48.33266" lon="-0.15714">
        <ele>123.5</ele>
        <time>2016-03-12T15:01:13Z</time>
      </trkpt>
      <trkpt lat="48.33274" lon="-0.15729">
        <ele>123.6</ele>
        <time>2016-03-12T15:01:16Z</time>
      </trkpt>
      <trkpt lat="48.33283" lon="-0.15736">
        <ele>123.7</ele>
        <time>2016-03-12T15:01:18Z</time>
      </trkpt>
      <trkpt lat="48.33292" lon="-0.1574">
        <ele>123.7</ele>
        <time>2016-03-12T15:01:20Z</time>
      </trkpt>
      <trkpt lat="48.33301" lon="-0.15749">
        <ele>123.7</ele>
        <time>2016-03-12T15:01:23Z</time>
      </trkpt>
      <trkpt lat="48.33306" lon="-0.15764">
        <ele>123.6</ele>
        <time>2016-03-12T15:01:27Z</time>
      </trkpt>
      <trkpt lat="48.33307" lon="-0.15778">
        <ele>123.4</ele>
        <time>2016-03-12T15:01:30Z</time>
      </trkpt>
      <trkpt lat="48.33309" lon="-0.15794">
        <ele>123.3</ele>
        <time>2016-03-12T15:01:33Z</time>
      </trkpt>
      <trkpt lat="48.33308" lon="-0.15813">
        <ele>123.2</ele>
        <time>2016-03-12T15:01:36Z</time>
      </trkpt>
      <trkpt lat="48.33306" lon="-0.15826">
        <ele>123.2</ele>
        <time>2016-03-12T15:01:38Z</time>
      </trkpt>
      <trkpt lat="48.33304" lon="-0.1584">
        <ele>123.1</ele>
        <time>2016-03-12T15:01:40Z</time>
      </trkpt>
      <trkpt lat="48.333" lon="-0.15855">
        <ele>123.1</ele>
        <time>2016-03-12T15:01:42Z</time>
      </trkpt>
      <trkpt lat="48.33298" lon="-0.1587">
        <ele>123.1</ele>
        <time>2016-03-12T15:01:44Z</time>
      </trkpt>
      <trkpt lat="48.33297" lon="-0.15886">
        <ele>123</ele>
        <time>2016-03-12T15:01:46Z</time>
      </trkpt>
      <trkpt lat="48.33297" lon="-0.15901">
        <ele>123</ele>
        <time>2016-03-12T15:01:48Z</time>
      </trkpt>
      <trkpt lat="48.33298" lon="-0.15916">
        <ele>123</ele>
        <time>2016-03-12T15:01:50Z</time>
      </trkpt>
      <trkpt lat="48.33299" lon="-0.1593">
        <ele>123.1</ele>
        <time>2016-03-12T15:01:52Z</time>
      </trkpt>
      <trkpt lat="48.33299" lon="-0.15946">
        <ele>123.1</ele>
        <time>2016-03-12T15:01:54Z</time>
      </trkpt>
      <trkpt lat="48.333" lon="-0.1596">
        <ele>123.1</ele>
        <time>2016-03-12T15:01:56Z</time>
      </trkpt>
      <trkpt lat="48.33302" lon="-0.15979">
        <ele>123</ele>
        <time>2016-03-12T15:01:59Z</time>
      </trkpt>
      <trkpt lat="48.33306" lon="-0.15998">
        <ele>123</ele>
        <time>2016-03-12T15:02:02Z</time>
      </trkpt>
      <trkpt lat="48.33311" lon="-0.16015">
        <ele>123</ele>
        <time>2016-03-12T15:02:05Z</time>
      </trkpt>
      <trkpt lat="48.33316" lon="-0.16033">
        <ele>122.9</ele>
        <time>2016-03-12T15:02:08Z</time>
      </trkpt>
      <trkpt lat="48.33321" lon="-0.16052">
        <ele>123</ele>
        <time>2016-03-12T15:02:11Z</time>
      </trkpt>
      <trkpt lat="48.33323" lon="-0.16072">
        <ele>123.2</ele>
        <time>2016-03-12T15:02:14Z</time>
      </trkpt>
      <trkpt lat="48.33325" lon="-0.16089">
        <ele>123.3</ele>
        <time>2016-03-12T15:02:17Z</time>
      </trkpt>
      <trkpt lat="48.3333" lon="-0.16104">
        <ele>123.4</ele>
        <time>2016-03-12T15:02:20Z</time>
      </trkpt>
      <trkpt lat="48.33334" lon="-0.16123">
        <ele>123.5</ele>
        <time>2016-03-12T15:02:23Z</time>
      </trkpt>
      <trkpt lat="48.33337" lon="-0.16138">
        <ele>123.4</ele>
        <time>2016-03-12T15:02:25Z</time>
      </trkpt>
      <trkpt lat="48.33341" lon="-0.16153">
        <ele>123.4</ele>
        <time>2016-03-12T15:02:27Z</time>
      </trkpt>
      <trkpt lat="48.33343" lon="-0.16172">
        <ele>123.5</ele>
        <time>2016-03-12T15:02:30Z</time>
      </trkpt>
      <trkpt lat="48.33339" lon="-0.16189">
        <ele>123.6</ele>
        <time>2016-03-12T15:02:33Z</time>
      </trkpt>
      <trkpt lat="48.3334" lon="-0.16204">
        <ele>123.8</ele>
        <time>2016-03-12T15:02:37Z</time>
      </trkpt>
      <trkpt lat="48.33342" lon="-0.16221">
        <ele>123.9</ele>
        <time>2016-03-12T15:02:40Z</time>
      </trkpt>
      <trkpt lat="48.3334" lon="-0.16235">
        <ele>123.9</ele>
        <time>2016-03-12T15:02:43Z</time>
      </trkpt>
      <trkpt lat="48.33337" lon="-0.1625">
        <ele>123.8</ele>
        <time>2016-03-12T15:02:46Z</time>
      </trkpt>
      <trkpt lat="48.33336" lon="-0.16264">
        <ele>123.9</ele>
        <time>2016-03-12T15:02:49Z</time>
      </trkpt>
      <trkpt lat="48.33334" lon="-0.16278">
        <ele>123.9</ele>
        <time>2016-03-12T15:02:52Z</time>
      </trkpt>
      <trkpt lat="48.33331" lon="-0.16291">
        <ele>124</ele>
        <time>2016-03-12T15:02:56Z</time>
      </trkpt>
      <trkpt lat="48.33328" lon="-0.16307">
        <ele>124.1</ele>
        <time>2016-03-12T15:03:00Z</time>
      </trkpt>
      <trkpt lat="48.33327" lon="-0.16322">
        <ele>124.2</ele>
        <time>2016-03-12T15:03:04Z</time>
      </trkpt>
      <trkpt lat="48.33327" lon="-0.16305">
        <ele>124.5</ele>
        <time>2016-03-12T15:03:29Z</time>
      </trkpt>
      <trkpt lat="48.33326" lon="-0.1629">
        <ele>124.5</ele>
        <time>2016-03-12T15:03:34Z</time>
      </trkpt>
      <trkpt lat="48.33324" lon="-0.16305">
        <ele>125.2</ele>
        <time>2016-03-12T15:03:59Z</time>
      </trkpt>
      <trkpt lat="48.33319" lon="-0.16318">
        <ele>126</ele>
        <time>2016-03-12T15:04:05Z</time>
      </trkpt>
      <trkpt lat="48.33315" lon="-0.16333">
        <ele>126.6</ele>
        <time>2016-03-12T15:04:10Z</time>
      </trkpt>
      <trkpt lat="48.33309" lon="-0.16347">
        <ele>127.1</ele>
        <time>2016-03-12T15:04:16Z</time>
      </trkpt>
      <trkpt lat="48.33303" lon="-0.16358">
        <ele>127.6</ele>
        <time>2016-03-12T15:04:20Z</time>
      </trkpt>
      <trkpt lat="48.33301" lon="-0.16371">
        <ele>128</ele>
        <time>2016-03-12T15:04:24Z</time>
      </trkpt>
      <trkpt lat="48.33297" lon="-0.16388">
        <ele>128.6</ele>
        <time>2016-03-12T15:04:29Z</time>
      </trkpt>
      <trkpt lat="48.33294" lon="-0.16403">
        <ele>128.9</ele>
        <time>2016-03-12T15:04:32Z</time>
      </trkpt>
      <trkpt lat="48.33292" lon="-0.16419">
        <ele>129.4</ele>
        <time>2016-03-12T15:04:37Z</time>
      </trkpt>
      <trkpt lat="48.33293" lon="-0.16435">
        <ele>129.8</ele>
        <time>2016-03-12T15:04:42Z</time>
      </trkpt>
      <trkpt lat="48.33294" lon="-0.16449">
        <ele>129.9</ele>
        <time>2016-03-12T15:04:47Z</time>
      </trkpt>
      <trkpt lat="48.33297" lon="-0.16462">
        <ele>129.5</ele>
        <time>2016-03-12T15:04:53Z</time>
      </trkpt>
      <trkpt lat="48.33299" lon="-0.16479">
        <ele>128.7</ele>
        <time>2016-03-12T15:05:00Z</time>
      </trkpt>
      <trkpt lat="48.33302" lon="-0.16496">
        <ele>128</ele>
        <time>2016-03-12T15:05:03Z</time>
      </trkpt>
      <trkpt lat="48.33304" lon="-0.16513">
        <ele>127.6</ele>
        <time>2016-03-12T15:05:06Z</time>
      </trkpt>
      <trkpt lat="48.33306" lon="-0.1653">
        <ele>127.2</ele>
        <time>2016-03-12T15:05:09Z</time>
      </trkpt>
      <trkpt lat="48.33308" lon="-0.16548">
        <ele>127</ele>
        <time>2016-03-12T15:05:12Z</time>
      </trkpt>
      <trkpt lat="48.3331" lon="-0.16565">
        <ele>126.8</ele>
        <time>2016-03-12T15:05:15Z</time>
      </trkpt>
      <trkpt lat="48.33313" lon="-0.16581">
        <ele>126.6</ele>
        <time>2016-03-12T15:05:18Z</time>
      </trkpt>
      <trkpt lat="48.33315" lon="-0.166">
        <ele>126.6</ele>
        <time>2016-03-12T15:05:21Z</time>
      </trkpt>
      <trkpt lat="48.33317" lon="-0.16614">
        <ele>126.6</ele>
        <time>2016-03-12T15:05:23Z</time>
      </trkpt>
      <trkpt lat="48.33319" lon="-0.16628">
        <ele>126.7</ele>
        <time>2016-03-12T15:05:25Z</time>
      </trkpt>
      <trkpt lat="48.3332" lon="-0.16641">
        <ele>126.8</ele>
        <time>2016-03-12T15:05:27Z</time>
      </trkpt>
      <trkpt lat="48.33323" lon="-0.16655">
        <ele>127</ele>
        <time>2016-03-12T15:05:29Z</time>
      </trkpt>
      <trkpt lat="48.33326" lon="-0.16669">
        <ele>127.1</ele>
        <time>2016-03-12T15:05:31Z</time>
      </trkpt>
      <trkpt lat="48.33328" lon="-0.16684">
        <ele>127.2</ele>
        <time>2016-03-12T15:05:33Z</time>
      </trkpt>
      <trkpt lat="48.33332" lon="-0.16699">
        <ele>127.2</ele>
        <time>2016-03-12T15:05:35Z</time>
      </trkpt>
      <trkpt lat="48.33334" lon="-0.16715">
        <ele>127.3</ele>
        <time>2016-03-12T15:05:37Z</time>
      </trkpt>
      <trkpt lat="48.33339" lon="-0.1673">
        <ele>127.3</ele>
        <time>2016-03-12T15:05:39Z</time>
      </trkpt>
      <trkpt lat="48.33347" lon="-0.16748">
        <ele>127.4</ele>
        <time>2016-03-12T15:05:42Z</time>
      </trkpt>
      <trkpt lat="48.33353" lon="-0.1676">
        <ele>127.4</ele>
        <time>2016-03-12T15:05:44Z</time>
      </trkpt>
      <trkpt lat="48.3336" lon="-0.16773">
        <ele>127.4</ele>
        <time>2016-03-12T15:05:47Z</time>
      </trkpt>
      <trkpt lat="48.33367" lon="-0.16786">
        <ele>127.5</ele>
        <time>2016-03-12T15:05:50Z</time>
      </trkpt>
      <trkpt lat="48.33373" lon="-0.16799">
        <ele>127.4</ele>
        <time>2016-03-12T15:05:53Z</time>
      </trkpt>
      <trkpt lat="48.33382" lon="-0.16803">
        <ele>127.3</ele>
        <time>2016-03-12T15:05:55Z</time>
      </trkpt>
      <trkpt lat="48.33392" lon="-0.16808">
        <ele>127.3</ele>
        <time>2016-03-12T15:05:57Z</time>
      </trkpt>
      <trkpt lat="48.33402" lon="-0.16818">
        <ele>127.3</ele>
        <time>2016-03-12T15:05:59Z</time>
      </trkpt>
      <trkpt lat="48.33412" lon="-0.16829">
        <ele>127.4</ele>
        <time>2016-03-12T15:06:02Z</time>
      </trkpt>
      <trkpt lat="48.33421" lon="-0.16841">
        <ele>127.5</ele>
        <time>2016-03-12T15:06:04Z</time>
      </trkpt>
      <trkpt lat="48.33428" lon="-0.16849">
        <ele>127.6</ele>
        <time>2016-03-12T15:06:06Z</time>
      </trkpt>
      <trkpt lat="48.33437" lon="-0.16861">
        <ele>127.6</ele>
        <time>2016-03-12T15:06:08Z</time>
      </trkpt>
      <trkpt lat="48.33446" lon="-0.16874">
        <ele>127.7</ele>
        <time>2016-03-12T15:06:10Z</time>
      </trkpt>
      <trkpt lat="48.33454" lon="-0.16886">
        <ele>127.7</ele>
        <time>2016-03-12T15:06:12Z</time>
      </trkpt>
      <trkpt lat="48.33461" lon="-0.169">
        <ele>127.8</ele>
        <time>2016-03-12T15:06:14Z</time>
      </trkpt>
      <trkpt lat="48.33467" lon="-0.16913">
        <ele>127.8</ele>
        <time>2016-03-12T15:06:16Z</time>
      </trkpt>
      <trkpt lat="48.33472" lon="-0.16927">
        <ele>127.9</ele>
        <time>2016-03-12T15:06:18Z</time>
      </trkpt>
      <trkpt lat="48.33476" lon="-0.16942">
        <ele>127.9</ele>
        <time>2016-03-12T15:06:20Z</time>
      </trkpt>
      <trkpt lat="48.33479" lon="-0.16958">
        <ele>127.9</ele>
        <time>2016-03-12T15:06:22Z</time>
      </trkpt>
      <trkpt lat="48.3348" lon="-0.16975">
        <ele>128</ele>
        <time>2016-03-12T15:06:24Z</time>
      </trkpt>
      <trkpt lat="48.33479" lon="-0.16993">
        <ele>128</ele>
        <time>2016-03-12T15:06:26Z</time>
      </trkpt>
      <trkpt lat="48.33477" lon="-0.17009">
        <ele>128.1</ele>
        <time>2016-03-12T15:06:28Z</time>
      </trkpt>
      <trkpt lat="48.33475" lon="-0.17024">
        <ele>128.1</ele>
        <time>2016-03-12T15:06:30Z</time>
      </trkpt>
      <trkpt lat="48.33474" lon="-0.17039">
        <ele>128.3</ele>
        <time>2016-03-12T15:06:32Z</time>
      </trkpt>
      <trkpt lat="48.33471" lon="-0.17059">
        <ele>128.6</ele>
        <time>2016-03-12T15:06:35Z</time>
      </trkpt>
      <trkpt lat="48.33468" lon="-0.17072">
        <ele>128.7</ele>
        <time>2016-03-12T15:06:37Z</time>
      </trkpt>
      <trkpt lat="48.33465" lon="-0.17086">
        <ele>128.8</ele>
        <time>2016-03-12T15:06:39Z</time>
      </trkpt>
      <trkpt lat="48.33461" lon="-0.17099">
        <ele>128.9</ele>
        <time>2016-03-12T15:06:41Z</time>
      </trkpt>
      <trkpt lat="48.33455" lon="-0.17117">
        <ele>129.1</ele>
        <time>2016-03-12T15:06:44Z</time>
      </trkpt>
      <trkpt lat="48.33452" lon="-0.17133">
        <ele>129.4</ele>
        <time>2016-03-12T15:06:47Z</time>
      </trkpt>
      <trkpt lat="48.33448" lon="-0.17149">
        <ele>129.6</ele>
        <time>2016-03-12T15:06:50Z</time>
      </trkpt>
      <trkpt lat="48.33447" lon="-0.17166">
        <ele>129.9</ele>
        <time>2016-03-12T15:06:53Z</time>
      </trkpt>
      <trkpt lat="48.33446" lon="-0.1718">
        <ele>130.1</ele>
        <time>2016-03-12T15:06:55Z</time>
      </trkpt>
      <trkpt lat="48.33446" lon="-0.17195">
        <ele>130.3</ele>
        <time>2016-03-12T15:06:57Z</time>
      </trkpt>
      <trkpt lat="48.33446" lon="-0.17212">
        <ele>130.4</ele>
        <time>2016-03-12T15:06:59Z</time>
      </trkpt>
      <trkpt lat="48.33444" lon="-0.1723">
        <ele>130.5</ele>
        <time>2016-03-12T15:07:01Z</time>
      </trkpt>
      <trkpt lat="48.33442" lon="-0.17248">
        <ele>130.6</ele>
        <time>2016-03-12T15:07:03Z</time>
      </trkpt>
      <trkpt lat="48.3344" lon="-0.17264">
        <ele>130.7</ele>
        <time>2016-03-12T15:07:05Z</time>
      </trkpt>
      <trkpt lat="48.33438" lon="-0.1728">
        <ele>130.8</ele>
        <time>2016-03-12T15:07:07Z</time>
      </trkpt>
      <trkpt lat="48.33435" lon="-0.17296">
        <ele>130.8</ele>
        <time>2016-03-12T15:07:09Z</time>
      </trkpt>
      <trkpt lat="48.33431" lon="-0.17311">
        <ele>130.9</ele>
        <time>2016-03-12T15:07:11Z</time>
      </trkpt>
      <trkpt lat="48.3343" lon="-0.17328">
        <ele>130.9</ele>
        <time>2016-03-12T15:07:13Z</time>
      </trkpt>
      <trkpt lat="48.33428" lon="-0.17345">
        <ele>130.9</ele>
        <time>2016-03-12T15:07:15Z</time>
      </trkpt>
      <trkpt lat="48.33427" lon="-0.17361">
        <ele>130.9</ele>
        <time>2016-03-12T15:07:17Z</time>
      </trkpt>
      <trkpt lat="48.33425" lon="-0.17377">
        <ele>130.9</ele>
        <time>2016-03-12T15:07:19Z</time>
      </trkpt>
      <trkpt lat="48.33423" lon="-0.17393">
        <ele>130.9</ele>
        <time>2016-03-12T15:07:21Z</time>
      </trkpt>
      <trkpt lat="48.33423" lon="-0.17411">
        <ele>130.9</ele>
        <time>2016-03-12T15:07:23Z</time>
      </trkpt>
      <trkpt lat="48.33424" lon="-0.17426">
        <ele>131</ele>
        <time>2016-03-12T15:07:25Z</time>
      </trkpt>
      <trkpt lat="48.33426" lon="-0.17441">
        <ele>130.9</ele>
        <time>2016-03-12T15:07:27Z</time>
      </trkpt>
      <trkpt lat="48.33428" lon="-0.17457">
        <ele>131.1</ele>
        <time>2016-03-12T15:07:29Z</time>
      </trkpt>
      <trkpt lat="48.3343" lon="-0.17474">
        <ele>131.2</ele>
        <time>2016-03-12T15:07:31Z</time>
      </trkpt>
      <trkpt lat="48.33432" lon="-0.1749">
        <ele>131.2</ele>
        <time>2016-03-12T15:07:33Z</time>
      </trkpt>
      <trkpt lat="48.33435" lon="-0.17506">
        <ele>131.3</ele>
        <time>2016-03-12T15:07:35Z</time>
      </trkpt>
      <trkpt lat="48.33439" lon="-0.1752">
        <ele>131.4</ele>
        <time>2016-03-12T15:07:37Z</time>
      </trkpt>
      <trkpt lat="48.33444" lon="-0.17533">
        <ele>131.5</ele>
        <time>2016-03-12T15:07:39Z</time>
      </trkpt>
      <trkpt lat="48.33447" lon="-0.17547">
        <ele>131.5</ele>
        <time>2016-03-12T15:07:41Z</time>
      </trkpt>
      <trkpt lat="48.3345" lon="-0.17561">
        <ele>131.6</ele>
        <time>2016-03-12T15:07:43Z</time>
      </trkpt>
      <trkpt lat="48.33452" lon="-0.17577">
        <ele>131.6</ele>
        <time>2016-03-12T15:07:45Z</time>
      </trkpt>
      <trkpt lat="48.33455" lon="-0.17595">
        <ele>131.7</ele>
        <time>2016-03-12T15:07:48Z</time>
      </trkpt>
      <trkpt lat="48.33454" lon="-0.17612">
        <ele>132.1</ele>
        <time>2016-03-12T15:07:51Z</time>
      </trkpt>
      <trkpt lat="48.33454" lon="-0.17628">
        <ele>132.5</ele>
        <time>2016-03-12T15:07:54Z</time>
      </trkpt>
      <trkpt lat="48.33452" lon="-0.17645">
        <ele>133</ele>
        <time>2016-03-12T15:07:57Z</time>
      </trkpt>
      <trkpt lat="48.3345" lon="-0.17663">
        <ele>133.4</ele>
        <time>2016-03-12T15:08:00Z</time>
      </trkpt>
      <trkpt lat="48.33449" lon="-0.17676">
        <ele>133.6</ele>
        <time>2016-03-12T15:08:02Z</time>
      </trkpt>
      <trkpt lat="48.3345" lon="-0.17695">
        <ele>133.6</ele>
        <time>2016-03-12T15:08:04Z</time>
      </trkpt>
      <trkpt lat="48.33452" lon="-0.17712">
        <ele>133.5</ele>
        <time>2016-03-12T15:08:06Z</time>
      </trkpt>
      <trkpt lat="48.33453" lon="-0.17726">
        <ele>133.3</ele>
        <time>2016-03-12T15:08:08Z</time>
      </trkpt>
      <trkpt lat="48.33457" lon="-0.17742">
        <ele>133.2</ele>
        <time>2016-03-12T15:08:10Z</time>
      </trkpt>
      <trkpt lat="48.3346" lon="-0.17756">
        <ele>133.2</ele>
        <time>2016-03-12T15:08:12Z</time>
      </trkpt>
      <trkpt lat="48.33465" lon="-0.17771">
        <ele>132.7</ele>
        <time>2016-03-12T15:08:15Z</time>
      </trkpt>
      <trkpt lat="48.3347" lon="-0.17785">
        <ele>132.4</ele>
        <time>2016-03-12T15:08:18Z</time>
      </trkpt>
      <trkpt lat="48.33476" lon="-0.17804">
        <ele>132.3</ele>
        <time>2016-03-12T15:08:21Z</time>
      </trkpt>
      <trkpt lat="48.33482" lon="-0.17817">
        <ele>132.2</ele>
        <time>2016-03-12T15:08:23Z</time>
      </trkpt>
      <trkpt lat="48.33488" lon="-0.17829">
        <ele>132.2</ele>
        <time>2016-03-12T15:08:25Z</time>
      </trkpt>
      <trkpt lat="48.33495" lon="-0.17839">
        <ele>132.2</ele>
        <time>2016-03-12T15:08:27Z</time>
      </trkpt>
      <trkpt lat="48.33499" lon="-0.17852">
        <ele>132.2</ele>
        <time>2016-03-12T15:08:29Z</time>
      </trkpt>
      <trkpt lat="48.33503" lon="-0.17866">
        <ele>132.2</ele>
        <time>2016-03-12T15:08:31Z</time>
      </trkpt>
      <trkpt lat="48.33504" lon="-0.17882">
        <ele>132.3</ele>
        <time>2016-03-12T15:08:33Z</time>
      </trkpt>
      <trkpt lat="48.33506" lon="-0.17899">
        <ele>132.4</ele>
        <time>2016-03-12T15:08:35Z</time>
      </trkpt>
      <trkpt lat="48.33508" lon="-0.17912">
        <ele>132.6</ele>
        <time>2016-03-12T15:08:37Z</time>
      </trkpt>
      <trkpt lat="48.33509" lon="-0.17926">
        <ele>132.7</ele>
        <time>2016-03-12T15:08:39Z</time>
      </trkpt>
      <trkpt lat="48.33512" lon="-0.17944">
        <ele>133</ele>
        <time>2016-03-12T15:08:42Z</time>
      </trkpt>
      <trkpt lat="48.33516" lon="-0.17958">
        <ele>133.4</ele>
        <time>2016-03-12T15:08:45Z</time>
      </trkpt>
      <trkpt lat="48.3352" lon="-0.17973">
        <ele>134</ele>
        <time>2016-03-12T15:08:49Z</time>
      </trkpt>
      <trkpt lat="48.33524" lon="-0.17987">
        <ele>134.8</ele>
        <time>2016-03-12T15:08:53Z</time>
      </trkpt>
      <trkpt lat="48.33527" lon="-0.18001">
        <ele>135.9</ele>
        <time>2016-03-12T15:08:58Z</time>
      </trkpt>
      <trkpt lat="48.3353" lon="-0.18014">
        <ele>137.2</ele>
        <time>2016-03-12T15:09:03Z</time>
      </trkpt>
      <trkpt lat="48.33531" lon="-0.18028">
        <ele>138.6</ele>
        <time>2016-03-12T15:09:08Z</time>
      </trkpt>
      <trkpt lat="48.3353" lon="-0.18042">
        <ele>140.1</ele>
        <time>2016-03-12T15:09:13Z</time>
      </trkpt>
      <trkpt lat="48.33526" lon="-0.18055">
        <ele>141.5</ele>
        <time>2016-03-12T15:09:18Z</time>
      </trkpt>
      <trkpt lat="48.33518" lon="-0.18065">
        <ele>142.7</ele>
        <time>2016-03-12T15:09:23Z</time>
      </trkpt>
      <trkpt lat="48.3351" lon="-0.18072">
        <ele>143.8</ele>
        <time>2016-03-12T15:09:28Z</time>
      </trkpt>
      <trkpt lat="48.33501" lon="-0.18079">
        <ele>145</ele>
        <time>2016-03-12T15:09:33Z</time>
      </trkpt>
      <trkpt lat="48.33492" lon="-0.18086">
        <ele>145.8</ele>
        <time>2016-03-12T15:09:37Z</time>
      </trkpt>
      <trkpt lat="48.33484" lon="-0.18094">
        <ele>146.6</ele>
        <time>2016-03-12T15:09:41Z</time>
      </trkpt>
      <trkpt lat="48.33476" lon="-0.18101">
        <ele>147.6</ele>
        <time>2016-03-12T15:09:45Z</time>
      </trkpt>
      <trkpt lat="48.33476" lon="-0.18117">
        <ele>148.5</ele>
        <time>2016-03-12T15:09:49Z</time>
      </trkpt>
      <trkpt lat="48.33483" lon="-0.1813">
        <ele>149.1</ele>
        <time>2016-03-12T15:09:52Z</time>
      </trkpt>
      <trkpt lat="48.3349" lon="-0.18141">
        <ele>149.4</ele>
        <time>2016-03-12T15:09:54Z</time>
      </trkpt>
      <trkpt lat="48.33496" lon="-0.18154">
        <ele>149.7</ele>
        <time>2016-03-12T15:09:56Z</time>
      </trkpt>
      <trkpt lat="48.33502" lon="-0.18171">
        <ele>150</ele>
        <time>2016-03-12T15:09:58Z</time>
      </trkpt>
      <trkpt lat="48.33509" lon="-0.1819">
        <ele>150.1</ele>
        <time>2016-03-12T15:10:00Z</time>
      </trkpt>
      <trkpt lat="48.33515" lon="-0.1821">
        <ele>150</ele>
        <time>2016-03-12T15:10:02Z</time>
      </trkpt>
      <trkpt lat="48.33521" lon="-0.18232">
        <ele>149.8</ele>
        <time>2016-03-12T15:10:04Z</time>
      </trkpt>
      <trkpt lat="48.33528" lon="-0.18254">
        <ele>149.6</ele>
        <time>2016-03-12T15:10:06Z</time>
      </trkpt>
      <trkpt lat="48.33535" lon="-0.18275">
        <ele>149.3</ele>
        <time>2016-03-12T15:10:08Z</time>
      </trkpt>
      <trkpt lat="48.33542" lon="-0.18295">
        <ele>149</ele>
        <time>2016-03-12T15:10:10Z</time>
      </trkpt>
      <trkpt lat="48.33547" lon="-0.18314">
        <ele>148.8</ele>
        <time>2016-03-12T15:10:12Z</time>
      </trkpt>
      <trkpt lat="48.33553" lon="-0.18331">
        <ele>148.5</ele>
        <time>2016-03-12T15:10:14Z</time>
      </trkpt>
      <trkpt lat="48.33559" lon="-0.1835">
        <ele>148.2</ele>
        <time>2016-03-12T15:10:16Z</time>
      </trkpt>
      <trkpt lat="48.33566" lon="-0.18371">
        <ele>147.8</ele>
        <time>2016-03-12T15:10:18Z</time>
      </trkpt>
      <trkpt lat="48.33575" lon="-0.18392">
        <ele>147.4</ele>
        <time>2016-03-12T15:10:20Z</time>
      </trkpt>
      <trkpt lat="48.33587" lon="-0.18411">
        <ele>146.9</ele>
        <time>2016-03-12T15:10:22Z</time>
      </trkpt>
      <trkpt lat="48.33601" lon="-0.18427">
        <ele>146.3</ele>
        <time>2016-03-12T15:10:24Z</time>
      </trkpt>
      <trkpt lat="48.33617" lon="-0.18436">
        <ele>145.6</ele>
        <time>2016-03-12T15:10:26Z</time>
      </trkpt>
      <trkpt lat="48.33634" lon="-0.18441">
        <ele>144.9</ele>
        <time>2016-03-12T15:10:28Z</time>
      </trkpt>
      <trkpt lat="48.33651" lon="-0.18441">
        <ele>144.1</ele>
        <time>2016-03-12T15:10:30Z</time>
      </trkpt>
      <trkpt lat="48.33667" lon="-0.1844">
        <ele>143.5</ele>
        <time>2016-03-12T15:10:32Z</time>
      </trkpt>
      <trkpt lat="48.33682" lon="-0.18437">
        <ele>142.9</ele>
        <time>2016-03-12T15:10:34Z</time>
      </trkpt>
      <trkpt lat="48.33696" lon="-0.18434">
        <ele>142.4</ele>
        <time>2016-03-12T15:10:36Z</time>
      </trkpt>
      <trkpt lat="48.33709" lon="-0.18427">
        <ele>141.9</ele>
        <time>2016-03-12T15:10:38Z</time>
      </trkpt>
      <trkpt lat="48.3372" lon="-0.18419">
        <ele>141.5</ele>
        <time>2016-03-12T15:10:40Z</time>
      </trkpt>
      <trkpt lat="48.3373" lon="-0.18409">
        <ele>141.2</ele>
        <time>2016-03-12T15:10:42Z</time>
      </trkpt>
      <trkpt lat="48.33738" lon="-0.18398">
        <ele>141</ele>
        <time>2016-03-12T15:10:44Z</time>
      </trkpt>
      <trkpt lat="48.33746" lon="-0.18387">
        <ele>140.8</ele>
        <time>2016-03-12T15:10:46Z</time>
      </trkpt>
      <trkpt lat="48.33756" lon="-0.18377">
        <ele>140.8</ele>
        <time>2016-03-12T15:10:49Z</time>
      </trkpt>
      <trkpt lat="48.33764" lon="-0.18388">
        <ele>140.8</ele>
        <time>2016-03-12T15:10:52Z</time>
      </trkpt>
      <trkpt lat="48.33765" lon="-0.18403">
        <ele>140.8</ele>
        <time>2016-03-12T15:10:54Z</time>
      </trkpt>
      <trkpt lat="48.33763" lon="-0.18418">
        <ele>140.7</ele>
        <time>2016-03-12T15:10:56Z</time>
      </trkpt>
      <trkpt lat="48.3376" lon="-0.18435">
        <ele>140.7</ele>
        <time>2016-03-12T15:10:58Z</time>
      </trkpt>
      <trkpt lat="48.33757" lon="-0.18452">
        <ele>140.6</ele>
        <time>2016-03-12T15:11:00Z</time>
      </trkpt>
      <trkpt lat="48.33755" lon="-0.18468">
        <ele>140.5</ele>
        <time>2016-03-12T15:11:02Z</time>
      </trkpt>
      <trkpt lat="48.33753" lon="-0.18486">
        <ele>140.3</ele>
        <time>2016-03-12T15:11:04Z</time>
      </trkpt>
      <trkpt lat="48.33752" lon="-0.18503">
        <ele>140</ele>
        <time>2016-03-12T15:11:06Z</time>
      </trkpt>
      <trkpt lat="48.33749" lon="-0.18521">
        <ele>139.8</ele>
        <time>2016-03-12T15:11:08Z</time>
      </trkpt>
      <trkpt lat="48.33747" lon="-0.18538">
        <ele>139.5</ele>
        <time>2016-03-12T15:11:10Z</time>
      </trkpt>
      <trkpt lat="48.33746" lon="-0.18555">
        <ele>139.3</ele>
        <time>2016-03-12T15:11:12Z</time>
      </trkpt>
      <trkpt lat="48.33743" lon="-0.18572">
        <ele>138.7</ele>
        <time>2016-03-12T15:11:14Z</time>
      </trkpt>
      <trkpt lat="48.33739" lon="-0.18588">
        <ele>138.3</ele>
        <time>2016-03-12T15:11:16Z</time>
      </trkpt>
      <trkpt lat="48.33737" lon="-0.18602">
        <ele>138</ele>
        <time>2016-03-12T15:11:18Z</time>
      </trkpt>
      <trkpt lat="48.33734" lon="-0.18619">
        <ele>137.6</ele>
        <time>2016-03-12T15:11:21Z</time>
      </trkpt>
      <trkpt lat="48.33734" lon="-0.18635">
        <ele>137.2</ele>
        <time>2016-03-12T15:11:25Z</time>
      </trkpt>
      <trkpt lat="48.33734" lon="-0.18651">
        <ele>136.9</ele>
        <time>2016-03-12T15:11:28Z</time>
      </trkpt>
      <trkpt lat="48.33735" lon="-0.18671">
        <ele>136.7</ele>
        <time>2016-03-12T15:11:31Z</time>
      </trkpt>
      <trkpt lat="48.33736" lon="-0.18687">
        <ele>136.4</ele>
        <time>2016-03-12T15:11:33Z</time>
      </trkpt>
      <trkpt lat="48.33737" lon="-0.18701">
        <ele>136.2</ele>
        <time>2016-03-12T15:11:35Z</time>
      </trkpt>
      <trkpt lat="48.33739" lon="-0.18715">
        <ele>136.2</ele>
        <time>2016-03-12T15:11:37Z</time>
      </trkpt>
      <trkpt lat="48.33743" lon="-0.18734">
        <ele>136.2</ele>
        <time>2016-03-12T15:11:40Z</time>
      </trkpt>
      <trkpt lat="48.33745" lon="-0.1875">
        <ele>136.2</ele>
        <time>2016-03-12T15:11:42Z</time>
      </trkpt>
      <trkpt lat="48.33747" lon="-0.18765">
        <ele>136.2</ele>
        <time>2016-03-12T15:11:44Z</time>
      </trkpt>
      <trkpt lat="48.33748" lon="-0.18779">
        <ele>136.3</ele>
        <time>2016-03-12T15:11:46Z</time>
      </trkpt>
      <trkpt lat="48.33749" lon="-0.18798">
        <ele>136.3</ele>
        <time>2016-03-12T15:11:48Z</time>
      </trkpt>
      <trkpt lat="48.33751" lon="-0.18813">
        <ele>136.3</ele>
        <time>2016-03-12T15:11:50Z</time>
      </trkpt>
      <trkpt lat="48.33753" lon="-0.18828">
        <ele>136.3</ele>
        <time>2016-03-12T15:11:52Z</time>
      </trkpt>
      <trkpt lat="48.33757" lon="-0.18842">
        <ele>136.1</ele>
        <time>2016-03-12T15:11:54Z</time>
      </trkpt>
      <trkpt lat="48.33761" lon="-0.18854">
        <ele>136</ele>
        <time>2016-03-12T15:11:56Z</time>
      </trkpt>
      <trkpt lat="48.33766" lon="-0.18871">
        <ele>136</ele>
        <time>2016-03-12T15:11:59Z</time>
      </trkpt>
      <trkpt lat="48.33772" lon="-0.18886">
        <ele>136</ele>
        <time>2016-03-12T15:12:02Z</time>
      </trkpt>
      <trkpt lat="48.3378" lon="-0.18901">
        <ele>136</ele>
        <time>2016-03-12T15:12:05Z</time>
      </trkpt>
      <trkpt lat="48.33785" lon="-0.18912">
        <ele>135.9</ele>
        <time>2016-03-12T15:12:07Z</time>
      </trkpt>
      <trkpt lat="48.33793" lon="-0.18925">
        <ele>135.9</ele>
        <time>2016-03-12T15:12:10Z</time>
      </trkpt>
      <trkpt lat="48.33798" lon="-0.1894">
        <ele>135.9</ele>
        <time>2016-03-12T15:12:12Z</time>
      </trkpt>
      <trkpt lat="48.33803" lon="-0.18953">
        <ele>135.9</ele>
        <time>2016-03-12T15:12:14Z</time>
      </trkpt>
      <trkpt lat="48.33808" lon="-0.18965">
        <ele>135.9</ele>
        <time>2016-03-12T15:12:16Z</time>
      </trkpt>
      <trkpt lat="48.33812" lon="-0.18978">
        <ele>135.9</ele>
        <time>2016-03-12T15:12:18Z</time>
      </trkpt>
      <trkpt lat="48.33818" lon="-0.18994">
        <ele>135.9</ele>
        <time>2016-03-12T15:12:21Z</time>
      </trkpt>
      <trkpt lat="48.33823" lon="-0.19007">
        <ele>135.8</ele>
        <time>2016-03-12T15:12:23Z</time>
      </trkpt>
      <trkpt lat="48.33828" lon="-0.19023">
        <ele>135.7</ele>
        <time>2016-03-12T15:12:25Z</time>
      </trkpt>
      <trkpt lat="48.33831" lon="-0.19036">
        <ele>135.5</ele>
        <time>2016-03-12T15:12:27Z</time>
      </trkpt>
      <trkpt lat="48.33834" lon="-0.19049">
        <ele>135.6</ele>
        <time>2016-03-12T15:12:29Z</time>
      </trkpt>
      <trkpt lat="48.33839" lon="-0.19067">
        <ele>135.7</ele>
        <time>2016-03-12T15:12:32Z</time>
      </trkpt>
      <trkpt lat="48.33842" lon="-0.19085">
        <ele>135.7</ele>
        <time>2016-03-12T15:12:35Z</time>
      </trkpt>
      <trkpt lat="48.33846" lon="-0.19102">
        <ele>135.9</ele>
        <time>2016-03-12T15:12:38Z</time>
      </trkpt>
      <trkpt lat="48.33848" lon="-0.19116">
        <ele>136</ele>
        <time>2016-03-12T15:12:40Z</time>
      </trkpt>
      <trkpt lat="48.3385" lon="-0.1913">
        <ele>136.1</ele>
        <time>2016-03-12T15:12:42Z</time>
      </trkpt>
      <trkpt lat="48.33852" lon="-0.19145">
        <ele>136.3</ele>
        <time>2016-03-12T15:12:44Z</time>
      </trkpt>
      <trkpt lat="48.33854" lon="-0.19165">
        <ele>136.6</ele>
        <time>2016-03-12T15:12:47Z</time>
      </trkpt>
      <trkpt lat="48.33856" lon="-0.19185">
        <ele>136.9</ele>
        <time>2016-03-12T15:12:50Z</time>
      </trkpt>
      <trkpt lat="48.33858" lon="-0.19199">
        <ele>137</ele>
        <time>2016-03-12T15:12:52Z</time>
      </trkpt>
      <trkpt lat="48.3386" lon="-0.19213">
        <ele>137.1</ele>
        <time>2016-03-12T15:12:54Z</time>
      </trkpt>
      <trkpt lat="48.33863" lon="-0.19227">
        <ele>137.3</ele>
        <time>2016-03-12T15:12:56Z</time>
      </trkpt>
      <trkpt lat="48.33869" lon="-0.19238">
        <ele>137.4</ele>
        <time>2016-03-12T15:12:58Z</time>
      </trkpt>
      <trkpt lat="48.33876" lon="-0.19249">
        <ele>137.5</ele>
        <time>2016-03-12T15:13:01Z</time>
      </trkpt>
      <trkpt lat="48.33884" lon="-0.19261">
        <ele>137.6</ele>
        <time>2016-03-12T15:13:04Z</time>
      </trkpt>
      <trkpt lat="48.33881" lon="-0.19274">
        <ele>137.5</ele>
        <time>2016-03-12T15:13:08Z</time>
      </trkpt>
      <trkpt lat="48.33873" lon="-0.19285">
        <ele>137.4</ele>
        <time>2016-03-12T15:13:11Z</time>
      </trkpt>
      <trkpt lat="48.33866" lon="-0.19294">
        <ele>137.4</ele>
        <time>2016-03-12T15:13:13Z</time>
      </trkpt>
      <trkpt lat="48.33856" lon="-0.19306">
        <ele>137.3</ele>
        <time>2016-03-12T15:13:16Z</time>
      </trkpt>
      <trkpt lat="48.33848" lon="-0.19316">
        <ele>137.3</ele>
        <time>2016-03-12T15:13:20Z</time>
      </trkpt>
      <trkpt lat="48.33849" lon="-0.19331">
        <ele>137.2</ele>
        <time>2016-03-12T15:13:23Z</time>
      </trkpt>
      <trkpt lat="48.33849" lon="-0.19348">
        <ele>137.2</ele>
        <time>2016-03-12T15:13:26Z</time>
      </trkpt>
      <trkpt lat="48.33849" lon="-0.19362">
        <ele>137.2</ele>
        <time>2016-03-12T15:13:29Z</time>
      </trkpt>
      <trkpt lat="48.33848" lon="-0.19376">
        <ele>137.4</ele>
        <time>2016-03-12T15:13:32Z</time>
      </trkpt>
      <trkpt lat="48.33846" lon="-0.19392">
        <ele>137.8</ele>
        <time>2016-03-12T15:13:36Z</time>
      </trkpt>
      <trkpt lat="48.33843" lon="-0.19406">
        <ele>138.3</ele>
        <time>2016-03-12T15:13:40Z</time>
      </trkpt>
      <trkpt lat="48.3384" lon="-0.1942">
        <ele>139</ele>
        <time>2016-03-12T15:13:44Z</time>
      </trkpt>
      <trkpt lat="48.33835" lon="-0.19434">
        <ele>140.2</ele>
        <time>2016-03-12T15:13:50Z</time>
      </trkpt>
      <trkpt lat="48.33831" lon="-0.19446">
        <ele>141</ele>
        <time>2016-03-12T15:13:54Z</time>
      </trkpt>
      <trkpt lat="48.33826" lon="-0.19462">
        <ele>142.1</ele>
        <time>2016-03-12T15:13:59Z</time>
      </trkpt>
      <trkpt lat="48.33823" lon="-0.19478">
        <ele>142.9</ele>
        <time>2016-03-12T15:14:03Z</time>
      </trkpt>
      <trkpt lat="48.33819" lon="-0.19493">
        <ele>144</ele>
        <time>2016-03-12T15:14:08Z</time>
      </trkpt>
      <trkpt lat="48.33816" lon="-0.19506">
        <ele>144.8</ele>
        <time>2016-03-12T15:14:12Z</time>
      </trkpt>
      <trkpt lat="48.33813" lon="-0.19521">
        <ele>146</ele>
        <time>2016-03-12T15:14:17Z</time>
      </trkpt>
      <trkpt lat="48.33809" lon="-0.19535">
        <ele>147</ele>
        <time>2016-03-12T15:14:22Z</time>
      </trkpt>
      <trkpt lat="48.33805" lon="-0.19549">
        <ele>148</ele>
        <time>2016-03-12T15:14:27Z</time>
      </trkpt>
      <trkpt lat="48.33798" lon="-0.19561">
        <ele>149.1</ele>
        <time>2016-03-12T15:14:32Z</time>
      </trkpt>
      <trkpt lat="48.33792" lon="-0.19576">
        <ele>150</ele>
        <time>2016-03-12T15:14:36Z</time>
      </trkpt>
      <trkpt lat="48.33786" lon="-0.19587">
        <ele>151</ele>
        <time>2016-03-12T15:14:40Z</time>
      </trkpt>
      <trkpt lat="48.33778" lon="-0.19598">
        <ele>152.4</ele>
        <time>2016-03-12T15:14:45Z</time>
      </trkpt>
      <trkpt lat="48.33771" lon="-0.19609">
        <ele>153.7</ele>
        <time>2016-03-12T15:14:50Z</time>
      </trkpt>
      <trkpt lat="48.33764" lon="-0.19621">
        <ele>155.1</ele>
        <time>2016-03-12T15:14:55Z</time>
      </trkpt>
      <trkpt lat="48.33756" lon="-0.19633">
        <ele>156.3</ele>
        <time>2016-03-12T15:15:00Z</time>
      </trkpt>
      <trkpt lat="48.3375" lon="-0.19643">
        <ele>157.3</ele>
        <time>2016-03-12T15:15:04Z</time>
      </trkpt>
      <trkpt lat="48.33744" lon="-0.19655">
        <ele>158.2</ele>
        <time>2016-03-12T15:15:08Z</time>
      </trkpt>
      <trkpt lat="48.33737" lon="-0.19667">
        <ele>159</ele>
        <time>2016-03-12T15:15:12Z</time>
      </trkpt>
      <trkpt lat="48.33732" lon="-0.19679">
        <ele>159.9</ele>
        <time>2016-03-12T15:15:16Z</time>
      </trkpt>
      <trkpt lat="48.33726" lon="-0.1969">
        <ele>160.7</ele>
        <time>2016-03-12T15:15:20Z</time>
      </trkpt>
      <trkpt lat="48.33719" lon="-0.19701">
        <ele>161.6</ele>
        <time>2016-03-12T15:15:24Z</time>
      </trkpt>
      <trkpt lat="48.33713" lon="-0.19712">
        <ele>162.5</ele>
        <time>2016-03-12T15:15:28Z</time>
      </trkpt>
      <trkpt lat="48.33706" lon="-0.19723">
        <ele>163.5</ele>
        <time>2016-03-12T15:15:32Z</time>
      </trkpt>
      <trkpt lat="48.337" lon="-0.19734">
        <ele>164.4</ele>
        <time>2016-03-12T15:15:36Z</time>
      </trkpt>
      <trkpt lat="48.33694" lon="-0.19744">
        <ele>165.4</ele>
        <time>2016-03-12T15:15:40Z</time>
      </trkpt>
      <trkpt lat="48.33686" lon="-0.19756">
        <ele>166.6</ele>
        <time>2016-03-12T15:15:45Z</time>
      </trkpt>
      <trkpt lat="48.33678" lon="-0.19767">
        <ele>167.9</ele>
        <time>2016-03-12T15:15:50Z</time>
      </trkpt>
      <trkpt lat="48.33671" lon="-0.19776">
        <ele>168.8</ele>
        <time>2016-03-12T15:15:54Z</time>
      </trkpt>
      <trkpt lat="48.33663" lon="-0.19785">
        <ele>169.8</ele>
        <time>2016-03-12T15:15:58Z</time>
      </trkpt>
      <trkpt lat="48.33657" lon="-0.19795">
        <ele>170.8</ele>
        <time>2016-03-12T15:16:02Z</time>
      </trkpt>
      <trkpt lat="48.3365" lon="-0.19806">
        <ele>171.8</ele>
        <time>2016-03-12T15:16:06Z</time>
      </trkpt>
      <trkpt lat="48.33645" lon="-0.19818">
        <ele>172.8</ele>
        <time>2016-03-12T15:16:10Z</time>
      </trkpt>
      <trkpt lat="48.33641" lon="-0.19831">
        <ele>173.8</ele>
        <time>2016-03-12T15:16:14Z</time>
      </trkpt>
      <trkpt lat="48.33638" lon="-0.19844">
        <ele>174.8</ele>
        <time>2016-03-12T15:16:18Z</time>
      </trkpt>
      <trkpt lat="48.33635" lon="-0.19857">
        <ele>175.8</ele>
        <time>2016-03-12T15:16:22Z</time>
      </trkpt>
      <trkpt lat="48.33633" lon="-0.19871">
        <ele>176.8</ele>
        <time>2016-03-12T15:16:26Z</time>
      </trkpt>
      <trkpt lat="48.3363" lon="-0.19884">
        <ele>177.6</ele>
        <time>2016-03-12T15:16:30Z</time>
      </trkpt>
      <trkpt lat="48.33627" lon="-0.19897">
        <ele>178.5</ele>
        <time>2016-03-12T15:16:34Z</time>
      </trkpt>
      <trkpt lat="48.33625" lon="-0.19911">
        <ele>179.5</ele>
        <time>2016-03-12T15:16:38Z</time>
      </trkpt>
      <trkpt lat="48.33623" lon="-0.19924">
        <ele>180.3</ele>
        <time>2016-03-12T15:16:42Z</time>
      </trkpt>
      <trkpt lat="48.3362" lon="-0.19938">
        <ele>181.2</ele>
        <time>2016-03-12T15:16:46Z</time>
      </trkpt>
      <trkpt lat="48.33617" lon="-0.19953">
        <ele>182.1</ele>
        <time>2016-03-12T15:16:50Z</time>
      </trkpt>
      <trkpt lat="48.33614" lon="-0.19967">
        <ele>183</ele>
        <time>2016-03-12T15:16:54Z</time>
      </trkpt>
      <trkpt lat="48.33609" lon="-0.19979">
        <ele>184.1</ele>
        <time>2016-03-12T15:16:58Z</time>
      </trkpt>
      <trkpt lat="48.33605" lon="-0.19993">
        <ele>185.1</ele>
        <time>2016-03-12T15:17:02Z</time>
      </trkpt>
      <trkpt lat="48.33599" lon="-0.20005">
        <ele>186.1</ele>
        <time>2016-03-12T15:17:06Z</time>
      </trkpt>
      <trkpt lat="48.33594" lon="-0.20017">
        <ele>187.1</ele>
        <time>2016-03-12T15:17:10Z</time>
      </trkpt>
      <trkpt lat="48.33587" lon="-0.20028">
        <ele>188.2</ele>
        <time>2016-03-12T15:17:14Z</time>
      </trkpt>
      <trkpt lat="48.3358" lon="-0.20038">
        <ele>189.2</ele>
        <time>2016-03-12T15:17:18Z</time>
      </trkpt>
      <trkpt lat="48.33572" lon="-0.20047">
        <ele>190.1</ele>
        <time>2016-03-12T15:17:22Z</time>
      </trkpt>
      <trkpt lat="48.33564" lon="-0.20057">
        <ele>190.9</ele>
        <time>2016-03-12T15:17:26Z</time>
      </trkpt>
      <trkpt lat="48.33555" lon="-0.20065">
        <ele>191.8</ele>
        <time>2016-03-12T15:17:30Z</time>
      </trkpt>
      <trkpt lat="48.33548" lon="-0.20076">
        <ele>192.7</ele>
        <time>2016-03-12T15:17:34Z</time>
      </trkpt>
      <trkpt lat="48.33546" lon="-0.20094">
        <ele>193.6</ele>
        <time>2016-03-12T15:17:38Z</time>
      </trkpt>
      <trkpt lat="48.33544" lon="-0.2011">
        <ele>194.1</ele>
        <time>2016-03-12T15:17:41Z</time>
      </trkpt>
      <trkpt lat="48.3354" lon="-0.20127">
        <ele>194.6</ele>
        <time>2016-03-12T15:17:44Z</time>
      </trkpt>
      <trkpt lat="48.33536" lon="-0.20146">
        <ele>195</ele>
        <time>2016-03-12T15:17:47Z</time>
      </trkpt>
      <trkpt lat="48.33533" lon="-0.20159">
        <ele>195.2</ele>
        <time>2016-03-12T15:17:49Z</time>
      </trkpt>
      <trkpt lat="48.3353" lon="-0.20177">
        <ele>195.5</ele>
        <time>2016-03-12T15:17:52Z</time>
      </trkpt>
      <trkpt lat="48.33528" lon="-0.20196">
        <ele>195.8</ele>
        <time>2016-03-12T15:17:55Z</time>
      </trkpt>
      <trkpt lat="48.33527" lon="-0.20216">
        <ele>196</ele>
        <time>2016-03-12T15:17:58Z</time>
      </trkpt>
      <trkpt lat="48.33526" lon="-0.2023">
        <ele>196.2</ele>
        <time>2016-03-12T15:18:00Z</time>
      </trkpt>
      <trkpt lat="48.33525" lon="-0.20248">
        <ele>196.4</ele>
        <time>2016-03-12T15:18:03Z</time>
      </trkpt>
      <trkpt lat="48.33523" lon="-0.20264">
        <ele>196.6</ele>
        <time>2016-03-12T15:18:06Z</time>
      </trkpt>
      <trkpt lat="48.33521" lon="-0.2028">
        <ele>197</ele>
        <time>2016-03-12T15:18:09Z</time>
      </trkpt>
      <trkpt lat="48.33518" lon="-0.20297">
        <ele>197.4</ele>
        <time>2016-03-12T15:18:12Z</time>
      </trkpt>
      <trkpt lat="48.33516" lon="-0.20313">
        <ele>197.7</ele>
        <time>2016-03-12T15:18:15Z</time>
      </trkpt>
      <trkpt lat="48.33514" lon="-0.2033">
        <ele>198.2</ele>
        <time>2016-03-12T15:18:18Z</time>
      </trkpt>
      <trkpt lat="48.33511" lon="-0.20346">
        <ele>198.6</ele>
        <time>2016-03-12T15:18:21Z</time>
      </trkpt>
      <trkpt lat="48.33508" lon="-0.20363">
        <ele>199.1</ele>
        <time>2016-03-12T15:18:24Z</time>
      </trkpt>
      <trkpt lat="48.33505" lon="-0.20382">
        <ele>199.6</ele>
        <time>2016-03-12T15:18:27Z</time>
      </trkpt>
      <trkpt lat="48.33502" lon="-0.204">
        <ele>200.1</ele>
        <time>2016-03-12T15:18:30Z</time>
      </trkpt>
      <trkpt lat="48.33499" lon="-0.20419">
        <ele>200.6</ele>
        <time>2016-03-12T15:18:33Z</time>
      </trkpt>
      <trkpt lat="48.33497" lon="-0.20439">
        <ele>201</ele>
        <time>2016-03-12T15:18:36Z</time>
      </trkpt>
      <trkpt lat="48.33495" lon="-0.20453">
        <ele>201.2</ele>
        <time>2016-03-12T15:18:38Z</time>
      </trkpt>
      <trkpt lat="48.33494" lon="-0.20466">
        <ele>201.4</ele>
        <time>2016-03-12T15:18:40Z</time>
      </trkpt>
      <trkpt lat="48.33494" lon="-0.20486">
        <ele>201.7</ele>
        <time>2016-03-12T15:18:43Z</time>
      </trkpt>
      <trkpt lat="48.33495" lon="-0.20501">
        <ele>201.9</ele>
        <time>2016-03-12T15:18:45Z</time>
      </trkpt>
      <trkpt lat="48.33496" lon="-0.20519">
        <ele>202.1</ele>
        <time>2016-03-12T15:18:48Z</time>
      </trkpt>
      <trkpt lat="48.33498" lon="-0.20532">
        <ele>202.2</ele>
        <time>2016-03-12T15:18:50Z</time>
      </trkpt>
      <trkpt lat="48.33499" lon="-0.20546">
        <ele>202.3</ele>
        <time>2016-03-12T15:18:52Z</time>
      </trkpt>
      <trkpt lat="48.33499" lon="-0.20561">
        <ele>202.3</ele>
        <time>2016-03-12T15:18:54Z</time>
      </trkpt>
      <trkpt lat="48.33498" lon="-0.20578">
        <ele>202.4</ele>
        <time>2016-03-12T15:18:56Z</time>
      </trkpt>
      <trkpt lat="48.33496" lon="-0.20596">
        <ele>202.4</ele>
        <time>2016-03-12T15:18:58Z</time>
      </trkpt>
      <trkpt lat="48.33494" lon="-0.20612">
        <ele>202.4</ele>
        <time>2016-03-12T15:19:00Z</time>
      </trkpt>
      <trkpt lat="48.33492" lon="-0.20627">
        <ele>202.5</ele>
        <time>2016-03-12T15:19:02Z</time>
      </trkpt>
      <trkpt lat="48.3349" lon="-0.20642">
        <ele>202.5</ele>
        <time>2016-03-12T15:19:04Z</time>
      </trkpt>
      <trkpt lat="48.33488" lon="-0.20657">
        <ele>202.5</ele>
        <time>2016-03-12T15:19:06Z</time>
      </trkpt>
      <trkpt lat="48.33485" lon="-0.20672">
        <ele>202.5</ele>
        <time>2016-03-12T15:19:09Z</time>
      </trkpt>
      <trkpt lat="48.33483" lon="-0.20687">
        <ele>202.2</ele>
        <time>2016-03-12T15:19:40Z</time>
      </trkpt>
      <trkpt lat="48.3348" lon="-0.20701">
        <ele>202.2</ele>
        <time>2016-03-12T15:19:44Z</time>
      </trkpt>
      <trkpt lat="48.33477" lon="-0.20719">
        <ele>202.2</ele>
        <time>2016-03-12T15:19:47Z</time>
      </trkpt>
      <trkpt lat="48.33475" lon="-0.20735">
        <ele>202.1</ele>
        <time>2016-03-12T15:19:49Z</time>
      </trkpt>
      <trkpt lat="48.33473" lon="-0.20751">
        <ele>202.1</ele>
        <time>2016-03-12T15:19:51Z</time>
      </trkpt>
      <trkpt lat="48.33471" lon="-0.20767">
        <ele>202</ele>
        <time>2016-03-12T15:19:53Z</time>
      </trkpt>
      <trkpt lat="48.33468" lon="-0.20783">
        <ele>201.7</ele>
        <time>2016-03-12T15:19:55Z</time>
      </trkpt>
      <trkpt lat="48.33466" lon="-0.20799">
        <ele>201.4</ele>
        <time>2016-03-12T15:19:57Z</time>
      </trkpt>
      <trkpt lat="48.33463" lon="-0.20815">
        <ele>201.2</ele>
        <time>2016-03-12T15:19:59Z</time>
      </trkpt>
      <trkpt lat="48.3346" lon="-0.2083">
        <ele>201</ele>
        <time>2016-03-12T15:20:01Z</time>
      </trkpt>
      <trkpt lat="48.33457" lon="-0.20845">
        <ele>200.8</ele>
        <time>2016-03-12T15:20:03Z</time>
      </trkpt>
      <trkpt lat="48.33454" lon="-0.20861">
        <ele>200.6</ele>
        <time>2016-03-12T15:20:05Z</time>
      </trkpt>
      <trkpt lat="48.33452" lon="-0.20877">
        <ele>200.5</ele>
        <time>2016-03-12T15:20:07Z</time>
      </trkpt>
      <trkpt lat="48.33449" lon="-0.20892">
        <ele>200.4</ele>
        <time>2016-03-12T15:20:09Z</time>
      </trkpt>
      <trkpt lat="48.33446" lon="-0.20906">
        <ele>200.3</ele>
        <time>2016-03-12T15:20:11Z</time>
      </trkpt>
      <trkpt lat="48.33443" lon="-0.20921">
        <ele>200.2</ele>
        <time>2016-03-12T15:20:13Z</time>
      </trkpt>
      <trkpt lat="48.3344" lon="-0.20936">
        <ele>200.2</ele>
        <time>2016-03-12T15:20:15Z</time>
      </trkpt>
      <trkpt lat="48.33438" lon="-0.20951">
        <ele>200.1</ele>
        <time>2016-03-12T15:20:17Z</time>
      </trkpt>
      <trkpt lat="48.33435" lon="-0.20965">
        <ele>200.2</ele>
        <time>2016-03-12T15:20:19Z</time>
      </trkpt>
      <trkpt lat="48.3343" lon="-0.20982">
        <ele>200.3</ele>
        <time>2016-03-12T15:20:22Z</time>
      </trkpt>
      <trkpt lat="48.33425" lon="-0.20997">
        <ele>200.7</ele>
        <time>2016-03-12T15:20:25Z</time>
      </trkpt>
      <trkpt lat="48.33419" lon="-0.21013">
        <ele>201.1</ele>
        <time>2016-03-12T15:20:28Z</time>
      </trkpt>
      <trkpt lat="48.33412" lon="-0.2103">
        <ele>201.6</ele>
        <time>2016-03-12T15:20:31Z</time>
      </trkpt>
      <trkpt lat="48.33407" lon="-0.21045">
        <ele>202</ele>
        <time>2016-03-12T15:20:34Z</time>
      </trkpt>
      <trkpt lat="48.334" lon="-0.21062">
        <ele>202.4</ele>
        <time>2016-03-12T15:20:37Z</time>
      </trkpt>
      <trkpt lat="48.33394" lon="-0.21077">
        <ele>202.6</ele>
        <time>2016-03-12T15:20:40Z</time>
      </trkpt>
      <trkpt lat="48.33387" lon="-0.21093">
        <ele>202.9</ele>
        <time>2016-03-12T15:20:43Z</time>
      </trkpt>
      <trkpt lat="48.33379" lon="-0.21109">
        <ele>203.1</ele>
        <time>2016-03-12T15:20:46Z</time>
      </trkpt>
      <trkpt lat="48.33372" lon="-0.21125">
        <ele>203.2</ele>
        <time>2016-03-12T15:20:49Z</time>
      </trkpt>
      <trkpt lat="48.33364" lon="-0.21139">
        <ele>203.3</ele>
        <time>2016-03-12T15:20:52Z</time>
      </trkpt>
      <trkpt lat="48.33358" lon="-0.21154">
        <ele>203.5</ele>
        <time>2016-03-12T15:20:55Z</time>
      </trkpt>
      <trkpt lat="48.33351" lon="-0.21169">
        <ele>203.7</ele>
        <time>2016-03-12T15:20:58Z</time>
      </trkpt>
      <trkpt lat="48.33346" lon="-0.21184">
        <ele>203.8</ele>
        <time>2016-03-12T15:21:01Z</time>
      </trkpt>
      <trkpt lat="48.33349" lon="-0.21202">
        <ele>203.9</ele>
        <time>2016-03-12T15:21:04Z</time>
      </trkpt>
      <trkpt lat="48.33353" lon="-0.21215">
        <ele>203.9</ele>
        <time>2016-03-12T15:21:06Z</time>
      </trkpt>
      <trkpt lat="48.33355" lon="-0.21232">
        <ele>204</ele>
        <time>2016-03-12T15:21:08Z</time>
      </trkpt>
      <trkpt lat="48.33358" lon="-0.21249">
        <ele>203.9</ele>
        <time>2016-03-12T15:21:10Z</time>
      </trkpt>
      <trkpt lat="48.33362" lon="-0.21268">
        <ele>203.8</ele>
        <time>2016-03-12T15:21:12Z</time>
      </trkpt>
      <trkpt lat="48.33365" lon="-0.21287">
        <ele>203.5</ele>
        <time>2016-03-12T15:21:14Z</time>
      </trkpt>
      <trkpt lat="48.33368" lon="-0.21308">
        <ele>202.9</ele>
        <time>2016-03-12T15:21:16Z</time>
      </trkpt>
      <trkpt lat="48.33371" lon="-0.21331">
        <ele>202.4</ele>
        <time>2016-03-12T15:21:18Z</time>
      </trkpt>
      <trkpt lat="48.33375" lon="-0.21354">
        <ele>201.9</ele>
        <time>2016-03-12T15:21:20Z</time>
      </trkpt>
      <trkpt lat="48.33378" lon="-0.21377">
        <ele>201.3</ele>
        <time>2016-03-12T15:21:22Z</time>
      </trkpt>
      <trkpt lat="48.33381" lon="-0.21399">
        <ele>200.4</ele>
        <time>2016-03-12T15:21:24Z</time>
      </trkpt>
      <trkpt lat="48.33383" lon="-0.21419">
        <ele>199.6</ele>
        <time>2016-03-12T15:21:26Z</time>
      </trkpt>
      <trkpt lat="48.33383" lon="-0.21436">
        <ele>198.9</ele>
        <time>2016-03-12T15:21:28Z</time>
      </trkpt>
      <trkpt lat="48.33385" lon="-0.21452">
        <ele>197.4</ele>
        <time>2016-03-12T15:21:31Z</time>
      </trkpt>
      <trkpt lat="48.33393" lon="-0.21461">
        <ele>195.8</ele>
        <time>2016-03-12T15:21:35Z</time>
      </trkpt>
      <trkpt lat="48.33402" lon="-0.21469">
        <ele>194.8</ele>
        <time>2016-03-12T15:21:38Z</time>
      </trkpt>
      <trkpt lat="48.33414" lon="-0.21478">
        <ele>193.4</ele>
        <time>2016-03-12T15:21:41Z</time>
      </trkpt>
      <trkpt lat="48.33424" lon="-0.21491">
        <ele>191.5</ele>
        <time>2016-03-12T15:21:44Z</time>
      </trkpt>
      <trkpt lat="48.3343" lon="-0.21503">
        <ele>190.3</ele>
        <time>2016-03-12T15:21:46Z</time>
      </trkpt>
      <trkpt lat="48.33435" lon="-0.21515">
        <ele>189</ele>
        <time>2016-03-12T15:21:48Z</time>
      </trkpt>
      <trkpt lat="48.33441" lon="-0.21528">
        <ele>187.8</ele>
        <time>2016-03-12T15:21:50Z</time>
      </trkpt>
      <trkpt lat="48.33442" lon="-0.21545">
        <ele>186</ele>
        <time>2016-03-12T15:21:53Z</time>
      </trkpt>
      <trkpt lat="48.33435" lon="-0.21555">
        <ele>184.5</ele>
        <time>2016-03-12T15:21:56Z</time>
      </trkpt>
      <trkpt lat="48.33425" lon="-0.21561">
        <ele>182.9</ele>
        <time>2016-03-12T15:22:00Z</time>
      </trkpt>
      <trkpt lat="48.33417" lon="-0.21566">
        <ele>182.1</ele>
        <time>2016-03-12T15:22:03Z</time>
      </trkpt>
      <trkpt lat="48.33408" lon="-0.21573">
        <ele>181.4</ele>
        <time>2016-03-12T15:22:06Z</time>
      </trkpt>
      <trkpt lat="48.33398" lon="-0.21579">
        <ele>180.9</ele>
        <time>2016-03-12T15:22:09Z</time>
      </trkpt>
      <trkpt lat="48.3339" lon="-0.21587">
        <ele>180.6</ele>
        <time>2016-03-12T15:22:12Z</time>
      </trkpt>
      <trkpt lat="48.33384" lon="-0.21601">
        <ele>180</ele>
        <time>2016-03-12T15:22:15Z</time>
      </trkpt>
      <trkpt lat="48.33371" lon="-0.21607">
        <ele>178.8</ele>
        <time>2016-03-12T15:22:18Z</time>
      </trkpt>
      <trkpt lat="48.33362" lon="-0.21608">
        <ele>178</ele>
        <time>2016-03-12T15:22:20Z</time>
      </trkpt>
      <trkpt lat="48.3335" lon="-0.21615">
        <ele>177</ele>
        <time>2016-03-12T15:22:23Z</time>
      </trkpt>
      <trkpt lat="48.3334" lon="-0.21623">
        <ele>176.2</ele>
        <time>2016-03-12T15:22:26Z</time>
      </trkpt>
      <trkpt lat="48.3333" lon="-0.21631">
        <ele>175.7</ele>
        <time>2016-03-12T15:22:29Z</time>
      </trkpt>
      <trkpt lat="48.33321" lon="-0.21637">
        <ele>175.3</ele>
        <time>2016-03-12T15:22:32Z</time>
      </trkpt>
      <trkpt lat="48.33312" lon="-0.21646">
        <ele>175.1</ele>
        <time>2016-03-12T15:22:34Z</time>
      </trkpt>
      <trkpt lat="48.33305" lon="-0.21661">
        <ele>174.4</ele>
        <time>2016-03-12T15:22:36Z</time>
      </trkpt>
      <trkpt lat="48.33297" lon="-0.21681">
        <ele>173.4</ele>
        <time>2016-03-12T15:22:38Z</time>
      </trkpt>
      <trkpt lat="48.33288" lon="-0.21703">
        <ele>171.8</ele>
        <time>2016-03-12T15:22:40Z</time>
      </trkpt>
      <trkpt lat="48.33279" lon="-0.21722">
        <ele>170.2</ele>
        <time>2016-03-12T15:22:42Z</time>
      </trkpt>
      <trkpt lat="48.33271" lon="-0.21737">
        <ele>168.7</ele>
        <time>2016-03-12T15:22:44Z</time>
      </trkpt>
      <trkpt lat="48.33262" lon="-0.21748">
        <ele>167.2</ele>
        <time>2016-03-12T15:22:46Z</time>
      </trkpt>
      <trkpt lat="48.33266" lon="-0.21762">
        <ele>164.6</ele>
        <time>2016-03-12T15:22:50Z</time>
      </trkpt>
      <trkpt lat="48.33277" lon="-0.2175">
        <ele>162.6</ele>
        <time>2016-03-12T15:22:53Z</time>
      </trkpt>
      <trkpt lat="48.33284" lon="-0.21739">
        <ele>161.2</ele>
        <time>2016-03-12T15:22:55Z</time>
      </trkpt>
      <trkpt lat="48.33294" lon="-0.21728">
        <ele>160</ele>
        <time>2016-03-12T15:22:57Z</time>
      </trkpt>
      <trkpt lat="48.33305" lon="-0.21718">
        <ele>158.6</ele>
        <time>2016-03-12T15:22:59Z</time>
      </trkpt>
      <trkpt lat="48.33315" lon="-0.21709">
        <ele>157.4</ele>
        <time>2016-03-12T15:23:01Z</time>
      </trkpt>
      <trkpt lat="48.33324" lon="-0.21703">
        <ele>156.3</ele>
        <time>2016-03-12T15:23:03Z</time>
      </trkpt>
      <trkpt lat="48.33334" lon="-0.21698">
        <ele>155.4</ele>
        <time>2016-03-12T15:23:05Z</time>
      </trkpt>
      <trkpt lat="48.33346" lon="-0.21695">
        <ele>154.2</ele>
        <time>2016-03-12T15:23:08Z</time>
      </trkpt>
      <trkpt lat="48.33357" lon="-0.21694">
        <ele>153.4</ele>
        <time>2016-03-12T15:23:10Z</time>
      </trkpt>
      <trkpt lat="48.33367" lon="-0.21695">
        <ele>152.8</ele>
        <time>2016-03-12T15:23:12Z</time>
      </trkpt>
      <trkpt lat="48.33378" lon="-0.21696">
        <ele>152.1</ele>
        <time>2016-03-12T15:23:14Z</time>
      </trkpt>
      <trkpt lat="48.3339" lon="-0.21697">
        <ele>151.4</ele>
        <time>2016-03-12T15:23:17Z</time>
      </trkpt>
      <trkpt lat="48.33402" lon="-0.21695">
        <ele>150.9</ele>
        <time>2016-03-12T15:23:20Z</time>
      </trkpt>
      <trkpt lat="48.33413" lon="-0.21702">
        <ele>150.5</ele>
        <time>2016-03-12T15:23:23Z</time>
      </trkpt>
      <trkpt lat="48.33423" lon="-0.21716">
        <ele>150.1</ele>
        <time>2016-03-12T15:23:26Z</time>
      </trkpt>
      <trkpt lat="48.33431" lon="-0.21725">
        <ele>149.8</ele>
        <time>2016-03-12T15:23:29Z</time>
      </trkpt>
      <trkpt lat="48.33441" lon="-0.21729">
        <ele>149.6</ele>
        <time>2016-03-12T15:23:32Z</time>
      </trkpt>
      <trkpt lat="48.33449" lon="-0.21737">
        <ele>149.4</ele>
        <time>2016-03-12T15:23:35Z</time>
      </trkpt>
      <trkpt lat="48.33448" lon="-0.21752">
        <ele>149.3</ele>
        <time>2016-03-12T15:23:38Z</time>
      </trkpt>
      <trkpt lat="48.33439" lon="-0.21763">
        <ele>149.1</ele>
        <time>2016-03-12T15:23:41Z</time>
      </trkpt>
      <trkpt lat="48.33431" lon="-0.21773">
        <ele>148.8</ele>
        <time>2016-03-12T15:23:44Z</time>
      </trkpt>
      <trkpt lat="48.33423" lon="-0.21781">
        <ele>148.7</ele>
        <time>2016-03-12T15:23:47Z</time>
      </trkpt>
      <trkpt lat="48.33412" lon="-0.21789">
        <ele>148.7</ele>
        <time>2016-03-12T15:23:50Z</time>
      </trkpt>
      <trkpt lat="48.33401" lon="-0.21801">
        <ele>148.7</ele>
        <time>2016-03-12T15:23:53Z</time>
      </trkpt>
      <trkpt lat="48.33392" lon="-0.21815">
        <ele>148.7</ele>
        <time>2016-03-12T15:23:56Z</time>
      </trkpt>
      <trkpt lat="48.33386" lon="-0.21832">
        <ele>148.8</ele>
        <time>2016-03-12T15:23:59Z</time>
      </trkpt>
      <trkpt lat="48.33385" lon="-0.21846">
        <ele>148.8</ele>
        <time>2016-03-12T15:24:01Z</time>
      </trkpt>
      <trkpt lat="48.33385" lon="-0.21859">
        <ele>148.9</ele>
        <time>2016-03-12T15:24:03Z</time>
      </trkpt>
      <trkpt lat="48.33386" lon="-0.21873">
        <ele>149.1</ele>
        <time>2016-03-12T15:24:05Z</time>
      </trkpt>
      <trkpt lat="48.33387" lon="-0.21886">
        <ele>149.3</ele>
        <time>2016-03-12T15:24:07Z</time>
      </trkpt>
      <trkpt lat="48.33387" lon="-0.21901">
        <ele>149.5</ele>
        <time>2016-03-12T15:24:09Z</time>
      </trkpt>
      <trkpt lat="48.33388" lon="-0.21916">
        <ele>149.7</ele>
        <time>2016-03-12T15:24:11Z</time>
      </trkpt>
      <trkpt lat="48.33388" lon="-0.21932">
        <ele>149.8</ele>
        <time>2016-03-12T15:24:13Z</time>
      </trkpt>
      <trkpt lat="48.33388" lon="-0.21948">
        <ele>150</ele>
        <time>2016-03-12T15:24:15Z</time>
      </trkpt>
      <trkpt lat="48.33388" lon="-0.21964">
        <ele>150.2</ele>
        <time>2016-03-12T15:24:17Z</time>
      </trkpt>
      <trkpt lat="48.33387" lon="-0.2198">
        <ele>150.4</ele>
        <time>2016-03-12T15:24:19Z</time>
      </trkpt>
      <trkpt lat="48.33386" lon="-0.21997">
        <ele>150.6</ele>
        <time>2016-03-12T15:24:21Z</time>
      </trkpt>
      <trkpt lat="48.33385" lon="-0.22014">
        <ele>150.7</ele>
        <time>2016-03-12T15:24:23Z</time>
      </trkpt>
      <trkpt lat="48.33385" lon="-0.22031">
        <ele>150.8</ele>
        <time>2016-03-12T15:24:25Z</time>
      </trkpt>
      <trkpt lat="48.33384" lon="-0.22048">
        <ele>150.9</ele>
        <time>2016-03-12T15:24:27Z</time>
      </trkpt>
      <trkpt lat="48.33383" lon="-0.22065">
        <ele>151</ele>
        <time>2016-03-12T15:24:29Z</time>
      </trkpt>
      <trkpt lat="48.33382" lon="-0.22083">
        <ele>151.1</ele>
        <time>2016-03-12T15:24:31Z</time>
      </trkpt>
      <trkpt lat="48.33381" lon="-0.22101">
        <ele>151.1</ele>
        <time>2016-03-12T15:24:33Z</time>
      </trkpt>
      <trkpt lat="48.3338" lon="-0.22118">
        <ele>151.2</ele>
        <time>2016-03-12T15:24:35Z</time>
      </trkpt>
      <trkpt lat="48.33379" lon="-0.22135">
        <ele>151.2</ele>
        <time>2016-03-12T15:24:37Z</time>
      </trkpt>
      <trkpt lat="48.33379" lon="-0.22152">
        <ele>151.3</ele>
        <time>2016-03-12T15:24:39Z</time>
      </trkpt>
      <trkpt lat="48.33378" lon="-0.22169">
        <ele>151.3</ele>
        <time>2016-03-12T15:24:41Z</time>
      </trkpt>
      <trkpt lat="48.3338" lon="-0.22186">
        <ele>151.4</ele>
        <time>2016-03-12T15:24:43Z</time>
      </trkpt>
      <trkpt lat="48.33384" lon="-0.22202">
        <ele>151.4</ele>
        <time>2016-03-12T15:24:45Z</time>
      </trkpt>
      <trkpt lat="48.33389" lon="-0.22217">
        <ele>151.4</ele>
        <time>2016-03-12T15:24:47Z</time>
      </trkpt>
      <trkpt lat="48.33395" lon="-0.22231">
        <ele>151.4</ele>
        <time>2016-03-12T15:24:49Z</time>
      </trkpt>
      <trkpt lat="48.33401" lon="-0.22245">
        <ele>151.5</ele>
        <time>2016-03-12T15:24:51Z</time>
      </trkpt>
      <trkpt lat="48.33406" lon="-0.22259">
        <ele>151.5</ele>
        <time>2016-03-12T15:24:53Z</time>
      </trkpt>
      <trkpt lat="48.33411" lon="-0.22273">
        <ele>151.6</ele>
        <time>2016-03-12T15:24:55Z</time>
      </trkpt>
      <trkpt lat="48.33415" lon="-0.22286">
        <ele>151.6</ele>
        <time>2016-03-12T15:24:57Z</time>
      </trkpt>
      <trkpt lat="48.33426" lon="-0.22283">
        <ele>151.7</ele>
        <time>2016-03-12T15:25:01Z</time>
      </trkpt>
      <trkpt lat="48.33433" lon="-0.22272">
        <ele>151.8</ele>
        <time>2016-03-12T15:25:04Z</time>
      </trkpt>
      <trkpt lat="48.33443" lon="-0.22264">
        <ele>152.1</ele>
        <time>2016-03-12T15:25:07Z</time>
      </trkpt>
      <trkpt lat="48.33453" lon="-0.22263">
        <ele>152.3</ele>
        <time>2016-03-12T15:25:10Z</time>
      </trkpt>
      <trkpt lat="48.33463" lon="-0.22264">
        <ele>152.6</ele>
        <time>2016-03-12T15:25:14Z</time>
      </trkpt>
      <trkpt lat="48.33474" lon="-0.22266">
        <ele>153.3</ele>
        <time>2016-03-12T15:25:20Z</time>
      </trkpt>
      <trkpt lat="48.33484" lon="-0.22265">
        <ele>154.2</ele>
        <time>2016-03-12T15:25:26Z</time>
      </trkpt>
      <trkpt lat="48.33493" lon="-0.22262">
        <ele>155.3</ele>
        <time>2016-03-12T15:25:33Z</time>
      </trkpt>
      <trkpt lat="48.33502" lon="-0.22256">
        <ele>156.8</ele>
        <time>2016-03-12T15:25:41Z</time>
      </trkpt>
      <trkpt lat="48.33511" lon="-0.22251">
        <ele>158.5</ele>
        <time>2016-03-12T15:25:50Z</time>
      </trkpt>
      <trkpt lat="48.3352" lon="-0.22248">
        <ele>159.6</ele>
        <time>2016-03-12T15:25:57Z</time>
      </trkpt>
      <trkpt lat="48.33529" lon="-0.22246">
        <ele>161</ele>
        <time>2016-03-12T15:26:05Z</time>
      </trkpt>
      <trkpt lat="48.33539" lon="-0.22247">
        <ele>162.5</ele>
        <time>2016-03-12T15:26:13Z</time>
      </trkpt>
      <trkpt lat="48.33548" lon="-0.22248">
        <ele>163.6</ele>
        <time>2016-03-12T15:26:20Z</time>
      </trkpt>
      <trkpt lat="48.33558" lon="-0.22251">
        <ele>165</ele>
        <time>2016-03-12T15:26:28Z</time>
      </trkpt>
      <trkpt lat="48.33568" lon="-0.22253">
        <ele>166.5</ele>
        <time>2016-03-12T15:26:36Z</time>
      </trkpt>
      <trkpt lat="48.33577" lon="-0.22252">
        <ele>167.4</ele>
        <time>2016-03-12T15:26:42Z</time>
      </trkpt>
      <trkpt lat="48.33587" lon="-0.22252">
        <ele>168.5</ele>
        <time>2016-03-12T15:26:49Z</time>
      </trkpt>
      <trkpt lat="48.33596" lon="-0.2225">
        <ele>169.7</ele>
        <time>2016-03-12T15:26:57Z</time>
      </trkpt>
      <trkpt lat="48.33606" lon="-0.22249">
        <ele>171</ele>
        <time>2016-03-12T15:27:04Z</time>
      </trkpt>
      <trkpt lat="48.33616" lon="-0.22247">
        <ele>171.9</ele>
        <time>2016-03-12T15:27:10Z</time>
      </trkpt>
      <trkpt lat="48.33626" lon="-0.22243">
        <ele>172.8</ele>
        <time>2016-03-12T15:27:16Z</time>
      </trkpt>
      <trkpt lat="48.33635" lon="-0.22238">
        <ele>173.5</ele>
        <time>2016-03-12T15:27:21Z</time>
      </trkpt>
      <trkpt lat="48.33644" lon="-0.22233">
        <ele>174.4</ele>
        <time>2016-03-12T15:27:26Z</time>
      </trkpt>
      <trkpt lat="48.33653" lon="-0.22226">
        <ele>175.7</ele>
        <time>2016-03-12T15:27:33Z</time>
      </trkpt>
      <trkpt lat="48.33662" lon="-0.2222">
        <ele>176.7</ele>
        <time>2016-03-12T15:27:39Z</time>
      </trkpt>
      <trkpt lat="48.3367" lon="-0.22215">
        <ele>177.6</ele>
        <time>2016-03-12T15:27:45Z</time>
      </trkpt>
      <trkpt lat="48.33681" lon="-0.22214">
        <ele>178.2</ele>
        <time>2016-03-12T15:27:49Z</time>
      </trkpt>
      <trkpt lat="48.33691" lon="-0.2221">
        <ele>178.8</ele>
        <time>2016-03-12T15:27:54Z</time>
      </trkpt>
      <trkpt lat="48.33701" lon="-0.22203">
        <ele>179.5</ele>
        <time>2016-03-12T15:27:59Z</time>
      </trkpt>
      <trkpt lat="48.3371" lon="-0.22197">
        <ele>180.2</ele>
        <time>2016-03-12T15:28:04Z</time>
      </trkpt>
      <trkpt lat="48.33717" lon="-0.22186">
        <ele>181.1</ele>
        <time>2016-03-12T15:28:09Z</time>
      </trkpt>
      <trkpt lat="48.33725" lon="-0.22177">
        <ele>182.1</ele>
        <time>2016-03-12T15:28:15Z</time>
      </trkpt>
      <trkpt lat="48.33732" lon="-0.22167">
        <ele>183.2</ele>
        <time>2016-03-12T15:28:20Z</time>
      </trkpt>
      <trkpt lat="48.33738" lon="-0.22157">
        <ele>184.3</ele>
        <time>2016-03-12T15:28:26Z</time>
      </trkpt>
      <trkpt lat="48.33745" lon="-0.22147">
        <ele>185.5</ele>
        <time>2016-03-12T15:28:32Z</time>
      </trkpt>
      <trkpt lat="48.33753" lon="-0.22137">
        <ele>186.4</ele>
        <time>2016-03-12T15:28:38Z</time>
      </trkpt>
      <trkpt lat="48.33759" lon="-0.22125">
        <ele>187.1</ele>
        <time>2016-03-12T15:28:44Z</time>
      </trkpt>
      <trkpt lat="48.33766" lon="-0.22115">
        <ele>188</ele>
        <time>2016-03-12T15:28:51Z</time>
      </trkpt>
      <trkpt lat="48.33773" lon="-0.22105">
        <ele>188.6</ele>
        <time>2016-03-12T15:28:57Z</time>
      </trkpt>
      <trkpt lat="48.33779" lon="-0.22091">
        <ele>189.2</ele>
        <time>2016-03-12T15:29:02Z</time>
      </trkpt>
      <trkpt lat="48.33785" lon="-0.22078">
        <ele>189.8</ele>
        <time>2016-03-12T15:29:07Z</time>
      </trkpt>
      <trkpt lat="48.3379" lon="-0.22065">
        <ele>190.4</ele>
        <time>2016-03-12T15:29:12Z</time>
      </trkpt>
      <trkpt lat="48.33797" lon="-0.22053">
        <ele>190.8</ele>
        <time>2016-03-12T15:29:16Z</time>
      </trkpt>
      <trkpt lat="48.33802" lon="-0.22043">
        <ele>191</ele>
        <time>2016-03-12T15:29:19Z</time>
      </trkpt>
      <trkpt lat="48.33807" lon="-0.2203">
        <ele>191.3</ele>
        <time>2016-03-12T15:29:22Z</time>
      </trkpt>
      <trkpt lat="48.3381" lon="-0.22017">
        <ele>191.5</ele>
        <time>2016-03-12T15:29:25Z</time>
      </trkpt>
      <trkpt lat="48.33816" lon="-0.22006">
        <ele>191.7</ele>
        <time>2016-03-12T15:29:28Z</time>
      </trkpt>
      <trkpt lat="48.33822" lon="-0.21994">
        <ele>191.9</ele>
        <time>2016-03-12T15:29:31Z</time>
      </trkpt>
      <trkpt lat="48.33828" lon="-0.21982">
        <ele>192.2</ele>
        <time>2016-03-12T15:29:34Z</time>
      </trkpt>
      <trkpt lat="48.33835" lon="-0.21971">
        <ele>192.5</ele>
        <time>2016-03-12T15:29:37Z</time>
      </trkpt>
      <trkpt lat="48.33841" lon="-0.21958">
        <ele>192.7</ele>
        <time>2016-03-12T15:29:40Z</time>
      </trkpt>
      <trkpt lat="48.33847" lon="-0.21942">
        <ele>192.9</ele>
        <time>2016-03-12T15:29:43Z</time>
      </trkpt>
      <trkpt lat="48.33854" lon="-0.21928">
        <ele>193.1</ele>
        <time>2016-03-12T15:29:46Z</time>
      </trkpt>
      <trkpt lat="48.33859" lon="-0.21913">
        <ele>193.2</ele>
        <time>2016-03-12T15:29:49Z</time>
      </trkpt>
      <trkpt lat="48.33868" lon="-0.219">
        <ele>193.3</ele>
        <time>2016-03-12T15:29:52Z</time>
      </trkpt>
      <trkpt lat="48.33876" lon="-0.21886">
        <ele>193.3</ele>
        <time>2016-03-12T15:29:55Z</time>
      </trkpt>
      <trkpt lat="48.33882" lon="-0.21872">
        <ele>193.3</ele>
        <time>2016-03-12T15:29:58Z</time>
      </trkpt>
      <trkpt lat="48.33887" lon="-0.21858">
        <ele>193.4</ele>
        <time>2016-03-12T15:30:01Z</time>
      </trkpt>
      <trkpt lat="48.3389" lon="-0.21845">
        <ele>193.4</ele>
        <time>2016-03-12T15:30:04Z</time>
      </trkpt>
      <trkpt lat="48.33896" lon="-0.21831">
        <ele>193.6</ele>
        <time>2016-03-12T15:30:07Z</time>
      </trkpt>
      <trkpt lat="48.33904" lon="-0.21813">
        <ele>193.6</ele>
        <time>2016-03-12T15:30:10Z</time>
      </trkpt>
      <trkpt lat="48.3391" lon="-0.21798">
        <ele>193.7</ele>
        <time>2016-03-12T15:30:13Z</time>
      </trkpt>
      <trkpt lat="48.33914" lon="-0.21781">
        <ele>193.7</ele>
        <time>2016-03-12T15:30:16Z</time>
      </trkpt>
      <trkpt lat="48.33916" lon="-0.21763">
        <ele>193.8</ele>
        <time>2016-03-12T15:30:19Z</time>
      </trkpt>
      <trkpt lat="48.33919" lon="-0.21746">
        <ele>193.8</ele>
        <time>2016-03-12T15:30:22Z</time>
      </trkpt>
      <trkpt lat="48.33924" lon="-0.21731">
        <ele>193.8</ele>
        <time>2016-03-12T15:30:25Z</time>
      </trkpt>
      <trkpt lat="48.3393" lon="-0.2172">
        <ele>193.9</ele>
        <time>2016-03-12T15:30:28Z</time>
      </trkpt>
      <trkpt lat="48.33936" lon="-0.21707">
        <ele>193.9</ele>
        <time>2016-03-12T15:30:33Z</time>
      </trkpt>
      <trkpt lat="48.3394" lon="-0.21694">
        <ele>194</ele>
        <time>2016-03-12T15:30:36Z</time>
      </trkpt>
      <trkpt lat="48.33947" lon="-0.21679">
        <ele>194</ele>
        <time>2016-03-12T15:30:39Z</time>
      </trkpt>
      <trkpt lat="48.33954" lon="-0.21664">
        <ele>194.1</ele>
        <time>2016-03-12T15:30:42Z</time>
      </trkpt>
      <trkpt lat="48.33961" lon="-0.21649">
        <ele>194.2</ele>
        <time>2016-03-12T15:30:45Z</time>
      </trkpt>
      <trkpt lat="48.33968" lon="-0.21633">
        <ele>194.3</ele>
        <time>2016-03-12T15:30:48Z</time>
      </trkpt>
      <trkpt lat="48.33975" lon="-0.21617">
        <ele>194.4</ele>
        <time>2016-03-12T15:30:51Z</time>
      </trkpt>
      <trkpt lat="48.33983" lon="-0.21601">
        <ele>194.6</ele>
        <time>2016-03-12T15:30:54Z</time>
      </trkpt>
      <trkpt lat="48.3399" lon="-0.21585">
        <ele>194.8</ele>
        <time>2016-03-12T15:30:57Z</time>
      </trkpt>
      <trkpt lat="48.33997" lon="-0.2157">
        <ele>195</ele>
        <time>2016-03-12T15:31:00Z</time>
      </trkpt>
      <trkpt lat="48.34005" lon="-0.21554">
        <ele>195.2</ele>
        <time>2016-03-12T15:31:03Z</time>
      </trkpt>
      <trkpt lat="48.34012" lon="-0.21537">
        <ele>195.4</ele>
        <time>2016-03-12T15:31:06Z</time>
      </trkpt>
      <trkpt lat="48.34019" lon="-0.2152">
        <ele>195.6</ele>
        <time>2016-03-12T15:31:09Z</time>
      </trkpt>
      <trkpt lat="48.34025" lon="-0.21503">
        <ele>195.7</ele>
        <time>2016-03-12T15:31:12Z</time>
      </trkpt>
      <trkpt lat="48.34031" lon="-0.21484">
        <ele>195.9</ele>
        <time>2016-03-12T15:31:15Z</time>
      </trkpt>
      <trkpt lat="48.34037" lon="-0.21466">
        <ele>196.1</ele>
        <time>2016-03-12T15:31:18Z</time>
      </trkpt>
      <trkpt lat="48.34041" lon="-0.21447">
        <ele>196.4</ele>
        <time>2016-03-12T15:31:21Z</time>
      </trkpt>
      <trkpt lat="48.34046" lon="-0.21429">
        <ele>196.7</ele>
        <time>2016-03-12T15:31:24Z</time>
      </trkpt>
      <trkpt lat="48.34051" lon="-0.21411">
        <ele>197</ele>
        <time>2016-03-12T15:31:27Z</time>
      </trkpt>
      <trkpt lat="48.34055" lon="-0.21393">
        <ele>197.3</ele>
        <time>2016-03-12T15:31:30Z</time>
      </trkpt>
      <trkpt lat="48.34059" lon="-0.21375">
        <ele>197.6</ele>
        <time>2016-03-12T15:31:33Z</time>
      </trkpt>
      <trkpt lat="48.34064" lon="-0.21356">
        <ele>197.8</ele>
        <time>2016-03-12T15:31:36Z</time>
      </trkpt>
      <trkpt lat="48.34067" lon="-0.21343">
        <ele>198</ele>
        <time>2016-03-12T15:31:38Z</time>
      </trkpt>
      <trkpt lat="48.3407" lon="-0.2133">
        <ele>198.1</ele>
        <time>2016-03-12T15:31:40Z</time>
      </trkpt>
      <trkpt lat="48.34073" lon="-0.21316">
        <ele>198.2</ele>
        <time>2016-03-12T15:31:42Z</time>
      </trkpt>
      <trkpt lat="48.34077" lon="-0.21303">
        <ele>198.3</ele>
        <time>2016-03-12T15:31:44Z</time>
      </trkpt>
      <trkpt lat="48.3408" lon="-0.21289">
        <ele>198.4</ele>
        <time>2016-03-12T15:31:46Z</time>
      </trkpt>
      <trkpt lat="48.34084" lon="-0.21275">
        <ele>198.5</ele>
        <time>2016-03-12T15:31:48Z</time>
      </trkpt>
      <trkpt lat="48.34087" lon="-0.2126">
        <ele>198.6</ele>
        <time>2016-03-12T15:31:50Z</time>
      </trkpt>
      <trkpt lat="48.34091" lon="-0.21246">
        <ele>198.6</ele>
        <time>2016-03-12T15:31:52Z</time>
      </trkpt>
      <trkpt lat="48.34094" lon="-0.21232">
        <ele>198.7</ele>
        <time>2016-03-12T15:31:54Z</time>
      </trkpt>
      <trkpt lat="48.34097" lon="-0.21218">
        <ele>198.7</ele>
        <time>2016-03-12T15:31:56Z</time>
      </trkpt>
      <trkpt lat="48.34101" lon="-0.21204">
        <ele>198.8</ele>
        <time>2016-03-12T15:31:58Z</time>
      </trkpt>
      <trkpt lat="48.34104" lon="-0.21189">
        <ele>198.8</ele>
        <time>2016-03-12T15:32:00Z</time>
      </trkpt>
      <trkpt lat="48.34108" lon="-0.21175">
        <ele>198.9</ele>
        <time>2016-03-12T15:32:02Z</time>
      </trkpt>
      <trkpt lat="48.34111" lon="-0.2116">
        <ele>198.9</ele>
        <time>2016-03-12T15:32:04Z</time>
      </trkpt>
      <trkpt lat="48.34115" lon="-0.21146">
        <ele>198.9</ele>
        <time>2016-03-12T15:32:06Z</time>
      </trkpt>
      <trkpt lat="48.34118" lon="-0.21131">
        <ele>198.9</ele>
        <time>2016-03-12T15:32:08Z</time>
      </trkpt>
      <trkpt lat="48.3412" lon="-0.21115">
        <ele>199</ele>
        <time>2016-03-12T15:32:10Z</time>
      </trkpt>
      <trkpt lat="48.34123" lon="-0.21099">
        <ele>199</ele>
        <time>2016-03-12T15:32:12Z</time>
      </trkpt>
      <trkpt lat="48.34125" lon="-0.21084">
        <ele>199.1</ele>
        <time>2016-03-12T15:32:14Z</time>
      </trkpt>
      <trkpt lat="48.34127" lon="-0.21067">
        <ele>199.2</ele>
        <time>2016-03-12T15:32:16Z</time>
      </trkpt>
      <trkpt lat="48.34129" lon="-0.21049">
        <ele>199.2</ele>
        <time>2016-03-12T15:32:18Z</time>
      </trkpt>
      <trkpt lat="48.34131" lon="-0.21031">
        <ele>199.3</ele>
        <time>2016-03-12T15:32:20Z</time>
      </trkpt>
      <trkpt lat="48.34133" lon="-0.21012">
        <ele>199.3</ele>
        <time>2016-03-12T15:32:22Z</time>
      </trkpt>
      <trkpt lat="48.34135" lon="-0.20993">
        <ele>199.3</ele>
        <time>2016-03-12T15:32:24Z</time>
      </trkpt>
      <trkpt lat="48.34137" lon="-0.20973">
        <ele>199.4</ele>
        <time>2016-03-12T15:32:26Z</time>
      </trkpt>
      <trkpt lat="48.34139" lon="-0.20952">
        <ele>199.3</ele>
        <time>2016-03-12T15:32:28Z</time>
      </trkpt>
      <trkpt lat="48.34141" lon="-0.20931">
        <ele>199.2</ele>
        <time>2016-03-12T15:32:30Z</time>
      </trkpt>
      <trkpt lat="48.34143" lon="-0.20911">
        <ele>199</ele>
        <time>2016-03-12T15:32:32Z</time>
      </trkpt>
      <trkpt lat="48.34144" lon="-0.20891">
        <ele>198.8</ele>
        <time>2016-03-12T15:32:34Z</time>
      </trkpt>
      <trkpt lat="48.34146" lon="-0.20872">
        <ele>198.7</ele>
        <time>2016-03-12T15:32:36Z</time>
      </trkpt>
      <trkpt lat="48.34148" lon="-0.20853">
        <ele>198.6</ele>
        <time>2016-03-12T15:32:38Z</time>
      </trkpt>
      <trkpt lat="48.3415" lon="-0.20836">
        <ele>198.4</ele>
        <time>2016-03-12T15:32:40Z</time>
      </trkpt>
      <trkpt lat="48.34152" lon="-0.20819">
        <ele>198.3</ele>
        <time>2016-03-12T15:32:42Z</time>
      </trkpt>
      <trkpt lat="48.34153" lon="-0.20802">
        <ele>198.3</ele>
        <time>2016-03-12T15:32:44Z</time>
      </trkpt>
      <trkpt lat="48.34154" lon="-0.20787">
        <ele>198.2</ele>
        <time>2016-03-12T15:32:46Z</time>
      </trkpt>
      <trkpt lat="48.34156" lon="-0.20772">
        <ele>198.1</ele>
        <time>2016-03-12T15:32:48Z</time>
      </trkpt>
      <trkpt lat="48.34157" lon="-0.20757">
        <ele>198</ele>
        <time>2016-03-12T15:32:50Z</time>
      </trkpt>
      <trkpt lat="48.34159" lon="-0.20742">
        <ele>198</ele>
        <time>2016-03-12T15:32:52Z</time>
      </trkpt>
      <trkpt lat="48.3416" lon="-0.20728">
        <ele>198</ele>
        <time>2016-03-12T15:32:54Z</time>
      </trkpt>
      <trkpt lat="48.34162" lon="-0.20713">
        <ele>198</ele>
        <time>2016-03-12T15:32:56Z</time>
      </trkpt>
      <trkpt lat="48.34163" lon="-0.20698">
        <ele>198.1</ele>
        <time>2016-03-12T15:32:58Z</time>
      </trkpt>
      <trkpt lat="48.34165" lon="-0.20683">
        <ele>198.1</ele>
        <time>2016-03-12T15:33:00Z</time>
      </trkpt>
      <trkpt lat="48.34167" lon="-0.20669">
        <ele>198.2</ele>
        <time>2016-03-12T15:33:02Z</time>
      </trkpt>
      <trkpt lat="48.34172" lon="-0.20655">
        <ele>198.3</ele>
        <time>2016-03-12T15:33:04Z</time>
      </trkpt>
      <trkpt lat="48.34179" lon="-0.20646">
        <ele>198.3</ele>
        <time>2016-03-12T15:33:06Z</time>
      </trkpt>
      <trkpt lat="48.34192" lon="-0.20647">
        <ele>198.5</ele>
        <time>2016-03-12T15:33:09Z</time>
      </trkpt>
      <trkpt lat="48.34201" lon="-0.20656">
        <ele>198.7</ele>
        <time>2016-03-12T15:33:12Z</time>
      </trkpt>
      <trkpt lat="48.34211" lon="-0.20665">
        <ele>199</ele>
        <time>2016-03-12T15:33:15Z</time>
      </trkpt>
      <trkpt lat="48.34222" lon="-0.20673">
        <ele>199.4</ele>
        <time>2016-03-12T15:33:18Z</time>
      </trkpt>
      <trkpt lat="48.34232" lon="-0.2068">
        <ele>199.7</ele>
        <time>2016-03-12T15:33:21Z</time>
      </trkpt>
      <trkpt lat="48.34243" lon="-0.20688">
        <ele>200.1</ele>
        <time>2016-03-12T15:33:24Z</time>
      </trkpt>
      <trkpt lat="48.3425" lon="-0.20701">
        <ele>200.5</ele>
        <time>2016-03-12T15:33:27Z</time>
      </trkpt>
      <trkpt lat="48.34257" lon="-0.20718">
        <ele>200.7</ele>
        <time>2016-03-12T15:33:30Z</time>
      </trkpt>
      <trkpt lat="48.34262" lon="-0.20729">
        <ele>200.9</ele>
        <time>2016-03-12T15:33:32Z</time>
      </trkpt>
      <trkpt lat="48.34269" lon="-0.2074">
        <ele>201</ele>
        <time>2016-03-12T15:33:34Z</time>
      </trkpt>
      <trkpt lat="48.34276" lon="-0.20751">
        <ele>201.1</ele>
        <time>2016-03-12T15:33:36Z</time>
      </trkpt>
      <trkpt lat="48.34285" lon="-0.2076">
        <ele>201.2</ele>
        <time>2016-03-12T15:33:38Z</time>
      </trkpt>
      <trkpt lat="48.34295" lon="-0.20767">
        <ele>201.3</ele>
        <time>2016-03-12T15:33:40Z</time>
      </trkpt>
      <trkpt lat="48.34304" lon="-0.20773">
        <ele>201.4</ele>
        <time>2016-03-12T15:33:42Z</time>
      </trkpt>
      <trkpt lat="48.34313" lon="-0.20779">
        <ele>201.5</ele>
        <time>2016-03-12T15:33:44Z</time>
      </trkpt>
      <trkpt lat="48.34322" lon="-0.20784">
        <ele>201.6</ele>
        <time>2016-03-12T15:33:46Z</time>
      </trkpt>
      <trkpt lat="48.34331" lon="-0.20789">
        <ele>201.6</ele>
        <time>2016-03-12T15:33:48Z</time>
      </trkpt>
      <trkpt lat="48.34343" lon="-0.20797">
        <ele>201.8</ele>
        <time>2016-03-12T15:33:51Z</time>
      </trkpt>
      <trkpt lat="48.34353" lon="-0.2081">
        <ele>201.9</ele>
        <time>2016-03-12T15:33:54Z</time>
      </trkpt>
      <trkpt lat="48.34356" lon="-0.20823">
        <ele>202</ele>
        <time>2016-03-12T15:33:56Z</time>
      </trkpt>
      <trkpt lat="48.34356" lon="-0.20836">
        <ele>202</ele>
        <time>2016-03-12T15:33:58Z</time>
      </trkpt>
      <trkpt lat="48.34355" lon="-0.20851">
        <ele>202</ele>
        <time>2016-03-12T15:34:00Z</time>
      </trkpt>
      <trkpt lat="48.34354" lon="-0.20865">
        <ele>202</ele>
        <time>2016-03-12T15:34:02Z</time>
      </trkpt>
      <trkpt lat="48.34351" lon="-0.20878">
        <ele>202</ele>
        <time>2016-03-12T15:34:04Z</time>
      </trkpt>
      <trkpt lat="48.34349" lon="-0.20891">
        <ele>202</ele>
        <time>2016-03-12T15:34:06Z</time>
      </trkpt>
      <trkpt lat="48.34346" lon="-0.20904">
        <ele>202</ele>
        <time>2016-03-12T15:34:08Z</time>
      </trkpt>
      <trkpt lat="48.34342" lon="-0.20918">
        <ele>202.1</ele>
        <time>2016-03-12T15:34:10Z</time>
      </trkpt>
      <trkpt lat="48.34337" lon="-0.2093">
        <ele>202.1</ele>
        <time>2016-03-12T15:34:12Z</time>
      </trkpt>
      <trkpt lat="48.34331" lon="-0.20942">
        <ele>202.2</ele>
        <time>2016-03-12T15:34:14Z</time>
      </trkpt>
      <trkpt lat="48.34326" lon="-0.20954">
        <ele>202.3</ele>
        <time>2016-03-12T15:34:16Z</time>
      </trkpt>
      <trkpt lat="48.3432" lon="-0.20966">
        <ele>202.3</ele>
        <time>2016-03-12T15:34:18Z</time>
      </trkpt>
      <trkpt lat="48.34316" lon="-0.2098">
        <ele>202.4</ele>
        <time>2016-03-12T15:34:20Z</time>
      </trkpt>
      <trkpt lat="48.34312" lon="-0.20994">
        <ele>202.4</ele>
        <time>2016-03-12T15:34:22Z</time>
      </trkpt>
      <trkpt lat="48.34308" lon="-0.21007">
        <ele>202.4</ele>
        <time>2016-03-12T15:34:24Z</time>
      </trkpt>
      <trkpt lat="48.34305" lon="-0.21021">
        <ele>202.3</ele>
        <time>2016-03-12T15:34:26Z</time>
      </trkpt>
      <trkpt lat="48.34303" lon="-0.21035">
        <ele>202.3</ele>
        <time>2016-03-12T15:34:28Z</time>
      </trkpt>
      <trkpt lat="48.343" lon="-0.2105">
        <ele>202.3</ele>
        <time>2016-03-12T15:34:30Z</time>
      </trkpt>
      <trkpt lat="48.34299" lon="-0.21064">
        <ele>202.2</ele>
        <time>2016-03-12T15:34:32Z</time>
      </trkpt>
      <trkpt lat="48.34301" lon="-0.21082">
        <ele>202.3</ele>
        <time>2016-03-12T15:34:35Z</time>
      </trkpt>
      <trkpt lat="48.34311" lon="-0.21086">
        <ele>202.3</ele>
        <time>2016-03-12T15:34:38Z</time>
      </trkpt>
      <trkpt lat="48.34324" lon="-0.21081">
        <ele>202</ele>
        <time>2016-03-12T15:34:41Z</time>
      </trkpt>
      <trkpt lat="48.34333" lon="-0.21079">
        <ele>201.9</ele>
        <time>2016-03-12T15:34:43Z</time>
      </trkpt>
      <trkpt lat="48.34344" lon="-0.21076">
        <ele>201.9</ele>
        <time>2016-03-12T15:34:45Z</time>
      </trkpt>
      <trkpt lat="48.34355" lon="-0.21073">
        <ele>201.7</ele>
        <time>2016-03-12T15:34:47Z</time>
      </trkpt>
      <trkpt lat="48.34368" lon="-0.2107">
        <ele>201.4</ele>
        <time>2016-03-12T15:34:49Z</time>
      </trkpt>
      <trkpt lat="48.3438" lon="-0.21066">
        <ele>201.1</ele>
        <time>2016-03-12T15:34:51Z</time>
      </trkpt>
      <trkpt lat="48.34394" lon="-0.21065">
        <ele>200.8</ele>
        <time>2016-03-12T15:34:53Z</time>
      </trkpt>
      <trkpt lat="48.34406" lon="-0.21062">
        <ele>200.4</ele>
        <time>2016-03-12T15:34:55Z</time>
      </trkpt>
      <trkpt lat="48.34417" lon="-0.21058">
        <ele>199.8</ele>
        <time>2016-03-12T15:34:57Z</time>
      </trkpt>
      <trkpt lat="48.34428" lon="-0.21056">
        <ele>199.2</ele>
        <time>2016-03-12T15:34:59Z</time>
      </trkpt>
      <trkpt lat="48.34438" lon="-0.21054">
        <ele>198.7</ele>
        <time>2016-03-12T15:35:01Z</time>
      </trkpt>
      <trkpt lat="48.34448" lon="-0.21052">
        <ele>198.1</ele>
        <time>2016-03-12T15:35:03Z</time>
      </trkpt>
      <trkpt lat="48.34458" lon="-0.21052">
        <ele>197.6</ele>
        <time>2016-03-12T15:35:05Z</time>
      </trkpt>
      <trkpt lat="48.34469" lon="-0.21052">
        <ele>197.1</ele>
        <time>2016-03-12T15:35:07Z</time>
      </trkpt>
      <trkpt lat="48.3448" lon="-0.21052">
        <ele>196.7</ele>
        <time>2016-03-12T15:35:09Z</time>
      </trkpt>
      <trkpt lat="48.3449" lon="-0.21051">
        <ele>196</ele>
        <time>2016-03-12T15:35:11Z</time>
      </trkpt>
      <trkpt lat="48.345" lon="-0.21048">
        <ele>195.4</ele>
        <time>2016-03-12T15:35:13Z</time>
      </trkpt>
      <trkpt lat="48.34513" lon="-0.21043">
        <ele>194.7</ele>
        <time>2016-03-12T15:35:16Z</time>
      </trkpt>
      <trkpt lat="48.34525" lon="-0.21042">
        <ele>194.1</ele>
        <time>2016-03-12T15:35:19Z</time>
      </trkpt>
      <trkpt lat="48.34535" lon="-0.21039">
        <ele>193.8</ele>
        <time>2016-03-12T15:35:22Z</time>
      </trkpt>
      <trkpt lat="48.34544" lon="-0.21029">
        <ele>193.6</ele>
        <time>2016-03-12T15:35:25Z</time>
      </trkpt>
      <trkpt lat="48.3455" lon="-0.21019">
        <ele>193.4</ele>
        <time>2016-03-12T15:35:27Z</time>
      </trkpt>
      <trkpt lat="48.34556" lon="-0.21008">
        <ele>193.3</ele>
        <time>2016-03-12T15:35:29Z</time>
      </trkpt>
      <trkpt lat="48.34562" lon="-0.20996">
        <ele>193.2</ele>
        <time>2016-03-12T15:35:31Z</time>
      </trkpt>
      <trkpt lat="48.34569" lon="-0.20984">
        <ele>193.2</ele>
        <time>2016-03-12T15:35:33Z</time>
      </trkpt>
      <trkpt lat="48.34575" lon="-0.20972">
        <ele>193.1</ele>
        <time>2016-03-12T15:35:35Z</time>
      </trkpt>
      <trkpt lat="48.34581" lon="-0.20961">
        <ele>193</ele>
        <time>2016-03-12T15:35:37Z</time>
      </trkpt>
      <trkpt lat="48.34588" lon="-0.20949">
        <ele>193</ele>
        <time>2016-03-12T15:35:39Z</time>
      </trkpt>
      <trkpt lat="48.34594" lon="-0.20937">
        <ele>192.9</ele>
        <time>2016-03-12T15:35:41Z</time>
      </trkpt>
      <trkpt lat="48.346" lon="-0.20926">
        <ele>192.9</ele>
        <time>2016-03-12T15:35:43Z</time>
      </trkpt>
      <trkpt lat="48.34607" lon="-0.20914">
        <ele>192.9</ele>
        <time>2016-03-12T15:35:45Z</time>
      </trkpt>
      <trkpt lat="48.34613" lon="-0.20903">
        <ele>192.9</ele>
        <time>2016-03-12T15:35:47Z</time>
      </trkpt>
      <trkpt lat="48.34619" lon="-0.20892">
        <ele>192.9</ele>
        <time>2016-03-12T15:35:49Z</time>
      </trkpt>
      <trkpt lat="48.34625" lon="-0.2088">
        <ele>192.9</ele>
        <time>2016-03-12T15:35:51Z</time>
      </trkpt>
      <trkpt lat="48.34632" lon="-0.20868">
        <ele>192.9</ele>
        <time>2016-03-12T15:35:53Z</time>
      </trkpt>
      <trkpt lat="48.34638" lon="-0.20857">
        <ele>192.9</ele>
        <time>2016-03-12T15:35:55Z</time>
      </trkpt>
      <trkpt lat="48.34646" lon="-0.20845">
        <ele>192.9</ele>
        <time>2016-03-12T15:35:57Z</time>
      </trkpt>
      <trkpt lat="48.34653" lon="-0.20835">
        <ele>192.9</ele>
        <time>2016-03-12T15:35:59Z</time>
      </trkpt>
      <trkpt lat="48.34661" lon="-0.20826">
        <ele>192.9</ele>
        <time>2016-03-12T15:36:01Z</time>
      </trkpt>
      <trkpt lat="48.3467" lon="-0.20818">
        <ele>192.9</ele>
        <time>2016-03-12T15:36:03Z</time>
      </trkpt>
      <trkpt lat="48.3468" lon="-0.20812">
        <ele>192.9</ele>
        <time>2016-03-12T15:36:05Z</time>
      </trkpt>
      <trkpt lat="48.34691" lon="-0.20807">
        <ele>192.8</ele>
        <time>2016-03-12T15:36:07Z</time>
      </trkpt>
      <trkpt lat="48.34703" lon="-0.20804">
        <ele>192.8</ele>
        <time>2016-03-12T15:36:09Z</time>
      </trkpt>
      <trkpt lat="48.34714" lon="-0.20803">
        <ele>192.7</ele>
        <time>2016-03-12T15:36:11Z</time>
      </trkpt>
      <trkpt lat="48.34727" lon="-0.20804">
        <ele>192.5</ele>
        <time>2016-03-12T15:36:13Z</time>
      </trkpt>
      <trkpt lat="48.3474" lon="-0.20805">
        <ele>192.3</ele>
        <time>2016-03-12T15:36:15Z</time>
      </trkpt>
      <trkpt lat="48.34753" lon="-0.20805">
        <ele>191.8</ele>
        <time>2016-03-12T15:36:17Z</time>
      </trkpt>
      <trkpt lat="48.34767" lon="-0.20806">
        <ele>191.4</ele>
        <time>2016-03-12T15:36:19Z</time>
      </trkpt>
      <trkpt lat="48.34782" lon="-0.20806">
        <ele>191</ele>
        <time>2016-03-12T15:36:21Z</time>
      </trkpt>
      <trkpt lat="48.34797" lon="-0.20806">
        <ele>190.5</ele>
        <time>2016-03-12T15:36:23Z</time>
      </trkpt>
      <trkpt lat="48.34812" lon="-0.20805">
        <ele>190.1</ele>
        <time>2016-03-12T15:36:25Z</time>
      </trkpt>
      <trkpt lat="48.34827" lon="-0.20802">
        <ele>189.6</ele>
        <time>2016-03-12T15:36:27Z</time>
      </trkpt>
      <trkpt lat="48.34842" lon="-0.20798">
        <ele>189.2</ele>
        <time>2016-03-12T15:36:29Z</time>
      </trkpt>
      <trkpt lat="48.34854" lon="-0.2079">
        <ele>188.9</ele>
        <time>2016-03-12T15:36:31Z</time>
      </trkpt>
      <trkpt lat="48.34867" lon="-0.20783">
        <ele>188.3</ele>
        <time>2016-03-12T15:36:33Z</time>
      </trkpt>
      <trkpt lat="48.3488" lon="-0.20772">
        <ele>187.8</ele>
        <time>2016-03-12T15:36:35Z</time>
      </trkpt>
      <trkpt lat="48.34892" lon="-0.20761">
        <ele>187.2</ele>
        <time>2016-03-12T15:36:37Z</time>
      </trkpt>
      <trkpt lat="48.34903" lon="-0.2075">
        <ele>186.8</ele>
        <time>2016-03-12T15:36:39Z</time>
      </trkpt>
      <trkpt lat="48.34916" lon="-0.2074">
        <ele>186.4</ele>
        <time>2016-03-12T15:36:41Z</time>
      </trkpt>
      <trkpt lat="48.34929" lon="-0.20732">
        <ele>186</ele>
        <time>2016-03-12T15:36:43Z</time>
      </trkpt>
      <trkpt lat="48.34942" lon="-0.20725">
        <ele>185.6</ele>
        <time>2016-03-12T15:36:45Z</time>
      </trkpt>
      <trkpt lat="48.34953" lon="-0.20717">
        <ele>185.3</ele>
        <time>2016-03-12T15:36:47Z</time>
      </trkpt>
      <trkpt lat="48.34963" lon="-0.20709">
        <ele>185</ele>
        <time>2016-03-12T15:36:49Z</time>
      </trkpt>
      <trkpt lat="48.34974" lon="-0.20702">
        <ele>184.7</ele>
        <time>2016-03-12T15:36:51Z</time>
      </trkpt>
      <trkpt lat="48.34986" lon="-0.20697">
        <ele>184.5</ele>
        <time>2016-03-12T15:36:53Z</time>
      </trkpt>
      <trkpt lat="48.34997" lon="-0.20692">
        <ele>184.3</ele>
        <time>2016-03-12T15:36:55Z</time>
      </trkpt>
      <trkpt lat="48.35007" lon="-0.20685">
        <ele>184.1</ele>
        <time>2016-03-12T15:36:57Z</time>
      </trkpt>
      <trkpt lat="48.35016" lon="-0.20679">
        <ele>183.9</ele>
        <time>2016-03-12T15:36:59Z</time>
      </trkpt>
      <trkpt lat="48.35026" lon="-0.20673">
        <ele>183.8</ele>
        <time>2016-03-12T15:37:01Z</time>
      </trkpt>
      <trkpt lat="48.35036" lon="-0.20668">
        <ele>183.6</ele>
        <time>2016-03-12T15:37:03Z</time>
      </trkpt>
      <trkpt lat="48.35045" lon="-0.20663">
        <ele>183.5</ele>
        <time>2016-03-12T15:37:05Z</time>
      </trkpt>
      <trkpt lat="48.35053" lon="-0.20656">
        <ele>183.5</ele>
        <time>2016-03-12T15:37:07Z</time>
      </trkpt>
      <trkpt lat="48.35062" lon="-0.20649">
        <ele>183.5</ele>
        <time>2016-03-12T15:37:09Z</time>
      </trkpt>
      <trkpt lat="48.3507" lon="-0.2064">
        <ele>183.5</ele>
        <time>2016-03-12T15:37:11Z</time>
      </trkpt>
      <trkpt lat="48.35077" lon="-0.20629">
        <ele>183.5</ele>
        <time>2016-03-12T15:37:13Z</time>
      </trkpt>
      <trkpt lat="48.35083" lon="-0.20618">
        <ele>183.6</ele>
        <time>2016-03-12T15:37:15Z</time>
      </trkpt>
      <trkpt lat="48.35088" lon="-0.20605">
        <ele>183.7</ele>
        <time>2016-03-12T15:37:17Z</time>
      </trkpt>
      <trkpt lat="48.35093" lon="-0.20591">
        <ele>183.7</ele>
        <time>2016-03-12T15:37:19Z</time>
      </trkpt>
      <trkpt lat="48.35097" lon="-0.20577">
        <ele>183.8</ele>
        <time>2016-03-12T15:37:21Z</time>
      </trkpt>
      <trkpt lat="48.35101" lon="-0.20563">
        <ele>183.8</ele>
        <time>2016-03-12T15:37:23Z</time>
      </trkpt>
      <trkpt lat="48.35105" lon="-0.20549">
        <ele>183.9</ele>
        <time>2016-03-12T15:37:25Z</time>
      </trkpt>
      <trkpt lat="48.35109" lon="-0.20536">
        <ele>183.9</ele>
        <time>2016-03-12T15:37:27Z</time>
      </trkpt>
      <trkpt lat="48.35112" lon="-0.20521">
        <ele>184</ele>
        <time>2016-03-12T15:37:30Z</time>
      </trkpt>
      <trkpt lat="48.35117" lon="-0.20533">
        <ele>184.1</ele>
        <time>2016-03-12T15:37:39Z</time>
      </trkpt>
      <trkpt lat="48.35128" lon="-0.20534">
        <ele>184.1</ele>
        <time>2016-03-12T15:37:43Z</time>
      </trkpt>
      <trkpt lat="48.35135" lon="-0.20545">
        <ele>184.1</ele>
        <time>2016-03-12T15:37:47Z</time>
      </trkpt>
      <trkpt lat="48.35139" lon="-0.20558">
        <ele>184.2</ele>
        <time>2016-03-12T15:37:51Z</time>
      </trkpt>
      <trkpt lat="48.35142" lon="-0.20573">
        <ele>184.6</ele>
        <time>2016-03-12T15:37:56Z</time>
      </trkpt>
      <trkpt lat="48.35146" lon="-0.20586">
        <ele>185.7</ele>
        <time>2016-03-12T15:38:02Z</time>
      </trkpt>
      <trkpt lat="48.3515" lon="-0.206">
        <ele>187.1</ele>
        <time>2016-03-12T15:38:09Z</time>
      </trkpt>
      <trkpt lat="48.35153" lon="-0.20613">
        <ele>188.6</ele>
        <time>2016-03-12T15:38:16Z</time>
      </trkpt>
      <trkpt lat="48.35158" lon="-0.20625">
        <ele>190.3</ele>
        <time>2016-03-12T15:38:24Z</time>
      </trkpt>
      <trkpt lat="48.35162" lon="-0.20638">
        <ele>191.9</ele>
        <time>2016-03-12T15:38:32Z</time>
      </trkpt>
      <trkpt lat="48.35166" lon="-0.2065">
        <ele>193.2</ele>
        <time>2016-03-12T15:38:39Z</time>
      </trkpt>
      <trkpt lat="48.35172" lon="-0.20663">
        <ele>194.5</ele>
        <time>2016-03-12T15:38:46Z</time>
      </trkpt>
      <trkpt lat="48.35176" lon="-0.20675">
        <ele>195.4</ele>
        <time>2016-03-12T15:38:52Z</time>
      </trkpt>
      <trkpt lat="48.35182" lon="-0.20687">
        <ele>196.4</ele>
        <time>2016-03-12T15:38:58Z</time>
      </trkpt>
      <trkpt lat="48.35188" lon="-0.20698">
        <ele>197.1</ele>
        <time>2016-03-12T15:39:03Z</time>
      </trkpt>
      <trkpt lat="48.35194" lon="-0.2071">
        <ele>197.8</ele>
        <time>2016-03-12T15:39:09Z</time>
      </trkpt>
      <trkpt lat="48.352" lon="-0.20722">
        <ele>198.8</ele>
        <time>2016-03-12T15:39:15Z</time>
      </trkpt>
      <trkpt lat="48.35206" lon="-0.20735">
        <ele>199.7</ele>
        <time>2016-03-12T15:39:21Z</time>
      </trkpt>
      <trkpt lat="48.35211" lon="-0.20748">
        <ele>200.9</ele>
        <time>2016-03-12T15:39:27Z</time>
      </trkpt>
      <trkpt lat="48.35216" lon="-0.20762">
        <ele>201.9</ele>
        <time>2016-03-12T15:39:33Z</time>
      </trkpt>
      <trkpt lat="48.3522" lon="-0.20776">
        <ele>202.7</ele>
        <time>2016-03-12T15:39:38Z</time>
      </trkpt>
      <trkpt lat="48.35222" lon="-0.20792">
        <ele>203.5</ele>
        <time>2016-03-12T15:39:43Z</time>
      </trkpt>
      <trkpt lat="48.35224" lon="-0.20808">
        <ele>204.3</ele>
        <time>2016-03-12T15:39:48Z</time>
      </trkpt>
      <trkpt lat="48.35224" lon="-0.20824">
        <ele>205</ele>
        <time>2016-03-12T15:39:53Z</time>
      </trkpt>
      <trkpt lat="48.35224" lon="-0.2084">
        <ele>205.6</ele>
        <time>2016-03-12T15:39:58Z</time>
      </trkpt>
      <trkpt lat="48.35223" lon="-0.20856">
        <ele>206.2</ele>
        <time>2016-03-12T15:40:03Z</time>
      </trkpt>
      <trkpt lat="48.35221" lon="-0.20871">
        <ele>206.9</ele>
        <time>2016-03-12T15:40:08Z</time>
      </trkpt>
      <trkpt lat="48.35216" lon="-0.20883">
        <ele>207.7</ele>
        <time>2016-03-12T15:40:13Z</time>
      </trkpt>
      <trkpt lat="48.35207" lon="-0.20883">
        <ele>208.7</ele>
        <time>2016-03-12T15:40:20Z</time>
      </trkpt>
      <trkpt lat="48.35198" lon="-0.2088">
        <ele>210.2</ele>
        <time>2016-03-12T15:40:29Z</time>
      </trkpt>
      <trkpt lat="48.35189" lon="-0.20873">
        <ele>211.3</ele>
        <time>2016-03-12T15:40:36Z</time>
      </trkpt>
      <trkpt lat="48.35182" lon="-0.20865">
        <ele>212.1</ele>
        <time>2016-03-12T15:40:42Z</time>
      </trkpt>
      <trkpt lat="48.35176" lon="-0.20851">
        <ele>213.4</ele>
        <time>2016-03-12T15:40:50Z</time>
      </trkpt>
      <trkpt lat="48.35171" lon="-0.2084">
        <ele>214.1</ele>
        <time>2016-03-12T15:40:55Z</time>
      </trkpt>
      <trkpt lat="48.35162" lon="-0.2083">
        <ele>215.4</ele>
        <time>2016-03-12T15:41:02Z</time>
      </trkpt>
      <trkpt lat="48.35153" lon="-0.20831">
        <ele>216.6</ele>
        <time>2016-03-12T15:41:08Z</time>
      </trkpt>
      <trkpt lat="48.35144" lon="-0.20837">
        <ele>218.1</ele>
        <time>2016-03-12T15:41:15Z</time>
      </trkpt>
      <trkpt lat="48.35135" lon="-0.20846">
        <ele>219.2</ele>
        <time>2016-03-12T15:41:21Z</time>
      </trkpt>
      <trkpt lat="48.35127" lon="-0.20854">
        <ele>220</ele>
        <time>2016-03-12T15:41:26Z</time>
      </trkpt>
      <trkpt lat="48.3512" lon="-0.20861">
        <ele>220.5</ele>
        <time>2016-03-12T15:41:30Z</time>
      </trkpt>
      <trkpt lat="48.35111" lon="-0.20867">
        <ele>221</ele>
        <time>2016-03-12T15:41:34Z</time>
      </trkpt>
      <trkpt lat="48.35103" lon="-0.20871">
        <ele>221.5</ele>
        <time>2016-03-12T15:41:38Z</time>
      </trkpt>
      <trkpt lat="48.35095" lon="-0.20877">
        <ele>222</ele>
        <time>2016-03-12T15:41:42Z</time>
      </trkpt>
      <trkpt lat="48.35086" lon="-0.20883">
        <ele>222.4</ele>
        <time>2016-03-12T15:41:46Z</time>
      </trkpt>
      <trkpt lat="48.35076" lon="-0.20889">
        <ele>223</ele>
        <time>2016-03-12T15:41:51Z</time>
      </trkpt>
      <trkpt lat="48.35065" lon="-0.20893">
        <ele>223.6</ele>
        <time>2016-03-12T15:41:56Z</time>
      </trkpt>
      <trkpt lat="48.35057" lon="-0.20897">
        <ele>224.2</ele>
        <time>2016-03-12T15:42:00Z</time>
      </trkpt>
      <trkpt lat="48.35048" lon="-0.20901">
        <ele>224.7</ele>
        <time>2016-03-12T15:42:04Z</time>
      </trkpt>
      <trkpt lat="48.35039" lon="-0.20904">
        <ele>225.2</ele>
        <time>2016-03-12T15:42:08Z</time>
      </trkpt>
      <trkpt lat="48.35029" lon="-0.20906">
        <ele>225.8</ele>
        <time>2016-03-12T15:42:12Z</time>
      </trkpt>
      <trkpt lat="48.3502" lon="-0.20909">
        <ele>226.5</ele>
        <time>2016-03-12T15:42:16Z</time>
      </trkpt>
      <trkpt lat="48.35011" lon="-0.20912">
        <ele>227.2</ele>
        <time>2016-03-12T15:42:20Z</time>
      </trkpt>
      <trkpt lat="48.35002" lon="-0.20916">
        <ele>227.9</ele>
        <time>2016-03-12T15:42:24Z</time>
      </trkpt>
      <trkpt lat="48.34993" lon="-0.20922">
        <ele>228.6</ele>
        <time>2016-03-12T15:42:28Z</time>
      </trkpt>
      <trkpt lat="48.34984" lon="-0.20929">
        <ele>229.2</ele>
        <time>2016-03-12T15:42:32Z</time>
      </trkpt>
      <trkpt lat="48.34975" lon="-0.20937">
        <ele>229.8</ele>
        <time>2016-03-12T15:42:36Z</time>
      </trkpt>
      <trkpt lat="48.34964" lon="-0.20946">
        <ele>230.3</ele>
        <time>2016-03-12T15:42:40Z</time>
      </trkpt>
      <trkpt lat="48.34956" lon="-0.20954">
        <ele>230.8</ele>
        <time>2016-03-12T15:42:43Z</time>
      </trkpt>
      <trkpt lat="48.34949" lon="-0.20966">
        <ele>231.2</ele>
        <time>2016-03-12T15:42:46Z</time>
      </trkpt>
      <trkpt lat="48.34941" lon="-0.20975">
        <ele>231.6</ele>
        <time>2016-03-12T15:42:49Z</time>
      </trkpt>
      <trkpt lat="48.34933" lon="-0.20985">
        <ele>231.9</ele>
        <time>2016-03-12T15:42:52Z</time>
      </trkpt>
      <trkpt lat="48.34925" lon="-0.20996">
        <ele>232.3</ele>
        <time>2016-03-12T15:42:55Z</time>
      </trkpt>
      <trkpt lat="48.34916" lon="-0.21008">
        <ele>232.5</ele>
        <time>2016-03-12T15:42:58Z</time>
      </trkpt>
      <trkpt lat="48.34908" lon="-0.21018">
        <ele>232.6</ele>
        <time>2016-03-12T15:43:01Z</time>
      </trkpt>
      <trkpt lat="48.34899" lon="-0.21029">
        <ele>232.9</ele>
        <time>2016-03-12T15:43:04Z</time>
      </trkpt>
      <trkpt lat="48.3489" lon="-0.21041">
        <ele>233.1</ele>
        <time>2016-03-12T15:43:07Z</time>
      </trkpt>
      <trkpt lat="48.3488" lon="-0.21053">
        <ele>233.3</ele>
        <time>2016-03-12T15:43:10Z</time>
      </trkpt>
      <trkpt lat="48.3487" lon="-0.21066">
        <ele>233.5</ele>
        <time>2016-03-12T15:43:13Z</time>
      </trkpt>
      <trkpt lat="48.3486" lon="-0.21079">
        <ele>233.6</ele>
        <time>2016-03-12T15:43:16Z</time>
      </trkpt>
      <trkpt lat="48.34853" lon="-0.21088">
        <ele>233.7</ele>
        <time>2016-03-12T15:43:18Z</time>
      </trkpt>
      <trkpt lat="48.34846" lon="-0.21097">
        <ele>233.8</ele>
        <time>2016-03-12T15:43:20Z</time>
      </trkpt>
      <trkpt lat="48.34839" lon="-0.21105">
        <ele>233.8</ele>
        <time>2016-03-12T15:43:22Z</time>
      </trkpt>
      <trkpt lat="48.34831" lon="-0.21115">
        <ele>233.8</ele>
        <time>2016-03-12T15:43:24Z</time>
      </trkpt>
      <trkpt lat="48.34824" lon="-0.21127">
        <ele>233.6</ele>
        <time>2016-03-12T15:43:26Z</time>
      </trkpt>
      <trkpt lat="48.34817" lon="-0.21141">
        <ele>233.2</ele>
        <time>2016-03-12T15:43:28Z</time>
      </trkpt>
      <trkpt lat="48.3481" lon="-0.21156">
        <ele>232.8</ele>
        <time>2016-03-12T15:43:30Z</time>
      </trkpt>
      <trkpt lat="48.34804" lon="-0.21171">
        <ele>232.5</ele>
        <time>2016-03-12T15:43:32Z</time>
      </trkpt>
      <trkpt lat="48.34797" lon="-0.21187">
        <ele>232.2</ele>
        <time>2016-03-12T15:43:34Z</time>
      </trkpt>
      <trkpt lat="48.34793" lon="-0.21203">
        <ele>232</ele>
        <time>2016-03-12T15:43:36Z</time>
      </trkpt>
      <trkpt lat="48.34791" lon="-0.21219">
        <ele>231.5</ele>
        <time>2016-03-12T15:43:39Z</time>
      </trkpt>
      <trkpt lat="48.34792" lon="-0.21234">
        <ele>229.5</ele>
        <time>2016-03-12T15:43:58Z</time>
      </trkpt>
      <trkpt lat="48.34795" lon="-0.21252">
        <ele>229.3</ele>
        <time>2016-03-12T15:44:02Z</time>
      </trkpt>
      <trkpt lat="48.34797" lon="-0.2127">
        <ele>229.1</ele>
        <time>2016-03-12T15:44:05Z</time>
      </trkpt>
      <trkpt lat="48.34799" lon="-0.21289">
        <ele>229.1</ele>
        <time>2016-03-12T15:44:08Z</time>
      </trkpt>
      <trkpt lat="48.348" lon="-0.21303">
        <ele>229</ele>
        <time>2016-03-12T15:44:10Z</time>
      </trkpt>
      <trkpt lat="48.348" lon="-0.21318">
        <ele>229</ele>
        <time>2016-03-12T15:44:12Z</time>
      </trkpt>
      <trkpt lat="48.348" lon="-0.21332">
        <ele>229.1</ele>
        <time>2016-03-12T15:44:14Z</time>
      </trkpt>
      <trkpt lat="48.34801" lon="-0.21351">
        <ele>229.2</ele>
        <time>2016-03-12T15:44:17Z</time>
      </trkpt>
      <trkpt lat="48.34799" lon="-0.21371">
        <ele>229.3</ele>
        <time>2016-03-12T15:44:20Z</time>
      </trkpt>
      <trkpt lat="48.34796" lon="-0.21386">
        <ele>229.3</ele>
        <time>2016-03-12T15:44:22Z</time>
      </trkpt>
      <trkpt lat="48.34794" lon="-0.21401">
        <ele>229.1</ele>
        <time>2016-03-12T15:44:25Z</time>
      </trkpt>
      <trkpt lat="48.34795" lon="-0.21417">
        <ele>228.9</ele>
        <time>2016-03-12T15:44:29Z</time>
      </trkpt>
      <trkpt lat="48.34796" lon="-0.21435">
        <ele>228.7</ele>
        <time>2016-03-12T15:44:33Z</time>
      </trkpt>
      <trkpt lat="48.34798" lon="-0.21451">
        <ele>228.7</ele>
        <time>2016-03-12T15:44:36Z</time>
      </trkpt>
      <trkpt lat="48.34798" lon="-0.21466">
        <ele>228.8</ele>
        <time>2016-03-12T15:44:39Z</time>
      </trkpt>
      <trkpt lat="48.34799" lon="-0.21483">
        <ele>229.1</ele>
        <time>2016-03-12T15:44:42Z</time>
      </trkpt>
      <trkpt lat="48.34799" lon="-0.21501">
        <ele>229.3</ele>
        <time>2016-03-12T15:44:45Z</time>
      </trkpt>
      <trkpt lat="48.34796" lon="-0.21518">
        <ele>229.6</ele>
        <time>2016-03-12T15:44:48Z</time>
      </trkpt>
      <trkpt lat="48.34794" lon="-0.21534">
        <ele>229.8</ele>
        <time>2016-03-12T15:44:51Z</time>
      </trkpt>
      <trkpt lat="48.34792" lon="-0.21552">
        <ele>230.1</ele>
        <time>2016-03-12T15:44:54Z</time>
      </trkpt>
      <trkpt lat="48.3479" lon="-0.21567">
        <ele>230.3</ele>
        <time>2016-03-12T15:44:57Z</time>
      </trkpt>
      <trkpt lat="48.34787" lon="-0.21582">
        <ele>230.5</ele>
        <time>2016-03-12T15:45:00Z</time>
      </trkpt>
      <trkpt lat="48.34785" lon="-0.216">
        <ele>230.7</ele>
        <time>2016-03-12T15:45:03Z</time>
      </trkpt>
      <trkpt lat="48.34782" lon="-0.21618">
        <ele>231</ele>
        <time>2016-03-12T15:45:06Z</time>
      </trkpt>
      <trkpt lat="48.34782" lon="-0.21635">
        <ele>231.2</ele>
        <time>2016-03-12T15:45:09Z</time>
      </trkpt>
      <trkpt lat="48.34784" lon="-0.2165">
        <ele>231.4</ele>
        <time>2016-03-12T15:45:12Z</time>
      </trkpt>
      <trkpt lat="48.34789" lon="-0.21664">
        <ele>231.9</ele>
        <time>2016-03-12T15:45:16Z</time>
      </trkpt>
      <trkpt lat="48.3479" lon="-0.21682">
        <ele>232.5</ele>
        <time>2016-03-12T15:45:20Z</time>
      </trkpt>
      <trkpt lat="48.3479" lon="-0.21699">
        <ele>232.9</ele>
        <time>2016-03-12T15:45:23Z</time>
      </trkpt>
      <trkpt lat="48.34791" lon="-0.21713">
        <ele>233.2</ele>
        <time>2016-03-12T15:45:26Z</time>
      </trkpt>
      <trkpt lat="48.34791" lon="-0.21729">
        <ele>233.5</ele>
        <time>2016-03-12T15:45:29Z</time>
      </trkpt>
      <trkpt lat="48.34793" lon="-0.21744">
        <ele>233.9</ele>
        <time>2016-03-12T15:45:32Z</time>
      </trkpt>
      <trkpt lat="48.34794" lon="-0.21762">
        <ele>234.3</ele>
        <time>2016-03-12T15:45:35Z</time>
      </trkpt>
      <trkpt lat="48.34795" lon="-0.2178">
        <ele>234.7</ele>
        <time>2016-03-12T15:45:38Z</time>
      </trkpt>
      <trkpt lat="48.34797" lon="-0.21794">
        <ele>235</ele>
        <time>2016-03-12T15:45:41Z</time>
      </trkpt>
      <trkpt lat="48.34797" lon="-0.2181">
        <ele>235.3</ele>
        <time>2016-03-12T15:45:44Z</time>
      </trkpt>
      <trkpt lat="48.34797" lon="-0.21828">
        <ele>235.5</ele>
        <time>2016-03-12T15:45:47Z</time>
      </trkpt>
      <trkpt lat="48.34798" lon="-0.21847">
        <ele>235.6</ele>
        <time>2016-03-12T15:45:50Z</time>
      </trkpt>
      <trkpt lat="48.348" lon="-0.21867">
        <ele>235.8</ele>
        <time>2016-03-12T15:45:53Z</time>
      </trkpt>
      <trkpt lat="48.34799" lon="-0.21886">
        <ele>235.9</ele>
        <time>2016-03-12T15:45:56Z</time>
      </trkpt>
      <trkpt lat="48.34797" lon="-0.21903">
        <ele>235.8</ele>
        <time>2016-03-12T15:45:59Z</time>
      </trkpt>
      <trkpt lat="48.34797" lon="-0.21918">
        <ele>235.7</ele>
        <time>2016-03-12T15:46:01Z</time>
      </trkpt>
      <trkpt lat="48.34797" lon="-0.21933">
        <ele>235.6</ele>
        <time>2016-03-12T15:46:03Z</time>
      </trkpt>
      <trkpt lat="48.34796" lon="-0.21953">
        <ele>235.4</ele>
        <time>2016-03-12T15:46:06Z</time>
      </trkpt>
      <trkpt lat="48.34796" lon="-0.21969">
        <ele>235.3</ele>
        <time>2016-03-12T15:46:08Z</time>
      </trkpt>
      <trkpt lat="48.34796" lon="-0.21984">
        <ele>235.2</ele>
        <time>2016-03-12T15:46:10Z</time>
      </trkpt>
      <trkpt lat="48.34793" lon="-0.22">
        <ele>235.1</ele>
        <time>2016-03-12T15:46:12Z</time>
      </trkpt>
      <trkpt lat="48.34793" lon="-0.22019">
        <ele>234.5</ele>
        <time>2016-03-12T15:46:15Z</time>
      </trkpt>
      <trkpt lat="48.34794" lon="-0.22035">
        <ele>234.2</ele>
        <time>2016-03-12T15:46:17Z</time>
      </trkpt>
      <trkpt lat="48.34796" lon="-0.2205">
        <ele>233.9</ele>
        <time>2016-03-12T15:46:19Z</time>
      </trkpt>
      <trkpt lat="48.34797" lon="-0.22066">
        <ele>233.6</ele>
        <time>2016-03-12T15:46:21Z</time>
      </trkpt>
      <trkpt lat="48.34798" lon="-0.22081">
        <ele>233.4</ele>
        <time>2016-03-12T15:46:23Z</time>
      </trkpt>
      <trkpt lat="48.34799" lon="-0.22097">
        <ele>233.2</ele>
        <time>2016-03-12T15:46:25Z</time>
      </trkpt>
      <trkpt lat="48.348" lon="-0.22114">
        <ele>232.7</ele>
        <time>2016-03-12T15:46:27Z</time>
      </trkpt>
      <trkpt lat="48.34801" lon="-0.2213">
        <ele>232.6</ele>
        <time>2016-03-12T15:46:29Z</time>
      </trkpt>
      <trkpt lat="48.34801" lon="-0.22146">
        <ele>232.5</ele>
        <time>2016-03-12T15:46:31Z</time>
      </trkpt>
      <trkpt lat="48.34802" lon="-0.22162">
        <ele>232.5</ele>
        <time>2016-03-12T15:46:33Z</time>
      </trkpt>
      <trkpt lat="48.34802" lon="-0.22177">
        <ele>232.5</ele>
        <time>2016-03-12T15:46:35Z</time>
      </trkpt>
      <trkpt lat="48.34802" lon="-0.22193">
        <ele>232.4</ele>
        <time>2016-03-12T15:46:37Z</time>
      </trkpt>
      <trkpt lat="48.34803" lon="-0.22207">
        <ele>232.4</ele>
        <time>2016-03-12T15:46:39Z</time>
      </trkpt>
      <trkpt lat="48.34803" lon="-0.22223">
        <ele>232.4</ele>
        <time>2016-03-12T15:46:41Z</time>
      </trkpt>
      <trkpt lat="48.34804" lon="-0.22237">
        <ele>232.4</ele>
        <time>2016-03-12T15:46:43Z</time>
      </trkpt>
      <trkpt lat="48.34805" lon="-0.22256">
        <ele>232.5</ele>
        <time>2016-03-12T15:46:46Z</time>
      </trkpt>
      <trkpt lat="48.34807" lon="-0.22274">
        <ele>232.6</ele>
        <time>2016-03-12T15:46:49Z</time>
      </trkpt>
      <trkpt lat="48.34808" lon="-0.22288">
        <ele>232.7</ele>
        <time>2016-03-12T15:46:51Z</time>
      </trkpt>
      <trkpt lat="48.3481" lon="-0.22303">
        <ele>232.7</ele>
        <time>2016-03-12T15:46:53Z</time>
      </trkpt>
      <trkpt lat="48.34813" lon="-0.22321">
        <ele>232.8</ele>
        <time>2016-03-12T15:46:56Z</time>
      </trkpt>
      <trkpt lat="48.34817" lon="-0.22338">
        <ele>232.9</ele>
        <time>2016-03-12T15:46:59Z</time>
      </trkpt>
      <trkpt lat="48.34817" lon="-0.22352">
        <ele>233</ele>
        <time>2016-03-12T15:47:01Z</time>
      </trkpt>
      <trkpt lat="48.34817" lon="-0.22368">
        <ele>233</ele>
        <time>2016-03-12T15:47:03Z</time>
      </trkpt>
      <trkpt lat="48.34814" lon="-0.22386">
        <ele>233</ele>
        <time>2016-03-12T15:47:06Z</time>
      </trkpt>
      <trkpt lat="48.34813" lon="-0.224">
        <ele>233</ele>
        <time>2016-03-12T15:47:09Z</time>
      </trkpt>
      <trkpt lat="48.34804" lon="-0.22403">
        <ele>232.9</ele>
        <time>2016-03-12T15:47:12Z</time>
      </trkpt>
      <trkpt lat="48.34793" lon="-0.22399">
        <ele>232.6</ele>
        <time>2016-03-12T15:47:14Z</time>
      </trkpt>
      <trkpt lat="48.34783" lon="-0.22393">
        <ele>232</ele>
        <time>2016-03-12T15:47:16Z</time>
      </trkpt>
      <trkpt lat="48.34773" lon="-0.22388">
        <ele>231.4</ele>
        <time>2016-03-12T15:47:18Z</time>
      </trkpt>
      <trkpt lat="48.34765" lon="-0.22379">
        <ele>229.8</ele>
        <time>2016-03-12T15:47:21Z</time>
      </trkpt>
      <trkpt lat="48.34755" lon="-0.22366">
        <ele>228.3</ele>
        <time>2016-03-12T15:47:24Z</time>
      </trkpt>
      <trkpt lat="48.34747" lon="-0.22374">
        <ele>227.2</ele>
        <time>2016-03-12T15:47:26Z</time>
      </trkpt>
      <trkpt lat="48.3474" lon="-0.22387">
        <ele>225.4</ele>
        <time>2016-03-12T15:47:29Z</time>
      </trkpt>
      <trkpt lat="48.34733" lon="-0.22399">
        <ele>223.6</ele>
        <time>2016-03-12T15:47:32Z</time>
      </trkpt>
      <trkpt lat="48.34727" lon="-0.22414">
        <ele>221.5</ele>
        <time>2016-03-12T15:47:35Z</time>
      </trkpt>
      <trkpt lat="48.34722" lon="-0.22429">
        <ele>220.1</ele>
        <time>2016-03-12T15:47:37Z</time>
      </trkpt>
      <trkpt lat="48.34713" lon="-0.2244">
        <ele>218.8</ele>
        <time>2016-03-12T15:47:39Z</time>
      </trkpt>
      <trkpt lat="48.347" lon="-0.22446">
        <ele>217.7</ele>
        <time>2016-03-12T15:47:41Z</time>
      </trkpt>
      <trkpt lat="48.34689" lon="-0.2245">
        <ele>216.4</ele>
        <time>2016-03-12T15:47:43Z</time>
      </trkpt>
      <trkpt lat="48.34679" lon="-0.22456">
        <ele>214.5</ele>
        <time>2016-03-12T15:47:46Z</time>
      </trkpt>
      <trkpt lat="48.34671" lon="-0.22465">
        <ele>212.8</ele>
        <time>2016-03-12T15:47:49Z</time>
      </trkpt>
      <trkpt lat="48.34661" lon="-0.22475">
        <ele>211.3</ele>
        <time>2016-03-12T15:47:52Z</time>
      </trkpt>
      <trkpt lat="48.34651" lon="-0.2248">
        <ele>210.2</ele>
        <time>2016-03-12T15:47:54Z</time>
      </trkpt>
      <trkpt lat="48.34639" lon="-0.22485">
        <ele>209</ele>
        <time>2016-03-12T15:47:56Z</time>
      </trkpt>
      <trkpt lat="48.34626" lon="-0.2249">
        <ele>208</ele>
        <time>2016-03-12T15:47:58Z</time>
      </trkpt>
      <trkpt lat="48.34615" lon="-0.22498">
        <ele>207</ele>
        <time>2016-03-12T15:48:00Z</time>
      </trkpt>
      <trkpt lat="48.34606" lon="-0.22508">
        <ele>205.8</ele>
        <time>2016-03-12T15:48:02Z</time>
      </trkpt>
      <trkpt lat="48.34598" lon="-0.22517">
        <ele>204.6</ele>
        <time>2016-03-12T15:48:04Z</time>
      </trkpt>
      <trkpt lat="48.3459" lon="-0.22526">
        <ele>203.6</ele>
        <time>2016-03-12T15:48:06Z</time>
      </trkpt>
      <trkpt lat="48.34582" lon="-0.22533">
        <ele>202.4</ele>
        <time>2016-03-12T15:48:08Z</time>
      </trkpt>
      <trkpt lat="48.34573" lon="-0.2254">
        <ele>200.8</ele>
        <time>2016-03-12T15:48:11Z</time>
      </trkpt>
      <trkpt lat="48.34563" lon="-0.2255">
        <ele>199.3</ele>
        <time>2016-03-12T15:48:14Z</time>
      </trkpt>
      <trkpt lat="48.34554" lon="-0.22557">
        <ele>198.3</ele>
        <time>2016-03-12T15:48:16Z</time>
      </trkpt>
      <trkpt lat="48.34544" lon="-0.22566">
        <ele>197.3</ele>
        <time>2016-03-12T15:48:18Z</time>
      </trkpt>
      <trkpt lat="48.34532" lon="-0.22574">
        <ele>196.1</ele>
        <time>2016-03-12T15:48:20Z</time>
      </trkpt>
      <trkpt lat="48.34519" lon="-0.22579">
        <ele>195.3</ele>
        <time>2016-03-12T15:48:22Z</time>
      </trkpt>
      <trkpt lat="48.34506" lon="-0.22583">
        <ele>194.2</ele>
        <time>2016-03-12T15:48:24Z</time>
      </trkpt>
      <trkpt lat="48.34497" lon="-0.22585">
        <ele>192.9</ele>
        <time>2016-03-12T15:48:26Z</time>
      </trkpt>
      <trkpt lat="48.34487" lon="-0.22587">
        <ele>191.3</ele>
        <time>2016-03-12T15:48:29Z</time>
      </trkpt>
      <trkpt lat="48.34478" lon="-0.22589">
        <ele>188.4</ele>
        <time>2016-03-12T15:48:36Z</time>
      </trkpt>
      <trkpt lat="48.34467" lon="-0.22591">
        <ele>187.2</ele>
        <time>2016-03-12T15:48:40Z</time>
      </trkpt>
      <trkpt lat="48.34458" lon="-0.22591">
        <ele>186.3</ele>
        <time>2016-03-12T15:48:43Z</time>
      </trkpt>
      <trkpt lat="48.34448" lon="-0.22591">
        <ele>185.5</ele>
        <time>2016-03-12T15:48:46Z</time>
      </trkpt>
      <trkpt lat="48.34437" lon="-0.22593">
        <ele>184.7</ele>
        <time>2016-03-12T15:48:49Z</time>
      </trkpt>
      <trkpt lat="48.34428" lon="-0.22592">
        <ele>184</ele>
        <time>2016-03-12T15:48:52Z</time>
      </trkpt>
      <trkpt lat="48.34418" lon="-0.2259">
        <ele>183.3</ele>
        <time>2016-03-12T15:48:55Z</time>
      </trkpt>
      <trkpt lat="48.34407" lon="-0.22588">
        <ele>182.5</ele>
        <time>2016-03-12T15:48:58Z</time>
      </trkpt>
      <trkpt lat="48.34394" lon="-0.22587">
        <ele>181.8</ele>
        <time>2016-03-12T15:49:01Z</time>
      </trkpt>
      <trkpt lat="48.34381" lon="-0.22589">
        <ele>180.9</ele>
        <time>2016-03-12T15:49:04Z</time>
      </trkpt>
      <trkpt lat="48.34371" lon="-0.22593">
        <ele>179.8</ele>
        <time>2016-03-12T15:49:07Z</time>
      </trkpt>
      <trkpt lat="48.34361" lon="-0.22597">
        <ele>178.8</ele>
        <time>2016-03-12T15:49:10Z</time>
      </trkpt>
      <trkpt lat="48.34351" lon="-0.22602">
        <ele>178</ele>
        <time>2016-03-12T15:49:13Z</time>
      </trkpt>
      <trkpt lat="48.34342" lon="-0.2261">
        <ele>177</ele>
        <time>2016-03-12T15:49:16Z</time>
      </trkpt>
      <trkpt lat="48.34341" lon="-0.22624">
        <ele>176.4</ele>
        <time>2016-03-12T15:49:19Z</time>
      </trkpt>
      <trkpt lat="48.34343" lon="-0.22641">
        <ele>175.7</ele>
        <time>2016-03-12T15:49:23Z</time>
      </trkpt>
      <trkpt lat="48.34342" lon="-0.22657">
        <ele>175.3</ele>
        <time>2016-03-12T15:49:26Z</time>
      </trkpt>
      <trkpt lat="48.34343" lon="-0.22671">
        <ele>175</ele>
        <time>2016-03-12T15:49:28Z</time>
      </trkpt>
      <trkpt lat="48.34347" lon="-0.22687">
        <ele>174.8</ele>
        <time>2016-03-12T15:49:30Z</time>
      </trkpt>
      <trkpt lat="48.3435" lon="-0.22703">
        <ele>174.5</ele>
        <time>2016-03-12T15:49:32Z</time>
      </trkpt>
      <trkpt lat="48.34354" lon="-0.2272">
        <ele>174.3</ele>
        <time>2016-03-12T15:49:34Z</time>
      </trkpt>
      <trkpt lat="48.34358" lon="-0.22738">
        <ele>174</ele>
        <time>2016-03-12T15:49:36Z</time>
      </trkpt>
      <trkpt lat="48.34363" lon="-0.22757">
        <ele>173.8</ele>
        <time>2016-03-12T15:49:38Z</time>
      </trkpt>
      <trkpt lat="48.34367" lon="-0.22777">
        <ele>173.6</ele>
        <time>2016-03-12T15:49:40Z</time>
      </trkpt>
      <trkpt lat="48.34371" lon="-0.22797">
        <ele>173.4</ele>
        <time>2016-03-12T15:49:42Z</time>
      </trkpt>
      <trkpt lat="48.34376" lon="-0.22817">
        <ele>173.1</ele>
        <time>2016-03-12T15:49:44Z</time>
      </trkpt>
      <trkpt lat="48.34381" lon="-0.22838">
        <ele>172.9</ele>
        <time>2016-03-12T15:49:46Z</time>
      </trkpt>
      <trkpt lat="48.34385" lon="-0.22858">
        <ele>172.7</ele>
        <time>2016-03-12T15:49:48Z</time>
      </trkpt>
      <trkpt lat="48.3439" lon="-0.22878">
        <ele>172.5</ele>
        <time>2016-03-12T15:49:50Z</time>
      </trkpt>
      <trkpt lat="48.34395" lon="-0.22898">
        <ele>172.3</ele>
        <time>2016-03-12T15:49:52Z</time>
      </trkpt>
      <trkpt lat="48.34399" lon="-0.22918">
        <ele>172.1</ele>
        <time>2016-03-12T15:49:54Z</time>
      </trkpt>
      <trkpt lat="48.34404" lon="-0.22938">
        <ele>171.9</ele>
        <time>2016-03-12T15:49:56Z</time>
      </trkpt>
      <trkpt lat="48.34408" lon="-0.22957">
        <ele>171.8</ele>
        <time>2016-03-12T15:49:58Z</time>
      </trkpt>
      <trkpt lat="48.34413" lon="-0.22977">
        <ele>171.6</ele>
        <time>2016-03-12T15:50:00Z</time>
      </trkpt>
      <trkpt lat="48.34417" lon="-0.22996">
        <ele>171.5</ele>
        <time>2016-03-12T15:50:02Z</time>
      </trkpt>
      <trkpt lat="48.34421" lon="-0.23014">
        <ele>171.4</ele>
        <time>2016-03-12T15:50:04Z</time>
      </trkpt>
      <trkpt lat="48.34426" lon="-0.2303">
        <ele>171.3</ele>
        <time>2016-03-12T15:50:06Z</time>
      </trkpt>
      <trkpt lat="48.34432" lon="-0.23045">
        <ele>171.2</ele>
        <time>2016-03-12T15:50:08Z</time>
      </trkpt>
      <trkpt lat="48.3444" lon="-0.23056">
        <ele>171.2</ele>
        <time>2016-03-12T15:50:10Z</time>
      </trkpt>
      <trkpt lat="48.34448" lon="-0.23065">
        <ele>171.3</ele>
        <time>2016-03-12T15:50:12Z</time>
      </trkpt>
      <trkpt lat="48.34459" lon="-0.23073">
        <ele>171.5</ele>
        <time>2016-03-12T15:50:15Z</time>
      </trkpt>
      <trkpt lat="48.34467" lon="-0.23084">
        <ele>171.9</ele>
        <time>2016-03-12T15:50:18Z</time>
      </trkpt>
      <trkpt lat="48.34473" lon="-0.23099">
        <ele>172.3</ele>
        <time>2016-03-12T15:50:21Z</time>
      </trkpt>
      <trkpt lat="48.34477" lon="-0.23112">
        <ele>172.5</ele>
        <time>2016-03-12T15:50:23Z</time>
      </trkpt>
      <trkpt lat="48.34481" lon="-0.23125">
        <ele>172.7</ele>
        <time>2016-03-12T15:50:25Z</time>
      </trkpt>
      <trkpt lat="48.34485" lon="-0.23142">
        <ele>173</ele>
        <time>2016-03-12T15:50:28Z</time>
      </trkpt>
      <trkpt lat="48.34491" lon="-0.2316">
        <ele>173.2</ele>
        <time>2016-03-12T15:50:31Z</time>
      </trkpt>
      <trkpt lat="48.34494" lon="-0.23173">
        <ele>173.3</ele>
        <time>2016-03-12T15:50:33Z</time>
      </trkpt>
      <trkpt lat="48.34498" lon="-0.23188">
        <ele>173.4</ele>
        <time>2016-03-12T15:50:35Z</time>
      </trkpt>
      <trkpt lat="48.34502" lon="-0.23202">
        <ele>173.5</ele>
        <time>2016-03-12T15:50:37Z</time>
      </trkpt>
      <trkpt lat="48.34505" lon="-0.23216">
        <ele>173.6</ele>
        <time>2016-03-12T15:50:39Z</time>
      </trkpt>
      <trkpt lat="48.34508" lon="-0.23231">
        <ele>173.6</ele>
        <time>2016-03-12T15:50:41Z</time>
      </trkpt>
      <trkpt lat="48.34511" lon="-0.23245">
        <ele>173.7</ele>
        <time>2016-03-12T15:50:43Z</time>
      </trkpt>
      <trkpt lat="48.34513" lon="-0.23258">
        <ele>173.7</ele>
        <time>2016-03-12T15:50:45Z</time>
      </trkpt>
      <trkpt lat="48.34517" lon="-0.23278">
        <ele>173.8</ele>
        <time>2016-03-12T15:50:48Z</time>
      </trkpt>
      <trkpt lat="48.3452" lon="-0.23291">
        <ele>173.9</ele>
        <time>2016-03-12T15:50:50Z</time>
      </trkpt>
      <trkpt lat="48.34524" lon="-0.23305">
        <ele>173.9</ele>
        <time>2016-03-12T15:50:52Z</time>
      </trkpt>
      <trkpt lat="48.34528" lon="-0.23318">
        <ele>173.9</ele>
        <time>2016-03-12T15:50:54Z</time>
      </trkpt>
      <trkpt lat="48.34532" lon="-0.2333">
        <ele>174</ele>
        <time>2016-03-12T15:50:56Z</time>
      </trkpt>
      <trkpt lat="48.34538" lon="-0.23343">
        <ele>174</ele>
        <time>2016-03-12T15:50:58Z</time>
      </trkpt>
      <trkpt lat="48.34543" lon="-0.23356">
        <ele>174</ele>
        <time>2016-03-12T15:51:00Z</time>
      </trkpt>
      <trkpt lat="48.34547" lon="-0.2337">
        <ele>174</ele>
        <time>2016-03-12T15:51:02Z</time>
      </trkpt>
      <trkpt lat="48.34552" lon="-0.23386">
        <ele>174.1</ele>
        <time>2016-03-12T15:51:04Z</time>
      </trkpt>
      <trkpt lat="48.34556" lon="-0.23401">
        <ele>174.1</ele>
        <time>2016-03-12T15:51:06Z</time>
      </trkpt>
      <trkpt lat="48.3456" lon="-0.23415">
        <ele>174.1</ele>
        <time>2016-03-12T15:51:08Z</time>
      </trkpt>
      <trkpt lat="48.34566" lon="-0.23429">
        <ele>174.1</ele>
        <time>2016-03-12T15:51:10Z</time>
      </trkpt>
      <trkpt lat="48.34572" lon="-0.23442">
        <ele>174.1</ele>
        <time>2016-03-12T15:51:12Z</time>
      </trkpt>
      <trkpt lat="48.34579" lon="-0.23455">
        <ele>174</ele>
        <time>2016-03-12T15:51:14Z</time>
      </trkpt>
      <trkpt lat="48.34585" lon="-0.23466">
        <ele>174</ele>
        <time>2016-03-12T15:51:16Z</time>
      </trkpt>
      <trkpt lat="48.34592" lon="-0.23478">
        <ele>174</ele>
        <time>2016-03-12T15:51:18Z</time>
      </trkpt>
      <trkpt lat="48.34599" lon="-0.2349">
        <ele>173.9</ele>
        <time>2016-03-12T15:51:20Z</time>
      </trkpt>
      <trkpt lat="48.34606" lon="-0.23502">
        <ele>173.9</ele>
        <time>2016-03-12T15:51:22Z</time>
      </trkpt>
      <trkpt lat="48.34613" lon="-0.23514">
        <ele>173.8</ele>
        <time>2016-03-12T15:51:24Z</time>
      </trkpt>
      <trkpt lat="48.34618" lon="-0.23528">
        <ele>173.7</ele>
        <time>2016-03-12T15:51:26Z</time>
      </trkpt>
      <trkpt lat="48.34621" lon="-0.23545">
        <ele>173.6</ele>
        <time>2016-03-12T15:51:28Z</time>
      </trkpt>
      <trkpt lat="48.34623" lon="-0.23564">
        <ele>173.4</ele>
        <time>2016-03-12T15:51:30Z</time>
      </trkpt>
      <trkpt lat="48.34626" lon="-0.23583">
        <ele>173.2</ele>
        <time>2016-03-12T15:51:32Z</time>
      </trkpt>
      <trkpt lat="48.3463" lon="-0.23597">
        <ele>172.9</ele>
        <time>2016-03-12T15:51:34Z</time>
      </trkpt>
      <trkpt lat="48.34638" lon="-0.2361">
        <ele>172.2</ele>
        <time>2016-03-12T15:51:38Z</time>
      </trkpt>
      <trkpt lat="48.34647" lon="-0.23623">
        <ele>171.7</ele>
        <time>2016-03-12T15:51:41Z</time>
      </trkpt>
      <trkpt lat="48.34654" lon="-0.23632">
        <ele>171.4</ele>
        <time>2016-03-12T15:51:43Z</time>
      </trkpt>
      <trkpt lat="48.3466" lon="-0.23642">
        <ele>171</ele>
        <time>2016-03-12T15:51:45Z</time>
      </trkpt>
      <trkpt lat="48.34658" lon="-0.23661">
        <ele>170.5</ele>
        <time>2016-03-12T15:51:48Z</time>
      </trkpt>
      <trkpt lat="48.34649" lon="-0.23671">
        <ele>170.1</ele>
        <time>2016-03-12T15:51:50Z</time>
      </trkpt>
      <trkpt lat="48.34641" lon="-0.2368">
        <ele>169.6</ele>
        <time>2016-03-12T15:51:52Z</time>
      </trkpt>
      <trkpt lat="48.34633" lon="-0.23692">
        <ele>169.1</ele>
        <time>2016-03-12T15:51:54Z</time>
      </trkpt>
      <trkpt lat="48.34626" lon="-0.23705">
        <ele>168.4</ele>
        <time>2016-03-12T15:51:57Z</time>
      </trkpt>
      <trkpt lat="48.34623" lon="-0.23721">
        <ele>167.8</ele>
        <time>2016-03-12T15:52:00Z</time>
      </trkpt>
      <trkpt lat="48.34623" lon="-0.23735">
        <ele>167.5</ele>
        <time>2016-03-12T15:52:02Z</time>
      </trkpt>
      <trkpt lat="48.34628" lon="-0.23753">
        <ele>166.9</ele>
        <time>2016-03-12T15:52:05Z</time>
      </trkpt>
      <trkpt lat="48.34634" lon="-0.23764">
        <ele>166.5</ele>
        <time>2016-03-12T15:52:07Z</time>
      </trkpt>
      <trkpt lat="48.34642" lon="-0.23779">
        <ele>166.1</ele>
        <time>2016-03-12T15:52:10Z</time>
      </trkpt>
      <trkpt lat="48.34646" lon="-0.23792">
        <ele>165.8</ele>
        <time>2016-03-12T15:52:13Z</time>
      </trkpt>
      <trkpt lat="48.34653" lon="-0.23809">
        <ele>165.6</ele>
        <time>2016-03-12T15:52:16Z</time>
      </trkpt>
      <trkpt lat="48.34657" lon="-0.23821">
        <ele>165.5</ele>
        <time>2016-03-12T15:52:18Z</time>
      </trkpt>
      <trkpt lat="48.34663" lon="-0.23837">
        <ele>165.5</ele>
        <time>2016-03-12T15:52:21Z</time>
      </trkpt>
      <trkpt lat="48.34668" lon="-0.23854">
        <ele>165.5</ele>
        <time>2016-03-12T15:52:24Z</time>
      </trkpt>
      <trkpt lat="48.34673" lon="-0.23872">
        <ele>165.6</ele>
        <time>2016-03-12T15:52:27Z</time>
      </trkpt>
      <trkpt lat="48.34676" lon="-0.23886">
        <ele>165.7</ele>
        <time>2016-03-12T15:52:29Z</time>
      </trkpt>
      <trkpt lat="48.34677" lon="-0.239">
        <ele>165.8</ele>
        <time>2016-03-12T15:52:31Z</time>
      </trkpt>
      <trkpt lat="48.34677" lon="-0.2392">
        <ele>165.8</ele>
        <time>2016-03-12T15:52:34Z</time>
      </trkpt>
      <trkpt lat="48.34677" lon="-0.2394">
        <ele>165.9</ele>
        <time>2016-03-12T15:52:37Z</time>
      </trkpt>
      <trkpt lat="48.34679" lon="-0.2396">
        <ele>166</ele>
        <time>2016-03-12T15:52:40Z</time>
      </trkpt>
      <trkpt lat="48.3468" lon="-0.23978">
        <ele>166.3</ele>
        <time>2016-03-12T15:52:43Z</time>
      </trkpt>
      <trkpt lat="48.34681" lon="-0.23996">
        <ele>166.5</ele>
        <time>2016-03-12T15:52:47Z</time>
      </trkpt>
      <trkpt lat="48.34683" lon="-0.2401">
        <ele>166.7</ele>
        <time>2016-03-12T15:52:50Z</time>
      </trkpt>
      <trkpt lat="48.34682" lon="-0.24025">
        <ele>167</ele>
        <time>2016-03-12T15:52:53Z</time>
      </trkpt>
      <trkpt lat="48.34682" lon="-0.2404">
        <ele>167.2</ele>
        <time>2016-03-12T15:52:56Z</time>
      </trkpt>
      <trkpt lat="48.3468" lon="-0.24057">
        <ele>167.6</ele>
        <time>2016-03-12T15:52:59Z</time>
      </trkpt>
      <trkpt lat="48.34679" lon="-0.24072">
        <ele>167.9</ele>
        <time>2016-03-12T15:53:02Z</time>
      </trkpt>
      <trkpt lat="48.34675" lon="-0.24084">
        <ele>169.9</ele>
        <time>2016-03-12T15:53:39Z</time>
      </trkpt>
      <trkpt lat="48.34667" lon="-0.2409">
        <ele>169.9</ele>
        <time>2016-03-12T15:53:42Z</time>
      </trkpt>
      <trkpt lat="48.34659" lon="-0.24101">
        <ele>169.9</ele>
        <time>2016-03-12T15:53:45Z</time>
      </trkpt>
      <trkpt lat="48.34658" lon="-0.2412">
        <ele>170</ele>
        <time>2016-03-12T15:53:48Z</time>
      </trkpt>
      <trkpt lat="48.34661" lon="-0.24134">
        <ele>170</ele>
        <time>2016-03-12T15:53:50Z</time>
      </trkpt>
      <trkpt lat="48.34663" lon="-0.24147">
        <ele>170</ele>
        <time>2016-03-12T15:53:52Z</time>
      </trkpt>
      <trkpt lat="48.34665" lon="-0.24161">
        <ele>170</ele>
        <time>2016-03-12T15:53:54Z</time>
      </trkpt>
      <trkpt lat="48.34668" lon="-0.2418">
        <ele>170.1</ele>
        <time>2016-03-12T15:53:57Z</time>
      </trkpt>
      <trkpt lat="48.34663" lon="-0.24193">
        <ele>170.1</ele>
        <time>2016-03-12T15:54:00Z</time>
      </trkpt>
      <trkpt lat="48.34654" lon="-0.24199">
        <ele>170.2</ele>
        <time>2016-03-12T15:54:02Z</time>
      </trkpt>
      <trkpt lat="48.34644" lon="-0.24206">
        <ele>170.2</ele>
        <time>2016-03-12T15:54:04Z</time>
      </trkpt>
      <trkpt lat="48.34638" lon="-0.24218">
        <ele>170.2</ele>
        <time>2016-03-12T15:54:06Z</time>
      </trkpt>
      <trkpt lat="48.34633" lon="-0.24232">
        <ele>170.2</ele>
        <time>2016-03-12T15:54:08Z</time>
      </trkpt>
      <trkpt lat="48.3463" lon="-0.24245">
        <ele>170.1</ele>
        <time>2016-03-12T15:54:10Z</time>
      </trkpt>
      <trkpt lat="48.3463" lon="-0.24265">
        <ele>170.1</ele>
        <time>2016-03-12T15:54:13Z</time>
      </trkpt>
      <trkpt lat="48.34632" lon="-0.24279">
        <ele>170.1</ele>
        <time>2016-03-12T15:54:15Z</time>
      </trkpt>
      <trkpt lat="48.34635" lon="-0.24292">
        <ele>170.1</ele>
        <time>2016-03-12T15:54:17Z</time>
      </trkpt>
      <trkpt lat="48.34639" lon="-0.24305">
        <ele>170.1</ele>
        <time>2016-03-12T15:54:19Z</time>
      </trkpt>
      <trkpt lat="48.34643" lon="-0.24318">
        <ele>170.1</ele>
        <time>2016-03-12T15:54:21Z</time>
      </trkpt>
      <trkpt lat="48.34647" lon="-0.24331">
        <ele>170.2</ele>
        <time>2016-03-12T15:54:23Z</time>
      </trkpt>
      <trkpt lat="48.34651" lon="-0.24344">
        <ele>170.4</ele>
        <time>2016-03-12T15:54:25Z</time>
      </trkpt>
      <trkpt lat="48.34655" lon="-0.24356">
        <ele>170.6</ele>
        <time>2016-03-12T15:54:27Z</time>
      </trkpt>
      <trkpt lat="48.34662" lon="-0.24372">
        <ele>170.9</ele>
        <time>2016-03-12T15:54:30Z</time>
      </trkpt>
      <trkpt lat="48.34672" lon="-0.24385">
        <ele>171.2</ele>
        <time>2016-03-12T15:54:33Z</time>
      </trkpt>
      <trkpt lat="48.34681" lon="-0.24399">
        <ele>171.7</ele>
        <time>2016-03-12T15:54:36Z</time>
      </trkpt>
      <trkpt lat="48.34687" lon="-0.24415">
        <ele>172.1</ele>
        <time>2016-03-12T15:54:39Z</time>
      </trkpt>
      <trkpt lat="48.34694" lon="-0.24432">
        <ele>172.5</ele>
        <time>2016-03-12T15:54:42Z</time>
      </trkpt>
      <trkpt lat="48.347" lon="-0.24447">
        <ele>172.9</ele>
        <time>2016-03-12T15:54:45Z</time>
      </trkpt>
      <trkpt lat="48.34702" lon="-0.24463">
        <ele>173.3</ele>
        <time>2016-03-12T15:54:48Z</time>
      </trkpt>
      <trkpt lat="48.34704" lon="-0.24481">
        <ele>173.7</ele>
        <time>2016-03-12T15:54:51Z</time>
      </trkpt>
      <trkpt lat="48.34706" lon="-0.24495">
        <ele>173.8</ele>
        <time>2016-03-12T15:54:53Z</time>
      </trkpt>
      <trkpt lat="48.34706" lon="-0.24509">
        <ele>174</ele>
        <time>2016-03-12T15:54:55Z</time>
      </trkpt>
      <trkpt lat="48.34706" lon="-0.24523">
        <ele>174.2</ele>
        <time>2016-03-12T15:54:57Z</time>
      </trkpt>
      <trkpt lat="48.34706" lon="-0.24542">
        <ele>174.4</ele>
        <time>2016-03-12T15:55:00Z</time>
      </trkpt>
      <trkpt lat="48.34706" lon="-0.24557">
        <ele>174.5</ele>
        <time>2016-03-12T15:55:03Z</time>
      </trkpt>
      <trkpt lat="48.34707" lon="-0.24572">
        <ele>174.7</ele>
        <time>2016-03-12T15:55:06Z</time>
      </trkpt>
      <trkpt lat="48.34708" lon="-0.24586">
        <ele>174.8</ele>
        <time>2016-03-12T15:55:09Z</time>
      </trkpt>
      <trkpt lat="48.3471" lon="-0.24601">
        <ele>174.9</ele>
        <time>2016-03-12T15:55:12Z</time>
      </trkpt>
      <trkpt lat="48.34713" lon="-0.24616">
        <ele>174.9</ele>
        <time>2016-03-12T15:55:15Z</time>
      </trkpt>
      <trkpt lat="48.34718" lon="-0.24628">
        <ele>175</ele>
        <time>2016-03-12T15:55:19Z</time>
      </trkpt>
      <trkpt lat="48.34721" lon="-0.24642">
        <ele>175.1</ele>
        <time>2016-03-12T15:55:23Z</time>
      </trkpt>
      <trkpt lat="48.34728" lon="-0.24652">
        <ele>175.7</ele>
        <time>2016-03-12T15:55:39Z</time>
      </trkpt>
      <trkpt lat="48.3473" lon="-0.24667">
        <ele>176</ele>
        <time>2016-03-12T15:55:45Z</time>
      </trkpt>
      <trkpt lat="48.34733" lon="-0.24681">
        <ele>176.3</ele>
        <time>2016-03-12T15:55:50Z</time>
      </trkpt>
      <trkpt lat="48.34729" lon="-0.24694">
        <ele>176.6</ele>
        <time>2016-03-12T15:55:56Z</time>
      </trkpt>
      <trkpt lat="48.34718" lon="-0.24702">
        <ele>176.7</ele>
        <time>2016-03-12T15:56:00Z</time>
      </trkpt>
      <trkpt lat="48.34709" lon="-0.24707">
        <ele>176.7</ele>
        <time>2016-03-12T15:56:03Z</time>
      </trkpt>
      <trkpt lat="48.34706" lon="-0.24722">
        <ele>176.6</ele>
        <time>2016-03-12T15:56:07Z</time>
      </trkpt>
      <trkpt lat="48.34706" lon="-0.2474">
        <ele>176.5</ele>
        <time>2016-03-12T15:56:11Z</time>
      </trkpt>
      <trkpt lat="48.34707" lon="-0.24756">
        <ele>176.4</ele>
        <time>2016-03-12T15:56:15Z</time>
      </trkpt>
      <trkpt lat="48.34707" lon="-0.24772">
        <ele>176.3</ele>
        <time>2016-03-12T15:56:18Z</time>
      </trkpt>
      <trkpt lat="48.34706" lon="-0.24789">
        <ele>176.3</ele>
        <time>2016-03-12T15:56:21Z</time>
      </trkpt>
      <trkpt lat="48.34705" lon="-0.24805">
        <ele>176.2</ele>
        <time>2016-03-12T15:56:24Z</time>
      </trkpt>
      <trkpt lat="48.34704" lon="-0.2482">
        <ele>176.2</ele>
        <time>2016-03-12T15:56:27Z</time>
      </trkpt>
      <trkpt lat="48.34706" lon="-0.24836">
        <ele>176.2</ele>
        <time>2016-03-12T15:56:30Z</time>
      </trkpt>
      <trkpt lat="48.34713" lon="-0.2485">
        <ele>176.1</ele>
        <time>2016-03-12T15:56:33Z</time>
      </trkpt>
      <trkpt lat="48.34722" lon="-0.24865">
        <ele>176.1</ele>
        <time>2016-03-12T15:56:36Z</time>
      </trkpt>
      <trkpt lat="48.34728" lon="-0.24875">
        <ele>176.1</ele>
        <time>2016-03-12T15:56:38Z</time>
      </trkpt>
      <trkpt lat="48.34734" lon="-0.24886">
        <ele>176.1</ele>
        <time>2016-03-12T15:56:40Z</time>
      </trkpt>
      <trkpt lat="48.34738" lon="-0.24898">
        <ele>176.1</ele>
        <time>2016-03-12T15:56:42Z</time>
      </trkpt>
      <trkpt lat="48.3474" lon="-0.24911">
        <ele>176.2</ele>
        <time>2016-03-12T15:56:44Z</time>
      </trkpt>
      <trkpt lat="48.34742" lon="-0.24926">
        <ele>176.2</ele>
        <time>2016-03-12T15:56:46Z</time>
      </trkpt>
      <trkpt lat="48.34742" lon="-0.2494">
        <ele>176.3</ele>
        <time>2016-03-12T15:56:48Z</time>
      </trkpt>
      <trkpt lat="48.34743" lon="-0.24955">
        <ele>176.3</ele>
        <time>2016-03-12T15:56:50Z</time>
      </trkpt>
      <trkpt lat="48.34742" lon="-0.24968">
        <ele>176.4</ele>
        <time>2016-03-12T15:56:52Z</time>
      </trkpt>
      <trkpt lat="48.34735" lon="-0.24983">
        <ele>176.5</ele>
        <time>2016-03-12T15:56:55Z</time>
      </trkpt>
      <trkpt lat="48.34723" lon="-0.24991">
        <ele>176.6</ele>
        <time>2016-03-12T15:56:58Z</time>
      </trkpt>
      <trkpt lat="48.3471" lon="-0.24995">
        <ele>176.6</ele>
        <time>2016-03-12T15:57:01Z</time>
      </trkpt>
      <trkpt lat="48.34697" lon="-0.24998">
        <ele>176.5</ele>
        <time>2016-03-12T15:57:04Z</time>
      </trkpt>
      <trkpt lat="48.34686" lon="-0.25">
        <ele>176.6</ele>
        <time>2016-03-12T15:57:07Z</time>
      </trkpt>
      <trkpt lat="48.34677" lon="-0.24996">
        <ele>176.6</ele>
        <time>2016-03-12T15:57:10Z</time>
      </trkpt>
      <trkpt lat="48.34671" lon="-0.24986">
        <ele>176.6</ele>
        <time>2016-03-12T15:57:16Z</time>
      </trkpt>
      <trkpt lat="48.34669" lon="-0.2497">
        <ele>176.6</ele>
        <time>2016-03-12T15:57:20Z</time>
      </trkpt>
      <trkpt lat="48.34669" lon="-0.24952">
        <ele>176.6</ele>
        <time>2016-03-12T15:57:23Z</time>
      </trkpt>
      <trkpt lat="48.34667" lon="-0.24939">
        <ele>176.6</ele>
        <time>2016-03-12T15:57:25Z</time>
      </trkpt>
      <trkpt lat="48.34662" lon="-0.24926">
        <ele>176.6</ele>
        <time>2016-03-12T15:57:27Z</time>
      </trkpt>
      <trkpt lat="48.34654" lon="-0.2491">
        <ele>176.6</ele>
        <time>2016-03-12T15:57:30Z</time>
      </trkpt>
      <trkpt lat="48.34647" lon="-0.24898">
        <ele>176.6</ele>
        <time>2016-03-12T15:57:33Z</time>
      </trkpt>
      <trkpt lat="48.34637" lon="-0.24893">
        <ele>176.6</ele>
        <time>2016-03-12T15:57:36Z</time>
      </trkpt>
      <trkpt lat="48.34628" lon="-0.24895">
        <ele>176.6</ele>
        <time>2016-03-12T15:57:39Z</time>
      </trkpt>
      <trkpt lat="48.34639" lon="-0.249">
        <ele>176.6</ele>
        <time>2016-03-12T15:57:48Z</time>
      </trkpt>
      <trkpt lat="48.34649" lon="-0.24904">
        <ele>176.5</ele>
        <time>2016-03-12T15:57:51Z</time>
      </trkpt>
      <trkpt lat="48.34657" lon="-0.24918">
        <ele>176.5</ele>
        <time>2016-03-12T15:57:54Z</time>
      </trkpt>
      <trkpt lat="48.34663" lon="-0.2493">
        <ele>176.5</ele>
        <time>2016-03-12T15:57:56Z</time>
      </trkpt>
      <trkpt lat="48.34667" lon="-0.24943">
        <ele>176.4</ele>
        <time>2016-03-12T15:57:58Z</time>
      </trkpt>
      <trkpt lat="48.34669" lon="-0.24958">
        <ele>176.4</ele>
        <time>2016-03-12T15:58:00Z</time>
      </trkpt>
      <trkpt lat="48.3467" lon="-0.24972">
        <ele>176.4</ele>
        <time>2016-03-12T15:58:02Z</time>
      </trkpt>
      <trkpt lat="48.34673" lon="-0.24985">
        <ele>176.4</ele>
        <time>2016-03-12T15:58:04Z</time>
      </trkpt>
      <trkpt lat="48.34679" lon="-0.24996">
        <ele>176.5</ele>
        <time>2016-03-12T15:58:06Z</time>
      </trkpt>
      <trkpt lat="48.34687" lon="-0.25001">
        <ele>176.5</ele>
        <time>2016-03-12T15:58:08Z</time>
      </trkpt>
      <trkpt lat="48.34697" lon="-0.25008">
        <ele>176.6</ele>
        <time>2016-03-12T15:58:11Z</time>
      </trkpt>
      <trkpt lat="48.34705" lon="-0.25017">
        <ele>176.7</ele>
        <time>2016-03-12T15:58:14Z</time>
      </trkpt>
      <trkpt lat="48.34711" lon="-0.25029">
        <ele>176.7</ele>
        <time>2016-03-12T15:58:17Z</time>
      </trkpt>
      <trkpt lat="48.3472" lon="-0.25038">
        <ele>176.8</ele>
        <time>2016-03-12T15:58:21Z</time>
      </trkpt>
      <trkpt lat="48.34732" lon="-0.25035">
        <ele>176.8</ele>
        <time>2016-03-12T15:58:25Z</time>
      </trkpt>
      <trkpt lat="48.34743" lon="-0.25033">
        <ele>176.8</ele>
        <time>2016-03-12T15:58:29Z</time>
      </trkpt>
      <trkpt lat="48.34754" lon="-0.2503">
        <ele>176.9</ele>
        <time>2016-03-12T15:58:34Z</time>
      </trkpt>
      <trkpt lat="48.34764" lon="-0.25025">
        <ele>177</ele>
        <time>2016-03-12T15:58:38Z</time>
      </trkpt>
      <trkpt lat="48.34774" lon="-0.25018">
        <ele>177.2</ele>
        <time>2016-03-12T15:58:42Z</time>
      </trkpt>
      <trkpt lat="48.34783" lon="-0.25011">
        <ele>177.4</ele>
        <time>2016-03-12T15:58:46Z</time>
      </trkpt>
      <trkpt lat="48.34794" lon="-0.2501">
        <ele>177.6</ele>
        <time>2016-03-12T15:58:50Z</time>
      </trkpt>
      <trkpt lat="48.34805" lon="-0.25008">
        <ele>177.7</ele>
        <time>2016-03-12T15:58:54Z</time>
      </trkpt>
      <trkpt lat="48.34815" lon="-0.25009">
        <ele>177.9</ele>
        <time>2016-03-12T15:58:57Z</time>
      </trkpt>
      <trkpt lat="48.34823" lon="-0.25015">
        <ele>178</ele>
        <time>2016-03-12T15:59:00Z</time>
      </trkpt>
      <trkpt lat="48.34827" lon="-0.25028">
        <ele>178.2</ele>
        <time>2016-03-12T15:59:03Z</time>
      </trkpt>
      <trkpt lat="48.3483" lon="-0.25046">
        <ele>178.3</ele>
        <time>2016-03-12T15:59:06Z</time>
      </trkpt>
      <trkpt lat="48.34832" lon="-0.25064">
        <ele>178.5</ele>
        <time>2016-03-12T15:59:09Z</time>
      </trkpt>
      <trkpt lat="48.34834" lon="-0.25082">
        <ele>178.8</ele>
        <time>2016-03-12T15:59:12Z</time>
      </trkpt>
      <trkpt lat="48.34836" lon="-0.25101">
        <ele>179</ele>
        <time>2016-03-12T15:59:15Z</time>
      </trkpt>
      <trkpt lat="48.34837" lon="-0.25114">
        <ele>179.1</ele>
        <time>2016-03-12T15:59:17Z</time>
      </trkpt>
      <trkpt lat="48.34839" lon="-0.25129">
        <ele>179.2</ele>
        <time>2016-03-12T15:59:19Z</time>
      </trkpt>
      <trkpt lat="48.3484" lon="-0.25142">
        <ele>179.3</ele>
        <time>2016-03-12T15:59:21Z</time>
      </trkpt>
      <trkpt lat="48.34842" lon="-0.25162">
        <ele>179.4</ele>
        <time>2016-03-12T15:59:24Z</time>
      </trkpt>
      <trkpt lat="48.34843" lon="-0.2518">
        <ele>179.5</ele>
        <time>2016-03-12T15:59:27Z</time>
      </trkpt>
      <trkpt lat="48.34847" lon="-0.25194">
        <ele>179.6</ele>
        <time>2016-03-12T15:59:30Z</time>
      </trkpt>
      <trkpt lat="48.3486" lon="-0.25193">
        <ele>179.7</ele>
        <time>2016-03-12T15:59:34Z</time>
      </trkpt>
      <trkpt lat="48.34869" lon="-0.25192">
        <ele>179.8</ele>
        <time>2016-03-12T15:59:37Z</time>
      </trkpt>
      <trkpt lat="48.34879" lon="-0.25189">
        <ele>180</ele>
        <time>2016-03-12T15:59:40Z</time>
      </trkpt>
      <trkpt lat="48.34888" lon="-0.25183">
        <ele>180.2</ele>
        <time>2016-03-12T15:59:43Z</time>
      </trkpt>
      <trkpt lat="48.34899" lon="-0.25178">
        <ele>180.5</ele>
        <time>2016-03-12T15:59:46Z</time>
      </trkpt>
      <trkpt lat="48.34909" lon="-0.25173">
        <ele>180.9</ele>
        <time>2016-03-12T15:59:49Z</time>
      </trkpt>
      <trkpt lat="48.34919" lon="-0.25171">
        <ele>181.2</ele>
        <time>2016-03-12T15:59:52Z</time>
      </trkpt>
      <trkpt lat="48.34929" lon="-0.25168">
        <ele>181.5</ele>
        <time>2016-03-12T15:59:55Z</time>
      </trkpt>
      <trkpt lat="48.34938" lon="-0.25164">
        <ele>181.8</ele>
        <time>2016-03-12T15:59:58Z</time>
      </trkpt>
      <trkpt lat="48.34949" lon="-0.25162">
        <ele>182.4</ele>
        <time>2016-03-12T16:00:02Z</time>
      </trkpt>
      <trkpt lat="48.3496" lon="-0.25158">
        <ele>183.1</ele>
        <time>2016-03-12T16:00:06Z</time>
      </trkpt>
      <trkpt lat="48.3497" lon="-0.25154">
        <ele>183.9</ele>
        <time>2016-03-12T16:00:10Z</time>
      </trkpt>
      <trkpt lat="48.34979" lon="-0.25148">
        <ele>184.7</ele>
        <time>2016-03-12T16:00:14Z</time>
      </trkpt>
      <trkpt lat="48.34988" lon="-0.25143">
        <ele>185.4</ele>
        <time>2016-03-12T16:00:18Z</time>
      </trkpt>
      <trkpt lat="48.34998" lon="-0.2514">
        <ele>186.3</ele>
        <time>2016-03-12T16:00:22Z</time>
      </trkpt>
      <trkpt lat="48.35008" lon="-0.25135">
        <ele>187.1</ele>
        <time>2016-03-12T16:00:26Z</time>
      </trkpt>
      <trkpt lat="48.35017" lon="-0.25132">
        <ele>187.9</ele>
        <time>2016-03-12T16:00:30Z</time>
      </trkpt>
      <trkpt lat="48.35028" lon="-0.25133">
        <ele>189</ele>
        <time>2016-03-12T16:00:35Z</time>
      </trkpt>
      <trkpt lat="48.35032" lon="-0.25148">
        <ele>190.1</ele>
        <time>2016-03-12T16:00:40Z</time>
      </trkpt>
      <trkpt lat="48.35034" lon="-0.25164">
        <ele>190.7</ele>
        <time>2016-03-12T16:00:44Z</time>
      </trkpt>
      <trkpt lat="48.35036" lon="-0.25178">
        <ele>191.2</ele>
        <time>2016-03-12T16:00:47Z</time>
      </trkpt>
      <trkpt lat="48.35038" lon="-0.25194">
        <ele>191.7</ele>
        <time>2016-03-12T16:00:50Z</time>
      </trkpt>
      <trkpt lat="48.3504" lon="-0.25207">
        <ele>192.1</ele>
        <time>2016-03-12T16:00:53Z</time>
      </trkpt>
      <trkpt lat="48.35043" lon="-0.25224">
        <ele>192.6</ele>
        <time>2016-03-12T16:00:57Z</time>
      </trkpt>
      <trkpt lat="48.35044" lon="-0.25239">
        <ele>193</ele>
        <time>2016-03-12T16:01:00Z</time>
      </trkpt>
      <trkpt lat="48.35045" lon="-0.25255">
        <ele>193.3</ele>
        <time>2016-03-12T16:01:03Z</time>
      </trkpt>
      <trkpt lat="48.35038" lon="-0.25263">
        <ele>193.6</ele>
        <time>2016-03-12T16:01:06Z</time>
      </trkpt>
      <trkpt lat="48.35028" lon="-0.25265">
        <ele>193.8</ele>
        <time>2016-03-12T16:01:08Z</time>
      </trkpt>
      <trkpt lat="48.35017" lon="-0.25269">
        <ele>193.9</ele>
        <time>2016-03-12T16:01:10Z</time>
      </trkpt>
      <trkpt lat="48.35005" lon="-0.25277">
        <ele>193.5</ele>
        <time>2016-03-12T16:01:12Z</time>
      </trkpt>
      <trkpt lat="48.35002" lon="-0.25289">
        <ele>193.1</ele>
        <time>2016-03-12T16:01:14Z</time>
      </trkpt>
      <trkpt lat="48.35003" lon="-0.25308">
        <ele>192.6</ele>
        <time>2016-03-12T16:01:17Z</time>
      </trkpt>
      <trkpt lat="48.35004" lon="-0.25328">
        <ele>192.1</ele>
        <time>2016-03-12T16:01:20Z</time>
      </trkpt>
      <trkpt lat="48.35004" lon="-0.25342">
        <ele>191.8</ele>
        <time>2016-03-12T16:01:22Z</time>
      </trkpt>
      <trkpt lat="48.35005" lon="-0.25356">
        <ele>191.6</ele>
        <time>2016-03-12T16:01:24Z</time>
      </trkpt>
      <trkpt lat="48.35006" lon="-0.2537">
        <ele>191.4</ele>
        <time>2016-03-12T16:01:26Z</time>
      </trkpt>
      <trkpt lat="48.35008" lon="-0.25391">
        <ele>191.2</ele>
        <time>2016-03-12T16:01:29Z</time>
      </trkpt>
      <trkpt lat="48.3501" lon="-0.25405">
        <ele>191</ele>
        <time>2016-03-12T16:01:31Z</time>
      </trkpt>
      <trkpt lat="48.35012" lon="-0.25419">
        <ele>190.9</ele>
        <time>2016-03-12T16:01:33Z</time>
      </trkpt>
      <trkpt lat="48.35015" lon="-0.25434">
        <ele>190.8</ele>
        <time>2016-03-12T16:01:35Z</time>
      </trkpt>
      <trkpt lat="48.35019" lon="-0.25452">
        <ele>190.6</ele>
        <time>2016-03-12T16:01:38Z</time>
      </trkpt>
      <trkpt lat="48.35026" lon="-0.25467">
        <ele>190.5</ele>
        <time>2016-03-12T16:01:41Z</time>
      </trkpt>
      <trkpt lat="48.35032" lon="-0.25479">
        <ele>190.6</ele>
        <time>2016-03-12T16:01:44Z</time>
      </trkpt>
      <trkpt lat="48.35041" lon="-0.25487">
        <ele>190.8</ele>
        <time>2016-03-12T16:01:48Z</time>
      </trkpt>
      <trkpt lat="48.35049" lon="-0.25496">
        <ele>191.2</ele>
        <time>2016-03-12T16:01:53Z</time>
      </trkpt>
      <trkpt lat="48.35058" lon="-0.25503">
        <ele>191.6</ele>
        <time>2016-03-12T16:01:57Z</time>
      </trkpt>
      <trkpt lat="48.35067" lon="-0.25511">
        <ele>192.2</ele>
        <time>2016-03-12T16:02:01Z</time>
      </trkpt>
      <trkpt lat="48.35076" lon="-0.25517">
        <ele>193</ele>
        <time>2016-03-12T16:02:06Z</time>
      </trkpt>
      <trkpt lat="48.35086" lon="-0.25524">
        <ele>194.2</ele>
        <time>2016-03-12T16:02:12Z</time>
      </trkpt>
      <trkpt lat="48.35095" lon="-0.25529">
        <ele>194.9</ele>
        <time>2016-03-12T16:02:16Z</time>
      </trkpt>
      <trkpt lat="48.35105" lon="-0.25537">
        <ele>196</ele>
        <time>2016-03-12T16:02:22Z</time>
      </trkpt>
      <trkpt lat="48.35114" lon="-0.25543">
        <ele>196.8</ele>
        <time>2016-03-12T16:02:26Z</time>
      </trkpt>
      <trkpt lat="48.35124" lon="-0.25549">
        <ele>197.7</ele>
        <time>2016-03-12T16:02:31Z</time>
      </trkpt>
      <trkpt lat="48.35132" lon="-0.25554">
        <ele>198.8</ele>
        <time>2016-03-12T16:02:36Z</time>
      </trkpt>
      <trkpt lat="48.35143" lon="-0.25559">
        <ele>200.2</ele>
        <time>2016-03-12T16:02:42Z</time>
      </trkpt>
      <trkpt lat="48.35152" lon="-0.25562">
        <ele>201.3</ele>
        <time>2016-03-12T16:02:48Z</time>
      </trkpt>
      <trkpt lat="48.35162" lon="-0.25561">
        <ele>202.6</ele>
        <time>2016-03-12T16:02:55Z</time>
      </trkpt>
      <trkpt lat="48.35173" lon="-0.25563">
        <ele>203.3</ele>
        <time>2016-03-12T16:02:59Z</time>
      </trkpt>
      <trkpt lat="48.35183" lon="-0.2556">
        <ele>204.2</ele>
        <time>2016-03-12T16:03:04Z</time>
      </trkpt>
      <trkpt lat="48.35189" lon="-0.25548">
        <ele>204.8</ele>
        <time>2016-03-12T16:03:08Z</time>
      </trkpt>
      <trkpt lat="48.35194" lon="-0.25536">
        <ele>205.4</ele>
        <time>2016-03-12T16:03:12Z</time>
      </trkpt>
      <trkpt lat="48.35198" lon="-0.25523">
        <ele>206</ele>
        <time>2016-03-12T16:03:16Z</time>
      </trkpt>
      <trkpt lat="48.35202" lon="-0.25506">
        <ele>206.8</ele>
        <time>2016-03-12T16:03:21Z</time>
      </trkpt>
      <trkpt lat="48.35204" lon="-0.25492">
        <ele>207.5</ele>
        <time>2016-03-12T16:03:25Z</time>
      </trkpt>
      <trkpt lat="48.35209" lon="-0.25478">
        <ele>208.5</ele>
        <time>2016-03-12T16:03:30Z</time>
      </trkpt>
      <trkpt lat="48.35216" lon="-0.25469">
        <ele>209.3</ele>
        <time>2016-03-12T16:03:34Z</time>
      </trkpt>
      <trkpt lat="48.35227" lon="-0.25465">
        <ele>210.3</ele>
        <time>2016-03-12T16:03:39Z</time>
      </trkpt>
      <trkpt lat="48.35236" lon="-0.25466">
        <ele>211.1</ele>
        <time>2016-03-12T16:03:43Z</time>
      </trkpt>
      <trkpt lat="48.35246" lon="-0.25469">
        <ele>212.1</ele>
        <time>2016-03-12T16:03:48Z</time>
      </trkpt>
      <trkpt lat="48.35255" lon="-0.25472">
        <ele>212.8</ele>
        <time>2016-03-12T16:03:52Z</time>
      </trkpt>
      <trkpt lat="48.35265" lon="-0.25476">
        <ele>213.7</ele>
        <time>2016-03-12T16:03:57Z</time>
      </trkpt>
      <trkpt lat="48.35274" lon="-0.25481">
        <ele>214.6</ele>
        <time>2016-03-12T16:04:02Z</time>
      </trkpt>
      <trkpt lat="48.35285" lon="-0.25486">
        <ele>215.8</ele>
        <time>2016-03-12T16:04:09Z</time>
      </trkpt>
      <trkpt lat="48.35294" lon="-0.2549">
        <ele>216.7</ele>
        <time>2016-03-12T16:04:14Z</time>
      </trkpt>
      <trkpt lat="48.35304" lon="-0.25495">
        <ele>217.5</ele>
        <time>2016-03-12T16:04:18Z</time>
      </trkpt>
      <trkpt lat="48.35314" lon="-0.25499">
        <ele>218.5</ele>
        <time>2016-03-12T16:04:23Z</time>
      </trkpt>
      <trkpt lat="48.35324" lon="-0.25504">
        <ele>219.8</ele>
        <time>2016-03-12T16:04:29Z</time>
      </trkpt>
      <trkpt lat="48.35332" lon="-0.25511">
        <ele>220.7</ele>
        <time>2016-03-12T16:04:33Z</time>
      </trkpt>
      <trkpt lat="48.35338" lon="-0.25524">
        <ele>221.6</ele>
        <time>2016-03-12T16:04:38Z</time>
      </trkpt>
      <trkpt lat="48.35339" lon="-0.25538">
        <ele>222.1</ele>
        <time>2016-03-12T16:04:41Z</time>
      </trkpt>
      <trkpt lat="48.35339" lon="-0.25553">
        <ele>222.5</ele>
        <time>2016-03-12T16:04:44Z</time>
      </trkpt>
      <trkpt lat="48.35337" lon="-0.25568">
        <ele>222.9</ele>
        <time>2016-03-12T16:04:47Z</time>
      </trkpt>
      <trkpt lat="48.35336" lon="-0.25583">
        <ele>223.2</ele>
        <time>2016-03-12T16:04:50Z</time>
      </trkpt>
      <trkpt lat="48.35334" lon="-0.25598">
        <ele>223.6</ele>
        <time>2016-03-12T16:04:53Z</time>
      </trkpt>
      <trkpt lat="48.35331" lon="-0.25613">
        <ele>223.9</ele>
        <time>2016-03-12T16:04:56Z</time>
      </trkpt>
      <trkpt lat="48.35327" lon="-0.25628">
        <ele>224.2</ele>
        <time>2016-03-12T16:04:59Z</time>
      </trkpt>
      <trkpt lat="48.35324" lon="-0.25644">
        <ele>224.5</ele>
        <time>2016-03-12T16:05:02Z</time>
      </trkpt>
      <trkpt lat="48.35321" lon="-0.2566">
        <ele>224.8</ele>
        <time>2016-03-12T16:05:05Z</time>
      </trkpt>
      <trkpt lat="48.35318" lon="-0.25677">
        <ele>225.2</ele>
        <time>2016-03-12T16:05:08Z</time>
      </trkpt>
      <trkpt lat="48.35316" lon="-0.25693">
        <ele>225.5</ele>
        <time>2016-03-12T16:05:11Z</time>
      </trkpt>
      <trkpt lat="48.35313" lon="-0.25708">
        <ele>225.9</ele>
        <time>2016-03-12T16:05:14Z</time>
      </trkpt>
      <trkpt lat="48.3531" lon="-0.25724">
        <ele>226.5</ele>
        <time>2016-03-12T16:05:18Z</time>
      </trkpt>
      <trkpt lat="48.35307" lon="-0.25737">
        <ele>227.4</ele>
        <time>2016-03-12T16:05:22Z</time>
      </trkpt>
      <trkpt lat="48.35303" lon="-0.2575">
        <ele>228.3</ele>
        <time>2016-03-12T16:05:26Z</time>
      </trkpt>
      <trkpt lat="48.35294" lon="-0.25757">
        <ele>229.4</ele>
        <time>2016-03-12T16:05:31Z</time>
      </trkpt>
      <trkpt lat="48.35285" lon="-0.25762">
        <ele>230.1</ele>
        <time>2016-03-12T16:05:36Z</time>
      </trkpt>
      <trkpt lat="48.35276" lon="-0.25767">
        <ele>230.7</ele>
        <time>2016-03-12T16:05:41Z</time>
      </trkpt>
      <trkpt lat="48.35267" lon="-0.25772">
        <ele>232.1</ele>
        <time>2016-03-12T16:06:06Z</time>
      </trkpt>
      <trkpt lat="48.35258" lon="-0.2578">
        <ele>232.4</ele>
        <time>2016-03-12T16:06:29Z</time>
      </trkpt>
      <trkpt lat="48.35248" lon="-0.25788">
        <ele>232.4</ele>
        <time>2016-03-12T16:06:33Z</time>
      </trkpt>
      <trkpt lat="48.35239" lon="-0.25798">
        <ele>232.7</ele>
        <time>2016-03-12T16:06:38Z</time>
      </trkpt>
      <trkpt lat="48.35231" lon="-0.25805">
        <ele>232.9</ele>
        <time>2016-03-12T16:06:41Z</time>
      </trkpt>
      <trkpt lat="48.35227" lon="-0.25821">
        <ele>233.1</ele>
        <time>2016-03-12T16:06:45Z</time>
      </trkpt>
      <trkpt lat="48.35228" lon="-0.25835">
        <ele>233.3</ele>
        <time>2016-03-12T16:06:48Z</time>
      </trkpt>
      <trkpt lat="48.35226" lon="-0.2585">
        <ele>233.5</ele>
        <time>2016-03-12T16:06:51Z</time>
      </trkpt>
      <trkpt lat="48.35217" lon="-0.25861">
        <ele>233.9</ele>
        <time>2016-03-12T16:06:55Z</time>
      </trkpt>
      <trkpt lat="48.35209" lon="-0.25869">
        <ele>234.2</ele>
        <time>2016-03-12T16:06:58Z</time>
      </trkpt>
      <trkpt lat="48.352" lon="-0.25877">
        <ele>234.3</ele>
        <time>2016-03-12T16:07:00Z</time>
      </trkpt>
      <trkpt lat="48.3519" lon="-0.25888">
        <ele>234.4</ele>
        <time>2016-03-12T16:07:02Z</time>
      </trkpt>
      <trkpt lat="48.35183" lon="-0.25901">
        <ele>234.3</ele>
        <time>2016-03-12T16:07:05Z</time>
      </trkpt>
      <trkpt lat="48.35174" lon="-0.25908">
        <ele>234</ele>
        <time>2016-03-12T16:07:08Z</time>
      </trkpt>
      <trkpt lat="48.35167" lon="-0.25918">
        <ele>233.8</ele>
        <time>2016-03-12T16:07:10Z</time>
      </trkpt>
      <trkpt lat="48.35159" lon="-0.2593">
        <ele>233.2</ele>
        <time>2016-03-12T16:07:13Z</time>
      </trkpt>
      <trkpt lat="48.35158" lon="-0.25949">
        <ele>232.5</ele>
        <time>2016-03-12T16:07:16Z</time>
      </trkpt>
      <trkpt lat="48.35157" lon="-0.25967">
        <ele>231.9</ele>
        <time>2016-03-12T16:07:19Z</time>
      </trkpt>
      <trkpt lat="48.35148" lon="-0.2598">
        <ele>230.8</ele>
        <time>2016-03-12T16:07:22Z</time>
      </trkpt>
      <trkpt lat="48.35143" lon="-0.25997">
        <ele>229.8</ele>
        <time>2016-03-12T16:07:25Z</time>
      </trkpt>
      <trkpt lat="48.35142" lon="-0.26014">
        <ele>228.6</ele>
        <time>2016-03-12T16:07:28Z</time>
      </trkpt>
      <trkpt lat="48.35142" lon="-0.26033">
        <ele>227.4</ele>
        <time>2016-03-12T16:07:31Z</time>
      </trkpt>
      <trkpt lat="48.35142" lon="-0.26047">
        <ele>226.6</ele>
        <time>2016-03-12T16:07:33Z</time>
      </trkpt>
      <trkpt lat="48.35146" lon="-0.26061">
        <ele>225.8</ele>
        <time>2016-03-12T16:07:36Z</time>
      </trkpt>
      <trkpt lat="48.35156" lon="-0.26069">
        <ele>225.2</ele>
        <time>2016-03-12T16:07:40Z</time>
      </trkpt>
      <trkpt lat="48.35167" lon="-0.26074">
        <ele>224.8</ele>
        <time>2016-03-12T16:07:44Z</time>
      </trkpt>
      <trkpt lat="48.35173" lon="-0.2609">
        <ele>224.7</ele>
        <time>2016-03-12T16:07:47Z</time>
      </trkpt>
      <trkpt lat="48.35176" lon="-0.26103">
        <ele>224.9</ele>
        <time>2016-03-12T16:07:50Z</time>
      </trkpt>
      <trkpt lat="48.35179" lon="-0.26122">
        <ele>225</ele>
        <time>2016-03-12T16:07:53Z</time>
      </trkpt>
      <trkpt lat="48.35181" lon="-0.2614">
        <ele>225.1</ele>
        <time>2016-03-12T16:07:56Z</time>
      </trkpt>
      <trkpt lat="48.35183" lon="-0.2616">
        <ele>225.3</ele>
        <time>2016-03-12T16:07:59Z</time>
      </trkpt>
      <trkpt lat="48.35184" lon="-0.26177">
        <ele>225.5</ele>
        <time>2016-03-12T16:08:02Z</time>
      </trkpt>
      <trkpt lat="48.35184" lon="-0.26193">
        <ele>225.7</ele>
        <time>2016-03-12T16:08:05Z</time>
      </trkpt>
      <trkpt lat="48.35183" lon="-0.26207">
        <ele>225.8</ele>
        <time>2016-03-12T16:08:07Z</time>
      </trkpt>
      <trkpt lat="48.35181" lon="-0.2622">
        <ele>226</ele>
        <time>2016-03-12T16:08:09Z</time>
      </trkpt>
      <trkpt lat="48.35179" lon="-0.26236">
        <ele>226.1</ele>
        <time>2016-03-12T16:08:11Z</time>
      </trkpt>
      <trkpt lat="48.35179" lon="-0.26252">
        <ele>226.3</ele>
        <time>2016-03-12T16:08:13Z</time>
      </trkpt>
      <trkpt lat="48.35178" lon="-0.26267">
        <ele>226.4</ele>
        <time>2016-03-12T16:08:15Z</time>
      </trkpt>
      <trkpt lat="48.35177" lon="-0.26282">
        <ele>226.5</ele>
        <time>2016-03-12T16:08:17Z</time>
      </trkpt>
      <trkpt lat="48.35175" lon="-0.26297">
        <ele>226.6</ele>
        <time>2016-03-12T16:08:19Z</time>
      </trkpt>
      <trkpt lat="48.35174" lon="-0.26313">
        <ele>226.7</ele>
        <time>2016-03-12T16:08:21Z</time>
      </trkpt>
      <trkpt lat="48.35171" lon="-0.26329">
        <ele>226.8</ele>
        <time>2016-03-12T16:08:23Z</time>
      </trkpt>
      <trkpt lat="48.35167" lon="-0.26345">
        <ele>226.8</ele>
        <time>2016-03-12T16:08:25Z</time>
      </trkpt>
      <trkpt lat="48.35162" lon="-0.26361">
        <ele>226.8</ele>
        <time>2016-03-12T16:08:27Z</time>
      </trkpt>
      <trkpt lat="48.35155" lon="-0.26377">
        <ele>226.6</ele>
        <time>2016-03-12T16:08:29Z</time>
      </trkpt>
      <trkpt lat="48.35149" lon="-0.26395">
        <ele>226.4</ele>
        <time>2016-03-12T16:08:31Z</time>
      </trkpt>
      <trkpt lat="48.35142" lon="-0.26412">
        <ele>226.1</ele>
        <time>2016-03-12T16:08:33Z</time>
      </trkpt>
      <trkpt lat="48.35136" lon="-0.26428">
        <ele>225.8</ele>
        <time>2016-03-12T16:08:35Z</time>
      </trkpt>
      <trkpt lat="48.3513" lon="-0.26442">
        <ele>225.6</ele>
        <time>2016-03-12T16:08:37Z</time>
      </trkpt>
      <trkpt lat="48.35124" lon="-0.26458">
        <ele>225.4</ele>
        <time>2016-03-12T16:08:39Z</time>
      </trkpt>
      <trkpt lat="48.35119" lon="-0.26473">
        <ele>225.1</ele>
        <time>2016-03-12T16:08:41Z</time>
      </trkpt>
      <trkpt lat="48.35113" lon="-0.26486">
        <ele>224.9</ele>
        <time>2016-03-12T16:08:43Z</time>
      </trkpt>
      <trkpt lat="48.35109" lon="-0.26499">
        <ele>224.8</ele>
        <time>2016-03-12T16:08:45Z</time>
      </trkpt>
      <trkpt lat="48.35103" lon="-0.26513">
        <ele>224.7</ele>
        <time>2016-03-12T16:08:47Z</time>
      </trkpt>
      <trkpt lat="48.35097" lon="-0.26527">
        <ele>224.6</ele>
        <time>2016-03-12T16:08:49Z</time>
      </trkpt>
      <trkpt lat="48.35091" lon="-0.26541">
        <ele>224.5</ele>
        <time>2016-03-12T16:08:51Z</time>
      </trkpt>
      <trkpt lat="48.35085" lon="-0.26556">
        <ele>224.4</ele>
        <time>2016-03-12T16:08:53Z</time>
      </trkpt>
      <trkpt lat="48.35079" lon="-0.26571">
        <ele>224.4</ele>
        <time>2016-03-12T16:08:55Z</time>
      </trkpt>
      <trkpt lat="48.35073" lon="-0.26585">
        <ele>224.3</ele>
        <time>2016-03-12T16:08:57Z</time>
      </trkpt>
      <trkpt lat="48.35068" lon="-0.26598">
        <ele>224.2</ele>
        <time>2016-03-12T16:08:59Z</time>
      </trkpt>
      <trkpt lat="48.35064" lon="-0.26617">
        <ele>224.1</ele>
        <time>2016-03-12T16:09:02Z</time>
      </trkpt>
      <trkpt lat="48.35072" lon="-0.26633">
        <ele>223.9</ele>
        <time>2016-03-12T16:09:05Z</time>
      </trkpt>
      <trkpt lat="48.35072" lon="-0.26649">
        <ele>223.8</ele>
        <time>2016-03-12T16:09:08Z</time>
      </trkpt>
      <trkpt lat="48.35068" lon="-0.26668">
        <ele>223.8</ele>
        <time>2016-03-12T16:09:11Z</time>
      </trkpt>
      <trkpt lat="48.35065" lon="-0.26681">
        <ele>223.8</ele>
        <time>2016-03-12T16:09:13Z</time>
      </trkpt>
      <trkpt lat="48.35061" lon="-0.26695">
        <ele>223.8</ele>
        <time>2016-03-12T16:09:15Z</time>
      </trkpt>
      <trkpt lat="48.35055" lon="-0.26709">
        <ele>223.8</ele>
        <time>2016-03-12T16:09:17Z</time>
      </trkpt>
      <trkpt lat="48.35048" lon="-0.26723">
        <ele>223.8</ele>
        <time>2016-03-12T16:09:19Z</time>
      </trkpt>
      <trkpt lat="48.3504" lon="-0.26735">
        <ele>223.8</ele>
        <time>2016-03-12T16:09:21Z</time>
      </trkpt>
      <trkpt lat="48.3503" lon="-0.26747">
        <ele>223.8</ele>
        <time>2016-03-12T16:09:23Z</time>
      </trkpt>
      <trkpt lat="48.35018" lon="-0.26758">
        <ele>223.8</ele>
        <time>2016-03-12T16:09:25Z</time>
      </trkpt>
      <trkpt lat="48.35006" lon="-0.26771">
        <ele>223.7</ele>
        <time>2016-03-12T16:09:27Z</time>
      </trkpt>
      <trkpt lat="48.34996" lon="-0.26788">
        <ele>223.4</ele>
        <time>2016-03-12T16:09:29Z</time>
      </trkpt>
      <trkpt lat="48.34991" lon="-0.26808">
        <ele>223.1</ele>
        <time>2016-03-12T16:09:31Z</time>
      </trkpt>
      <trkpt lat="48.34986" lon="-0.26827">
        <ele>222.9</ele>
        <time>2016-03-12T16:09:33Z</time>
      </trkpt>
      <trkpt lat="48.34981" lon="-0.26845">
        <ele>222.7</ele>
        <time>2016-03-12T16:09:35Z</time>
      </trkpt>
      <trkpt lat="48.34976" lon="-0.26863">
        <ele>222.4</ele>
        <time>2016-03-12T16:09:37Z</time>
      </trkpt>
      <trkpt lat="48.34971" lon="-0.26881">
        <ele>222.2</ele>
        <time>2016-03-12T16:09:39Z</time>
      </trkpt>
      <trkpt lat="48.34966" lon="-0.269">
        <ele>222</ele>
        <time>2016-03-12T16:09:41Z</time>
      </trkpt>
      <trkpt lat="48.34963" lon="-0.2692">
        <ele>221.8</ele>
        <time>2016-03-12T16:09:43Z</time>
      </trkpt>
      <trkpt lat="48.34961" lon="-0.26939">
        <ele>221.6</ele>
        <time>2016-03-12T16:09:45Z</time>
      </trkpt>
      <trkpt lat="48.34958" lon="-0.26959">
        <ele>221.5</ele>
        <time>2016-03-12T16:09:47Z</time>
      </trkpt>
      <trkpt lat="48.34957" lon="-0.26978">
        <ele>221.3</ele>
        <time>2016-03-12T16:09:49Z</time>
      </trkpt>
      <trkpt lat="48.34955" lon="-0.26997">
        <ele>221.2</ele>
        <time>2016-03-12T16:09:51Z</time>
      </trkpt>
      <trkpt lat="48.34954" lon="-0.27015">
        <ele>221.1</ele>
        <time>2016-03-12T16:09:53Z</time>
      </trkpt>
      <trkpt lat="48.34954" lon="-0.27033">
        <ele>221</ele>
        <time>2016-03-12T16:09:55Z</time>
      </trkpt>
      <trkpt lat="48.34954" lon="-0.27051">
        <ele>220.9</ele>
        <time>2016-03-12T16:09:57Z</time>
      </trkpt>
      <trkpt lat="48.34953" lon="-0.27069">
        <ele>220.9</ele>
        <time>2016-03-12T16:09:59Z</time>
      </trkpt>
      <trkpt lat="48.34952" lon="-0.27087">
        <ele>220.8</ele>
        <time>2016-03-12T16:10:01Z</time>
      </trkpt>
      <trkpt lat="48.34952" lon="-0.27105">
        <ele>220.7</ele>
        <time>2016-03-12T16:10:03Z</time>
      </trkpt>
      <trkpt lat="48.34951" lon="-0.27123">
        <ele>220.7</ele>
        <time>2016-03-12T16:10:05Z</time>
      </trkpt>
      <trkpt lat="48.34949" lon="-0.2714">
        <ele>220.6</ele>
        <time>2016-03-12T16:10:07Z</time>
      </trkpt>
      <trkpt lat="48.34951" lon="-0.27156">
        <ele>220.6</ele>
        <time>2016-03-12T16:10:09Z</time>
      </trkpt>
      <trkpt lat="48.34959" lon="-0.27166">
        <ele>220.5</ele>
        <time>2016-03-12T16:10:11Z</time>
      </trkpt>
      <trkpt lat="48.34968" lon="-0.2718">
        <ele>220.5</ele>
        <time>2016-03-12T16:10:14Z</time>
      </trkpt>
      <trkpt lat="48.34964" lon="-0.27195">
        <ele>220.6</ele>
        <time>2016-03-12T16:10:17Z</time>
      </trkpt>
      <trkpt lat="48.34958" lon="-0.2721">
        <ele>220.6</ele>
        <time>2016-03-12T16:10:20Z</time>
      </trkpt>
      <trkpt lat="48.3495" lon="-0.27225">
        <ele>220.7</ele>
        <time>2016-03-12T16:10:23Z</time>
      </trkpt>
      <trkpt lat="48.34942" lon="-0.2724">
        <ele>220.8</ele>
        <time>2016-03-12T16:10:26Z</time>
      </trkpt>
      <trkpt lat="48.34936" lon="-0.27254">
        <ele>220.8</ele>
        <time>2016-03-12T16:10:29Z</time>
      </trkpt>
      <trkpt lat="48.34929" lon="-0.27267">
        <ele>220.8</ele>
        <time>2016-03-12T16:10:32Z</time>
      </trkpt>
      <trkpt lat="48.34923" lon="-0.27281">
        <ele>220.8</ele>
        <time>2016-03-12T16:10:35Z</time>
      </trkpt>
      <trkpt lat="48.34926" lon="-0.27295">
        <ele>220.8</ele>
        <time>2016-03-12T16:10:38Z</time>
      </trkpt>
      <trkpt lat="48.34934" lon="-0.27307">
        <ele>220.8</ele>
        <time>2016-03-12T16:10:41Z</time>
      </trkpt>
      <trkpt lat="48.34942" lon="-0.2732">
        <ele>220.8</ele>
        <time>2016-03-12T16:10:44Z</time>
      </trkpt>
      <trkpt lat="48.3495" lon="-0.27332">
        <ele>220.8</ele>
        <time>2016-03-12T16:10:47Z</time>
      </trkpt>
      <trkpt lat="48.34958" lon="-0.27343">
        <ele>220.9</ele>
        <time>2016-03-12T16:10:50Z</time>
      </trkpt>
      <trkpt lat="48.34968" lon="-0.27354">
        <ele>220.9</ele>
        <time>2016-03-12T16:10:53Z</time>
      </trkpt>
      <trkpt lat="48.34978" lon="-0.27366">
        <ele>221</ele>
        <time>2016-03-12T16:10:56Z</time>
      </trkpt>
      <trkpt lat="48.34985" lon="-0.27375">
        <ele>221</ele>
        <time>2016-03-12T16:10:58Z</time>
      </trkpt>
      <trkpt lat="48.34992" lon="-0.27383">
        <ele>221</ele>
        <time>2016-03-12T16:11:00Z</time>
      </trkpt>
      <trkpt lat="48.35" lon="-0.27391">
        <ele>221</ele>
        <time>2016-03-12T16:11:02Z</time>
      </trkpt>
      <trkpt lat="48.35007" lon="-0.27399">
        <ele>221</ele>
        <time>2016-03-12T16:11:04Z</time>
      </trkpt>
      <trkpt lat="48.35015" lon="-0.27407">
        <ele>221</ele>
        <time>2016-03-12T16:11:06Z</time>
      </trkpt>
      <trkpt lat="48.35023" lon="-0.27416">
        <ele>221</ele>
        <time>2016-03-12T16:11:08Z</time>
      </trkpt>
      <trkpt lat="48.35033" lon="-0.27427">
        <ele>220.9</ele>
        <time>2016-03-12T16:11:10Z</time>
      </trkpt>
      <trkpt lat="48.35043" lon="-0.27439">
        <ele>220.6</ele>
        <time>2016-03-12T16:11:12Z</time>
      </trkpt>
      <trkpt lat="48.35054" lon="-0.27454">
        <ele>220.1</ele>
        <time>2016-03-12T16:11:14Z</time>
      </trkpt>
      <trkpt lat="48.35064" lon="-0.27469">
        <ele>219.6</ele>
        <time>2016-03-12T16:11:16Z</time>
      </trkpt>
      <trkpt lat="48.35073" lon="-0.27485">
        <ele>219</ele>
        <time>2016-03-12T16:11:18Z</time>
      </trkpt>
      <trkpt lat="48.35082" lon="-0.27502">
        <ele>218.2</ele>
        <time>2016-03-12T16:11:20Z</time>
      </trkpt>
      <trkpt lat="48.3509" lon="-0.27523">
        <ele>217.4</ele>
        <time>2016-03-12T16:11:22Z</time>
      </trkpt>
      <trkpt lat="48.35099" lon="-0.27545">
        <ele>216.3</ele>
        <time>2016-03-12T16:11:24Z</time>
      </trkpt>
      <trkpt lat="48.35107" lon="-0.27567">
        <ele>215.3</ele>
        <time>2016-03-12T16:11:26Z</time>
      </trkpt>
      <trkpt lat="48.35113" lon="-0.27591">
        <ele>214.1</ele>
        <time>2016-03-12T16:11:28Z</time>
      </trkpt>
      <trkpt lat="48.35117" lon="-0.27612">
        <ele>212.5</ele>
        <time>2016-03-12T16:11:30Z</time>
      </trkpt>
      <trkpt lat="48.35118" lon="-0.27626">
        <ele>211.2</ele>
        <time>2016-03-12T16:11:32Z</time>
      </trkpt>
      <trkpt lat="48.35118" lon="-0.2763">
        <ele>208</ele>
        <time>2016-03-12T16:11:38Z</time>
      </trkpt>
    </trkseg>
  </trk>
</gpx>